<?xml version="1.0" encoding="UTF-8" standalone="no" ?>
<gpx xmlns="http://www.topografix.com/GPX/1/1" xmlns:xsi="http://www.w3.org/2001/XMLSchema-instance" xsi:schemaLocation="http://www.topografix.com/GPX/1/1 http://www.topografix.com/GPX/1/1/gpx.xsd" version="1.1" creator="VisuGPX - https://www.visugpx.com">
  <metadata>
    <name>Randonnée du 31 07 2011</name>
    <desc><![CDATA[Spicheren Chalet Gluck Auf lapplathal
31 07 2011
]]></desc>
  </metadata>
  <trk>
    <name><![CDATA[Randonnée du 31 07 2011_1]]></name>
    <trkseg>
      <trkpt lat="49.19093" lon="6.96487">
        <ele>313</ele>
        <time>2011-07-31T06:01:28Z</time>
      </trkpt>
      <trkpt lat="49.19091" lon="6.96445">
        <ele>313</ele>
        <time>2011-07-31T06:02:26Z</time>
      </trkpt>
      <trkpt lat="49.19089" lon="6.96443">
        <ele>313</ele>
        <time>2011-07-31T06:02:28Z</time>
      </trkpt>
      <trkpt lat="49.19087" lon="6.96441">
        <ele>313</ele>
        <time>2011-07-31T06:02:30Z</time>
      </trkpt>
      <trkpt lat="49.19086" lon="6.96439">
        <ele>313</ele>
        <time>2011-07-31T06:02:32Z</time>
      </trkpt>
      <trkpt lat="49.19085" lon="6.96437">
        <ele>313</ele>
        <time>2011-07-31T06:02:34Z</time>
      </trkpt>
      <trkpt lat="49.19083" lon="6.96435">
        <ele>313</ele>
        <time>2011-07-31T06:02:36Z</time>
      </trkpt>
      <trkpt lat="49.19081" lon="6.96433">
        <ele>313</ele>
        <time>2011-07-31T06:02:38Z</time>
      </trkpt>
      <trkpt lat="49.1908" lon="6.96431">
        <ele>313</ele>
        <time>2011-07-31T06:02:40Z</time>
      </trkpt>
      <trkpt lat="49.19078" lon="6.96429">
        <ele>313</ele>
        <time>2011-07-31T06:02:42Z</time>
      </trkpt>
      <trkpt lat="49.19077" lon="6.96427">
        <ele>313</ele>
        <time>2011-07-31T06:02:44Z</time>
      </trkpt>
      <trkpt lat="49.19075" lon="6.96425">
        <ele>313</ele>
        <time>2011-07-31T06:02:47Z</time>
      </trkpt>
      <trkpt lat="49.19074" lon="6.96423">
        <ele>313</ele>
        <time>2011-07-31T06:02:49Z</time>
      </trkpt>
      <trkpt lat="49.19072" lon="6.96422">
        <ele>313</ele>
        <time>2011-07-31T06:02:51Z</time>
      </trkpt>
      <trkpt lat="49.1907" lon="6.96421">
        <ele>313</ele>
        <time>2011-07-31T06:02:53Z</time>
      </trkpt>
      <trkpt lat="49.19068" lon="6.9642">
        <ele>313</ele>
        <time>2011-07-31T06:02:55Z</time>
      </trkpt>
      <trkpt lat="49.19067" lon="6.96419">
        <ele>313</ele>
        <time>2011-07-31T06:02:57Z</time>
      </trkpt>
      <trkpt lat="49.19064" lon="6.96417">
        <ele>313</ele>
        <time>2011-07-31T06:02:59Z</time>
      </trkpt>
      <trkpt lat="49.19063" lon="6.96417">
        <ele>313</ele>
        <time>2011-07-31T06:03:00Z</time>
      </trkpt>
      <trkpt lat="49.19062" lon="6.96415">
        <ele>313</ele>
        <time>2011-07-31T06:03:02Z</time>
      </trkpt>
      <trkpt lat="49.1906" lon="6.96412">
        <ele>313</ele>
        <time>2011-07-31T06:03:04Z</time>
      </trkpt>
      <trkpt lat="49.19059" lon="6.9641">
        <ele>313</ele>
        <time>2011-07-31T06:03:06Z</time>
      </trkpt>
      <trkpt lat="49.19059" lon="6.96407">
        <ele>313</ele>
        <time>2011-07-31T06:03:08Z</time>
      </trkpt>
      <trkpt lat="49.19058" lon="6.96404">
        <ele>313</ele>
        <time>2011-07-31T06:03:10Z</time>
      </trkpt>
      <trkpt lat="49.19057" lon="6.96402">
        <ele>313</ele>
        <time>2011-07-31T06:03:11Z</time>
      </trkpt>
      <trkpt lat="49.19057" lon="6.96399">
        <ele>313</ele>
        <time>2011-07-31T06:03:13Z</time>
      </trkpt>
      <trkpt lat="49.19057" lon="6.96397">
        <ele>313</ele>
        <time>2011-07-31T06:03:14Z</time>
      </trkpt>
      <trkpt lat="49.19056" lon="6.96395">
        <ele>313</ele>
        <time>2011-07-31T06:03:15Z</time>
      </trkpt>
      <trkpt lat="49.19056" lon="6.96394">
        <ele>313</ele>
        <time>2011-07-31T06:03:16Z</time>
      </trkpt>
      <trkpt lat="49.19056" lon="6.96392">
        <ele>313</ele>
        <time>2011-07-31T06:03:17Z</time>
      </trkpt>
      <trkpt lat="49.19055" lon="6.96389">
        <ele>313</ele>
        <time>2011-07-31T06:03:19Z</time>
      </trkpt>
      <trkpt lat="49.19054" lon="6.96388">
        <ele>313</ele>
        <time>2011-07-31T06:03:20Z</time>
      </trkpt>
      <trkpt lat="49.19054" lon="6.96386">
        <ele>313</ele>
        <time>2011-07-31T06:03:21Z</time>
      </trkpt>
      <trkpt lat="49.19054" lon="6.96384">
        <ele>313</ele>
        <time>2011-07-31T06:03:22Z</time>
      </trkpt>
      <trkpt lat="49.19053" lon="6.96383">
        <ele>313</ele>
        <time>2011-07-31T06:03:23Z</time>
      </trkpt>
      <trkpt lat="49.19052" lon="6.9638">
        <ele>313</ele>
        <time>2011-07-31T06:03:25Z</time>
      </trkpt>
      <trkpt lat="49.19051" lon="6.96377">
        <ele>313</ele>
        <time>2011-07-31T06:03:27Z</time>
      </trkpt>
      <trkpt lat="49.19051" lon="6.96374">
        <ele>313</ele>
        <time>2011-07-31T06:03:29Z</time>
      </trkpt>
      <trkpt lat="49.1905" lon="6.96373">
        <ele>313</ele>
        <time>2011-07-31T06:03:30Z</time>
      </trkpt>
      <trkpt lat="49.19049" lon="6.9637">
        <ele>313</ele>
        <time>2011-07-31T06:03:32Z</time>
      </trkpt>
      <trkpt lat="49.19048" lon="6.96367">
        <ele>313</ele>
        <time>2011-07-31T06:03:34Z</time>
      </trkpt>
      <trkpt lat="49.19047" lon="6.96364">
        <ele>314</ele>
        <time>2011-07-31T06:03:36Z</time>
      </trkpt>
      <trkpt lat="49.19046" lon="6.96361">
        <ele>314</ele>
        <time>2011-07-31T06:03:38Z</time>
      </trkpt>
      <trkpt lat="49.19045" lon="6.96358">
        <ele>314</ele>
        <time>2011-07-31T06:03:40Z</time>
      </trkpt>
      <trkpt lat="49.19045" lon="6.96356">
        <ele>314</ele>
        <time>2011-07-31T06:03:41Z</time>
      </trkpt>
      <trkpt lat="49.19044" lon="6.96353">
        <ele>314</ele>
        <time>2011-07-31T06:03:43Z</time>
      </trkpt>
      <trkpt lat="49.19044" lon="6.96352">
        <ele>315</ele>
        <time>2011-07-31T06:03:44Z</time>
      </trkpt>
      <trkpt lat="49.19045" lon="6.9635">
        <ele>315</ele>
        <time>2011-07-31T06:03:45Z</time>
      </trkpt>
      <trkpt lat="49.19046" lon="6.96347">
        <ele>315</ele>
        <time>2011-07-31T06:03:47Z</time>
      </trkpt>
      <trkpt lat="49.19046" lon="6.96345">
        <ele>315</ele>
        <time>2011-07-31T06:03:49Z</time>
      </trkpt>
      <trkpt lat="49.19047" lon="6.96342">
        <ele>315</ele>
        <time>2011-07-31T06:03:51Z</time>
      </trkpt>
      <trkpt lat="49.19048" lon="6.96339">
        <ele>315</ele>
        <time>2011-07-31T06:03:53Z</time>
      </trkpt>
      <trkpt lat="49.19048" lon="6.96338">
        <ele>315</ele>
        <time>2011-07-31T06:03:54Z</time>
      </trkpt>
      <trkpt lat="49.1905" lon="6.96335">
        <ele>315</ele>
        <time>2011-07-31T06:03:56Z</time>
      </trkpt>
      <trkpt lat="49.19051" lon="6.96333">
        <ele>315</ele>
        <time>2011-07-31T06:03:58Z</time>
      </trkpt>
      <trkpt lat="49.19053" lon="6.96329">
        <ele>315</ele>
        <time>2011-07-31T06:04:00Z</time>
      </trkpt>
      <trkpt lat="49.19054" lon="6.96326">
        <ele>315</ele>
        <time>2011-07-31T06:04:02Z</time>
      </trkpt>
      <trkpt lat="49.19055" lon="6.96323">
        <ele>315</ele>
        <time>2011-07-31T06:04:04Z</time>
      </trkpt>
      <trkpt lat="49.19056" lon="6.96321">
        <ele>315</ele>
        <time>2011-07-31T06:04:06Z</time>
      </trkpt>
      <trkpt lat="49.19057" lon="6.96319">
        <ele>315</ele>
        <time>2011-07-31T06:04:07Z</time>
      </trkpt>
      <trkpt lat="49.19058" lon="6.96317">
        <ele>315</ele>
        <time>2011-07-31T06:04:09Z</time>
      </trkpt>
      <trkpt lat="49.19059" lon="6.96314">
        <ele>315</ele>
        <time>2011-07-31T06:04:11Z</time>
      </trkpt>
      <trkpt lat="49.1906" lon="6.96311">
        <ele>315</ele>
        <time>2011-07-31T06:04:13Z</time>
      </trkpt>
      <trkpt lat="49.19061" lon="6.96309">
        <ele>315</ele>
        <time>2011-07-31T06:04:14Z</time>
      </trkpt>
      <trkpt lat="49.19062" lon="6.96306">
        <ele>315</ele>
        <time>2011-07-31T06:04:16Z</time>
      </trkpt>
      <trkpt lat="49.19063" lon="6.96304">
        <ele>315</ele>
        <time>2011-07-31T06:04:18Z</time>
      </trkpt>
      <trkpt lat="49.19064" lon="6.96302">
        <ele>315</ele>
        <time>2011-07-31T06:04:20Z</time>
      </trkpt>
      <trkpt lat="49.19066" lon="6.96299">
        <ele>315</ele>
        <time>2011-07-31T06:04:22Z</time>
      </trkpt>
      <trkpt lat="49.19067" lon="6.96296">
        <ele>315</ele>
        <time>2011-07-31T06:04:24Z</time>
      </trkpt>
      <trkpt lat="49.19069" lon="6.96293">
        <ele>315</ele>
        <time>2011-07-31T06:04:26Z</time>
      </trkpt>
      <trkpt lat="49.1907" lon="6.96291">
        <ele>315</ele>
        <time>2011-07-31T06:04:28Z</time>
      </trkpt>
      <trkpt lat="49.19072" lon="6.96288">
        <ele>315</ele>
        <time>2011-07-31T06:04:30Z</time>
      </trkpt>
      <trkpt lat="49.19073" lon="6.96286">
        <ele>315</ele>
        <time>2011-07-31T06:04:32Z</time>
      </trkpt>
      <trkpt lat="49.19074" lon="6.96283">
        <ele>315</ele>
        <time>2011-07-31T06:04:34Z</time>
      </trkpt>
      <trkpt lat="49.19076" lon="6.96281">
        <ele>315</ele>
        <time>2011-07-31T06:04:36Z</time>
      </trkpt>
      <trkpt lat="49.19077" lon="6.96278">
        <ele>315</ele>
        <time>2011-07-31T06:04:38Z</time>
      </trkpt>
      <trkpt lat="49.19079" lon="6.96276">
        <ele>315</ele>
        <time>2011-07-31T06:04:40Z</time>
      </trkpt>
      <trkpt lat="49.1908" lon="6.96272">
        <ele>315</ele>
        <time>2011-07-31T06:04:42Z</time>
      </trkpt>
      <trkpt lat="49.19081" lon="6.96269">
        <ele>315</ele>
        <time>2011-07-31T06:04:44Z</time>
      </trkpt>
      <trkpt lat="49.19082" lon="6.96268">
        <ele>315</ele>
        <time>2011-07-31T06:04:45Z</time>
      </trkpt>
      <trkpt lat="49.19083" lon="6.96265">
        <ele>315</ele>
        <time>2011-07-31T06:04:47Z</time>
      </trkpt>
      <trkpt lat="49.19085" lon="6.96263">
        <ele>315</ele>
        <time>2011-07-31T06:04:49Z</time>
      </trkpt>
      <trkpt lat="49.19086" lon="6.9626">
        <ele>315</ele>
        <time>2011-07-31T06:04:51Z</time>
      </trkpt>
      <trkpt lat="49.19087" lon="6.96257">
        <ele>315</ele>
        <time>2011-07-31T06:04:53Z</time>
      </trkpt>
      <trkpt lat="49.19088" lon="6.96255">
        <ele>315</ele>
        <time>2011-07-31T06:04:54Z</time>
      </trkpt>
      <trkpt lat="49.19089" lon="6.96253">
        <ele>315</ele>
        <time>2011-07-31T06:04:55Z</time>
      </trkpt>
      <trkpt lat="49.1909" lon="6.96252">
        <ele>315</ele>
        <time>2011-07-31T06:04:56Z</time>
      </trkpt>
      <trkpt lat="49.19092" lon="6.96249">
        <ele>315</ele>
        <time>2011-07-31T06:04:58Z</time>
      </trkpt>
      <trkpt lat="49.19093" lon="6.96246">
        <ele>315</ele>
        <time>2011-07-31T06:05:00Z</time>
      </trkpt>
      <trkpt lat="49.19095" lon="6.96244">
        <ele>315</ele>
        <time>2011-07-31T06:05:02Z</time>
      </trkpt>
      <trkpt lat="49.19096" lon="6.96242">
        <ele>315</ele>
        <time>2011-07-31T06:05:03Z</time>
      </trkpt>
      <trkpt lat="49.19096" lon="6.9624">
        <ele>315</ele>
        <time>2011-07-31T06:05:04Z</time>
      </trkpt>
      <trkpt lat="49.19098" lon="6.96237">
        <ele>315</ele>
        <time>2011-07-31T06:05:06Z</time>
      </trkpt>
      <trkpt lat="49.19099" lon="6.96236">
        <ele>316</ele>
        <time>2011-07-31T06:05:07Z</time>
      </trkpt>
      <trkpt lat="49.191" lon="6.96233">
        <ele>316</ele>
        <time>2011-07-31T06:05:09Z</time>
      </trkpt>
      <trkpt lat="49.19102" lon="6.9623">
        <ele>316</ele>
        <time>2011-07-31T06:05:11Z</time>
      </trkpt>
      <trkpt lat="49.19102" lon="6.96228">
        <ele>316</ele>
        <time>2011-07-31T06:05:12Z</time>
      </trkpt>
      <trkpt lat="49.19103" lon="6.96226">
        <ele>316</ele>
        <time>2011-07-31T06:05:13Z</time>
      </trkpt>
      <trkpt lat="49.19104" lon="6.96223">
        <ele>316</ele>
        <time>2011-07-31T06:05:15Z</time>
      </trkpt>
      <trkpt lat="49.19106" lon="6.9622">
        <ele>316</ele>
        <time>2011-07-31T06:05:17Z</time>
      </trkpt>
      <trkpt lat="49.19108" lon="6.96218">
        <ele>316</ele>
        <time>2011-07-31T06:05:19Z</time>
      </trkpt>
      <trkpt lat="49.19109" lon="6.96217">
        <ele>316</ele>
        <time>2011-07-31T06:05:20Z</time>
      </trkpt>
      <trkpt lat="49.1911" lon="6.96216">
        <ele>316</ele>
        <time>2011-07-31T06:05:21Z</time>
      </trkpt>
      <trkpt lat="49.19112" lon="6.96215">
        <ele>316</ele>
        <time>2011-07-31T06:05:22Z</time>
      </trkpt>
      <trkpt lat="49.19113" lon="6.96213">
        <ele>316</ele>
        <time>2011-07-31T06:05:23Z</time>
      </trkpt>
      <trkpt lat="49.19115" lon="6.96211">
        <ele>316</ele>
        <time>2011-07-31T06:05:25Z</time>
      </trkpt>
      <trkpt lat="49.19116" lon="6.96208">
        <ele>316</ele>
        <time>2011-07-31T06:05:27Z</time>
      </trkpt>
      <trkpt lat="49.19118" lon="6.96206">
        <ele>316</ele>
        <time>2011-07-31T06:05:29Z</time>
      </trkpt>
      <trkpt lat="49.19119" lon="6.96203">
        <ele>316</ele>
        <time>2011-07-31T06:05:31Z</time>
      </trkpt>
      <trkpt lat="49.1912" lon="6.96201">
        <ele>316</ele>
        <time>2011-07-31T06:05:32Z</time>
      </trkpt>
      <trkpt lat="49.1912" lon="6.96199">
        <ele>316</ele>
        <time>2011-07-31T06:05:33Z</time>
      </trkpt>
      <trkpt lat="49.19122" lon="6.96197">
        <ele>316</ele>
        <time>2011-07-31T06:05:35Z</time>
      </trkpt>
      <trkpt lat="49.19122" lon="6.96195">
        <ele>316</ele>
        <time>2011-07-31T06:05:36Z</time>
      </trkpt>
      <trkpt lat="49.19123" lon="6.96193">
        <ele>316</ele>
        <time>2011-07-31T06:05:37Z</time>
      </trkpt>
      <trkpt lat="49.19123" lon="6.96192">
        <ele>316</ele>
        <time>2011-07-31T06:05:38Z</time>
      </trkpt>
      <trkpt lat="49.19122" lon="6.96189">
        <ele>316</ele>
        <time>2011-07-31T06:05:40Z</time>
      </trkpt>
      <trkpt lat="49.19122" lon="6.96186">
        <ele>316</ele>
        <time>2011-07-31T06:05:42Z</time>
      </trkpt>
      <trkpt lat="49.1912" lon="6.96184">
        <ele>317</ele>
        <time>2011-07-31T06:05:44Z</time>
      </trkpt>
      <trkpt lat="49.19119" lon="6.96182">
        <ele>317</ele>
        <time>2011-07-31T06:05:46Z</time>
      </trkpt>
      <trkpt lat="49.19117" lon="6.96179">
        <ele>318</ele>
        <time>2011-07-31T06:05:48Z</time>
      </trkpt>
      <trkpt lat="49.19116" lon="6.96177">
        <ele>319</ele>
        <time>2011-07-31T06:05:50Z</time>
      </trkpt>
      <trkpt lat="49.19114" lon="6.96175">
        <ele>319</ele>
        <time>2011-07-31T06:05:52Z</time>
      </trkpt>
      <trkpt lat="49.19112" lon="6.96173">
        <ele>320</ele>
        <time>2011-07-31T06:05:54Z</time>
      </trkpt>
      <trkpt lat="49.1911" lon="6.9617">
        <ele>321</ele>
        <time>2011-07-31T06:05:56Z</time>
      </trkpt>
      <trkpt lat="49.19109" lon="6.96169">
        <ele>321</ele>
        <time>2011-07-31T06:05:57Z</time>
      </trkpt>
      <trkpt lat="49.19107" lon="6.96167">
        <ele>321</ele>
        <time>2011-07-31T06:05:59Z</time>
      </trkpt>
      <trkpt lat="49.19105" lon="6.96164">
        <ele>322</ele>
        <time>2011-07-31T06:06:01Z</time>
      </trkpt>
      <trkpt lat="49.19103" lon="6.96162">
        <ele>323</ele>
        <time>2011-07-31T06:06:03Z</time>
      </trkpt>
      <trkpt lat="49.19101" lon="6.9616">
        <ele>325</ele>
        <time>2011-07-31T06:06:05Z</time>
      </trkpt>
      <trkpt lat="49.191" lon="6.96159">
        <ele>326</ele>
        <time>2011-07-31T06:06:07Z</time>
      </trkpt>
      <trkpt lat="49.19098" lon="6.96157">
        <ele>327</ele>
        <time>2011-07-31T06:06:09Z</time>
      </trkpt>
      <trkpt lat="49.19097" lon="6.96155">
        <ele>327</ele>
        <time>2011-07-31T06:06:11Z</time>
      </trkpt>
      <trkpt lat="49.19095" lon="6.96153">
        <ele>327</ele>
        <time>2011-07-31T06:06:13Z</time>
      </trkpt>
      <trkpt lat="49.19093" lon="6.9615">
        <ele>327</ele>
        <time>2011-07-31T06:06:15Z</time>
      </trkpt>
      <trkpt lat="49.19092" lon="6.96148">
        <ele>328</ele>
        <time>2011-07-31T06:06:17Z</time>
      </trkpt>
      <trkpt lat="49.1909" lon="6.96145">
        <ele>328</ele>
        <time>2011-07-31T06:06:19Z</time>
      </trkpt>
      <trkpt lat="49.19089" lon="6.96143">
        <ele>328</ele>
        <time>2011-07-31T06:06:20Z</time>
      </trkpt>
      <trkpt lat="49.19088" lon="6.96141">
        <ele>330</ele>
        <time>2011-07-31T06:06:22Z</time>
      </trkpt>
      <trkpt lat="49.19087" lon="6.96138">
        <ele>330</ele>
        <time>2011-07-31T06:06:24Z</time>
      </trkpt>
      <trkpt lat="49.19086" lon="6.96136">
        <ele>331</ele>
        <time>2011-07-31T06:06:25Z</time>
      </trkpt>
      <trkpt lat="49.19085" lon="6.96134">
        <ele>331</ele>
        <time>2011-07-31T06:06:27Z</time>
      </trkpt>
      <trkpt lat="49.19084" lon="6.96131">
        <ele>331</ele>
        <time>2011-07-31T06:06:29Z</time>
      </trkpt>
      <trkpt lat="49.19083" lon="6.96128">
        <ele>331</ele>
        <time>2011-07-31T06:06:31Z</time>
      </trkpt>
      <trkpt lat="49.19082" lon="6.96125">
        <ele>331</ele>
        <time>2011-07-31T06:06:33Z</time>
      </trkpt>
      <trkpt lat="49.19081" lon="6.96123">
        <ele>331</ele>
        <time>2011-07-31T06:06:35Z</time>
      </trkpt>
      <trkpt lat="49.19079" lon="6.9612">
        <ele>331</ele>
        <time>2011-07-31T06:06:37Z</time>
      </trkpt>
      <trkpt lat="49.19078" lon="6.96117">
        <ele>331</ele>
        <time>2011-07-31T06:06:39Z</time>
      </trkpt>
      <trkpt lat="49.19077" lon="6.96114">
        <ele>331</ele>
        <time>2011-07-31T06:06:41Z</time>
      </trkpt>
      <trkpt lat="49.19075" lon="6.96111">
        <ele>331</ele>
        <time>2011-07-31T06:06:43Z</time>
      </trkpt>
      <trkpt lat="49.19074" lon="6.96108">
        <ele>331</ele>
        <time>2011-07-31T06:06:45Z</time>
      </trkpt>
      <trkpt lat="49.19073" lon="6.96107">
        <ele>331</ele>
        <time>2011-07-31T06:06:46Z</time>
      </trkpt>
      <trkpt lat="49.19072" lon="6.96105">
        <ele>332</ele>
        <time>2011-07-31T06:06:47Z</time>
      </trkpt>
      <trkpt lat="49.19072" lon="6.96103">
        <ele>332</ele>
        <time>2011-07-31T06:06:48Z</time>
      </trkpt>
      <trkpt lat="49.1907" lon="6.96101">
        <ele>332</ele>
        <time>2011-07-31T06:06:50Z</time>
      </trkpt>
      <trkpt lat="49.19069" lon="6.96098">
        <ele>332</ele>
        <time>2011-07-31T06:06:52Z</time>
      </trkpt>
      <trkpt lat="49.19067" lon="6.96094">
        <ele>332</ele>
        <time>2011-07-31T06:06:54Z</time>
      </trkpt>
      <trkpt lat="49.19067" lon="6.96093">
        <ele>332</ele>
        <time>2011-07-31T06:06:55Z</time>
      </trkpt>
      <trkpt lat="49.19065" lon="6.9609">
        <ele>332</ele>
        <time>2011-07-31T06:06:57Z</time>
      </trkpt>
      <trkpt lat="49.19063" lon="6.96088">
        <ele>333</ele>
        <time>2011-07-31T06:06:59Z</time>
      </trkpt>
      <trkpt lat="49.19062" lon="6.96086">
        <ele>333</ele>
        <time>2011-07-31T06:07:00Z</time>
      </trkpt>
      <trkpt lat="49.19062" lon="6.96084">
        <ele>333</ele>
        <time>2011-07-31T06:07:01Z</time>
      </trkpt>
      <trkpt lat="49.1906" lon="6.96082">
        <ele>333</ele>
        <time>2011-07-31T06:07:03Z</time>
      </trkpt>
      <trkpt lat="49.19058" lon="6.9608">
        <ele>334</ele>
        <time>2011-07-31T06:07:05Z</time>
      </trkpt>
      <trkpt lat="49.19056" lon="6.96078">
        <ele>334</ele>
        <time>2011-07-31T06:07:07Z</time>
      </trkpt>
      <trkpt lat="49.19055" lon="6.96077">
        <ele>334</ele>
        <time>2011-07-31T06:07:08Z</time>
      </trkpt>
      <trkpt lat="49.19053" lon="6.96075">
        <ele>334</ele>
        <time>2011-07-31T06:07:10Z</time>
      </trkpt>
      <trkpt lat="49.19052" lon="6.96074">
        <ele>334</ele>
        <time>2011-07-31T06:07:11Z</time>
      </trkpt>
      <trkpt lat="49.1905" lon="6.96072">
        <ele>334</ele>
        <time>2011-07-31T06:07:13Z</time>
      </trkpt>
      <trkpt lat="49.19048" lon="6.9607">
        <ele>334</ele>
        <time>2011-07-31T06:07:15Z</time>
      </trkpt>
      <trkpt lat="49.19046" lon="6.96067">
        <ele>334</ele>
        <time>2011-07-31T06:07:17Z</time>
      </trkpt>
      <trkpt lat="49.19044" lon="6.96066">
        <ele>334</ele>
        <time>2011-07-31T06:07:19Z</time>
      </trkpt>
      <trkpt lat="49.19043" lon="6.96064">
        <ele>335</ele>
        <time>2011-07-31T06:07:21Z</time>
      </trkpt>
      <trkpt lat="49.19041" lon="6.96063">
        <ele>335</ele>
        <time>2011-07-31T06:07:22Z</time>
      </trkpt>
      <trkpt lat="49.19039" lon="6.96061">
        <ele>335</ele>
        <time>2011-07-31T06:07:24Z</time>
      </trkpt>
      <trkpt lat="49.19038" lon="6.9606">
        <ele>335</ele>
        <time>2011-07-31T06:07:25Z</time>
      </trkpt>
      <trkpt lat="49.19036" lon="6.96058">
        <ele>335</ele>
        <time>2011-07-31T06:07:27Z</time>
      </trkpt>
      <trkpt lat="49.19034" lon="6.96056">
        <ele>335</ele>
        <time>2011-07-31T06:07:29Z</time>
      </trkpt>
      <trkpt lat="49.19032" lon="6.96054">
        <ele>336</ele>
        <time>2011-07-31T06:07:31Z</time>
      </trkpt>
      <trkpt lat="49.1903" lon="6.96051">
        <ele>336</ele>
        <time>2011-07-31T06:07:33Z</time>
      </trkpt>
      <trkpt lat="49.19028" lon="6.96049">
        <ele>336</ele>
        <time>2011-07-31T06:07:35Z</time>
      </trkpt>
      <trkpt lat="49.19027" lon="6.96047">
        <ele>336</ele>
        <time>2011-07-31T06:07:37Z</time>
      </trkpt>
      <trkpt lat="49.19025" lon="6.96046">
        <ele>336</ele>
        <time>2011-07-31T06:07:38Z</time>
      </trkpt>
      <trkpt lat="49.19024" lon="6.96044">
        <ele>336</ele>
        <time>2011-07-31T06:07:40Z</time>
      </trkpt>
      <trkpt lat="49.19022" lon="6.96043">
        <ele>336</ele>
        <time>2011-07-31T06:07:41Z</time>
      </trkpt>
      <trkpt lat="49.1902" lon="6.9604">
        <ele>336</ele>
        <time>2011-07-31T06:07:43Z</time>
      </trkpt>
      <trkpt lat="49.19019" lon="6.9604">
        <ele>336</ele>
        <time>2011-07-31T06:07:44Z</time>
      </trkpt>
      <trkpt lat="49.19018" lon="6.96039">
        <ele>336</ele>
        <time>2011-07-31T06:07:45Z</time>
      </trkpt>
      <trkpt lat="49.19016" lon="6.96037">
        <ele>337</ele>
        <time>2011-07-31T06:07:47Z</time>
      </trkpt>
      <trkpt lat="49.19014" lon="6.96036">
        <ele>337</ele>
        <time>2011-07-31T06:07:49Z</time>
      </trkpt>
      <trkpt lat="49.19012" lon="6.96033">
        <ele>337</ele>
        <time>2011-07-31T06:07:51Z</time>
      </trkpt>
      <trkpt lat="49.19009" lon="6.96031">
        <ele>337</ele>
        <time>2011-07-31T06:07:53Z</time>
      </trkpt>
      <trkpt lat="49.19008" lon="6.96029">
        <ele>337</ele>
        <time>2011-07-31T06:07:55Z</time>
      </trkpt>
      <trkpt lat="49.19006" lon="6.96027">
        <ele>337</ele>
        <time>2011-07-31T06:07:57Z</time>
      </trkpt>
      <trkpt lat="49.19004" lon="6.96025">
        <ele>337</ele>
        <time>2011-07-31T06:07:59Z</time>
      </trkpt>
      <trkpt lat="49.19002" lon="6.96023">
        <ele>337</ele>
        <time>2011-07-31T06:08:01Z</time>
      </trkpt>
      <trkpt lat="49.19" lon="6.96021">
        <ele>337</ele>
        <time>2011-07-31T06:08:03Z</time>
      </trkpt>
      <trkpt lat="49.18999" lon="6.9602">
        <ele>337</ele>
        <time>2011-07-31T06:08:04Z</time>
      </trkpt>
      <trkpt lat="49.18997" lon="6.96018">
        <ele>337</ele>
        <time>2011-07-31T06:08:06Z</time>
      </trkpt>
      <trkpt lat="49.18996" lon="6.96016">
        <ele>337</ele>
        <time>2011-07-31T06:08:08Z</time>
      </trkpt>
      <trkpt lat="49.18994" lon="6.96015">
        <ele>337</ele>
        <time>2011-07-31T06:08:09Z</time>
      </trkpt>
      <trkpt lat="49.18993" lon="6.96014">
        <ele>338</ele>
        <time>2011-07-31T06:08:10Z</time>
      </trkpt>
      <trkpt lat="49.18991" lon="6.96012">
        <ele>338</ele>
        <time>2011-07-31T06:08:12Z</time>
      </trkpt>
      <trkpt lat="49.18989" lon="6.96009">
        <ele>338</ele>
        <time>2011-07-31T06:08:14Z</time>
      </trkpt>
      <trkpt lat="49.18988" lon="6.96006">
        <ele>338</ele>
        <time>2011-07-31T06:08:16Z</time>
      </trkpt>
      <trkpt lat="49.18986" lon="6.96003">
        <ele>338</ele>
        <time>2011-07-31T06:08:18Z</time>
      </trkpt>
      <trkpt lat="49.18985" lon="6.96002">
        <ele>338</ele>
        <time>2011-07-31T06:08:19Z</time>
      </trkpt>
      <trkpt lat="49.18983" lon="6.96">
        <ele>338</ele>
        <time>2011-07-31T06:08:21Z</time>
      </trkpt>
      <trkpt lat="49.18982" lon="6.95997">
        <ele>338</ele>
        <time>2011-07-31T06:08:23Z</time>
      </trkpt>
      <trkpt lat="49.1898" lon="6.95995">
        <ele>338</ele>
        <time>2011-07-31T06:08:25Z</time>
      </trkpt>
      <trkpt lat="49.18978" lon="6.95993">
        <ele>338</ele>
        <time>2011-07-31T06:08:27Z</time>
      </trkpt>
      <trkpt lat="49.18976" lon="6.95991">
        <ele>339</ele>
        <time>2011-07-31T06:08:29Z</time>
      </trkpt>
      <trkpt lat="49.18975" lon="6.9599">
        <ele>339</ele>
        <time>2011-07-31T06:08:31Z</time>
      </trkpt>
      <trkpt lat="49.18973" lon="6.95988">
        <ele>339</ele>
        <time>2011-07-31T06:08:33Z</time>
      </trkpt>
      <trkpt lat="49.18972" lon="6.95986">
        <ele>339</ele>
        <time>2011-07-31T06:08:35Z</time>
      </trkpt>
      <trkpt lat="49.1897" lon="6.95985">
        <ele>339</ele>
        <time>2011-07-31T06:08:37Z</time>
      </trkpt>
      <trkpt lat="49.18969" lon="6.95984">
        <ele>339</ele>
        <time>2011-07-31T06:08:39Z</time>
      </trkpt>
      <trkpt lat="49.18967" lon="6.95982">
        <ele>339</ele>
        <time>2011-07-31T06:08:41Z</time>
      </trkpt>
      <trkpt lat="49.18965" lon="6.9598">
        <ele>339</ele>
        <time>2011-07-31T06:08:43Z</time>
      </trkpt>
      <trkpt lat="49.18963" lon="6.95978">
        <ele>339</ele>
        <time>2011-07-31T06:08:45Z</time>
      </trkpt>
      <trkpt lat="49.18961" lon="6.95977">
        <ele>339</ele>
        <time>2011-07-31T06:08:46Z</time>
      </trkpt>
      <trkpt lat="49.18959" lon="6.95976">
        <ele>339</ele>
        <time>2011-07-31T06:08:48Z</time>
      </trkpt>
      <trkpt lat="49.18957" lon="6.95974">
        <ele>339</ele>
        <time>2011-07-31T06:08:50Z</time>
      </trkpt>
      <trkpt lat="49.18955" lon="6.95972">
        <ele>339</ele>
        <time>2011-07-31T06:08:52Z</time>
      </trkpt>
      <trkpt lat="49.18953" lon="6.95971">
        <ele>339</ele>
        <time>2011-07-31T06:08:54Z</time>
      </trkpt>
      <trkpt lat="49.18952" lon="6.9597">
        <ele>339</ele>
        <time>2011-07-31T06:08:55Z</time>
      </trkpt>
      <trkpt lat="49.1895" lon="6.95967">
        <ele>339</ele>
        <time>2011-07-31T06:08:57Z</time>
      </trkpt>
      <trkpt lat="49.18948" lon="6.95966">
        <ele>339</ele>
        <time>2011-07-31T06:08:59Z</time>
      </trkpt>
      <trkpt lat="49.18947" lon="6.95965">
        <ele>339</ele>
        <time>2011-07-31T06:09:00Z</time>
      </trkpt>
      <trkpt lat="49.18945" lon="6.95963">
        <ele>339</ele>
        <time>2011-07-31T06:09:02Z</time>
      </trkpt>
      <trkpt lat="49.18943" lon="6.95961">
        <ele>339</ele>
        <time>2011-07-31T06:09:04Z</time>
      </trkpt>
      <trkpt lat="49.18941" lon="6.95959">
        <ele>339</ele>
        <time>2011-07-31T06:09:06Z</time>
      </trkpt>
      <trkpt lat="49.18939" lon="6.95958">
        <ele>339</ele>
        <time>2011-07-31T06:09:08Z</time>
      </trkpt>
      <trkpt lat="49.18938" lon="6.95957">
        <ele>339</ele>
        <time>2011-07-31T06:09:09Z</time>
      </trkpt>
      <trkpt lat="49.18936" lon="6.95957">
        <ele>340</ele>
        <time>2011-07-31T06:09:10Z</time>
      </trkpt>
      <trkpt lat="49.18934" lon="6.95955">
        <ele>340</ele>
        <time>2011-07-31T06:09:12Z</time>
      </trkpt>
      <trkpt lat="49.18932" lon="6.95954">
        <ele>340</ele>
        <time>2011-07-31T06:09:14Z</time>
      </trkpt>
      <trkpt lat="49.18931" lon="6.95954">
        <ele>340</ele>
        <time>2011-07-31T06:09:15Z</time>
      </trkpt>
      <trkpt lat="49.1893" lon="6.95953">
        <ele>340</ele>
        <time>2011-07-31T06:09:16Z</time>
      </trkpt>
      <trkpt lat="49.18929" lon="6.95954">
        <ele>340</ele>
        <time>2011-07-31T06:09:17Z</time>
      </trkpt>
      <trkpt lat="49.18927" lon="6.95954">
        <ele>340</ele>
        <time>2011-07-31T06:09:18Z</time>
      </trkpt>
      <trkpt lat="49.18925" lon="6.95955">
        <ele>340</ele>
        <time>2011-07-31T06:09:20Z</time>
      </trkpt>
      <trkpt lat="49.18924" lon="6.95956">
        <ele>340</ele>
        <time>2011-07-31T06:09:22Z</time>
      </trkpt>
      <trkpt lat="49.18922" lon="6.95959">
        <ele>340</ele>
        <time>2011-07-31T06:09:24Z</time>
      </trkpt>
      <trkpt lat="49.18921" lon="6.95961">
        <ele>340</ele>
        <time>2011-07-31T06:09:26Z</time>
      </trkpt>
      <trkpt lat="49.18919" lon="6.95963">
        <ele>340</ele>
        <time>2011-07-31T06:09:28Z</time>
      </trkpt>
      <trkpt lat="49.18918" lon="6.95966">
        <ele>340</ele>
        <time>2011-07-31T06:09:30Z</time>
      </trkpt>
      <trkpt lat="49.18917" lon="6.95969">
        <ele>340</ele>
        <time>2011-07-31T06:09:32Z</time>
      </trkpt>
      <trkpt lat="49.18916" lon="6.95972">
        <ele>340</ele>
        <time>2011-07-31T06:09:34Z</time>
      </trkpt>
      <trkpt lat="49.18914" lon="6.95974">
        <ele>340</ele>
        <time>2011-07-31T06:09:36Z</time>
      </trkpt>
      <trkpt lat="49.18914" lon="6.95977">
        <ele>341</ele>
        <time>2011-07-31T06:09:38Z</time>
      </trkpt>
      <trkpt lat="49.18913" lon="6.95979">
        <ele>341</ele>
        <time>2011-07-31T06:09:40Z</time>
      </trkpt>
      <trkpt lat="49.18911" lon="6.95982">
        <ele>341</ele>
        <time>2011-07-31T06:09:42Z</time>
      </trkpt>
      <trkpt lat="49.18911" lon="6.95984">
        <ele>341</ele>
        <time>2011-07-31T06:09:44Z</time>
      </trkpt>
      <trkpt lat="49.1891" lon="6.95987">
        <ele>342</ele>
        <time>2011-07-31T06:09:46Z</time>
      </trkpt>
      <trkpt lat="49.18908" lon="6.95989">
        <ele>342</ele>
        <time>2011-07-31T06:09:48Z</time>
      </trkpt>
      <trkpt lat="49.18908" lon="6.95992">
        <ele>342</ele>
        <time>2011-07-31T06:09:50Z</time>
      </trkpt>
      <trkpt lat="49.18907" lon="6.95995">
        <ele>342</ele>
        <time>2011-07-31T06:09:52Z</time>
      </trkpt>
      <trkpt lat="49.18906" lon="6.95997">
        <ele>342</ele>
        <time>2011-07-31T06:09:54Z</time>
      </trkpt>
      <trkpt lat="49.18905" lon="6.95999">
        <ele>342</ele>
        <time>2011-07-31T06:09:56Z</time>
      </trkpt>
      <trkpt lat="49.18904" lon="6.96002">
        <ele>342</ele>
        <time>2011-07-31T06:09:58Z</time>
      </trkpt>
      <trkpt lat="49.18904" lon="6.96004">
        <ele>342</ele>
        <time>2011-07-31T06:10:00Z</time>
      </trkpt>
      <trkpt lat="49.18903" lon="6.96006">
        <ele>342</ele>
        <time>2011-07-31T06:10:03Z</time>
      </trkpt>
      <trkpt lat="49.18901" lon="6.96006">
        <ele>342</ele>
        <time>2011-07-31T06:10:06Z</time>
      </trkpt>
      <trkpt lat="49.189" lon="6.96005">
        <ele>342</ele>
        <time>2011-07-31T06:10:08Z</time>
      </trkpt>
      <trkpt lat="49.18898" lon="6.96004">
        <ele>342</ele>
        <time>2011-07-31T06:10:10Z</time>
      </trkpt>
      <trkpt lat="49.18896" lon="6.96003">
        <ele>342</ele>
        <time>2011-07-31T06:10:12Z</time>
      </trkpt>
      <trkpt lat="49.18894" lon="6.96001">
        <ele>342</ele>
        <time>2011-07-31T06:10:14Z</time>
      </trkpt>
      <trkpt lat="49.18892" lon="6.96">
        <ele>342</ele>
        <time>2011-07-31T06:10:16Z</time>
      </trkpt>
      <trkpt lat="49.1889" lon="6.95999">
        <ele>342</ele>
        <time>2011-07-31T06:10:18Z</time>
      </trkpt>
      <trkpt lat="49.18889" lon="6.95998">
        <ele>342</ele>
        <time>2011-07-31T06:10:19Z</time>
      </trkpt>
      <trkpt lat="49.18887" lon="6.95996">
        <ele>342</ele>
        <time>2011-07-31T06:10:21Z</time>
      </trkpt>
      <trkpt lat="49.18885" lon="6.95995">
        <ele>342</ele>
        <time>2011-07-31T06:10:23Z</time>
      </trkpt>
      <trkpt lat="49.18884" lon="6.95993">
        <ele>342</ele>
        <time>2011-07-31T06:10:25Z</time>
      </trkpt>
      <trkpt lat="49.18882" lon="6.95992">
        <ele>342</ele>
        <time>2011-07-31T06:10:27Z</time>
      </trkpt>
      <trkpt lat="49.1888" lon="6.95991">
        <ele>342</ele>
        <time>2011-07-31T06:10:28Z</time>
      </trkpt>
      <trkpt lat="49.18879" lon="6.95989">
        <ele>342</ele>
        <time>2011-07-31T06:10:30Z</time>
      </trkpt>
      <trkpt lat="49.18877" lon="6.95988">
        <ele>342</ele>
        <time>2011-07-31T06:10:32Z</time>
      </trkpt>
      <trkpt lat="49.18875" lon="6.95985">
        <ele>342</ele>
        <time>2011-07-31T06:10:34Z</time>
      </trkpt>
      <trkpt lat="49.18874" lon="6.95985">
        <ele>342</ele>
        <time>2011-07-31T06:10:35Z</time>
      </trkpt>
      <trkpt lat="49.18873" lon="6.95985">
        <ele>342</ele>
        <time>2011-07-31T06:10:36Z</time>
      </trkpt>
      <trkpt lat="49.18871" lon="6.95984">
        <ele>342</ele>
        <time>2011-07-31T06:10:38Z</time>
      </trkpt>
      <trkpt lat="49.18869" lon="6.95982">
        <ele>342</ele>
        <time>2011-07-31T06:10:40Z</time>
      </trkpt>
      <trkpt lat="49.18867" lon="6.9598">
        <ele>342</ele>
        <time>2011-07-31T06:10:42Z</time>
      </trkpt>
      <trkpt lat="49.18865" lon="6.95979">
        <ele>342</ele>
        <time>2011-07-31T06:10:44Z</time>
      </trkpt>
      <trkpt lat="49.18863" lon="6.95977">
        <ele>342</ele>
        <time>2011-07-31T06:10:46Z</time>
      </trkpt>
      <trkpt lat="49.18862" lon="6.95976">
        <ele>342</ele>
        <time>2011-07-31T06:10:47Z</time>
      </trkpt>
      <trkpt lat="49.1886" lon="6.95974">
        <ele>342</ele>
        <time>2011-07-31T06:10:49Z</time>
      </trkpt>
      <trkpt lat="49.18858" lon="6.95973">
        <ele>342</ele>
        <time>2011-07-31T06:10:51Z</time>
      </trkpt>
      <trkpt lat="49.18856" lon="6.95972">
        <ele>342</ele>
        <time>2011-07-31T06:10:52Z</time>
      </trkpt>
      <trkpt lat="49.18855" lon="6.95971">
        <ele>342</ele>
        <time>2011-07-31T06:10:53Z</time>
      </trkpt>
      <trkpt lat="49.18854" lon="6.95969">
        <ele>342</ele>
        <time>2011-07-31T06:10:55Z</time>
      </trkpt>
      <trkpt lat="49.18852" lon="6.95967">
        <ele>342</ele>
        <time>2011-07-31T06:10:57Z</time>
      </trkpt>
      <trkpt lat="49.1885" lon="6.95966">
        <ele>342</ele>
        <time>2011-07-31T06:10:59Z</time>
      </trkpt>
      <trkpt lat="49.18848" lon="6.95964">
        <ele>342</ele>
        <time>2011-07-31T06:11:01Z</time>
      </trkpt>
      <trkpt lat="49.18846" lon="6.95962">
        <ele>342</ele>
        <time>2011-07-31T06:11:03Z</time>
      </trkpt>
      <trkpt lat="49.18844" lon="6.95961">
        <ele>342</ele>
        <time>2011-07-31T06:11:05Z</time>
      </trkpt>
      <trkpt lat="49.18842" lon="6.95959">
        <ele>342</ele>
        <time>2011-07-31T06:11:07Z</time>
      </trkpt>
      <trkpt lat="49.1884" lon="6.95957">
        <ele>342</ele>
        <time>2011-07-31T06:11:09Z</time>
      </trkpt>
      <trkpt lat="49.18839" lon="6.95956">
        <ele>343</ele>
        <time>2011-07-31T06:11:11Z</time>
      </trkpt>
      <trkpt lat="49.18837" lon="6.95954">
        <ele>343</ele>
        <time>2011-07-31T06:11:13Z</time>
      </trkpt>
      <trkpt lat="49.18836" lon="6.95953">
        <ele>343</ele>
        <time>2011-07-31T06:11:14Z</time>
      </trkpt>
      <trkpt lat="49.18834" lon="6.95952">
        <ele>343</ele>
        <time>2011-07-31T06:11:16Z</time>
      </trkpt>
      <trkpt lat="49.18832" lon="6.9595">
        <ele>343</ele>
        <time>2011-07-31T06:11:18Z</time>
      </trkpt>
      <trkpt lat="49.1883" lon="6.95948">
        <ele>343</ele>
        <time>2011-07-31T06:11:20Z</time>
      </trkpt>
      <trkpt lat="49.18828" lon="6.95947">
        <ele>343</ele>
        <time>2011-07-31T06:11:22Z</time>
      </trkpt>
      <trkpt lat="49.18826" lon="6.95947">
        <ele>343</ele>
        <time>2011-07-31T06:11:24Z</time>
      </trkpt>
      <trkpt lat="49.18824" lon="6.95946">
        <ele>344</ele>
        <time>2011-07-31T06:11:26Z</time>
      </trkpt>
      <trkpt lat="49.18823" lon="6.95947">
        <ele>344</ele>
        <time>2011-07-31T06:11:28Z</time>
      </trkpt>
      <trkpt lat="49.18821" lon="6.95949">
        <ele>344</ele>
        <time>2011-07-31T06:11:30Z</time>
      </trkpt>
      <trkpt lat="49.1882" lon="6.95951">
        <ele>344</ele>
        <time>2011-07-31T06:11:32Z</time>
      </trkpt>
      <trkpt lat="49.18818" lon="6.95954">
        <ele>344</ele>
        <time>2011-07-31T06:11:34Z</time>
      </trkpt>
      <trkpt lat="49.18817" lon="6.95957">
        <ele>344</ele>
        <time>2011-07-31T06:11:36Z</time>
      </trkpt>
      <trkpt lat="49.18816" lon="6.9596">
        <ele>344</ele>
        <time>2011-07-31T06:11:38Z</time>
      </trkpt>
      <trkpt lat="49.18815" lon="6.95962">
        <ele>344</ele>
        <time>2011-07-31T06:11:40Z</time>
      </trkpt>
      <trkpt lat="49.18814" lon="6.95964">
        <ele>344</ele>
        <time>2011-07-31T06:11:42Z</time>
      </trkpt>
      <trkpt lat="49.18813" lon="6.95968">
        <ele>344</ele>
        <time>2011-07-31T06:11:44Z</time>
      </trkpt>
      <trkpt lat="49.18811" lon="6.9597">
        <ele>344</ele>
        <time>2011-07-31T06:11:46Z</time>
      </trkpt>
      <trkpt lat="49.1881" lon="6.95973">
        <ele>344</ele>
        <time>2011-07-31T06:11:48Z</time>
      </trkpt>
      <trkpt lat="49.18808" lon="6.95975">
        <ele>344</ele>
        <time>2011-07-31T06:11:50Z</time>
      </trkpt>
      <trkpt lat="49.18807" lon="6.95977">
        <ele>344</ele>
        <time>2011-07-31T06:11:52Z</time>
      </trkpt>
      <trkpt lat="49.18806" lon="6.95978">
        <ele>344</ele>
        <time>2011-07-31T06:11:54Z</time>
      </trkpt>
      <trkpt lat="49.18804" lon="6.95979">
        <ele>344</ele>
        <time>2011-07-31T06:11:56Z</time>
      </trkpt>
      <trkpt lat="49.18803" lon="6.95981">
        <ele>344</ele>
        <time>2011-07-31T06:11:58Z</time>
      </trkpt>
      <trkpt lat="49.188" lon="6.95983">
        <ele>344</ele>
        <time>2011-07-31T06:12:00Z</time>
      </trkpt>
      <trkpt lat="49.18798" lon="6.95985">
        <ele>345</ele>
        <time>2011-07-31T06:12:02Z</time>
      </trkpt>
      <trkpt lat="49.18797" lon="6.95986">
        <ele>345</ele>
        <time>2011-07-31T06:12:03Z</time>
      </trkpt>
      <trkpt lat="49.18796" lon="6.95987">
        <ele>345</ele>
        <time>2011-07-31T06:12:04Z</time>
      </trkpt>
      <trkpt lat="49.18795" lon="6.95987">
        <ele>345</ele>
        <time>2011-07-31T06:12:05Z</time>
      </trkpt>
      <trkpt lat="49.18793" lon="6.95987">
        <ele>345</ele>
        <time>2011-07-31T06:12:06Z</time>
      </trkpt>
      <trkpt lat="49.18791" lon="6.95987">
        <ele>345</ele>
        <time>2011-07-31T06:12:08Z</time>
      </trkpt>
      <trkpt lat="49.1879" lon="6.95987">
        <ele>345</ele>
        <time>2011-07-31T06:12:09Z</time>
      </trkpt>
      <trkpt lat="49.18788" lon="6.95986">
        <ele>345</ele>
        <time>2011-07-31T06:12:11Z</time>
      </trkpt>
      <trkpt lat="49.18787" lon="6.95983">
        <ele>345</ele>
        <time>2011-07-31T06:12:13Z</time>
      </trkpt>
      <trkpt lat="49.18787" lon="6.9598">
        <ele>345</ele>
        <time>2011-07-31T06:12:15Z</time>
      </trkpt>
      <trkpt lat="49.18787" lon="6.95978">
        <ele>345</ele>
        <time>2011-07-31T06:12:16Z</time>
      </trkpt>
      <trkpt lat="49.18788" lon="6.95975">
        <ele>345</ele>
        <time>2011-07-31T06:12:18Z</time>
      </trkpt>
      <trkpt lat="49.18789" lon="6.95972">
        <ele>345</ele>
        <time>2011-07-31T06:12:20Z</time>
      </trkpt>
      <trkpt lat="49.1879" lon="6.95969">
        <ele>345</ele>
        <time>2011-07-31T06:12:22Z</time>
      </trkpt>
      <trkpt lat="49.18791" lon="6.95967">
        <ele>345</ele>
        <time>2011-07-31T06:12:24Z</time>
      </trkpt>
      <trkpt lat="49.18792" lon="6.95963">
        <ele>345</ele>
        <time>2011-07-31T06:12:26Z</time>
      </trkpt>
      <trkpt lat="49.18793" lon="6.95961">
        <ele>345</ele>
        <time>2011-07-31T06:12:28Z</time>
      </trkpt>
      <trkpt lat="49.18795" lon="6.95958">
        <ele>345</ele>
        <time>2011-07-31T06:12:30Z</time>
      </trkpt>
      <trkpt lat="49.18795" lon="6.95956">
        <ele>345</ele>
        <time>2011-07-31T06:12:31Z</time>
      </trkpt>
      <trkpt lat="49.18796" lon="6.95955">
        <ele>345</ele>
        <time>2011-07-31T06:12:32Z</time>
      </trkpt>
      <trkpt lat="49.18797" lon="6.95953">
        <ele>345</ele>
        <time>2011-07-31T06:12:33Z</time>
      </trkpt>
      <trkpt lat="49.18797" lon="6.95951">
        <ele>345</ele>
        <time>2011-07-31T06:12:34Z</time>
      </trkpt>
      <trkpt lat="49.18799" lon="6.95948">
        <ele>345</ele>
        <time>2011-07-31T06:12:36Z</time>
      </trkpt>
      <trkpt lat="49.188" lon="6.95945">
        <ele>345</ele>
        <time>2011-07-31T06:12:38Z</time>
      </trkpt>
      <trkpt lat="49.18801" lon="6.95943">
        <ele>345</ele>
        <time>2011-07-31T06:12:39Z</time>
      </trkpt>
      <trkpt lat="49.18803" lon="6.95941">
        <ele>345</ele>
        <time>2011-07-31T06:12:41Z</time>
      </trkpt>
      <trkpt lat="49.18804" lon="6.95937">
        <ele>345</ele>
        <time>2011-07-31T06:12:43Z</time>
      </trkpt>
      <trkpt lat="49.18805" lon="6.95936">
        <ele>345</ele>
        <time>2011-07-31T06:12:44Z</time>
      </trkpt>
      <trkpt lat="49.18807" lon="6.95933">
        <ele>345</ele>
        <time>2011-07-31T06:12:46Z</time>
      </trkpt>
      <trkpt lat="49.18807" lon="6.95931">
        <ele>345</ele>
        <time>2011-07-31T06:12:47Z</time>
      </trkpt>
      <trkpt lat="49.18808" lon="6.9593">
        <ele>345</ele>
        <time>2011-07-31T06:12:48Z</time>
      </trkpt>
      <trkpt lat="49.18808" lon="6.95928">
        <ele>345</ele>
        <time>2011-07-31T06:12:49Z</time>
      </trkpt>
      <trkpt lat="49.18809" lon="6.95926">
        <ele>345</ele>
        <time>2011-07-31T06:12:50Z</time>
      </trkpt>
      <trkpt lat="49.18809" lon="6.95924">
        <ele>345</ele>
        <time>2011-07-31T06:12:51Z</time>
      </trkpt>
      <trkpt lat="49.18811" lon="6.95921">
        <ele>345</ele>
        <time>2011-07-31T06:12:53Z</time>
      </trkpt>
      <trkpt lat="49.18813" lon="6.95918">
        <ele>345</ele>
        <time>2011-07-31T06:12:55Z</time>
      </trkpt>
      <trkpt lat="49.18814" lon="6.95915">
        <ele>345</ele>
        <time>2011-07-31T06:12:57Z</time>
      </trkpt>
      <trkpt lat="49.18815" lon="6.95913">
        <ele>345</ele>
        <time>2011-07-31T06:12:58Z</time>
      </trkpt>
      <trkpt lat="49.18817" lon="6.9591">
        <ele>345</ele>
        <time>2011-07-31T06:13:00Z</time>
      </trkpt>
      <trkpt lat="49.18818" lon="6.95908">
        <ele>345</ele>
        <time>2011-07-31T06:13:01Z</time>
      </trkpt>
      <trkpt lat="49.18818" lon="6.95907">
        <ele>345</ele>
        <time>2011-07-31T06:13:02Z</time>
      </trkpt>
      <trkpt lat="49.18819" lon="6.95904">
        <ele>345</ele>
        <time>2011-07-31T06:13:04Z</time>
      </trkpt>
      <trkpt lat="49.18821" lon="6.95901">
        <ele>345</ele>
        <time>2011-07-31T06:13:06Z</time>
      </trkpt>
      <trkpt lat="49.18822" lon="6.95898">
        <ele>345</ele>
        <time>2011-07-31T06:13:08Z</time>
      </trkpt>
      <trkpt lat="49.18823" lon="6.95896">
        <ele>345</ele>
        <time>2011-07-31T06:13:09Z</time>
      </trkpt>
      <trkpt lat="49.18824" lon="6.95894">
        <ele>345</ele>
        <time>2011-07-31T06:13:10Z</time>
      </trkpt>
      <trkpt lat="49.18824" lon="6.95892">
        <ele>345</ele>
        <time>2011-07-31T06:13:11Z</time>
      </trkpt>
      <trkpt lat="49.18825" lon="6.9589">
        <ele>345</ele>
        <time>2011-07-31T06:13:12Z</time>
      </trkpt>
      <trkpt lat="49.18826" lon="6.95889">
        <ele>345</ele>
        <time>2011-07-31T06:13:13Z</time>
      </trkpt>
      <trkpt lat="49.18826" lon="6.95887">
        <ele>345</ele>
        <time>2011-07-31T06:13:14Z</time>
      </trkpt>
      <trkpt lat="49.18827" lon="6.95885">
        <ele>345</ele>
        <time>2011-07-31T06:13:15Z</time>
      </trkpt>
      <trkpt lat="49.18827" lon="6.95883">
        <ele>345</ele>
        <time>2011-07-31T06:13:16Z</time>
      </trkpt>
      <trkpt lat="49.18828" lon="6.95881">
        <ele>345</ele>
        <time>2011-07-31T06:13:17Z</time>
      </trkpt>
      <trkpt lat="49.18829" lon="6.95879">
        <ele>345</ele>
        <time>2011-07-31T06:13:18Z</time>
      </trkpt>
      <trkpt lat="49.18829" lon="6.95878">
        <ele>345</ele>
        <time>2011-07-31T06:13:19Z</time>
      </trkpt>
      <trkpt lat="49.18831" lon="6.95875">
        <ele>345</ele>
        <time>2011-07-31T06:13:21Z</time>
      </trkpt>
      <trkpt lat="49.18832" lon="6.95873">
        <ele>345</ele>
        <time>2011-07-31T06:13:22Z</time>
      </trkpt>
      <trkpt lat="49.18832" lon="6.95871">
        <ele>345</ele>
        <time>2011-07-31T06:13:23Z</time>
      </trkpt>
      <trkpt lat="49.18833" lon="6.95869">
        <ele>345</ele>
        <time>2011-07-31T06:13:24Z</time>
      </trkpt>
      <trkpt lat="49.18834" lon="6.95867">
        <ele>345</ele>
        <time>2011-07-31T06:13:25Z</time>
      </trkpt>
      <trkpt lat="49.18834" lon="6.95865">
        <ele>345</ele>
        <time>2011-07-31T06:13:26Z</time>
      </trkpt>
      <trkpt lat="49.18836" lon="6.95863">
        <ele>344</ele>
        <time>2011-07-31T06:13:28Z</time>
      </trkpt>
      <trkpt lat="49.18837" lon="6.9586">
        <ele>344</ele>
        <time>2011-07-31T06:13:30Z</time>
      </trkpt>
      <trkpt lat="49.18839" lon="6.95857">
        <ele>344</ele>
        <time>2011-07-31T06:13:32Z</time>
      </trkpt>
      <trkpt lat="49.1884" lon="6.95854">
        <ele>343</ele>
        <time>2011-07-31T06:13:34Z</time>
      </trkpt>
      <trkpt lat="49.1884" lon="6.95852">
        <ele>343</ele>
        <time>2011-07-31T06:13:36Z</time>
      </trkpt>
      <trkpt lat="49.18841" lon="6.95849">
        <ele>343</ele>
        <time>2011-07-31T06:13:38Z</time>
      </trkpt>
      <trkpt lat="49.18842" lon="6.95846">
        <ele>343</ele>
        <time>2011-07-31T06:13:40Z</time>
      </trkpt>
      <trkpt lat="49.18843" lon="6.95843">
        <ele>343</ele>
        <time>2011-07-31T06:13:42Z</time>
      </trkpt>
      <trkpt lat="49.18844" lon="6.95841">
        <ele>343</ele>
        <time>2011-07-31T06:13:44Z</time>
      </trkpt>
      <trkpt lat="49.18845" lon="6.95838">
        <ele>342</ele>
        <time>2011-07-31T06:13:46Z</time>
      </trkpt>
      <trkpt lat="49.18846" lon="6.95835">
        <ele>342</ele>
        <time>2011-07-31T06:13:48Z</time>
      </trkpt>
      <trkpt lat="49.18847" lon="6.95834">
        <ele>342</ele>
        <time>2011-07-31T06:13:49Z</time>
      </trkpt>
      <trkpt lat="49.18848" lon="6.95831">
        <ele>342</ele>
        <time>2011-07-31T06:13:51Z</time>
      </trkpt>
      <trkpt lat="49.18848" lon="6.95829">
        <ele>342</ele>
        <time>2011-07-31T06:13:52Z</time>
      </trkpt>
      <trkpt lat="49.18849" lon="6.95827">
        <ele>342</ele>
        <time>2011-07-31T06:13:53Z</time>
      </trkpt>
      <trkpt lat="49.1885" lon="6.95824">
        <ele>341</ele>
        <time>2011-07-31T06:13:55Z</time>
      </trkpt>
      <trkpt lat="49.1885" lon="6.95822">
        <ele>341</ele>
        <time>2011-07-31T06:13:56Z</time>
      </trkpt>
      <trkpt lat="49.18851" lon="6.95821">
        <ele>341</ele>
        <time>2011-07-31T06:13:57Z</time>
      </trkpt>
      <trkpt lat="49.18852" lon="6.95818">
        <ele>341</ele>
        <time>2011-07-31T06:13:59Z</time>
      </trkpt>
      <trkpt lat="49.18852" lon="6.95816">
        <ele>341</ele>
        <time>2011-07-31T06:14:00Z</time>
      </trkpt>
      <trkpt lat="49.18853" lon="6.95814">
        <ele>341</ele>
        <time>2011-07-31T06:14:01Z</time>
      </trkpt>
      <trkpt lat="49.18854" lon="6.95811">
        <ele>341</ele>
        <time>2011-07-31T06:14:03Z</time>
      </trkpt>
      <trkpt lat="49.18855" lon="6.95808">
        <ele>341</ele>
        <time>2011-07-31T06:14:05Z</time>
      </trkpt>
      <trkpt lat="49.18856" lon="6.95805">
        <ele>340</ele>
        <time>2011-07-31T06:14:07Z</time>
      </trkpt>
      <trkpt lat="49.18858" lon="6.95802">
        <ele>340</ele>
        <time>2011-07-31T06:14:09Z</time>
      </trkpt>
      <trkpt lat="49.18858" lon="6.958">
        <ele>340</ele>
        <time>2011-07-31T06:14:10Z</time>
      </trkpt>
      <trkpt lat="49.18859" lon="6.95798">
        <ele>340</ele>
        <time>2011-07-31T06:14:11Z</time>
      </trkpt>
      <trkpt lat="49.18859" lon="6.95796">
        <ele>340</ele>
        <time>2011-07-31T06:14:12Z</time>
      </trkpt>
      <trkpt lat="49.1886" lon="6.95795">
        <ele>339</ele>
        <time>2011-07-31T06:14:13Z</time>
      </trkpt>
      <trkpt lat="49.1886" lon="6.95793">
        <ele>339</ele>
        <time>2011-07-31T06:14:14Z</time>
      </trkpt>
      <trkpt lat="49.18861" lon="6.95791">
        <ele>339</ele>
        <time>2011-07-31T06:14:15Z</time>
      </trkpt>
      <trkpt lat="49.18862" lon="6.95788">
        <ele>338</ele>
        <time>2011-07-31T06:14:17Z</time>
      </trkpt>
      <trkpt lat="49.18863" lon="6.95785">
        <ele>338</ele>
        <time>2011-07-31T06:14:19Z</time>
      </trkpt>
      <trkpt lat="49.18864" lon="6.95783">
        <ele>338</ele>
        <time>2011-07-31T06:14:20Z</time>
      </trkpt>
      <trkpt lat="49.18864" lon="6.95781">
        <ele>338</ele>
        <time>2011-07-31T06:14:21Z</time>
      </trkpt>
      <trkpt lat="49.18865" lon="6.9578">
        <ele>338</ele>
        <time>2011-07-31T06:14:22Z</time>
      </trkpt>
      <trkpt lat="49.18866" lon="6.95778">
        <ele>338</ele>
        <time>2011-07-31T06:14:23Z</time>
      </trkpt>
      <trkpt lat="49.18868" lon="6.95775">
        <ele>337</ele>
        <time>2011-07-31T06:14:25Z</time>
      </trkpt>
      <trkpt lat="49.18869" lon="6.95774">
        <ele>337</ele>
        <time>2011-07-31T06:14:27Z</time>
      </trkpt>
      <trkpt lat="49.18869" lon="6.95771">
        <ele>337</ele>
        <time>2011-07-31T06:14:29Z</time>
      </trkpt>
      <trkpt lat="49.18869" lon="6.95768">
        <ele>337</ele>
        <time>2011-07-31T06:14:30Z</time>
      </trkpt>
      <trkpt lat="49.1887" lon="6.95766">
        <ele>337</ele>
        <time>2011-07-31T06:14:31Z</time>
      </trkpt>
      <trkpt lat="49.18871" lon="6.95763">
        <ele>337</ele>
        <time>2011-07-31T06:14:33Z</time>
      </trkpt>
      <trkpt lat="49.18871" lon="6.95762">
        <ele>337</ele>
        <time>2011-07-31T06:14:35Z</time>
      </trkpt>
      <trkpt lat="49.18871" lon="6.95759">
        <ele>337</ele>
        <time>2011-07-31T06:14:37Z</time>
      </trkpt>
      <trkpt lat="49.18872" lon="6.95757">
        <ele>337</ele>
        <time>2011-07-31T06:14:38Z</time>
      </trkpt>
      <trkpt lat="49.18871" lon="6.95755">
        <ele>337</ele>
        <time>2011-07-31T06:14:39Z</time>
      </trkpt>
      <trkpt lat="49.1887" lon="6.95754">
        <ele>336</ele>
        <time>2011-07-31T06:14:40Z</time>
      </trkpt>
      <trkpt lat="49.18869" lon="6.95754">
        <ele>336</ele>
        <time>2011-07-31T06:14:41Z</time>
      </trkpt>
      <trkpt lat="49.18868" lon="6.95752">
        <ele>336</ele>
        <time>2011-07-31T06:14:42Z</time>
      </trkpt>
      <trkpt lat="49.18866" lon="6.9575">
        <ele>336</ele>
        <time>2011-07-31T06:14:44Z</time>
      </trkpt>
      <trkpt lat="49.18864" lon="6.95749">
        <ele>336</ele>
        <time>2011-07-31T06:14:45Z</time>
      </trkpt>
      <trkpt lat="49.18863" lon="6.95748">
        <ele>336</ele>
        <time>2011-07-31T06:14:46Z</time>
      </trkpt>
      <trkpt lat="49.18862" lon="6.95747">
        <ele>336</ele>
        <time>2011-07-31T06:14:48Z</time>
      </trkpt>
      <trkpt lat="49.1886" lon="6.95746">
        <ele>336</ele>
        <time>2011-07-31T06:14:50Z</time>
      </trkpt>
      <trkpt lat="49.18859" lon="6.95745">
        <ele>336</ele>
        <time>2011-07-31T06:14:51Z</time>
      </trkpt>
      <trkpt lat="49.18858" lon="6.95744">
        <ele>336</ele>
        <time>2011-07-31T06:14:52Z</time>
      </trkpt>
      <trkpt lat="49.18855" lon="6.95743">
        <ele>336</ele>
        <time>2011-07-31T06:14:54Z</time>
      </trkpt>
      <trkpt lat="49.18853" lon="6.95741">
        <ele>336</ele>
        <time>2011-07-31T06:14:56Z</time>
      </trkpt>
      <trkpt lat="49.18852" lon="6.95739">
        <ele>336</ele>
        <time>2011-07-31T06:14:58Z</time>
      </trkpt>
      <trkpt lat="49.1885" lon="6.95737">
        <ele>336</ele>
        <time>2011-07-31T06:15:00Z</time>
      </trkpt>
      <trkpt lat="49.18849" lon="6.95737">
        <ele>336</ele>
        <time>2011-07-31T06:15:01Z</time>
      </trkpt>
      <trkpt lat="49.18848" lon="6.95736">
        <ele>336</ele>
        <time>2011-07-31T06:15:02Z</time>
      </trkpt>
      <trkpt lat="49.18846" lon="6.95735">
        <ele>336</ele>
        <time>2011-07-31T06:15:03Z</time>
      </trkpt>
      <trkpt lat="49.18845" lon="6.95734">
        <ele>336</ele>
        <time>2011-07-31T06:15:04Z</time>
      </trkpt>
      <trkpt lat="49.18844" lon="6.95733">
        <ele>336</ele>
        <time>2011-07-31T06:15:05Z</time>
      </trkpt>
      <trkpt lat="49.18842" lon="6.95731">
        <ele>336</ele>
        <time>2011-07-31T06:15:07Z</time>
      </trkpt>
      <trkpt lat="49.18841" lon="6.95731">
        <ele>336</ele>
        <time>2011-07-31T06:15:08Z</time>
      </trkpt>
      <trkpt lat="49.18839" lon="6.95729">
        <ele>336</ele>
        <time>2011-07-31T06:15:10Z</time>
      </trkpt>
      <trkpt lat="49.18837" lon="6.95727">
        <ele>336</ele>
        <time>2011-07-31T06:15:12Z</time>
      </trkpt>
      <trkpt lat="49.18836" lon="6.95726">
        <ele>336</ele>
        <time>2011-07-31T06:15:13Z</time>
      </trkpt>
      <trkpt lat="49.18835" lon="6.95726">
        <ele>336</ele>
        <time>2011-07-31T06:15:14Z</time>
      </trkpt>
      <trkpt lat="49.18833" lon="6.95724">
        <ele>336</ele>
        <time>2011-07-31T06:15:16Z</time>
      </trkpt>
      <trkpt lat="49.18831" lon="6.95723">
        <ele>336</ele>
        <time>2011-07-31T06:15:18Z</time>
      </trkpt>
      <trkpt lat="49.18829" lon="6.95722">
        <ele>336</ele>
        <time>2011-07-31T06:15:19Z</time>
      </trkpt>
      <trkpt lat="49.18827" lon="6.95721">
        <ele>336</ele>
        <time>2011-07-31T06:15:21Z</time>
      </trkpt>
      <trkpt lat="49.18826" lon="6.9572">
        <ele>336</ele>
        <time>2011-07-31T06:15:22Z</time>
      </trkpt>
      <trkpt lat="49.18825" lon="6.95719">
        <ele>336</ele>
        <time>2011-07-31T06:15:23Z</time>
      </trkpt>
      <trkpt lat="49.18824" lon="6.95718">
        <ele>336</ele>
        <time>2011-07-31T06:15:24Z</time>
      </trkpt>
      <trkpt lat="49.18823" lon="6.95717">
        <ele>336</ele>
        <time>2011-07-31T06:15:25Z</time>
      </trkpt>
      <trkpt lat="49.18822" lon="6.95717">
        <ele>336</ele>
        <time>2011-07-31T06:15:26Z</time>
      </trkpt>
      <trkpt lat="49.18821" lon="6.95716">
        <ele>336</ele>
        <time>2011-07-31T06:15:27Z</time>
      </trkpt>
      <trkpt lat="49.18819" lon="6.95715">
        <ele>336</ele>
        <time>2011-07-31T06:15:28Z</time>
      </trkpt>
      <trkpt lat="49.18818" lon="6.95715">
        <ele>336</ele>
        <time>2011-07-31T06:15:29Z</time>
      </trkpt>
      <trkpt lat="49.18816" lon="6.95713">
        <ele>336</ele>
        <time>2011-07-31T06:15:31Z</time>
      </trkpt>
      <trkpt lat="49.18815" lon="6.95712">
        <ele>336</ele>
        <time>2011-07-31T06:15:32Z</time>
      </trkpt>
      <trkpt lat="49.18813" lon="6.95711">
        <ele>336</ele>
        <time>2011-07-31T06:15:33Z</time>
      </trkpt>
      <trkpt lat="49.18811" lon="6.9571">
        <ele>336</ele>
        <time>2011-07-31T06:15:35Z</time>
      </trkpt>
      <trkpt lat="49.18809" lon="6.95709">
        <ele>336</ele>
        <time>2011-07-31T06:15:37Z</time>
      </trkpt>
      <trkpt lat="49.18808" lon="6.95708">
        <ele>336</ele>
        <time>2011-07-31T06:15:38Z</time>
      </trkpt>
      <trkpt lat="49.18806" lon="6.95707">
        <ele>336</ele>
        <time>2011-07-31T06:15:39Z</time>
      </trkpt>
      <trkpt lat="49.18805" lon="6.95707">
        <ele>336</ele>
        <time>2011-07-31T06:15:40Z</time>
      </trkpt>
      <trkpt lat="49.18803" lon="6.95705">
        <ele>336</ele>
        <time>2011-07-31T06:15:42Z</time>
      </trkpt>
      <trkpt lat="49.18802" lon="6.95704">
        <ele>336</ele>
        <time>2011-07-31T06:15:43Z</time>
      </trkpt>
      <trkpt lat="49.18801" lon="6.95704">
        <ele>336</ele>
        <time>2011-07-31T06:15:44Z</time>
      </trkpt>
      <trkpt lat="49.188" lon="6.95703">
        <ele>336</ele>
        <time>2011-07-31T06:15:45Z</time>
      </trkpt>
      <trkpt lat="49.18798" lon="6.95702">
        <ele>336</ele>
        <time>2011-07-31T06:15:47Z</time>
      </trkpt>
      <trkpt lat="49.18797" lon="6.95701">
        <ele>336</ele>
        <time>2011-07-31T06:15:48Z</time>
      </trkpt>
      <trkpt lat="49.18794" lon="6.95699">
        <ele>336</ele>
        <time>2011-07-31T06:15:50Z</time>
      </trkpt>
      <trkpt lat="49.18792" lon="6.95697">
        <ele>336</ele>
        <time>2011-07-31T06:15:52Z</time>
      </trkpt>
      <trkpt lat="49.1879" lon="6.95695">
        <ele>336</ele>
        <time>2011-07-31T06:15:54Z</time>
      </trkpt>
      <trkpt lat="49.18789" lon="6.95694">
        <ele>336</ele>
        <time>2011-07-31T06:15:55Z</time>
      </trkpt>
      <trkpt lat="49.18788" lon="6.95694">
        <ele>336</ele>
        <time>2011-07-31T06:15:56Z</time>
      </trkpt>
      <trkpt lat="49.18787" lon="6.95693">
        <ele>336</ele>
        <time>2011-07-31T06:15:57Z</time>
      </trkpt>
      <trkpt lat="49.18785" lon="6.95692">
        <ele>336</ele>
        <time>2011-07-31T06:15:58Z</time>
      </trkpt>
      <trkpt lat="49.18784" lon="6.95691">
        <ele>336</ele>
        <time>2011-07-31T06:16:00Z</time>
      </trkpt>
      <trkpt lat="49.18781" lon="6.95689">
        <ele>336</ele>
        <time>2011-07-31T06:16:02Z</time>
      </trkpt>
      <trkpt lat="49.18779" lon="6.95688">
        <ele>336</ele>
        <time>2011-07-31T06:16:04Z</time>
      </trkpt>
      <trkpt lat="49.18778" lon="6.95687">
        <ele>336</ele>
        <time>2011-07-31T06:16:05Z</time>
      </trkpt>
      <trkpt lat="49.18776" lon="6.95686">
        <ele>336</ele>
        <time>2011-07-31T06:16:07Z</time>
      </trkpt>
      <trkpt lat="49.18775" lon="6.95685">
        <ele>336</ele>
        <time>2011-07-31T06:16:08Z</time>
      </trkpt>
      <trkpt lat="49.18773" lon="6.95682">
        <ele>336</ele>
        <time>2011-07-31T06:16:10Z</time>
      </trkpt>
      <trkpt lat="49.18772" lon="6.95681">
        <ele>336</ele>
        <time>2011-07-31T06:16:11Z</time>
      </trkpt>
      <trkpt lat="49.1877" lon="6.9568">
        <ele>336</ele>
        <time>2011-07-31T06:16:13Z</time>
      </trkpt>
      <trkpt lat="49.18768" lon="6.95679">
        <ele>336</ele>
        <time>2011-07-31T06:16:15Z</time>
      </trkpt>
      <trkpt lat="49.18767" lon="6.95678">
        <ele>336</ele>
        <time>2011-07-31T06:16:16Z</time>
      </trkpt>
      <trkpt lat="49.18766" lon="6.95677">
        <ele>336</ele>
        <time>2011-07-31T06:16:17Z</time>
      </trkpt>
      <trkpt lat="49.18764" lon="6.95676">
        <ele>336</ele>
        <time>2011-07-31T06:16:18Z</time>
      </trkpt>
      <trkpt lat="49.18763" lon="6.95676">
        <ele>336</ele>
        <time>2011-07-31T06:16:19Z</time>
      </trkpt>
      <trkpt lat="49.18762" lon="6.95675">
        <ele>336</ele>
        <time>2011-07-31T06:16:20Z</time>
      </trkpt>
      <trkpt lat="49.1876" lon="6.95674">
        <ele>336</ele>
        <time>2011-07-31T06:16:22Z</time>
      </trkpt>
      <trkpt lat="49.18758" lon="6.95672">
        <ele>336</ele>
        <time>2011-07-31T06:16:24Z</time>
      </trkpt>
      <trkpt lat="49.18756" lon="6.95671">
        <ele>336</ele>
        <time>2011-07-31T06:16:26Z</time>
      </trkpt>
      <trkpt lat="49.18755" lon="6.9567">
        <ele>336</ele>
        <time>2011-07-31T06:16:27Z</time>
      </trkpt>
      <trkpt lat="49.18753" lon="6.95669">
        <ele>336</ele>
        <time>2011-07-31T06:16:28Z</time>
      </trkpt>
      <trkpt lat="49.18752" lon="6.95669">
        <ele>336</ele>
        <time>2011-07-31T06:16:29Z</time>
      </trkpt>
      <trkpt lat="49.18751" lon="6.95668">
        <ele>336</ele>
        <time>2011-07-31T06:16:30Z</time>
      </trkpt>
      <trkpt lat="49.1875" lon="6.95667">
        <ele>336</ele>
        <time>2011-07-31T06:16:31Z</time>
      </trkpt>
      <trkpt lat="49.18749" lon="6.95666">
        <ele>336</ele>
        <time>2011-07-31T06:16:32Z</time>
      </trkpt>
      <trkpt lat="49.18747" lon="6.95664">
        <ele>336</ele>
        <time>2011-07-31T06:16:34Z</time>
      </trkpt>
      <trkpt lat="49.18745" lon="6.95662">
        <ele>336</ele>
        <time>2011-07-31T06:16:36Z</time>
      </trkpt>
      <trkpt lat="49.18743" lon="6.95661">
        <ele>336</ele>
        <time>2011-07-31T06:16:37Z</time>
      </trkpt>
      <trkpt lat="49.18741" lon="6.9566">
        <ele>336</ele>
        <time>2011-07-31T06:16:39Z</time>
      </trkpt>
      <trkpt lat="49.1874" lon="6.95659">
        <ele>336</ele>
        <time>2011-07-31T06:16:40Z</time>
      </trkpt>
      <trkpt lat="49.18739" lon="6.95658">
        <ele>336</ele>
        <time>2011-07-31T06:16:41Z</time>
      </trkpt>
      <trkpt lat="49.18738" lon="6.95657">
        <ele>336</ele>
        <time>2011-07-31T06:16:42Z</time>
      </trkpt>
      <trkpt lat="49.18737" lon="6.95656">
        <ele>336</ele>
        <time>2011-07-31T06:16:43Z</time>
      </trkpt>
      <trkpt lat="49.18736" lon="6.95656">
        <ele>336</ele>
        <time>2011-07-31T06:16:44Z</time>
      </trkpt>
      <trkpt lat="49.18734" lon="6.95655">
        <ele>336</ele>
        <time>2011-07-31T06:16:45Z</time>
      </trkpt>
      <trkpt lat="49.18733" lon="6.95654">
        <ele>336</ele>
        <time>2011-07-31T06:16:46Z</time>
      </trkpt>
      <trkpt lat="49.18731" lon="6.95653">
        <ele>336</ele>
        <time>2011-07-31T06:16:48Z</time>
      </trkpt>
      <trkpt lat="49.1873" lon="6.95652">
        <ele>336</ele>
        <time>2011-07-31T06:16:49Z</time>
      </trkpt>
      <trkpt lat="49.18729" lon="6.95651">
        <ele>336</ele>
        <time>2011-07-31T06:16:50Z</time>
      </trkpt>
      <trkpt lat="49.18727" lon="6.9565">
        <ele>336</ele>
        <time>2011-07-31T06:16:51Z</time>
      </trkpt>
      <trkpt lat="49.18726" lon="6.95649">
        <ele>336</ele>
        <time>2011-07-31T06:16:53Z</time>
      </trkpt>
      <trkpt lat="49.18724" lon="6.95647">
        <ele>336</ele>
        <time>2011-07-31T06:16:55Z</time>
      </trkpt>
      <trkpt lat="49.18723" lon="6.95647">
        <ele>336</ele>
        <time>2011-07-31T06:16:56Z</time>
      </trkpt>
      <trkpt lat="49.18721" lon="6.95646">
        <ele>336</ele>
        <time>2011-07-31T06:16:57Z</time>
      </trkpt>
      <trkpt lat="49.1872" lon="6.95645">
        <ele>336</ele>
        <time>2011-07-31T06:16:58Z</time>
      </trkpt>
      <trkpt lat="49.18718" lon="6.95644">
        <ele>336</ele>
        <time>2011-07-31T06:17:00Z</time>
      </trkpt>
      <trkpt lat="49.18717" lon="6.95643">
        <ele>336</ele>
        <time>2011-07-31T06:17:01Z</time>
      </trkpt>
      <trkpt lat="49.18716" lon="6.95642">
        <ele>336</ele>
        <time>2011-07-31T06:17:02Z</time>
      </trkpt>
      <trkpt lat="49.18715" lon="6.95642">
        <ele>336</ele>
        <time>2011-07-31T06:17:03Z</time>
      </trkpt>
      <trkpt lat="49.18713" lon="6.95641">
        <ele>336</ele>
        <time>2011-07-31T06:17:04Z</time>
      </trkpt>
      <trkpt lat="49.18712" lon="6.9564">
        <ele>336</ele>
        <time>2011-07-31T06:17:05Z</time>
      </trkpt>
      <trkpt lat="49.18711" lon="6.95639">
        <ele>336</ele>
        <time>2011-07-31T06:17:06Z</time>
      </trkpt>
      <trkpt lat="49.18709" lon="6.95638">
        <ele>336</ele>
        <time>2011-07-31T06:17:08Z</time>
      </trkpt>
      <trkpt lat="49.18708" lon="6.95637">
        <ele>336</ele>
        <time>2011-07-31T06:17:09Z</time>
      </trkpt>
      <trkpt lat="49.18707" lon="6.95636">
        <ele>336</ele>
        <time>2011-07-31T06:17:10Z</time>
      </trkpt>
      <trkpt lat="49.18706" lon="6.95636">
        <ele>336</ele>
        <time>2011-07-31T06:17:11Z</time>
      </trkpt>
      <trkpt lat="49.18705" lon="6.95635">
        <ele>336</ele>
        <time>2011-07-31T06:17:12Z</time>
      </trkpt>
      <trkpt lat="49.18703" lon="6.95634">
        <ele>336</ele>
        <time>2011-07-31T06:17:13Z</time>
      </trkpt>
      <trkpt lat="49.18702" lon="6.95633">
        <ele>336</ele>
        <time>2011-07-31T06:17:14Z</time>
      </trkpt>
      <trkpt lat="49.18701" lon="6.95633">
        <ele>336</ele>
        <time>2011-07-31T06:17:15Z</time>
      </trkpt>
      <trkpt lat="49.18699" lon="6.95631">
        <ele>336</ele>
        <time>2011-07-31T06:17:17Z</time>
      </trkpt>
      <trkpt lat="49.18697" lon="6.95631">
        <ele>336</ele>
        <time>2011-07-31T06:17:18Z</time>
      </trkpt>
      <trkpt lat="49.18696" lon="6.9563">
        <ele>336</ele>
        <time>2011-07-31T06:17:19Z</time>
      </trkpt>
      <trkpt lat="49.18695" lon="6.95628">
        <ele>336</ele>
        <time>2011-07-31T06:17:21Z</time>
      </trkpt>
      <trkpt lat="49.18693" lon="6.95628">
        <ele>336</ele>
        <time>2011-07-31T06:17:22Z</time>
      </trkpt>
      <trkpt lat="49.18692" lon="6.95628">
        <ele>336</ele>
        <time>2011-07-31T06:17:23Z</time>
      </trkpt>
      <trkpt lat="49.18691" lon="6.95628">
        <ele>336</ele>
        <time>2011-07-31T06:17:24Z</time>
      </trkpt>
      <trkpt lat="49.1869" lon="6.95628">
        <ele>336</ele>
        <time>2011-07-31T06:17:25Z</time>
      </trkpt>
      <trkpt lat="49.18688" lon="6.95628">
        <ele>336</ele>
        <time>2011-07-31T06:17:26Z</time>
      </trkpt>
      <trkpt lat="49.18687" lon="6.95628">
        <ele>336</ele>
        <time>2011-07-31T06:17:27Z</time>
      </trkpt>
      <trkpt lat="49.18686" lon="6.95628">
        <ele>336</ele>
        <time>2011-07-31T06:17:28Z</time>
      </trkpt>
      <trkpt lat="49.18684" lon="6.95628">
        <ele>336</ele>
        <time>2011-07-31T06:17:29Z</time>
      </trkpt>
      <trkpt lat="49.18683" lon="6.95629">
        <ele>336</ele>
        <time>2011-07-31T06:17:30Z</time>
      </trkpt>
      <trkpt lat="49.18682" lon="6.95629">
        <ele>336</ele>
        <time>2011-07-31T06:17:31Z</time>
      </trkpt>
      <trkpt lat="49.18681" lon="6.95629">
        <ele>336</ele>
        <time>2011-07-31T06:17:32Z</time>
      </trkpt>
      <trkpt lat="49.18679" lon="6.95629">
        <ele>336</ele>
        <time>2011-07-31T06:17:33Z</time>
      </trkpt>
      <trkpt lat="49.18678" lon="6.9563">
        <ele>336</ele>
        <time>2011-07-31T06:17:34Z</time>
      </trkpt>
      <trkpt lat="49.18676" lon="6.9563">
        <ele>336</ele>
        <time>2011-07-31T06:17:36Z</time>
      </trkpt>
      <trkpt lat="49.18675" lon="6.95631">
        <ele>336</ele>
        <time>2011-07-31T06:17:37Z</time>
      </trkpt>
      <trkpt lat="49.18674" lon="6.95631">
        <ele>336</ele>
        <time>2011-07-31T06:17:38Z</time>
      </trkpt>
      <trkpt lat="49.18672" lon="6.95631">
        <ele>336</ele>
        <time>2011-07-31T06:17:39Z</time>
      </trkpt>
      <trkpt lat="49.18671" lon="6.95632">
        <ele>336</ele>
        <time>2011-07-31T06:17:40Z</time>
      </trkpt>
      <trkpt lat="49.1867" lon="6.95632">
        <ele>336</ele>
        <time>2011-07-31T06:17:41Z</time>
      </trkpt>
      <trkpt lat="49.18668" lon="6.95633">
        <ele>336</ele>
        <time>2011-07-31T06:17:43Z</time>
      </trkpt>
      <trkpt lat="49.18667" lon="6.95634">
        <ele>336</ele>
        <time>2011-07-31T06:17:44Z</time>
      </trkpt>
      <trkpt lat="49.18665" lon="6.95634">
        <ele>336</ele>
        <time>2011-07-31T06:17:45Z</time>
      </trkpt>
      <trkpt lat="49.18664" lon="6.95635">
        <ele>336</ele>
        <time>2011-07-31T06:17:46Z</time>
      </trkpt>
      <trkpt lat="49.18663" lon="6.95635">
        <ele>336</ele>
        <time>2011-07-31T06:17:47Z</time>
      </trkpt>
      <trkpt lat="49.18661" lon="6.95635">
        <ele>336</ele>
        <time>2011-07-31T06:17:48Z</time>
      </trkpt>
      <trkpt lat="49.1866" lon="6.95636">
        <ele>336</ele>
        <time>2011-07-31T06:17:49Z</time>
      </trkpt>
      <trkpt lat="49.18659" lon="6.95636">
        <ele>336</ele>
        <time>2011-07-31T06:17:50Z</time>
      </trkpt>
      <trkpt lat="49.18658" lon="6.95636">
        <ele>336</ele>
        <time>2011-07-31T06:17:51Z</time>
      </trkpt>
      <trkpt lat="49.18657" lon="6.95636">
        <ele>336</ele>
        <time>2011-07-31T06:17:52Z</time>
      </trkpt>
      <trkpt lat="49.18655" lon="6.95637">
        <ele>336</ele>
        <time>2011-07-31T06:17:53Z</time>
      </trkpt>
      <trkpt lat="49.18654" lon="6.95637">
        <ele>336</ele>
        <time>2011-07-31T06:17:54Z</time>
      </trkpt>
      <trkpt lat="49.18653" lon="6.95637">
        <ele>336</ele>
        <time>2011-07-31T06:17:55Z</time>
      </trkpt>
      <trkpt lat="49.18652" lon="6.95637">
        <ele>336</ele>
        <time>2011-07-31T06:17:56Z</time>
      </trkpt>
      <trkpt lat="49.1865" lon="6.95637">
        <ele>336</ele>
        <time>2011-07-31T06:17:57Z</time>
      </trkpt>
      <trkpt lat="49.18649" lon="6.95637">
        <ele>336</ele>
        <time>2011-07-31T06:17:58Z</time>
      </trkpt>
      <trkpt lat="49.18648" lon="6.95637">
        <ele>336</ele>
        <time>2011-07-31T06:17:59Z</time>
      </trkpt>
      <trkpt lat="49.18647" lon="6.95638">
        <ele>336</ele>
        <time>2011-07-31T06:18:00Z</time>
      </trkpt>
      <trkpt lat="49.18645" lon="6.95638">
        <ele>336</ele>
        <time>2011-07-31T06:18:01Z</time>
      </trkpt>
      <trkpt lat="49.18644" lon="6.95638">
        <ele>336</ele>
        <time>2011-07-31T06:18:02Z</time>
      </trkpt>
      <trkpt lat="49.18643" lon="6.95638">
        <ele>336</ele>
        <time>2011-07-31T06:18:03Z</time>
      </trkpt>
      <trkpt lat="49.18641" lon="6.95638">
        <ele>336</ele>
        <time>2011-07-31T06:18:05Z</time>
      </trkpt>
      <trkpt lat="49.18639" lon="6.95639">
        <ele>336</ele>
        <time>2011-07-31T06:18:06Z</time>
      </trkpt>
      <trkpt lat="49.18638" lon="6.95639">
        <ele>336</ele>
        <time>2011-07-31T06:18:07Z</time>
      </trkpt>
      <trkpt lat="49.18637" lon="6.95639">
        <ele>336</ele>
        <time>2011-07-31T06:18:08Z</time>
      </trkpt>
      <trkpt lat="49.18636" lon="6.95639">
        <ele>336</ele>
        <time>2011-07-31T06:18:09Z</time>
      </trkpt>
      <trkpt lat="49.18634" lon="6.9564">
        <ele>336</ele>
        <time>2011-07-31T06:18:11Z</time>
      </trkpt>
      <trkpt lat="49.18633" lon="6.9564">
        <ele>336</ele>
        <time>2011-07-31T06:18:12Z</time>
      </trkpt>
      <trkpt lat="49.18631" lon="6.95641">
        <ele>336</ele>
        <time>2011-07-31T06:18:14Z</time>
      </trkpt>
      <trkpt lat="49.18629" lon="6.95641">
        <ele>336</ele>
        <time>2011-07-31T06:18:15Z</time>
      </trkpt>
      <trkpt lat="49.18628" lon="6.95641">
        <ele>336</ele>
        <time>2011-07-31T06:18:16Z</time>
      </trkpt>
      <trkpt lat="49.18627" lon="6.9564">
        <ele>336</ele>
        <time>2011-07-31T06:18:17Z</time>
      </trkpt>
      <trkpt lat="49.18626" lon="6.9564">
        <ele>336</ele>
        <time>2011-07-31T06:18:18Z</time>
      </trkpt>
      <trkpt lat="49.18624" lon="6.95641">
        <ele>336</ele>
        <time>2011-07-31T06:18:19Z</time>
      </trkpt>
      <trkpt lat="49.18623" lon="6.95641">
        <ele>336</ele>
        <time>2011-07-31T06:18:20Z</time>
      </trkpt>
      <trkpt lat="49.18622" lon="6.95641">
        <ele>336</ele>
        <time>2011-07-31T06:18:21Z</time>
      </trkpt>
      <trkpt lat="49.1862" lon="6.95641">
        <ele>336</ele>
        <time>2011-07-31T06:18:23Z</time>
      </trkpt>
      <trkpt lat="49.18619" lon="6.95641">
        <ele>336</ele>
        <time>2011-07-31T06:18:24Z</time>
      </trkpt>
      <trkpt lat="49.18617" lon="6.95642">
        <ele>336</ele>
        <time>2011-07-31T06:18:25Z</time>
      </trkpt>
      <trkpt lat="49.18616" lon="6.95642">
        <ele>336</ele>
        <time>2011-07-31T06:18:26Z</time>
      </trkpt>
      <trkpt lat="49.18615" lon="6.95642">
        <ele>336</ele>
        <time>2011-07-31T06:18:27Z</time>
      </trkpt>
      <trkpt lat="49.18614" lon="6.95643">
        <ele>336</ele>
        <time>2011-07-31T06:18:28Z</time>
      </trkpt>
      <trkpt lat="49.18613" lon="6.95643">
        <ele>336</ele>
        <time>2011-07-31T06:18:29Z</time>
      </trkpt>
      <trkpt lat="49.18611" lon="6.95643">
        <ele>336</ele>
        <time>2011-07-31T06:18:30Z</time>
      </trkpt>
      <trkpt lat="49.1861" lon="6.95643">
        <ele>336</ele>
        <time>2011-07-31T06:18:31Z</time>
      </trkpt>
      <trkpt lat="49.18609" lon="6.95643">
        <ele>336</ele>
        <time>2011-07-31T06:18:32Z</time>
      </trkpt>
      <trkpt lat="49.18608" lon="6.95644">
        <ele>336</ele>
        <time>2011-07-31T06:18:33Z</time>
      </trkpt>
      <trkpt lat="49.18605" lon="6.95644">
        <ele>336</ele>
        <time>2011-07-31T06:18:35Z</time>
      </trkpt>
      <trkpt lat="49.18604" lon="6.95644">
        <ele>335</ele>
        <time>2011-07-31T06:18:36Z</time>
      </trkpt>
      <trkpt lat="49.18603" lon="6.95644">
        <ele>335</ele>
        <time>2011-07-31T06:18:37Z</time>
      </trkpt>
      <trkpt lat="49.18602" lon="6.95643">
        <ele>335</ele>
        <time>2011-07-31T06:18:38Z</time>
      </trkpt>
      <trkpt lat="49.18601" lon="6.95643">
        <ele>335</ele>
        <time>2011-07-31T06:18:39Z</time>
      </trkpt>
      <trkpt lat="49.18599" lon="6.95643">
        <ele>334</ele>
        <time>2011-07-31T06:18:41Z</time>
      </trkpt>
      <trkpt lat="49.18598" lon="6.95642">
        <ele>334</ele>
        <time>2011-07-31T06:18:43Z</time>
      </trkpt>
      <trkpt lat="49.18597" lon="6.9564">
        <ele>334</ele>
        <time>2011-07-31T06:18:45Z</time>
      </trkpt>
      <trkpt lat="49.18596" lon="6.95639">
        <ele>334</ele>
        <time>2011-07-31T06:18:47Z</time>
      </trkpt>
      <trkpt lat="49.18594" lon="6.95636">
        <ele>334</ele>
        <time>2011-07-31T06:18:49Z</time>
      </trkpt>
      <trkpt lat="49.18592" lon="6.95634">
        <ele>333</ele>
        <time>2011-07-31T06:18:51Z</time>
      </trkpt>
      <trkpt lat="49.18591" lon="6.95631">
        <ele>333</ele>
        <time>2011-07-31T06:18:53Z</time>
      </trkpt>
      <trkpt lat="49.1859" lon="6.95628">
        <ele>333</ele>
        <time>2011-07-31T06:18:55Z</time>
      </trkpt>
      <trkpt lat="49.18589" lon="6.95626">
        <ele>333</ele>
        <time>2011-07-31T06:18:56Z</time>
      </trkpt>
      <trkpt lat="49.18588" lon="6.95623">
        <ele>332</ele>
        <time>2011-07-31T06:18:58Z</time>
      </trkpt>
      <trkpt lat="49.18588" lon="6.95621">
        <ele>332</ele>
        <time>2011-07-31T06:18:59Z</time>
      </trkpt>
      <trkpt lat="49.18587" lon="6.95619">
        <ele>332</ele>
        <time>2011-07-31T06:19:00Z</time>
      </trkpt>
      <trkpt lat="49.18587" lon="6.95618">
        <ele>332</ele>
        <time>2011-07-31T06:19:01Z</time>
      </trkpt>
      <trkpt lat="49.18587" lon="6.95616">
        <ele>331</ele>
        <time>2011-07-31T06:19:02Z</time>
      </trkpt>
      <trkpt lat="49.18587" lon="6.95614">
        <ele>331</ele>
        <time>2011-07-31T06:19:03Z</time>
      </trkpt>
      <trkpt lat="49.18586" lon="6.95611">
        <ele>331</ele>
        <time>2011-07-31T06:19:05Z</time>
      </trkpt>
      <trkpt lat="49.18586" lon="6.95609">
        <ele>331</ele>
        <time>2011-07-31T06:19:06Z</time>
      </trkpt>
      <trkpt lat="49.18585" lon="6.95606">
        <ele>330</ele>
        <time>2011-07-31T06:19:08Z</time>
      </trkpt>
      <trkpt lat="49.18585" lon="6.95604">
        <ele>330</ele>
        <time>2011-07-31T06:19:09Z</time>
      </trkpt>
      <trkpt lat="49.18585" lon="6.95603">
        <ele>330</ele>
        <time>2011-07-31T06:19:10Z</time>
      </trkpt>
      <trkpt lat="49.18585" lon="6.95601">
        <ele>330</ele>
        <time>2011-07-31T06:19:11Z</time>
      </trkpt>
      <trkpt lat="49.18584" lon="6.95599">
        <ele>330</ele>
        <time>2011-07-31T06:19:12Z</time>
      </trkpt>
      <trkpt lat="49.18584" lon="6.95597">
        <ele>329</ele>
        <time>2011-07-31T06:19:13Z</time>
      </trkpt>
      <trkpt lat="49.18584" lon="6.95594">
        <ele>329</ele>
        <time>2011-07-31T06:19:15Z</time>
      </trkpt>
      <trkpt lat="49.18584" lon="6.95591">
        <ele>329</ele>
        <time>2011-07-31T06:19:17Z</time>
      </trkpt>
      <trkpt lat="49.18584" lon="6.95589">
        <ele>329</ele>
        <time>2011-07-31T06:19:18Z</time>
      </trkpt>
      <trkpt lat="49.18583" lon="6.95587">
        <ele>329</ele>
        <time>2011-07-31T06:19:19Z</time>
      </trkpt>
      <trkpt lat="49.18583" lon="6.95585">
        <ele>329</ele>
        <time>2011-07-31T06:19:20Z</time>
      </trkpt>
      <trkpt lat="49.18583" lon="6.95584">
        <ele>329</ele>
        <time>2011-07-31T06:19:21Z</time>
      </trkpt>
      <trkpt lat="49.18583" lon="6.95582">
        <ele>329</ele>
        <time>2011-07-31T06:19:22Z</time>
      </trkpt>
      <trkpt lat="49.18583" lon="6.9558">
        <ele>329</ele>
        <time>2011-07-31T06:19:23Z</time>
      </trkpt>
      <trkpt lat="49.18583" lon="6.95578">
        <ele>328</ele>
        <time>2011-07-31T06:19:24Z</time>
      </trkpt>
      <trkpt lat="49.18582" lon="6.95576">
        <ele>328</ele>
        <time>2011-07-31T06:19:25Z</time>
      </trkpt>
      <trkpt lat="49.18582" lon="6.95575">
        <ele>328</ele>
        <time>2011-07-31T06:19:26Z</time>
      </trkpt>
      <trkpt lat="49.18582" lon="6.95572">
        <ele>328</ele>
        <time>2011-07-31T06:19:28Z</time>
      </trkpt>
      <trkpt lat="49.18582" lon="6.9557">
        <ele>328</ele>
        <time>2011-07-31T06:19:29Z</time>
      </trkpt>
      <trkpt lat="49.18581" lon="6.95568">
        <ele>328</ele>
        <time>2011-07-31T06:19:30Z</time>
      </trkpt>
      <trkpt lat="49.18581" lon="6.95567">
        <ele>328</ele>
        <time>2011-07-31T06:19:31Z</time>
      </trkpt>
      <trkpt lat="49.18581" lon="6.95565">
        <ele>328</ele>
        <time>2011-07-31T06:19:32Z</time>
      </trkpt>
      <trkpt lat="49.18581" lon="6.95562">
        <ele>328</ele>
        <time>2011-07-31T06:19:33Z</time>
      </trkpt>
      <trkpt lat="49.18581" lon="6.9556">
        <ele>328</ele>
        <time>2011-07-31T06:19:34Z</time>
      </trkpt>
      <trkpt lat="49.18581" lon="6.95559">
        <ele>328</ele>
        <time>2011-07-31T06:19:35Z</time>
      </trkpt>
      <trkpt lat="49.1858" lon="6.95556">
        <ele>328</ele>
        <time>2011-07-31T06:19:37Z</time>
      </trkpt>
      <trkpt lat="49.1858" lon="6.95554">
        <ele>328</ele>
        <time>2011-07-31T06:19:38Z</time>
      </trkpt>
      <trkpt lat="49.1858" lon="6.95552">
        <ele>328</ele>
        <time>2011-07-31T06:19:39Z</time>
      </trkpt>
      <trkpt lat="49.18579" lon="6.9555">
        <ele>327</ele>
        <time>2011-07-31T06:19:40Z</time>
      </trkpt>
      <trkpt lat="49.18579" lon="6.95548">
        <ele>327</ele>
        <time>2011-07-31T06:19:41Z</time>
      </trkpt>
      <trkpt lat="49.18579" lon="6.95546">
        <ele>327</ele>
        <time>2011-07-31T06:19:42Z</time>
      </trkpt>
      <trkpt lat="49.1858" lon="6.95543">
        <ele>327</ele>
        <time>2011-07-31T06:19:44Z</time>
      </trkpt>
      <trkpt lat="49.1858" lon="6.95541">
        <ele>327</ele>
        <time>2011-07-31T06:19:45Z</time>
      </trkpt>
      <trkpt lat="49.1858" lon="6.9554">
        <ele>327</ele>
        <time>2011-07-31T06:19:46Z</time>
      </trkpt>
      <trkpt lat="49.1858" lon="6.95538">
        <ele>326</ele>
        <time>2011-07-31T06:19:47Z</time>
      </trkpt>
      <trkpt lat="49.1858" lon="6.95536">
        <ele>326</ele>
        <time>2011-07-31T06:19:48Z</time>
      </trkpt>
      <trkpt lat="49.18581" lon="6.95533">
        <ele>326</ele>
        <time>2011-07-31T06:19:50Z</time>
      </trkpt>
      <trkpt lat="49.18581" lon="6.95531">
        <ele>326</ele>
        <time>2011-07-31T06:19:51Z</time>
      </trkpt>
      <trkpt lat="49.18581" lon="6.95529">
        <ele>325</ele>
        <time>2011-07-31T06:19:52Z</time>
      </trkpt>
      <trkpt lat="49.18581" lon="6.95526">
        <ele>325</ele>
        <time>2011-07-31T06:19:54Z</time>
      </trkpt>
      <trkpt lat="49.18581" lon="6.95524">
        <ele>325</ele>
        <time>2011-07-31T06:19:55Z</time>
      </trkpt>
      <trkpt lat="49.18581" lon="6.95522">
        <ele>325</ele>
        <time>2011-07-31T06:19:57Z</time>
      </trkpt>
      <trkpt lat="49.1858" lon="6.9552">
        <ele>325</ele>
        <time>2011-07-31T06:19:58Z</time>
      </trkpt>
      <trkpt lat="49.1858" lon="6.95518">
        <ele>325</ele>
        <time>2011-07-31T06:19:59Z</time>
      </trkpt>
      <trkpt lat="49.1858" lon="6.95516">
        <ele>325</ele>
        <time>2011-07-31T06:20:00Z</time>
      </trkpt>
      <trkpt lat="49.1858" lon="6.95514">
        <ele>325</ele>
        <time>2011-07-31T06:20:01Z</time>
      </trkpt>
      <trkpt lat="49.18579" lon="6.95512">
        <ele>324</ele>
        <time>2011-07-31T06:20:02Z</time>
      </trkpt>
      <trkpt lat="49.18579" lon="6.9551">
        <ele>324</ele>
        <time>2011-07-31T06:20:03Z</time>
      </trkpt>
      <trkpt lat="49.18578" lon="6.95509">
        <ele>324</ele>
        <time>2011-07-31T06:20:04Z</time>
      </trkpt>
      <trkpt lat="49.18577" lon="6.95506">
        <ele>323</ele>
        <time>2011-07-31T06:20:06Z</time>
      </trkpt>
      <trkpt lat="49.18577" lon="6.95504">
        <ele>323</ele>
        <time>2011-07-31T06:20:07Z</time>
      </trkpt>
      <trkpt lat="49.18576" lon="6.95502">
        <ele>323</ele>
        <time>2011-07-31T06:20:08Z</time>
      </trkpt>
      <trkpt lat="49.18576" lon="6.95501">
        <ele>323</ele>
        <time>2011-07-31T06:20:09Z</time>
      </trkpt>
      <trkpt lat="49.18575" lon="6.95499">
        <ele>323</ele>
        <time>2011-07-31T06:20:10Z</time>
      </trkpt>
      <trkpt lat="49.18575" lon="6.95497">
        <ele>323</ele>
        <time>2011-07-31T06:20:11Z</time>
      </trkpt>
      <trkpt lat="49.18574" lon="6.95493">
        <ele>322</ele>
        <time>2011-07-31T06:20:13Z</time>
      </trkpt>
      <trkpt lat="49.18573" lon="6.95491">
        <ele>322</ele>
        <time>2011-07-31T06:20:15Z</time>
      </trkpt>
      <trkpt lat="49.18571" lon="6.95488">
        <ele>322</ele>
        <time>2011-07-31T06:20:17Z</time>
      </trkpt>
      <trkpt lat="49.1857" lon="6.95485">
        <ele>321</ele>
        <time>2011-07-31T06:20:19Z</time>
      </trkpt>
      <trkpt lat="49.18568" lon="6.95482">
        <ele>321</ele>
        <time>2011-07-31T06:20:21Z</time>
      </trkpt>
      <trkpt lat="49.18567" lon="6.9548">
        <ele>321</ele>
        <time>2011-07-31T06:20:23Z</time>
      </trkpt>
      <trkpt lat="49.18565" lon="6.95477">
        <ele>321</ele>
        <time>2011-07-31T06:20:25Z</time>
      </trkpt>
      <trkpt lat="49.18564" lon="6.95475">
        <ele>321</ele>
        <time>2011-07-31T06:20:26Z</time>
      </trkpt>
      <trkpt lat="49.18563" lon="6.95473">
        <ele>320</ele>
        <time>2011-07-31T06:20:27Z</time>
      </trkpt>
      <trkpt lat="49.18562" lon="6.95471">
        <ele>320</ele>
        <time>2011-07-31T06:20:29Z</time>
      </trkpt>
      <trkpt lat="49.18561" lon="6.95468">
        <ele>320</ele>
        <time>2011-07-31T06:20:31Z</time>
      </trkpt>
      <trkpt lat="49.1856" lon="6.95466">
        <ele>320</ele>
        <time>2011-07-31T06:20:32Z</time>
      </trkpt>
      <trkpt lat="49.1856" lon="6.95464">
        <ele>320</ele>
        <time>2011-07-31T06:20:33Z</time>
      </trkpt>
      <trkpt lat="49.18559" lon="6.95463">
        <ele>320</ele>
        <time>2011-07-31T06:20:34Z</time>
      </trkpt>
      <trkpt lat="49.18557" lon="6.9546">
        <ele>320</ele>
        <time>2011-07-31T06:20:36Z</time>
      </trkpt>
      <trkpt lat="49.18555" lon="6.95459">
        <ele>319</ele>
        <time>2011-07-31T06:20:38Z</time>
      </trkpt>
      <trkpt lat="49.18554" lon="6.95458">
        <ele>319</ele>
        <time>2011-07-31T06:20:39Z</time>
      </trkpt>
      <trkpt lat="49.18553" lon="6.95458">
        <ele>319</ele>
        <time>2011-07-31T06:20:40Z</time>
      </trkpt>
      <trkpt lat="49.18552" lon="6.95459">
        <ele>319</ele>
        <time>2011-07-31T06:20:41Z</time>
      </trkpt>
      <trkpt lat="49.1855" lon="6.95458">
        <ele>319</ele>
        <time>2011-07-31T06:20:42Z</time>
      </trkpt>
      <trkpt lat="49.18549" lon="6.95458">
        <ele>319</ele>
        <time>2011-07-31T06:20:44Z</time>
      </trkpt>
      <trkpt lat="49.18547" lon="6.95458">
        <ele>319</ele>
        <time>2011-07-31T06:20:46Z</time>
      </trkpt>
      <trkpt lat="49.18546" lon="6.95457">
        <ele>319</ele>
        <time>2011-07-31T06:20:47Z</time>
      </trkpt>
      <trkpt lat="49.18544" lon="6.95457">
        <ele>319</ele>
        <time>2011-07-31T06:20:48Z</time>
      </trkpt>
      <trkpt lat="49.18543" lon="6.95457">
        <ele>319</ele>
        <time>2011-07-31T06:20:49Z</time>
      </trkpt>
      <trkpt lat="49.18542" lon="6.95456">
        <ele>319</ele>
        <time>2011-07-31T06:20:50Z</time>
      </trkpt>
      <trkpt lat="49.1854" lon="6.95456">
        <ele>319</ele>
        <time>2011-07-31T06:20:52Z</time>
      </trkpt>
      <trkpt lat="49.18539" lon="6.95456">
        <ele>319</ele>
        <time>2011-07-31T06:20:53Z</time>
      </trkpt>
      <trkpt lat="49.18538" lon="6.95456">
        <ele>319</ele>
        <time>2011-07-31T06:20:54Z</time>
      </trkpt>
      <trkpt lat="49.18536" lon="6.95456">
        <ele>319</ele>
        <time>2011-07-31T06:20:56Z</time>
      </trkpt>
      <trkpt lat="49.18534" lon="6.95456">
        <ele>319</ele>
        <time>2011-07-31T06:20:57Z</time>
      </trkpt>
      <trkpt lat="49.18533" lon="6.95456">
        <ele>319</ele>
        <time>2011-07-31T06:20:58Z</time>
      </trkpt>
      <trkpt lat="49.18532" lon="6.95456">
        <ele>319</ele>
        <time>2011-07-31T06:20:59Z</time>
      </trkpt>
      <trkpt lat="49.1853" lon="6.95456">
        <ele>319</ele>
        <time>2011-07-31T06:21:00Z</time>
      </trkpt>
      <trkpt lat="49.18529" lon="6.95456">
        <ele>319</ele>
        <time>2011-07-31T06:21:01Z</time>
      </trkpt>
      <trkpt lat="49.18528" lon="6.95456">
        <ele>319</ele>
        <time>2011-07-31T06:21:02Z</time>
      </trkpt>
      <trkpt lat="49.18526" lon="6.95456">
        <ele>319</ele>
        <time>2011-07-31T06:21:03Z</time>
      </trkpt>
      <trkpt lat="49.18525" lon="6.95456">
        <ele>319</ele>
        <time>2011-07-31T06:21:04Z</time>
      </trkpt>
      <trkpt lat="49.18524" lon="6.95456">
        <ele>319</ele>
        <time>2011-07-31T06:21:05Z</time>
      </trkpt>
      <trkpt lat="49.18523" lon="6.95456">
        <ele>319</ele>
        <time>2011-07-31T06:21:06Z</time>
      </trkpt>
      <trkpt lat="49.18522" lon="6.95456">
        <ele>319</ele>
        <time>2011-07-31T06:21:07Z</time>
      </trkpt>
      <trkpt lat="49.1852" lon="6.95456">
        <ele>319</ele>
        <time>2011-07-31T06:21:08Z</time>
      </trkpt>
      <trkpt lat="49.18519" lon="6.95456">
        <ele>319</ele>
        <time>2011-07-31T06:21:09Z</time>
      </trkpt>
      <trkpt lat="49.18518" lon="6.95456">
        <ele>319</ele>
        <time>2011-07-31T06:21:10Z</time>
      </trkpt>
      <trkpt lat="49.18517" lon="6.95456">
        <ele>319</ele>
        <time>2011-07-31T06:21:11Z</time>
      </trkpt>
      <trkpt lat="49.18515" lon="6.95456">
        <ele>319</ele>
        <time>2011-07-31T06:21:12Z</time>
      </trkpt>
      <trkpt lat="49.18514" lon="6.95456">
        <ele>319</ele>
        <time>2011-07-31T06:21:13Z</time>
      </trkpt>
      <trkpt lat="49.18513" lon="6.95456">
        <ele>319</ele>
        <time>2011-07-31T06:21:14Z</time>
      </trkpt>
      <trkpt lat="49.18512" lon="6.95456">
        <ele>319</ele>
        <time>2011-07-31T06:21:15Z</time>
      </trkpt>
      <trkpt lat="49.18509" lon="6.95456">
        <ele>319</ele>
        <time>2011-07-31T06:21:17Z</time>
      </trkpt>
      <trkpt lat="49.18508" lon="6.95456">
        <ele>319</ele>
        <time>2011-07-31T06:21:18Z</time>
      </trkpt>
      <trkpt lat="49.18507" lon="6.95456">
        <ele>319</ele>
        <time>2011-07-31T06:21:19Z</time>
      </trkpt>
      <trkpt lat="49.18505" lon="6.95456">
        <ele>319</ele>
        <time>2011-07-31T06:21:20Z</time>
      </trkpt>
      <trkpt lat="49.18504" lon="6.95456">
        <ele>319</ele>
        <time>2011-07-31T06:21:21Z</time>
      </trkpt>
      <trkpt lat="49.18502" lon="6.95456">
        <ele>319</ele>
        <time>2011-07-31T06:21:23Z</time>
      </trkpt>
      <trkpt lat="49.18501" lon="6.95456">
        <ele>319</ele>
        <time>2011-07-31T06:21:24Z</time>
      </trkpt>
      <trkpt lat="49.18499" lon="6.95456">
        <ele>319</ele>
        <time>2011-07-31T06:21:25Z</time>
      </trkpt>
      <trkpt lat="49.18498" lon="6.95456">
        <ele>319</ele>
        <time>2011-07-31T06:21:26Z</time>
      </trkpt>
      <trkpt lat="49.18497" lon="6.95456">
        <ele>319</ele>
        <time>2011-07-31T06:21:27Z</time>
      </trkpt>
      <trkpt lat="49.18496" lon="6.95456">
        <ele>319</ele>
        <time>2011-07-31T06:21:29Z</time>
      </trkpt>
      <trkpt lat="49.18494" lon="6.95456">
        <ele>319</ele>
        <time>2011-07-31T06:21:30Z</time>
      </trkpt>
      <trkpt lat="49.18493" lon="6.95456">
        <ele>319</ele>
        <time>2011-07-31T06:21:31Z</time>
      </trkpt>
      <trkpt lat="49.18492" lon="6.95456">
        <ele>319</ele>
        <time>2011-07-31T06:21:32Z</time>
      </trkpt>
      <trkpt lat="49.18491" lon="6.95457">
        <ele>319</ele>
        <time>2011-07-31T06:21:33Z</time>
      </trkpt>
      <trkpt lat="49.18489" lon="6.95456">
        <ele>319</ele>
        <time>2011-07-31T06:21:34Z</time>
      </trkpt>
      <trkpt lat="49.18488" lon="6.95456">
        <ele>319</ele>
        <time>2011-07-31T06:21:35Z</time>
      </trkpt>
      <trkpt lat="49.18487" lon="6.95456">
        <ele>319</ele>
        <time>2011-07-31T06:21:36Z</time>
      </trkpt>
      <trkpt lat="49.18484" lon="6.95456">
        <ele>319</ele>
        <time>2011-07-31T06:21:38Z</time>
      </trkpt>
      <trkpt lat="49.18483" lon="6.95456">
        <ele>319</ele>
        <time>2011-07-31T06:21:39Z</time>
      </trkpt>
      <trkpt lat="49.18482" lon="6.95456">
        <ele>319</ele>
        <time>2011-07-31T06:21:40Z</time>
      </trkpt>
      <trkpt lat="49.1848" lon="6.95456">
        <ele>319</ele>
        <time>2011-07-31T06:21:41Z</time>
      </trkpt>
      <trkpt lat="49.18479" lon="6.95456">
        <ele>319</ele>
        <time>2011-07-31T06:21:42Z</time>
      </trkpt>
      <trkpt lat="49.18477" lon="6.95456">
        <ele>319</ele>
        <time>2011-07-31T06:21:44Z</time>
      </trkpt>
      <trkpt lat="49.18476" lon="6.95456">
        <ele>319</ele>
        <time>2011-07-31T06:21:45Z</time>
      </trkpt>
      <trkpt lat="49.18475" lon="6.95456">
        <ele>319</ele>
        <time>2011-07-31T06:21:46Z</time>
      </trkpt>
      <trkpt lat="49.18473" lon="6.95455">
        <ele>319</ele>
        <time>2011-07-31T06:21:47Z</time>
      </trkpt>
      <trkpt lat="49.18472" lon="6.95455">
        <ele>319</ele>
        <time>2011-07-31T06:21:48Z</time>
      </trkpt>
      <trkpt lat="49.1847" lon="6.95455">
        <ele>319</ele>
        <time>2011-07-31T06:21:49Z</time>
      </trkpt>
      <trkpt lat="49.18469" lon="6.95455">
        <ele>319</ele>
        <time>2011-07-31T06:21:50Z</time>
      </trkpt>
      <trkpt lat="49.18468" lon="6.95455">
        <ele>319</ele>
        <time>2011-07-31T06:21:51Z</time>
      </trkpt>
      <trkpt lat="49.18467" lon="6.95455">
        <ele>319</ele>
        <time>2011-07-31T06:21:52Z</time>
      </trkpt>
      <trkpt lat="49.18466" lon="6.95455">
        <ele>319</ele>
        <time>2011-07-31T06:21:53Z</time>
      </trkpt>
      <trkpt lat="49.18465" lon="6.95455">
        <ele>319</ele>
        <time>2011-07-31T06:21:54Z</time>
      </trkpt>
      <trkpt lat="49.18463" lon="6.95455">
        <ele>319</ele>
        <time>2011-07-31T06:21:55Z</time>
      </trkpt>
      <trkpt lat="49.18462" lon="6.95455">
        <ele>319</ele>
        <time>2011-07-31T06:21:56Z</time>
      </trkpt>
      <trkpt lat="49.18461" lon="6.95455">
        <ele>319</ele>
        <time>2011-07-31T06:21:57Z</time>
      </trkpt>
      <trkpt lat="49.18459" lon="6.95454">
        <ele>319</ele>
        <time>2011-07-31T06:21:58Z</time>
      </trkpt>
      <trkpt lat="49.18458" lon="6.95454">
        <ele>319</ele>
        <time>2011-07-31T06:22:00Z</time>
      </trkpt>
      <trkpt lat="49.18456" lon="6.95454">
        <ele>319</ele>
        <time>2011-07-31T06:22:02Z</time>
      </trkpt>
      <trkpt lat="49.18454" lon="6.95455">
        <ele>319</ele>
        <time>2011-07-31T06:22:03Z</time>
      </trkpt>
      <trkpt lat="49.18452" lon="6.95455">
        <ele>319</ele>
        <time>2011-07-31T06:22:04Z</time>
      </trkpt>
      <trkpt lat="49.18451" lon="6.95455">
        <ele>319</ele>
        <time>2011-07-31T06:22:05Z</time>
      </trkpt>
      <trkpt lat="49.18449" lon="6.95455">
        <ele>319</ele>
        <time>2011-07-31T06:22:07Z</time>
      </trkpt>
      <trkpt lat="49.18448" lon="6.95455">
        <ele>319</ele>
        <time>2011-07-31T06:22:08Z</time>
      </trkpt>
      <trkpt lat="49.18447" lon="6.95454">
        <ele>319</ele>
        <time>2011-07-31T06:22:09Z</time>
      </trkpt>
      <trkpt lat="49.18446" lon="6.95454">
        <ele>319</ele>
        <time>2011-07-31T06:22:10Z</time>
      </trkpt>
      <trkpt lat="49.18444" lon="6.95454">
        <ele>319</ele>
        <time>2011-07-31T06:22:11Z</time>
      </trkpt>
      <trkpt lat="49.18443" lon="6.95454">
        <ele>319</ele>
        <time>2011-07-31T06:22:12Z</time>
      </trkpt>
      <trkpt lat="49.18441" lon="6.95453">
        <ele>319</ele>
        <time>2011-07-31T06:22:14Z</time>
      </trkpt>
      <trkpt lat="49.1844" lon="6.95453">
        <ele>319</ele>
        <time>2011-07-31T06:22:15Z</time>
      </trkpt>
      <trkpt lat="49.18438" lon="6.95452">
        <ele>319</ele>
        <time>2011-07-31T06:22:17Z</time>
      </trkpt>
      <trkpt lat="49.18436" lon="6.95452">
        <ele>319</ele>
        <time>2011-07-31T06:22:18Z</time>
      </trkpt>
      <trkpt lat="49.18435" lon="6.95452">
        <ele>319</ele>
        <time>2011-07-31T06:22:20Z</time>
      </trkpt>
      <trkpt lat="49.18433" lon="6.95452">
        <ele>319</ele>
        <time>2011-07-31T06:22:21Z</time>
      </trkpt>
      <trkpt lat="49.18432" lon="6.95451">
        <ele>319</ele>
        <time>2011-07-31T06:22:22Z</time>
      </trkpt>
      <trkpt lat="49.1843" lon="6.95451">
        <ele>319</ele>
        <time>2011-07-31T06:22:24Z</time>
      </trkpt>
      <trkpt lat="49.18428" lon="6.95451">
        <ele>319</ele>
        <time>2011-07-31T06:22:26Z</time>
      </trkpt>
      <trkpt lat="49.18427" lon="6.9545">
        <ele>319</ele>
        <time>2011-07-31T06:22:27Z</time>
      </trkpt>
      <trkpt lat="49.18426" lon="6.9545">
        <ele>319</ele>
        <time>2011-07-31T06:22:28Z</time>
      </trkpt>
      <trkpt lat="49.18425" lon="6.9545">
        <ele>319</ele>
        <time>2011-07-31T06:22:29Z</time>
      </trkpt>
      <trkpt lat="49.18423" lon="6.9545">
        <ele>319</ele>
        <time>2011-07-31T06:22:30Z</time>
      </trkpt>
      <trkpt lat="49.18422" lon="6.95449">
        <ele>319</ele>
        <time>2011-07-31T06:22:31Z</time>
      </trkpt>
      <trkpt lat="49.1842" lon="6.95448">
        <ele>319</ele>
        <time>2011-07-31T06:22:33Z</time>
      </trkpt>
      <trkpt lat="49.18419" lon="6.95445">
        <ele>319</ele>
        <time>2011-07-31T06:22:35Z</time>
      </trkpt>
      <trkpt lat="49.18417" lon="6.95442">
        <ele>319</ele>
        <time>2011-07-31T06:22:37Z</time>
      </trkpt>
      <trkpt lat="49.18417" lon="6.9544">
        <ele>319</ele>
        <time>2011-07-31T06:22:38Z</time>
      </trkpt>
      <trkpt lat="49.18417" lon="6.95437">
        <ele>319</ele>
        <time>2011-07-31T06:22:40Z</time>
      </trkpt>
      <trkpt lat="49.18417" lon="6.95434">
        <ele>319</ele>
        <time>2011-07-31T06:22:42Z</time>
      </trkpt>
      <trkpt lat="49.18417" lon="6.95433">
        <ele>319</ele>
        <time>2011-07-31T06:22:43Z</time>
      </trkpt>
      <trkpt lat="49.18417" lon="6.9543">
        <ele>319</ele>
        <time>2011-07-31T06:22:44Z</time>
      </trkpt>
      <trkpt lat="49.18417" lon="6.95429">
        <ele>318</ele>
        <time>2011-07-31T06:22:45Z</time>
      </trkpt>
      <trkpt lat="49.18416" lon="6.95427">
        <ele>318</ele>
        <time>2011-07-31T06:22:46Z</time>
      </trkpt>
      <trkpt lat="49.18416" lon="6.95424">
        <ele>318</ele>
        <time>2011-07-31T06:22:48Z</time>
      </trkpt>
      <trkpt lat="49.18416" lon="6.95422">
        <ele>317</ele>
        <time>2011-07-31T06:22:49Z</time>
      </trkpt>
      <trkpt lat="49.18416" lon="6.9542">
        <ele>317</ele>
        <time>2011-07-31T06:22:50Z</time>
      </trkpt>
      <trkpt lat="49.18417" lon="6.95417">
        <ele>316</ele>
        <time>2011-07-31T06:22:52Z</time>
      </trkpt>
      <trkpt lat="49.18417" lon="6.95414">
        <ele>315</ele>
        <time>2011-07-31T06:22:54Z</time>
      </trkpt>
      <trkpt lat="49.18417" lon="6.95412">
        <ele>315</ele>
        <time>2011-07-31T06:22:55Z</time>
      </trkpt>
      <trkpt lat="49.18417" lon="6.95411">
        <ele>315</ele>
        <time>2011-07-31T06:22:56Z</time>
      </trkpt>
      <trkpt lat="49.18417" lon="6.95409">
        <ele>314</ele>
        <time>2011-07-31T06:22:57Z</time>
      </trkpt>
      <trkpt lat="49.18417" lon="6.95407">
        <ele>314</ele>
        <time>2011-07-31T06:22:58Z</time>
      </trkpt>
      <trkpt lat="49.18418" lon="6.95404">
        <ele>313</ele>
        <time>2011-07-31T06:23:00Z</time>
      </trkpt>
      <trkpt lat="49.18418" lon="6.95401">
        <ele>312</ele>
        <time>2011-07-31T06:23:02Z</time>
      </trkpt>
      <trkpt lat="49.18418" lon="6.954">
        <ele>312</ele>
        <time>2011-07-31T06:23:03Z</time>
      </trkpt>
      <trkpt lat="49.18418" lon="6.95398">
        <ele>312</ele>
        <time>2011-07-31T06:23:04Z</time>
      </trkpt>
      <trkpt lat="49.18418" lon="6.95396">
        <ele>311</ele>
        <time>2011-07-31T06:23:05Z</time>
      </trkpt>
      <trkpt lat="49.18418" lon="6.95394">
        <ele>311</ele>
        <time>2011-07-31T06:23:06Z</time>
      </trkpt>
      <trkpt lat="49.18418" lon="6.95393">
        <ele>311</ele>
        <time>2011-07-31T06:23:07Z</time>
      </trkpt>
      <trkpt lat="49.18418" lon="6.95391">
        <ele>311</ele>
        <time>2011-07-31T06:23:08Z</time>
      </trkpt>
      <trkpt lat="49.18418" lon="6.95389">
        <ele>311</ele>
        <time>2011-07-31T06:23:09Z</time>
      </trkpt>
      <trkpt lat="49.18418" lon="6.95387">
        <ele>311</ele>
        <time>2011-07-31T06:23:10Z</time>
      </trkpt>
      <trkpt lat="49.18418" lon="6.95384">
        <ele>310</ele>
        <time>2011-07-31T06:23:12Z</time>
      </trkpt>
      <trkpt lat="49.18418" lon="6.95382">
        <ele>310</ele>
        <time>2011-07-31T06:23:13Z</time>
      </trkpt>
      <trkpt lat="49.18418" lon="6.95381">
        <ele>310</ele>
        <time>2011-07-31T06:23:14Z</time>
      </trkpt>
      <trkpt lat="49.18418" lon="6.95379">
        <ele>310</ele>
        <time>2011-07-31T06:23:15Z</time>
      </trkpt>
      <trkpt lat="49.18418" lon="6.95377">
        <ele>309</ele>
        <time>2011-07-31T06:23:16Z</time>
      </trkpt>
      <trkpt lat="49.18418" lon="6.95375">
        <ele>309</ele>
        <time>2011-07-31T06:23:17Z</time>
      </trkpt>
      <trkpt lat="49.18418" lon="6.95373">
        <ele>309</ele>
        <time>2011-07-31T06:23:18Z</time>
      </trkpt>
      <trkpt lat="49.18418" lon="6.95372">
        <ele>309</ele>
        <time>2011-07-31T06:23:19Z</time>
      </trkpt>
      <trkpt lat="49.18418" lon="6.9537">
        <ele>308</ele>
        <time>2011-07-31T06:23:20Z</time>
      </trkpt>
      <trkpt lat="49.18418" lon="6.95368">
        <ele>308</ele>
        <time>2011-07-31T06:23:21Z</time>
      </trkpt>
      <trkpt lat="49.18418" lon="6.95367">
        <ele>308</ele>
        <time>2011-07-31T06:23:22Z</time>
      </trkpt>
      <trkpt lat="49.18417" lon="6.95365">
        <ele>308</ele>
        <time>2011-07-31T06:23:23Z</time>
      </trkpt>
      <trkpt lat="49.18417" lon="6.95363">
        <ele>308</ele>
        <time>2011-07-31T06:23:24Z</time>
      </trkpt>
      <trkpt lat="49.18417" lon="6.95361">
        <ele>307</ele>
        <time>2011-07-31T06:23:25Z</time>
      </trkpt>
      <trkpt lat="49.18417" lon="6.9536">
        <ele>307</ele>
        <time>2011-07-31T06:23:26Z</time>
      </trkpt>
      <trkpt lat="49.18417" lon="6.95357">
        <ele>307</ele>
        <time>2011-07-31T06:23:28Z</time>
      </trkpt>
      <trkpt lat="49.18417" lon="6.95355">
        <ele>307</ele>
        <time>2011-07-31T06:23:29Z</time>
      </trkpt>
      <trkpt lat="49.18416" lon="6.95352">
        <ele>307</ele>
        <time>2011-07-31T06:23:31Z</time>
      </trkpt>
      <trkpt lat="49.18415" lon="6.9535">
        <ele>307</ele>
        <time>2011-07-31T06:23:32Z</time>
      </trkpt>
      <trkpt lat="49.18415" lon="6.95348">
        <ele>307</ele>
        <time>2011-07-31T06:23:33Z</time>
      </trkpt>
      <trkpt lat="49.18415" lon="6.95344">
        <ele>307</ele>
        <time>2011-07-31T06:23:35Z</time>
      </trkpt>
      <trkpt lat="49.18414" lon="6.95343">
        <ele>307</ele>
        <time>2011-07-31T06:23:36Z</time>
      </trkpt>
      <trkpt lat="49.18414" lon="6.95341">
        <ele>307</ele>
        <time>2011-07-31T06:23:37Z</time>
      </trkpt>
      <trkpt lat="49.18414" lon="6.95339">
        <ele>307</ele>
        <time>2011-07-31T06:23:38Z</time>
      </trkpt>
      <trkpt lat="49.18414" lon="6.95336">
        <ele>307</ele>
        <time>2011-07-31T06:23:40Z</time>
      </trkpt>
      <trkpt lat="49.18414" lon="6.95335">
        <ele>307</ele>
        <time>2011-07-31T06:23:41Z</time>
      </trkpt>
      <trkpt lat="49.18414" lon="6.95333">
        <ele>307</ele>
        <time>2011-07-31T06:23:42Z</time>
      </trkpt>
      <trkpt lat="49.18414" lon="6.95331">
        <ele>307</ele>
        <time>2011-07-31T06:23:43Z</time>
      </trkpt>
      <trkpt lat="49.18414" lon="6.95329">
        <ele>307</ele>
        <time>2011-07-31T06:23:44Z</time>
      </trkpt>
      <trkpt lat="49.18414" lon="6.95327">
        <ele>307</ele>
        <time>2011-07-31T06:23:45Z</time>
      </trkpt>
      <trkpt lat="49.18414" lon="6.95324">
        <ele>307</ele>
        <time>2011-07-31T06:23:47Z</time>
      </trkpt>
      <trkpt lat="49.18414" lon="6.95322">
        <ele>307</ele>
        <time>2011-07-31T06:23:48Z</time>
      </trkpt>
      <trkpt lat="49.18413" lon="6.9532">
        <ele>307</ele>
        <time>2011-07-31T06:23:50Z</time>
      </trkpt>
      <trkpt lat="49.18412" lon="6.95317">
        <ele>307</ele>
        <time>2011-07-31T06:23:52Z</time>
      </trkpt>
      <trkpt lat="49.18412" lon="6.95315">
        <ele>307</ele>
        <time>2011-07-31T06:23:53Z</time>
      </trkpt>
      <trkpt lat="49.18412" lon="6.95313">
        <ele>307</ele>
        <time>2011-07-31T06:23:54Z</time>
      </trkpt>
      <trkpt lat="49.18412" lon="6.9531">
        <ele>307</ele>
        <time>2011-07-31T06:23:56Z</time>
      </trkpt>
      <trkpt lat="49.18412" lon="6.95308">
        <ele>307</ele>
        <time>2011-07-31T06:23:57Z</time>
      </trkpt>
      <trkpt lat="49.18412" lon="6.95306">
        <ele>307</ele>
        <time>2011-07-31T06:23:58Z</time>
      </trkpt>
      <trkpt lat="49.18413" lon="6.95303">
        <ele>307</ele>
        <time>2011-07-31T06:24:00Z</time>
      </trkpt>
      <trkpt lat="49.18413" lon="6.95301">
        <ele>307</ele>
        <time>2011-07-31T06:24:01Z</time>
      </trkpt>
      <trkpt lat="49.18413" lon="6.95298">
        <ele>307</ele>
        <time>2011-07-31T06:24:02Z</time>
      </trkpt>
      <trkpt lat="49.18414" lon="6.95296">
        <ele>307</ele>
        <time>2011-07-31T06:24:04Z</time>
      </trkpt>
      <trkpt lat="49.18415" lon="6.95293">
        <ele>307</ele>
        <time>2011-07-31T06:24:06Z</time>
      </trkpt>
      <trkpt lat="49.18417" lon="6.95291">
        <ele>307</ele>
        <time>2011-07-31T06:24:08Z</time>
      </trkpt>
      <trkpt lat="49.18417" lon="6.95288">
        <ele>307</ele>
        <time>2011-07-31T06:24:10Z</time>
      </trkpt>
      <trkpt lat="49.18419" lon="6.95286">
        <ele>306</ele>
        <time>2011-07-31T06:24:12Z</time>
      </trkpt>
      <trkpt lat="49.1842" lon="6.95283">
        <ele>306</ele>
        <time>2011-07-31T06:24:14Z</time>
      </trkpt>
      <trkpt lat="49.18421" lon="6.9528">
        <ele>305</ele>
        <time>2011-07-31T06:24:16Z</time>
      </trkpt>
      <trkpt lat="49.18421" lon="6.95278">
        <ele>305</ele>
        <time>2011-07-31T06:24:18Z</time>
      </trkpt>
      <trkpt lat="49.18422" lon="6.95275">
        <ele>304</ele>
        <time>2011-07-31T06:24:20Z</time>
      </trkpt>
      <trkpt lat="49.18422" lon="6.95273">
        <ele>303</ele>
        <time>2011-07-31T06:24:22Z</time>
      </trkpt>
      <trkpt lat="49.18424" lon="6.9527">
        <ele>302</ele>
        <time>2011-07-31T06:24:24Z</time>
      </trkpt>
      <trkpt lat="49.18424" lon="6.95268">
        <ele>302</ele>
        <time>2011-07-31T06:24:25Z</time>
      </trkpt>
      <trkpt lat="49.18424" lon="6.95265">
        <ele>302</ele>
        <time>2011-07-31T06:24:26Z</time>
      </trkpt>
      <trkpt lat="49.18424" lon="6.95263">
        <ele>302</ele>
        <time>2011-07-31T06:24:27Z</time>
      </trkpt>
      <trkpt lat="49.18424" lon="6.95262">
        <ele>302</ele>
        <time>2011-07-31T06:24:28Z</time>
      </trkpt>
      <trkpt lat="49.18425" lon="6.9526">
        <ele>302</ele>
        <time>2011-07-31T06:24:29Z</time>
      </trkpt>
      <trkpt lat="49.18425" lon="6.95257">
        <ele>302</ele>
        <time>2011-07-31T06:24:31Z</time>
      </trkpt>
      <trkpt lat="49.18426" lon="6.95255">
        <ele>302</ele>
        <time>2011-07-31T06:24:32Z</time>
      </trkpt>
      <trkpt lat="49.18426" lon="6.95253">
        <ele>302</ele>
        <time>2011-07-31T06:24:33Z</time>
      </trkpt>
      <trkpt lat="49.18427" lon="6.95251">
        <ele>302</ele>
        <time>2011-07-31T06:24:34Z</time>
      </trkpt>
      <trkpt lat="49.18427" lon="6.95248">
        <ele>302</ele>
        <time>2011-07-31T06:24:36Z</time>
      </trkpt>
      <trkpt lat="49.18427" lon="6.95246">
        <ele>302</ele>
        <time>2011-07-31T06:24:37Z</time>
      </trkpt>
      <trkpt lat="49.18428" lon="6.95243">
        <ele>302</ele>
        <time>2011-07-31T06:24:38Z</time>
      </trkpt>
      <trkpt lat="49.18428" lon="6.95241">
        <ele>302</ele>
        <time>2011-07-31T06:24:39Z</time>
      </trkpt>
      <trkpt lat="49.18428" lon="6.95239">
        <ele>302</ele>
        <time>2011-07-31T06:24:40Z</time>
      </trkpt>
      <trkpt lat="49.18428" lon="6.95238">
        <ele>302</ele>
        <time>2011-07-31T06:24:41Z</time>
      </trkpt>
      <trkpt lat="49.18428" lon="6.95234">
        <ele>302</ele>
        <time>2011-07-31T06:24:43Z</time>
      </trkpt>
      <trkpt lat="49.18427" lon="6.95232">
        <ele>302</ele>
        <time>2011-07-31T06:24:44Z</time>
      </trkpt>
      <trkpt lat="49.18427" lon="6.95231">
        <ele>302</ele>
        <time>2011-07-31T06:24:45Z</time>
      </trkpt>
      <trkpt lat="49.18427" lon="6.95229">
        <ele>302</ele>
        <time>2011-07-31T06:24:46Z</time>
      </trkpt>
      <trkpt lat="49.18427" lon="6.95227">
        <ele>302</ele>
        <time>2011-07-31T06:24:47Z</time>
      </trkpt>
      <trkpt lat="49.18427" lon="6.95225">
        <ele>302</ele>
        <time>2011-07-31T06:24:48Z</time>
      </trkpt>
      <trkpt lat="49.18426" lon="6.95222">
        <ele>302</ele>
        <time>2011-07-31T06:24:50Z</time>
      </trkpt>
      <trkpt lat="49.18426" lon="6.9522">
        <ele>302</ele>
        <time>2011-07-31T06:24:51Z</time>
      </trkpt>
      <trkpt lat="49.18426" lon="6.95218">
        <ele>302</ele>
        <time>2011-07-31T06:24:52Z</time>
      </trkpt>
      <trkpt lat="49.18425" lon="6.95216">
        <ele>302</ele>
        <time>2011-07-31T06:24:53Z</time>
      </trkpt>
      <trkpt lat="49.18425" lon="6.95214">
        <ele>302</ele>
        <time>2011-07-31T06:24:54Z</time>
      </trkpt>
      <trkpt lat="49.18424" lon="6.95211">
        <ele>302</ele>
        <time>2011-07-31T06:24:56Z</time>
      </trkpt>
      <trkpt lat="49.18424" lon="6.95209">
        <ele>302</ele>
        <time>2011-07-31T06:24:57Z</time>
      </trkpt>
      <trkpt lat="49.18424" lon="6.95208">
        <ele>302</ele>
        <time>2011-07-31T06:24:58Z</time>
      </trkpt>
      <trkpt lat="49.18423" lon="6.95206">
        <ele>302</ele>
        <time>2011-07-31T06:24:59Z</time>
      </trkpt>
      <trkpt lat="49.18423" lon="6.95204">
        <ele>302</ele>
        <time>2011-07-31T06:25:00Z</time>
      </trkpt>
      <trkpt lat="49.18423" lon="6.95202">
        <ele>302</ele>
        <time>2011-07-31T06:25:01Z</time>
      </trkpt>
      <trkpt lat="49.18423" lon="6.952">
        <ele>302</ele>
        <time>2011-07-31T06:25:02Z</time>
      </trkpt>
      <trkpt lat="49.18422" lon="6.95199">
        <ele>302</ele>
        <time>2011-07-31T06:25:03Z</time>
      </trkpt>
      <trkpt lat="49.18422" lon="6.95197">
        <ele>302</ele>
        <time>2011-07-31T06:25:04Z</time>
      </trkpt>
      <trkpt lat="49.18422" lon="6.95195">
        <ele>302</ele>
        <time>2011-07-31T06:25:05Z</time>
      </trkpt>
      <trkpt lat="49.18422" lon="6.95194">
        <ele>302</ele>
        <time>2011-07-31T06:25:06Z</time>
      </trkpt>
      <trkpt lat="49.18421" lon="6.95191">
        <ele>302</ele>
        <time>2011-07-31T06:25:08Z</time>
      </trkpt>
      <trkpt lat="49.18421" lon="6.95189">
        <ele>302</ele>
        <time>2011-07-31T06:25:09Z</time>
      </trkpt>
      <trkpt lat="49.18421" lon="6.95188">
        <ele>302</ele>
        <time>2011-07-31T06:25:10Z</time>
      </trkpt>
      <trkpt lat="49.1842" lon="6.95186">
        <ele>302</ele>
        <time>2011-07-31T06:25:11Z</time>
      </trkpt>
      <trkpt lat="49.1842" lon="6.95183">
        <ele>302</ele>
        <time>2011-07-31T06:25:13Z</time>
      </trkpt>
      <trkpt lat="49.18419" lon="6.9518">
        <ele>302</ele>
        <time>2011-07-31T06:25:15Z</time>
      </trkpt>
      <trkpt lat="49.18419" lon="6.95178">
        <ele>302</ele>
        <time>2011-07-31T06:25:16Z</time>
      </trkpt>
      <trkpt lat="49.18419" lon="6.95176">
        <ele>302</ele>
        <time>2011-07-31T06:25:17Z</time>
      </trkpt>
      <trkpt lat="49.18418" lon="6.95173">
        <ele>302</ele>
        <time>2011-07-31T06:25:19Z</time>
      </trkpt>
      <trkpt lat="49.18418" lon="6.95171">
        <ele>302</ele>
        <time>2011-07-31T06:25:20Z</time>
      </trkpt>
      <trkpt lat="49.18418" lon="6.95169">
        <ele>302</ele>
        <time>2011-07-31T06:25:21Z</time>
      </trkpt>
      <trkpt lat="49.18418" lon="6.95168">
        <ele>302</ele>
        <time>2011-07-31T06:25:22Z</time>
      </trkpt>
      <trkpt lat="49.18417" lon="6.95166">
        <ele>302</ele>
        <time>2011-07-31T06:25:23Z</time>
      </trkpt>
      <trkpt lat="49.18417" lon="6.95164">
        <ele>302</ele>
        <time>2011-07-31T06:25:24Z</time>
      </trkpt>
      <trkpt lat="49.18417" lon="6.95163">
        <ele>302</ele>
        <time>2011-07-31T06:25:25Z</time>
      </trkpt>
      <trkpt lat="49.18417" lon="6.95161">
        <ele>302</ele>
        <time>2011-07-31T06:25:26Z</time>
      </trkpt>
      <trkpt lat="49.18417" lon="6.95159">
        <ele>302</ele>
        <time>2011-07-31T06:25:27Z</time>
      </trkpt>
      <trkpt lat="49.18417" lon="6.95156">
        <ele>302</ele>
        <time>2011-07-31T06:25:29Z</time>
      </trkpt>
      <trkpt lat="49.18416" lon="6.95154">
        <ele>302</ele>
        <time>2011-07-31T06:25:30Z</time>
      </trkpt>
      <trkpt lat="49.18416" lon="6.95153">
        <ele>302</ele>
        <time>2011-07-31T06:25:31Z</time>
      </trkpt>
      <trkpt lat="49.18416" lon="6.95151">
        <ele>302</ele>
        <time>2011-07-31T06:25:32Z</time>
      </trkpt>
      <trkpt lat="49.18416" lon="6.9515">
        <ele>302</ele>
        <time>2011-07-31T06:25:33Z</time>
      </trkpt>
      <trkpt lat="49.18416" lon="6.95146">
        <ele>303</ele>
        <time>2011-07-31T06:25:35Z</time>
      </trkpt>
      <trkpt lat="49.18416" lon="6.95145">
        <ele>303</ele>
        <time>2011-07-31T06:25:36Z</time>
      </trkpt>
      <trkpt lat="49.18416" lon="6.95143">
        <ele>303</ele>
        <time>2011-07-31T06:25:37Z</time>
      </trkpt>
      <trkpt lat="49.18415" lon="6.9514">
        <ele>303</ele>
        <time>2011-07-31T06:25:39Z</time>
      </trkpt>
      <trkpt lat="49.18415" lon="6.95138">
        <ele>303</ele>
        <time>2011-07-31T06:25:40Z</time>
      </trkpt>
      <trkpt lat="49.18415" lon="6.95137">
        <ele>303</ele>
        <time>2011-07-31T06:25:41Z</time>
      </trkpt>
      <trkpt lat="49.18415" lon="6.95135">
        <ele>303</ele>
        <time>2011-07-31T06:25:42Z</time>
      </trkpt>
      <trkpt lat="49.18414" lon="6.95132">
        <ele>303</ele>
        <time>2011-07-31T06:25:44Z</time>
      </trkpt>
      <trkpt lat="49.18414" lon="6.9513">
        <ele>303</ele>
        <time>2011-07-31T06:25:45Z</time>
      </trkpt>
      <trkpt lat="49.18414" lon="6.95128">
        <ele>303</ele>
        <time>2011-07-31T06:25:46Z</time>
      </trkpt>
      <trkpt lat="49.18414" lon="6.95125">
        <ele>303</ele>
        <time>2011-07-31T06:25:48Z</time>
      </trkpt>
      <trkpt lat="49.18413" lon="6.95124">
        <ele>303</ele>
        <time>2011-07-31T06:25:49Z</time>
      </trkpt>
      <trkpt lat="49.18413" lon="6.95122">
        <ele>303</ele>
        <time>2011-07-31T06:25:50Z</time>
      </trkpt>
      <trkpt lat="49.18413" lon="6.9512">
        <ele>303</ele>
        <time>2011-07-31T06:25:51Z</time>
      </trkpt>
      <trkpt lat="49.18412" lon="6.95119">
        <ele>303</ele>
        <time>2011-07-31T06:25:52Z</time>
      </trkpt>
      <trkpt lat="49.18412" lon="6.95117">
        <ele>303</ele>
        <time>2011-07-31T06:25:53Z</time>
      </trkpt>
      <trkpt lat="49.18412" lon="6.95115">
        <ele>304</ele>
        <time>2011-07-31T06:25:54Z</time>
      </trkpt>
      <trkpt lat="49.18412" lon="6.95113">
        <ele>304</ele>
        <time>2011-07-31T06:25:55Z</time>
      </trkpt>
      <trkpt lat="49.18412" lon="6.95112">
        <ele>304</ele>
        <time>2011-07-31T06:25:56Z</time>
      </trkpt>
      <trkpt lat="49.18412" lon="6.9511">
        <ele>304</ele>
        <time>2011-07-31T06:25:57Z</time>
      </trkpt>
      <trkpt lat="49.18412" lon="6.95108">
        <ele>305</ele>
        <time>2011-07-31T06:25:58Z</time>
      </trkpt>
      <trkpt lat="49.18412" lon="6.95106">
        <ele>305</ele>
        <time>2011-07-31T06:25:59Z</time>
      </trkpt>
      <trkpt lat="49.18412" lon="6.95104">
        <ele>305</ele>
        <time>2011-07-31T06:26:00Z</time>
      </trkpt>
      <trkpt lat="49.18412" lon="6.95101">
        <ele>306</ele>
        <time>2011-07-31T06:26:02Z</time>
      </trkpt>
      <trkpt lat="49.18413" lon="6.95099">
        <ele>306</ele>
        <time>2011-07-31T06:26:03Z</time>
      </trkpt>
      <trkpt lat="49.18414" lon="6.95096">
        <ele>307</ele>
        <time>2011-07-31T06:26:05Z</time>
      </trkpt>
      <trkpt lat="49.18416" lon="6.95094">
        <ele>307</ele>
        <time>2011-07-31T06:26:07Z</time>
      </trkpt>
      <trkpt lat="49.18417" lon="6.95092">
        <ele>307</ele>
        <time>2011-07-31T06:26:09Z</time>
      </trkpt>
      <trkpt lat="49.18419" lon="6.95091">
        <ele>307</ele>
        <time>2011-07-31T06:26:10Z</time>
      </trkpt>
      <trkpt lat="49.1842" lon="6.9509">
        <ele>307</ele>
        <time>2011-07-31T06:26:12Z</time>
      </trkpt>
      <trkpt lat="49.18422" lon="6.95088">
        <ele>307</ele>
        <time>2011-07-31T06:26:14Z</time>
      </trkpt>
      <trkpt lat="49.18424" lon="6.95088">
        <ele>307</ele>
        <time>2011-07-31T06:26:15Z</time>
      </trkpt>
      <trkpt lat="49.18425" lon="6.95088">
        <ele>307</ele>
        <time>2011-07-31T06:26:16Z</time>
      </trkpt>
      <trkpt lat="49.18427" lon="6.95087">
        <ele>308</ele>
        <time>2011-07-31T06:26:18Z</time>
      </trkpt>
      <trkpt lat="49.18428" lon="6.95087">
        <ele>308</ele>
        <time>2011-07-31T06:26:19Z</time>
      </trkpt>
      <trkpt lat="49.18429" lon="6.95087">
        <ele>308</ele>
        <time>2011-07-31T06:26:20Z</time>
      </trkpt>
      <trkpt lat="49.18431" lon="6.95087">
        <ele>308</ele>
        <time>2011-07-31T06:26:21Z</time>
      </trkpt>
      <trkpt lat="49.18432" lon="6.95087">
        <ele>308</ele>
        <time>2011-07-31T06:26:22Z</time>
      </trkpt>
      <trkpt lat="49.18433" lon="6.95087">
        <ele>308</ele>
        <time>2011-07-31T06:26:23Z</time>
      </trkpt>
      <trkpt lat="49.18435" lon="6.95086">
        <ele>309</ele>
        <time>2011-07-31T06:26:25Z</time>
      </trkpt>
      <trkpt lat="49.18436" lon="6.95086">
        <ele>309</ele>
        <time>2011-07-31T06:26:26Z</time>
      </trkpt>
      <trkpt lat="49.18438" lon="6.95084">
        <ele>309</ele>
        <time>2011-07-31T06:26:28Z</time>
      </trkpt>
      <trkpt lat="49.1844" lon="6.95084">
        <ele>309</ele>
        <time>2011-07-31T06:26:30Z</time>
      </trkpt>
      <trkpt lat="49.18442" lon="6.95084">
        <ele>309</ele>
        <time>2011-07-31T06:26:32Z</time>
      </trkpt>
      <trkpt lat="49.18444" lon="6.95083">
        <ele>309</ele>
        <time>2011-07-31T06:26:33Z</time>
      </trkpt>
      <trkpt lat="49.18445" lon="6.95082">
        <ele>309</ele>
        <time>2011-07-31T06:26:34Z</time>
      </trkpt>
      <trkpt lat="49.18446" lon="6.95082">
        <ele>309</ele>
        <time>2011-07-31T06:26:35Z</time>
      </trkpt>
      <trkpt lat="49.18448" lon="6.95081">
        <ele>309</ele>
        <time>2011-07-31T06:26:37Z</time>
      </trkpt>
      <trkpt lat="49.1845" lon="6.95079">
        <ele>309</ele>
        <time>2011-07-31T06:26:39Z</time>
      </trkpt>
      <trkpt lat="49.18452" lon="6.95078">
        <ele>309</ele>
        <time>2011-07-31T06:26:41Z</time>
      </trkpt>
      <trkpt lat="49.18453" lon="6.95077">
        <ele>309</ele>
        <time>2011-07-31T06:26:42Z</time>
      </trkpt>
      <trkpt lat="49.18454" lon="6.95076">
        <ele>309</ele>
        <time>2011-07-31T06:26:43Z</time>
      </trkpt>
      <trkpt lat="49.18455" lon="6.95075">
        <ele>309</ele>
        <time>2011-07-31T06:26:44Z</time>
      </trkpt>
      <trkpt lat="49.18457" lon="6.95075">
        <ele>309</ele>
        <time>2011-07-31T06:26:45Z</time>
      </trkpt>
      <trkpt lat="49.18458" lon="6.95074">
        <ele>309</ele>
        <time>2011-07-31T06:26:46Z</time>
      </trkpt>
      <trkpt lat="49.18459" lon="6.95074">
        <ele>309</ele>
        <time>2011-07-31T06:26:47Z</time>
      </trkpt>
      <trkpt lat="49.1846" lon="6.95073">
        <ele>309</ele>
        <time>2011-07-31T06:26:48Z</time>
      </trkpt>
      <trkpt lat="49.18461" lon="6.95072">
        <ele>309</ele>
        <time>2011-07-31T06:26:49Z</time>
      </trkpt>
      <trkpt lat="49.18463" lon="6.95072">
        <ele>309</ele>
        <time>2011-07-31T06:26:50Z</time>
      </trkpt>
      <trkpt lat="49.18464" lon="6.95071">
        <ele>309</ele>
        <time>2011-07-31T06:26:51Z</time>
      </trkpt>
      <trkpt lat="49.18465" lon="6.9507">
        <ele>309</ele>
        <time>2011-07-31T06:26:52Z</time>
      </trkpt>
      <trkpt lat="49.18466" lon="6.9507">
        <ele>309</ele>
        <time>2011-07-31T06:26:53Z</time>
      </trkpt>
      <trkpt lat="49.18467" lon="6.95069">
        <ele>309</ele>
        <time>2011-07-31T06:26:54Z</time>
      </trkpt>
      <trkpt lat="49.18469" lon="6.95068">
        <ele>309</ele>
        <time>2011-07-31T06:26:55Z</time>
      </trkpt>
      <trkpt lat="49.1847" lon="6.95068">
        <ele>309</ele>
        <time>2011-07-31T06:26:56Z</time>
      </trkpt>
      <trkpt lat="49.18471" lon="6.95067">
        <ele>309</ele>
        <time>2011-07-31T06:26:57Z</time>
      </trkpt>
      <trkpt lat="49.18473" lon="6.95065">
        <ele>309</ele>
        <time>2011-07-31T06:26:59Z</time>
      </trkpt>
      <trkpt lat="49.18475" lon="6.95064">
        <ele>309</ele>
        <time>2011-07-31T06:27:01Z</time>
      </trkpt>
      <trkpt lat="49.18476" lon="6.95063">
        <ele>309</ele>
        <time>2011-07-31T06:27:02Z</time>
      </trkpt>
      <trkpt lat="49.18478" lon="6.95063">
        <ele>309</ele>
        <time>2011-07-31T06:27:03Z</time>
      </trkpt>
      <trkpt lat="49.18479" lon="6.95062">
        <ele>309</ele>
        <time>2011-07-31T06:27:04Z</time>
      </trkpt>
      <trkpt lat="49.18481" lon="6.95061">
        <ele>309</ele>
        <time>2011-07-31T06:27:05Z</time>
      </trkpt>
      <trkpt lat="49.18482" lon="6.95061">
        <ele>309</ele>
        <time>2011-07-31T06:27:06Z</time>
      </trkpt>
      <trkpt lat="49.18483" lon="6.9506">
        <ele>309</ele>
        <time>2011-07-31T06:27:07Z</time>
      </trkpt>
      <trkpt lat="49.18485" lon="6.95059">
        <ele>309</ele>
        <time>2011-07-31T06:27:09Z</time>
      </trkpt>
      <trkpt lat="49.18487" lon="6.95058">
        <ele>309</ele>
        <time>2011-07-31T06:27:11Z</time>
      </trkpt>
      <trkpt lat="49.18488" lon="6.95057">
        <ele>309</ele>
        <time>2011-07-31T06:27:13Z</time>
      </trkpt>
      <trkpt lat="49.1849" lon="6.95054">
        <ele>309</ele>
        <time>2011-07-31T06:27:15Z</time>
      </trkpt>
      <trkpt lat="49.18491" lon="6.95054">
        <ele>309</ele>
        <time>2011-07-31T06:27:16Z</time>
      </trkpt>
      <trkpt lat="49.18494" lon="6.95052">
        <ele>309</ele>
        <time>2011-07-31T06:27:18Z</time>
      </trkpt>
      <trkpt lat="49.18496" lon="6.9505">
        <ele>309</ele>
        <time>2011-07-31T06:27:20Z</time>
      </trkpt>
      <trkpt lat="49.18497" lon="6.95049">
        <ele>309</ele>
        <time>2011-07-31T06:27:21Z</time>
      </trkpt>
      <trkpt lat="49.18498" lon="6.95049">
        <ele>309</ele>
        <time>2011-07-31T06:27:22Z</time>
      </trkpt>
      <trkpt lat="49.185" lon="6.95047">
        <ele>309</ele>
        <time>2011-07-31T06:27:24Z</time>
      </trkpt>
      <trkpt lat="49.18502" lon="6.95046">
        <ele>309</ele>
        <time>2011-07-31T06:27:25Z</time>
      </trkpt>
      <trkpt lat="49.18503" lon="6.95045">
        <ele>309</ele>
        <time>2011-07-31T06:27:26Z</time>
      </trkpt>
      <trkpt lat="49.18504" lon="6.95044">
        <ele>309</ele>
        <time>2011-07-31T06:27:27Z</time>
      </trkpt>
      <trkpt lat="49.18505" lon="6.95044">
        <ele>309</ele>
        <time>2011-07-31T06:27:28Z</time>
      </trkpt>
      <trkpt lat="49.18506" lon="6.95043">
        <ele>309</ele>
        <time>2011-07-31T06:27:29Z</time>
      </trkpt>
      <trkpt lat="49.18509" lon="6.95041">
        <ele>309</ele>
        <time>2011-07-31T06:27:31Z</time>
      </trkpt>
      <trkpt lat="49.1851" lon="6.95041">
        <ele>309</ele>
        <time>2011-07-31T06:27:32Z</time>
      </trkpt>
      <trkpt lat="49.18512" lon="6.9504">
        <ele>309</ele>
        <time>2011-07-31T06:27:34Z</time>
      </trkpt>
      <trkpt lat="49.18513" lon="6.95039">
        <ele>309</ele>
        <time>2011-07-31T06:27:36Z</time>
      </trkpt>
      <trkpt lat="49.18515" lon="6.95038">
        <ele>309</ele>
        <time>2011-07-31T06:27:38Z</time>
      </trkpt>
      <trkpt lat="49.18517" lon="6.95037">
        <ele>309</ele>
        <time>2011-07-31T06:27:39Z</time>
      </trkpt>
      <trkpt lat="49.18518" lon="6.95036">
        <ele>309</ele>
        <time>2011-07-31T06:27:40Z</time>
      </trkpt>
      <trkpt lat="49.18519" lon="6.95036">
        <ele>309</ele>
        <time>2011-07-31T06:27:41Z</time>
      </trkpt>
      <trkpt lat="49.18521" lon="6.95034">
        <ele>309</ele>
        <time>2011-07-31T06:27:43Z</time>
      </trkpt>
      <trkpt lat="49.18522" lon="6.95033">
        <ele>309</ele>
        <time>2011-07-31T06:27:44Z</time>
      </trkpt>
      <trkpt lat="49.18523" lon="6.95032">
        <ele>309</ele>
        <time>2011-07-31T06:27:45Z</time>
      </trkpt>
      <trkpt lat="49.18525" lon="6.95031">
        <ele>309</ele>
        <time>2011-07-31T06:27:46Z</time>
      </trkpt>
      <trkpt lat="49.18526" lon="6.9503">
        <ele>309</ele>
        <time>2011-07-31T06:27:47Z</time>
      </trkpt>
      <trkpt lat="49.18527" lon="6.9503">
        <ele>309</ele>
        <time>2011-07-31T06:27:48Z</time>
      </trkpt>
      <trkpt lat="49.18528" lon="6.95029">
        <ele>310</ele>
        <time>2011-07-31T06:27:49Z</time>
      </trkpt>
      <trkpt lat="49.1853" lon="6.95029">
        <ele>310</ele>
        <time>2011-07-31T06:27:50Z</time>
      </trkpt>
      <trkpt lat="49.18531" lon="6.95028">
        <ele>310</ele>
        <time>2011-07-31T06:27:51Z</time>
      </trkpt>
      <trkpt lat="49.18532" lon="6.95027">
        <ele>310</ele>
        <time>2011-07-31T06:27:52Z</time>
      </trkpt>
      <trkpt lat="49.18533" lon="6.95026">
        <ele>310</ele>
        <time>2011-07-31T06:27:53Z</time>
      </trkpt>
      <trkpt lat="49.18534" lon="6.95025">
        <ele>310</ele>
        <time>2011-07-31T06:27:54Z</time>
      </trkpt>
      <trkpt lat="49.18536" lon="6.95025">
        <ele>310</ele>
        <time>2011-07-31T06:27:55Z</time>
      </trkpt>
      <trkpt lat="49.18537" lon="6.95024">
        <ele>310</ele>
        <time>2011-07-31T06:27:56Z</time>
      </trkpt>
      <trkpt lat="49.18538" lon="6.95022">
        <ele>310</ele>
        <time>2011-07-31T06:27:57Z</time>
      </trkpt>
      <trkpt lat="49.18539" lon="6.95021">
        <ele>310</ele>
        <time>2011-07-31T06:27:58Z</time>
      </trkpt>
      <trkpt lat="49.18541" lon="6.9502">
        <ele>310</ele>
        <time>2011-07-31T06:28:00Z</time>
      </trkpt>
      <trkpt lat="49.18543" lon="6.95018">
        <ele>310</ele>
        <time>2011-07-31T06:28:02Z</time>
      </trkpt>
      <trkpt lat="49.18544" lon="6.95017">
        <ele>310</ele>
        <time>2011-07-31T06:28:03Z</time>
      </trkpt>
      <trkpt lat="49.18546" lon="6.95016">
        <ele>310</ele>
        <time>2011-07-31T06:28:04Z</time>
      </trkpt>
      <trkpt lat="49.18547" lon="6.95016">
        <ele>310</ele>
        <time>2011-07-31T06:28:05Z</time>
      </trkpt>
      <trkpt lat="49.18548" lon="6.95015">
        <ele>310</ele>
        <time>2011-07-31T06:28:06Z</time>
      </trkpt>
      <trkpt lat="49.1855" lon="6.95013">
        <ele>310</ele>
        <time>2011-07-31T06:28:08Z</time>
      </trkpt>
      <trkpt lat="49.18551" lon="6.95012">
        <ele>310</ele>
        <time>2011-07-31T06:28:09Z</time>
      </trkpt>
      <trkpt lat="49.18553" lon="6.9501">
        <ele>311</ele>
        <time>2011-07-31T06:28:11Z</time>
      </trkpt>
      <trkpt lat="49.18554" lon="6.95009">
        <ele>311</ele>
        <time>2011-07-31T06:28:12Z</time>
      </trkpt>
      <trkpt lat="49.18556" lon="6.95008">
        <ele>311</ele>
        <time>2011-07-31T06:28:13Z</time>
      </trkpt>
      <trkpt lat="49.18558" lon="6.95006">
        <ele>311</ele>
        <time>2011-07-31T06:28:15Z</time>
      </trkpt>
      <trkpt lat="49.1856" lon="6.95004">
        <ele>312</ele>
        <time>2011-07-31T06:28:17Z</time>
      </trkpt>
      <trkpt lat="49.18562" lon="6.95002">
        <ele>312</ele>
        <time>2011-07-31T06:28:19Z</time>
      </trkpt>
      <trkpt lat="49.18564" lon="6.95">
        <ele>312</ele>
        <time>2011-07-31T06:28:21Z</time>
      </trkpt>
      <trkpt lat="49.18566" lon="6.94998">
        <ele>312</ele>
        <time>2011-07-31T06:28:23Z</time>
      </trkpt>
      <trkpt lat="49.18568" lon="6.94996">
        <ele>312</ele>
        <time>2011-07-31T06:28:25Z</time>
      </trkpt>
      <trkpt lat="49.1857" lon="6.94993">
        <ele>312</ele>
        <time>2011-07-31T06:28:27Z</time>
      </trkpt>
      <trkpt lat="49.18572" lon="6.94991">
        <ele>313</ele>
        <time>2011-07-31T06:28:29Z</time>
      </trkpt>
      <trkpt lat="49.18574" lon="6.94989">
        <ele>313</ele>
        <time>2011-07-31T06:28:31Z</time>
      </trkpt>
      <trkpt lat="49.18576" lon="6.94988">
        <ele>313</ele>
        <time>2011-07-31T06:28:33Z</time>
      </trkpt>
      <trkpt lat="49.18578" lon="6.94985">
        <ele>313</ele>
        <time>2011-07-31T06:28:35Z</time>
      </trkpt>
      <trkpt lat="49.1858" lon="6.94983">
        <ele>313</ele>
        <time>2011-07-31T06:28:37Z</time>
      </trkpt>
      <trkpt lat="49.18582" lon="6.94982">
        <ele>313</ele>
        <time>2011-07-31T06:28:39Z</time>
      </trkpt>
      <trkpt lat="49.18584" lon="6.9498">
        <ele>313</ele>
        <time>2011-07-31T06:28:41Z</time>
      </trkpt>
      <trkpt lat="49.18586" lon="6.94978">
        <ele>313</ele>
        <time>2011-07-31T06:28:43Z</time>
      </trkpt>
      <trkpt lat="49.18588" lon="6.94976">
        <ele>313</ele>
        <time>2011-07-31T06:28:45Z</time>
      </trkpt>
      <trkpt lat="49.18589" lon="6.94975">
        <ele>313</ele>
        <time>2011-07-31T06:28:46Z</time>
      </trkpt>
      <trkpt lat="49.18591" lon="6.94974">
        <ele>313</ele>
        <time>2011-07-31T06:28:48Z</time>
      </trkpt>
      <trkpt lat="49.18593" lon="6.94973">
        <ele>313</ele>
        <time>2011-07-31T06:28:50Z</time>
      </trkpt>
      <trkpt lat="49.18594" lon="6.94971">
        <ele>313</ele>
        <time>2011-07-31T06:28:52Z</time>
      </trkpt>
      <trkpt lat="49.18596" lon="6.94969">
        <ele>313</ele>
        <time>2011-07-31T06:28:54Z</time>
      </trkpt>
      <trkpt lat="49.18597" lon="6.94968">
        <ele>313</ele>
        <time>2011-07-31T06:28:55Z</time>
      </trkpt>
      <trkpt lat="49.18599" lon="6.94967">
        <ele>313</ele>
        <time>2011-07-31T06:28:56Z</time>
      </trkpt>
      <trkpt lat="49.186" lon="6.94965">
        <ele>314</ele>
        <time>2011-07-31T06:28:58Z</time>
      </trkpt>
      <trkpt lat="49.18602" lon="6.94964">
        <ele>314</ele>
        <time>2011-07-31T06:29:00Z</time>
      </trkpt>
      <trkpt lat="49.18605" lon="6.94962">
        <ele>314</ele>
        <time>2011-07-31T06:29:02Z</time>
      </trkpt>
      <trkpt lat="49.18606" lon="6.9496">
        <ele>314</ele>
        <time>2011-07-31T06:29:04Z</time>
      </trkpt>
      <trkpt lat="49.18608" lon="6.94959">
        <ele>314</ele>
        <time>2011-07-31T06:29:06Z</time>
      </trkpt>
      <trkpt lat="49.18609" lon="6.94958">
        <ele>314</ele>
        <time>2011-07-31T06:29:07Z</time>
      </trkpt>
      <trkpt lat="49.18611" lon="6.94956">
        <ele>314</ele>
        <time>2011-07-31T06:29:09Z</time>
      </trkpt>
      <trkpt lat="49.18613" lon="6.94956">
        <ele>314</ele>
        <time>2011-07-31T06:29:10Z</time>
      </trkpt>
      <trkpt lat="49.18615" lon="6.94954">
        <ele>314</ele>
        <time>2011-07-31T06:29:12Z</time>
      </trkpt>
      <trkpt lat="49.18617" lon="6.94952">
        <ele>314</ele>
        <time>2011-07-31T06:29:14Z</time>
      </trkpt>
      <trkpt lat="49.18618" lon="6.94951">
        <ele>314</ele>
        <time>2011-07-31T06:29:15Z</time>
      </trkpt>
      <trkpt lat="49.1862" lon="6.94949">
        <ele>314</ele>
        <time>2011-07-31T06:29:17Z</time>
      </trkpt>
      <trkpt lat="49.18622" lon="6.94948">
        <ele>314</ele>
        <time>2011-07-31T06:29:19Z</time>
      </trkpt>
      <trkpt lat="49.18624" lon="6.94946">
        <ele>315</ele>
        <time>2011-07-31T06:29:21Z</time>
      </trkpt>
      <trkpt lat="49.18625" lon="6.94945">
        <ele>315</ele>
        <time>2011-07-31T06:29:22Z</time>
      </trkpt>
      <trkpt lat="49.18626" lon="6.94945">
        <ele>315</ele>
        <time>2011-07-31T06:29:23Z</time>
      </trkpt>
      <trkpt lat="49.18628" lon="6.94944">
        <ele>315</ele>
        <time>2011-07-31T06:29:25Z</time>
      </trkpt>
      <trkpt lat="49.18629" lon="6.94943">
        <ele>315</ele>
        <time>2011-07-31T06:29:26Z</time>
      </trkpt>
      <trkpt lat="49.1863" lon="6.94942">
        <ele>315</ele>
        <time>2011-07-31T06:29:27Z</time>
      </trkpt>
      <trkpt lat="49.18632" lon="6.9494">
        <ele>315</ele>
        <time>2011-07-31T06:29:29Z</time>
      </trkpt>
      <trkpt lat="49.18633" lon="6.94939">
        <ele>315</ele>
        <time>2011-07-31T06:29:30Z</time>
      </trkpt>
      <trkpt lat="49.18635" lon="6.94938">
        <ele>315</ele>
        <time>2011-07-31T06:29:31Z</time>
      </trkpt>
      <trkpt lat="49.18636" lon="6.94937">
        <ele>315</ele>
        <time>2011-07-31T06:29:32Z</time>
      </trkpt>
      <trkpt lat="49.18637" lon="6.94936">
        <ele>315</ele>
        <time>2011-07-31T06:29:33Z</time>
      </trkpt>
      <trkpt lat="49.18638" lon="6.94935">
        <ele>315</ele>
        <time>2011-07-31T06:29:34Z</time>
      </trkpt>
      <trkpt lat="49.1864" lon="6.94933">
        <ele>315</ele>
        <time>2011-07-31T06:29:36Z</time>
      </trkpt>
      <trkpt lat="49.18642" lon="6.94931">
        <ele>315</ele>
        <time>2011-07-31T06:29:38Z</time>
      </trkpt>
      <trkpt lat="49.18644" lon="6.94929">
        <ele>315</ele>
        <time>2011-07-31T06:29:40Z</time>
      </trkpt>
      <trkpt lat="49.18645" lon="6.94928">
        <ele>315</ele>
        <time>2011-07-31T06:29:41Z</time>
      </trkpt>
      <trkpt lat="49.18647" lon="6.94926">
        <ele>315</ele>
        <time>2011-07-31T06:29:43Z</time>
      </trkpt>
      <trkpt lat="49.18649" lon="6.94924">
        <ele>315</ele>
        <time>2011-07-31T06:29:45Z</time>
      </trkpt>
      <trkpt lat="49.18651" lon="6.94922">
        <ele>315</ele>
        <time>2011-07-31T06:29:47Z</time>
      </trkpt>
      <trkpt lat="49.18652" lon="6.94922">
        <ele>315</ele>
        <time>2011-07-31T06:29:48Z</time>
      </trkpt>
      <trkpt lat="49.18653" lon="6.94921">
        <ele>315</ele>
        <time>2011-07-31T06:29:49Z</time>
      </trkpt>
      <trkpt lat="49.18655" lon="6.94919">
        <ele>315</ele>
        <time>2011-07-31T06:29:51Z</time>
      </trkpt>
      <trkpt lat="49.18657" lon="6.94918">
        <ele>315</ele>
        <time>2011-07-31T06:29:52Z</time>
      </trkpt>
      <trkpt lat="49.18658" lon="6.94917">
        <ele>315</ele>
        <time>2011-07-31T06:29:54Z</time>
      </trkpt>
      <trkpt lat="49.1866" lon="6.94917">
        <ele>315</ele>
        <time>2011-07-31T06:29:55Z</time>
      </trkpt>
      <trkpt lat="49.18661" lon="6.94916">
        <ele>315</ele>
        <time>2011-07-31T06:29:56Z</time>
      </trkpt>
      <trkpt lat="49.18663" lon="6.94914">
        <ele>315</ele>
        <time>2011-07-31T06:29:58Z</time>
      </trkpt>
      <trkpt lat="49.18665" lon="6.94914">
        <ele>315</ele>
        <time>2011-07-31T06:30:00Z</time>
      </trkpt>
      <trkpt lat="49.18667" lon="6.94913">
        <ele>315</ele>
        <time>2011-07-31T06:30:02Z</time>
      </trkpt>
      <trkpt lat="49.18669" lon="6.94913">
        <ele>315</ele>
        <time>2011-07-31T06:30:04Z</time>
      </trkpt>
      <trkpt lat="49.18671" lon="6.94912">
        <ele>315</ele>
        <time>2011-07-31T06:30:06Z</time>
      </trkpt>
      <trkpt lat="49.18672" lon="6.94911">
        <ele>315</ele>
        <time>2011-07-31T06:30:07Z</time>
      </trkpt>
      <trkpt lat="49.18673" lon="6.9491">
        <ele>315</ele>
        <time>2011-07-31T06:30:09Z</time>
      </trkpt>
      <trkpt lat="49.18675" lon="6.9491">
        <ele>315</ele>
        <time>2011-07-31T06:30:11Z</time>
      </trkpt>
      <trkpt lat="49.18678" lon="6.94909">
        <ele>315</ele>
        <time>2011-07-31T06:30:13Z</time>
      </trkpt>
      <trkpt lat="49.18679" lon="6.94908">
        <ele>315</ele>
        <time>2011-07-31T06:30:14Z</time>
      </trkpt>
      <trkpt lat="49.1868" lon="6.94907">
        <ele>315</ele>
        <time>2011-07-31T06:30:15Z</time>
      </trkpt>
      <trkpt lat="49.18682" lon="6.94906">
        <ele>315</ele>
        <time>2011-07-31T06:30:17Z</time>
      </trkpt>
      <trkpt lat="49.18683" lon="6.94905">
        <ele>315</ele>
        <time>2011-07-31T06:30:18Z</time>
      </trkpt>
      <trkpt lat="49.18686" lon="6.94904">
        <ele>315</ele>
        <time>2011-07-31T06:30:20Z</time>
      </trkpt>
      <trkpt lat="49.18687" lon="6.94904">
        <ele>315</ele>
        <time>2011-07-31T06:30:21Z</time>
      </trkpt>
      <trkpt lat="49.18688" lon="6.94903">
        <ele>315</ele>
        <time>2011-07-31T06:30:22Z</time>
      </trkpt>
      <trkpt lat="49.18689" lon="6.94903">
        <ele>315</ele>
        <time>2011-07-31T06:30:23Z</time>
      </trkpt>
      <trkpt lat="49.18691" lon="6.94902">
        <ele>315</ele>
        <time>2011-07-31T06:30:24Z</time>
      </trkpt>
      <trkpt lat="49.18692" lon="6.94901">
        <ele>315</ele>
        <time>2011-07-31T06:30:25Z</time>
      </trkpt>
      <trkpt lat="49.18693" lon="6.949">
        <ele>315</ele>
        <time>2011-07-31T06:30:26Z</time>
      </trkpt>
      <trkpt lat="49.18695" lon="6.94899">
        <ele>315</ele>
        <time>2011-07-31T06:30:27Z</time>
      </trkpt>
      <trkpt lat="49.18696" lon="6.94899">
        <ele>315</ele>
        <time>2011-07-31T06:30:28Z</time>
      </trkpt>
      <trkpt lat="49.18697" lon="6.94898">
        <ele>315</ele>
        <time>2011-07-31T06:30:30Z</time>
      </trkpt>
      <trkpt lat="49.187" lon="6.94896">
        <ele>315</ele>
        <time>2011-07-31T06:30:32Z</time>
      </trkpt>
      <trkpt lat="49.18701" lon="6.94895">
        <ele>315</ele>
        <time>2011-07-31T06:30:33Z</time>
      </trkpt>
      <trkpt lat="49.18703" lon="6.94894">
        <ele>316</ele>
        <time>2011-07-31T06:30:35Z</time>
      </trkpt>
      <trkpt lat="49.18704" lon="6.94893">
        <ele>316</ele>
        <time>2011-07-31T06:30:36Z</time>
      </trkpt>
      <trkpt lat="49.18705" lon="6.94893">
        <ele>316</ele>
        <time>2011-07-31T06:30:37Z</time>
      </trkpt>
      <trkpt lat="49.18707" lon="6.94891">
        <ele>316</ele>
        <time>2011-07-31T06:30:39Z</time>
      </trkpt>
      <trkpt lat="49.18708" lon="6.9489">
        <ele>316</ele>
        <time>2011-07-31T06:30:40Z</time>
      </trkpt>
      <trkpt lat="49.1871" lon="6.94889">
        <ele>316</ele>
        <time>2011-07-31T06:30:42Z</time>
      </trkpt>
      <trkpt lat="49.18712" lon="6.94887">
        <ele>316</ele>
        <time>2011-07-31T06:30:44Z</time>
      </trkpt>
      <trkpt lat="49.18714" lon="6.94886">
        <ele>316</ele>
        <time>2011-07-31T06:30:46Z</time>
      </trkpt>
      <trkpt lat="49.18716" lon="6.94884">
        <ele>316</ele>
        <time>2011-07-31T06:30:48Z</time>
      </trkpt>
      <trkpt lat="49.18718" lon="6.94883">
        <ele>316</ele>
        <time>2011-07-31T06:30:50Z</time>
      </trkpt>
      <trkpt lat="49.1872" lon="6.94881">
        <ele>316</ele>
        <time>2011-07-31T06:30:52Z</time>
      </trkpt>
      <trkpt lat="49.18722" lon="6.9488">
        <ele>317</ele>
        <time>2011-07-31T06:30:54Z</time>
      </trkpt>
      <trkpt lat="49.18723" lon="6.9488">
        <ele>317</ele>
        <time>2011-07-31T06:30:55Z</time>
      </trkpt>
      <trkpt lat="49.18725" lon="6.94879">
        <ele>317</ele>
        <time>2011-07-31T06:30:57Z</time>
      </trkpt>
      <trkpt lat="49.18727" lon="6.94878">
        <ele>317</ele>
        <time>2011-07-31T06:30:59Z</time>
      </trkpt>
      <trkpt lat="49.18729" lon="6.94877">
        <ele>318</ele>
        <time>2011-07-31T06:31:01Z</time>
      </trkpt>
      <trkpt lat="49.18731" lon="6.94876">
        <ele>318</ele>
        <time>2011-07-31T06:31:03Z</time>
      </trkpt>
      <trkpt lat="49.18732" lon="6.94876">
        <ele>319</ele>
        <time>2011-07-31T06:31:05Z</time>
      </trkpt>
      <trkpt lat="49.18734" lon="6.94874">
        <ele>319</ele>
        <time>2011-07-31T06:31:07Z</time>
      </trkpt>
      <trkpt lat="49.18735" lon="6.94872">
        <ele>320</ele>
        <time>2011-07-31T06:31:09Z</time>
      </trkpt>
      <trkpt lat="49.18736" lon="6.9487">
        <ele>320</ele>
        <time>2011-07-31T06:31:11Z</time>
      </trkpt>
      <trkpt lat="49.18737" lon="6.94868">
        <ele>320</ele>
        <time>2011-07-31T06:31:13Z</time>
      </trkpt>
      <trkpt lat="49.18739" lon="6.94865">
        <ele>320</ele>
        <time>2011-07-31T06:31:15Z</time>
      </trkpt>
      <trkpt lat="49.1874" lon="6.94862">
        <ele>320</ele>
        <time>2011-07-31T06:31:17Z</time>
      </trkpt>
      <trkpt lat="49.18741" lon="6.9486">
        <ele>320</ele>
        <time>2011-07-31T06:31:19Z</time>
      </trkpt>
      <trkpt lat="49.18742" lon="6.94857">
        <ele>320</ele>
        <time>2011-07-31T06:31:21Z</time>
      </trkpt>
      <trkpt lat="49.18744" lon="6.94855">
        <ele>320</ele>
        <time>2011-07-31T06:31:23Z</time>
      </trkpt>
      <trkpt lat="49.18745" lon="6.94853">
        <ele>320</ele>
        <time>2011-07-31T06:31:25Z</time>
      </trkpt>
      <trkpt lat="49.18747" lon="6.94853">
        <ele>321</ele>
        <time>2011-07-31T06:31:27Z</time>
      </trkpt>
      <trkpt lat="49.18749" lon="6.94852">
        <ele>321</ele>
        <time>2011-07-31T06:31:29Z</time>
      </trkpt>
      <trkpt lat="49.1875" lon="6.94851">
        <ele>321</ele>
        <time>2011-07-31T06:31:31Z</time>
      </trkpt>
      <trkpt lat="49.18752" lon="6.9485">
        <ele>322</ele>
        <time>2011-07-31T06:31:33Z</time>
      </trkpt>
      <trkpt lat="49.18753" lon="6.94849">
        <ele>322</ele>
        <time>2011-07-31T06:31:35Z</time>
      </trkpt>
      <trkpt lat="49.18755" lon="6.94848">
        <ele>323</ele>
        <time>2011-07-31T06:31:37Z</time>
      </trkpt>
      <trkpt lat="49.18757" lon="6.94848">
        <ele>323</ele>
        <time>2011-07-31T06:31:39Z</time>
      </trkpt>
      <trkpt lat="49.18759" lon="6.94846">
        <ele>323</ele>
        <time>2011-07-31T06:31:41Z</time>
      </trkpt>
      <trkpt lat="49.18761" lon="6.94845">
        <ele>323</ele>
        <time>2011-07-31T06:31:43Z</time>
      </trkpt>
      <trkpt lat="49.18763" lon="6.94843">
        <ele>323</ele>
        <time>2011-07-31T06:31:45Z</time>
      </trkpt>
      <trkpt lat="49.18765" lon="6.94842">
        <ele>324</ele>
        <time>2011-07-31T06:31:47Z</time>
      </trkpt>
      <trkpt lat="49.18766" lon="6.94842">
        <ele>324</ele>
        <time>2011-07-31T06:31:48Z</time>
      </trkpt>
      <trkpt lat="49.18768" lon="6.9484">
        <ele>325</ele>
        <time>2011-07-31T06:31:50Z</time>
      </trkpt>
      <trkpt lat="49.18771" lon="6.94838">
        <ele>325</ele>
        <time>2011-07-31T06:31:52Z</time>
      </trkpt>
      <trkpt lat="49.18772" lon="6.94838">
        <ele>325</ele>
        <time>2011-07-31T06:31:53Z</time>
      </trkpt>
      <trkpt lat="49.18773" lon="6.94838">
        <ele>325</ele>
        <time>2011-07-31T06:31:54Z</time>
      </trkpt>
      <trkpt lat="49.18774" lon="6.94837">
        <ele>326</ele>
        <time>2011-07-31T06:31:55Z</time>
      </trkpt>
      <trkpt lat="49.18776" lon="6.94836">
        <ele>326</ele>
        <time>2011-07-31T06:31:57Z</time>
      </trkpt>
      <trkpt lat="49.18778" lon="6.94834">
        <ele>326</ele>
        <time>2011-07-31T06:31:59Z</time>
      </trkpt>
      <trkpt lat="49.1878" lon="6.94833">
        <ele>327</ele>
        <time>2011-07-31T06:32:01Z</time>
      </trkpt>
      <trkpt lat="49.18782" lon="6.94832">
        <ele>327</ele>
        <time>2011-07-31T06:32:03Z</time>
      </trkpt>
      <trkpt lat="49.18784" lon="6.94831">
        <ele>327</ele>
        <time>2011-07-31T06:32:05Z</time>
      </trkpt>
      <trkpt lat="49.18786" lon="6.9483">
        <ele>327</ele>
        <time>2011-07-31T06:32:07Z</time>
      </trkpt>
      <trkpt lat="49.18787" lon="6.94829">
        <ele>328</ele>
        <time>2011-07-31T06:32:09Z</time>
      </trkpt>
      <trkpt lat="49.18789" lon="6.94828">
        <ele>328</ele>
        <time>2011-07-31T06:32:11Z</time>
      </trkpt>
      <trkpt lat="49.18791" lon="6.94827">
        <ele>328</ele>
        <time>2011-07-31T06:32:13Z</time>
      </trkpt>
      <trkpt lat="49.18792" lon="6.94826">
        <ele>328</ele>
        <time>2011-07-31T06:32:14Z</time>
      </trkpt>
      <trkpt lat="49.18794" lon="6.94825">
        <ele>328</ele>
        <time>2011-07-31T06:32:16Z</time>
      </trkpt>
      <trkpt lat="49.18796" lon="6.94824">
        <ele>329</ele>
        <time>2011-07-31T06:32:18Z</time>
      </trkpt>
      <trkpt lat="49.18798" lon="6.94823">
        <ele>329</ele>
        <time>2011-07-31T06:32:20Z</time>
      </trkpt>
      <trkpt lat="49.18799" lon="6.94822">
        <ele>329</ele>
        <time>2011-07-31T06:32:22Z</time>
      </trkpt>
      <trkpt lat="49.18801" lon="6.9482">
        <ele>329</ele>
        <time>2011-07-31T06:32:24Z</time>
      </trkpt>
      <trkpt lat="49.18803" lon="6.94818">
        <ele>330</ele>
        <time>2011-07-31T06:32:26Z</time>
      </trkpt>
      <trkpt lat="49.18804" lon="6.94817">
        <ele>330</ele>
        <time>2011-07-31T06:32:28Z</time>
      </trkpt>
      <trkpt lat="49.18806" lon="6.94816">
        <ele>330</ele>
        <time>2011-07-31T06:32:30Z</time>
      </trkpt>
      <trkpt lat="49.18807" lon="6.94814">
        <ele>331</ele>
        <time>2011-07-31T06:32:32Z</time>
      </trkpt>
      <trkpt lat="49.18809" lon="6.94812">
        <ele>331</ele>
        <time>2011-07-31T06:32:34Z</time>
      </trkpt>
      <trkpt lat="49.18811" lon="6.94811">
        <ele>331</ele>
        <time>2011-07-31T06:32:36Z</time>
      </trkpt>
      <trkpt lat="49.18812" lon="6.94809">
        <ele>331</ele>
        <time>2011-07-31T06:32:38Z</time>
      </trkpt>
      <trkpt lat="49.18814" lon="6.94807">
        <ele>332</ele>
        <time>2011-07-31T06:32:40Z</time>
      </trkpt>
      <trkpt lat="49.18816" lon="6.94806">
        <ele>332</ele>
        <time>2011-07-31T06:32:42Z</time>
      </trkpt>
      <trkpt lat="49.18817" lon="6.94804">
        <ele>332</ele>
        <time>2011-07-31T06:32:44Z</time>
      </trkpt>
      <trkpt lat="49.18818" lon="6.94803">
        <ele>333</ele>
        <time>2011-07-31T06:32:46Z</time>
      </trkpt>
      <trkpt lat="49.1882" lon="6.94801">
        <ele>333</ele>
        <time>2011-07-31T06:32:48Z</time>
      </trkpt>
      <trkpt lat="49.18821" lon="6.94799">
        <ele>334</ele>
        <time>2011-07-31T06:32:50Z</time>
      </trkpt>
      <trkpt lat="49.18822" lon="6.94796">
        <ele>335</ele>
        <time>2011-07-31T06:32:52Z</time>
      </trkpt>
      <trkpt lat="49.18824" lon="6.94795">
        <ele>336</ele>
        <time>2011-07-31T06:32:54Z</time>
      </trkpt>
      <trkpt lat="49.18826" lon="6.94793">
        <ele>336</ele>
        <time>2011-07-31T06:32:56Z</time>
      </trkpt>
      <trkpt lat="49.18827" lon="6.94791">
        <ele>336</ele>
        <time>2011-07-31T06:32:58Z</time>
      </trkpt>
      <trkpt lat="49.18829" lon="6.9479">
        <ele>337</ele>
        <time>2011-07-31T06:33:00Z</time>
      </trkpt>
      <trkpt lat="49.1883" lon="6.94788">
        <ele>337</ele>
        <time>2011-07-31T06:33:02Z</time>
      </trkpt>
      <trkpt lat="49.18832" lon="6.94786">
        <ele>337</ele>
        <time>2011-07-31T06:33:04Z</time>
      </trkpt>
      <trkpt lat="49.18833" lon="6.94784">
        <ele>338</ele>
        <time>2011-07-31T06:33:06Z</time>
      </trkpt>
      <trkpt lat="49.18834" lon="6.94782">
        <ele>338</ele>
        <time>2011-07-31T06:33:08Z</time>
      </trkpt>
      <trkpt lat="49.18835" lon="6.94782">
        <ele>339</ele>
        <time>2011-07-31T06:33:11Z</time>
      </trkpt>
      <trkpt lat="49.18837" lon="6.9478">
        <ele>339</ele>
        <time>2011-07-31T06:33:16Z</time>
      </trkpt>
      <trkpt lat="49.18838" lon="6.94778">
        <ele>339</ele>
        <time>2011-07-31T06:33:18Z</time>
      </trkpt>
      <trkpt lat="49.1884" lon="6.94777">
        <ele>339</ele>
        <time>2011-07-31T06:33:20Z</time>
      </trkpt>
      <trkpt lat="49.18842" lon="6.94775">
        <ele>339</ele>
        <time>2011-07-31T06:33:22Z</time>
      </trkpt>
      <trkpt lat="49.18844" lon="6.94772">
        <ele>339</ele>
        <time>2011-07-31T06:33:24Z</time>
      </trkpt>
      <trkpt lat="49.18845" lon="6.9477">
        <ele>339</ele>
        <time>2011-07-31T06:33:26Z</time>
      </trkpt>
      <trkpt lat="49.18847" lon="6.94768">
        <ele>340</ele>
        <time>2011-07-31T06:33:28Z</time>
      </trkpt>
      <trkpt lat="49.18849" lon="6.94765">
        <ele>340</ele>
        <time>2011-07-31T06:33:30Z</time>
      </trkpt>
      <trkpt lat="49.1885" lon="6.94763">
        <ele>341</ele>
        <time>2011-07-31T06:33:32Z</time>
      </trkpt>
      <trkpt lat="49.18852" lon="6.9476">
        <ele>341</ele>
        <time>2011-07-31T06:33:34Z</time>
      </trkpt>
      <trkpt lat="49.18853" lon="6.94758">
        <ele>342</ele>
        <time>2011-07-31T06:33:36Z</time>
      </trkpt>
      <trkpt lat="49.18855" lon="6.94757">
        <ele>342</ele>
        <time>2011-07-31T06:33:37Z</time>
      </trkpt>
      <trkpt lat="49.18857" lon="6.94754">
        <ele>342</ele>
        <time>2011-07-31T06:33:39Z</time>
      </trkpt>
      <trkpt lat="49.18858" lon="6.94753">
        <ele>342</ele>
        <time>2011-07-31T06:33:40Z</time>
      </trkpt>
      <trkpt lat="49.18859" lon="6.94753">
        <ele>342</ele>
        <time>2011-07-31T06:33:41Z</time>
      </trkpt>
      <trkpt lat="49.18861" lon="6.94752">
        <ele>342</ele>
        <time>2011-07-31T06:33:42Z</time>
      </trkpt>
      <trkpt lat="49.18863" lon="6.9475">
        <ele>342</ele>
        <time>2011-07-31T06:33:44Z</time>
      </trkpt>
      <trkpt lat="49.18865" lon="6.94748">
        <ele>342</ele>
        <time>2011-07-31T06:33:46Z</time>
      </trkpt>
      <trkpt lat="49.18867" lon="6.94746">
        <ele>342</ele>
        <time>2011-07-31T06:33:48Z</time>
      </trkpt>
      <trkpt lat="49.18869" lon="6.94745">
        <ele>343</ele>
        <time>2011-07-31T06:33:50Z</time>
      </trkpt>
      <trkpt lat="49.18871" lon="6.94744">
        <ele>343</ele>
        <time>2011-07-31T06:33:52Z</time>
      </trkpt>
      <trkpt lat="49.18873" lon="6.94742">
        <ele>343</ele>
        <time>2011-07-31T06:33:54Z</time>
      </trkpt>
      <trkpt lat="49.18875" lon="6.9474">
        <ele>343</ele>
        <time>2011-07-31T06:33:56Z</time>
      </trkpt>
      <trkpt lat="49.18877" lon="6.94738">
        <ele>343</ele>
        <time>2011-07-31T06:33:58Z</time>
      </trkpt>
      <trkpt lat="49.18878" lon="6.94737">
        <ele>343</ele>
        <time>2011-07-31T06:33:59Z</time>
      </trkpt>
      <trkpt lat="49.18879" lon="6.94737">
        <ele>343</ele>
        <time>2011-07-31T06:34:00Z</time>
      </trkpt>
      <trkpt lat="49.18882" lon="6.94735">
        <ele>343</ele>
        <time>2011-07-31T06:34:02Z</time>
      </trkpt>
      <trkpt lat="49.18883" lon="6.94735">
        <ele>343</ele>
        <time>2011-07-31T06:34:03Z</time>
      </trkpt>
      <trkpt lat="49.18884" lon="6.94734">
        <ele>343</ele>
        <time>2011-07-31T06:34:04Z</time>
      </trkpt>
      <trkpt lat="49.18886" lon="6.94732">
        <ele>343</ele>
        <time>2011-07-31T06:34:06Z</time>
      </trkpt>
      <trkpt lat="49.18888" lon="6.9473">
        <ele>343</ele>
        <time>2011-07-31T06:34:08Z</time>
      </trkpt>
      <trkpt lat="49.1889" lon="6.94728">
        <ele>343</ele>
        <time>2011-07-31T06:34:10Z</time>
      </trkpt>
      <trkpt lat="49.18891" lon="6.94725">
        <ele>343</ele>
        <time>2011-07-31T06:34:12Z</time>
      </trkpt>
      <trkpt lat="49.18892" lon="6.94723">
        <ele>343</ele>
        <time>2011-07-31T06:34:14Z</time>
      </trkpt>
      <trkpt lat="49.18892" lon="6.9472">
        <ele>343</ele>
        <time>2011-07-31T06:34:16Z</time>
      </trkpt>
      <trkpt lat="49.18892" lon="6.94717">
        <ele>343</ele>
        <time>2011-07-31T06:34:18Z</time>
      </trkpt>
      <trkpt lat="49.18892" lon="6.94715">
        <ele>343</ele>
        <time>2011-07-31T06:34:19Z</time>
      </trkpt>
      <trkpt lat="49.18891" lon="6.94712">
        <ele>343</ele>
        <time>2011-07-31T06:34:21Z</time>
      </trkpt>
      <trkpt lat="49.18891" lon="6.9471">
        <ele>343</ele>
        <time>2011-07-31T06:34:22Z</time>
      </trkpt>
      <trkpt lat="49.18891" lon="6.94708">
        <ele>343</ele>
        <time>2011-07-31T06:34:23Z</time>
      </trkpt>
      <trkpt lat="49.18891" lon="6.94706">
        <ele>343</ele>
        <time>2011-07-31T06:34:24Z</time>
      </trkpt>
      <trkpt lat="49.18891" lon="6.94705">
        <ele>343</ele>
        <time>2011-07-31T06:34:25Z</time>
      </trkpt>
      <trkpt lat="49.18891" lon="6.94703">
        <ele>343</ele>
        <time>2011-07-31T06:34:26Z</time>
      </trkpt>
      <trkpt lat="49.18891" lon="6.947">
        <ele>343</ele>
        <time>2011-07-31T06:34:28Z</time>
      </trkpt>
      <trkpt lat="49.1889" lon="6.94697">
        <ele>343</ele>
        <time>2011-07-31T06:34:29Z</time>
      </trkpt>
      <trkpt lat="49.1889" lon="6.94695">
        <ele>343</ele>
        <time>2011-07-31T06:34:30Z</time>
      </trkpt>
      <trkpt lat="49.1889" lon="6.94693">
        <ele>343</ele>
        <time>2011-07-31T06:34:31Z</time>
      </trkpt>
      <trkpt lat="49.1889" lon="6.94692">
        <ele>343</ele>
        <time>2011-07-31T06:34:32Z</time>
      </trkpt>
      <trkpt lat="49.1889" lon="6.9469">
        <ele>343</ele>
        <time>2011-07-31T06:34:33Z</time>
      </trkpt>
      <trkpt lat="49.1889" lon="6.94688">
        <ele>343</ele>
        <time>2011-07-31T06:34:34Z</time>
      </trkpt>
      <trkpt lat="49.1889" lon="6.94687">
        <ele>343</ele>
        <time>2011-07-31T06:34:35Z</time>
      </trkpt>
      <trkpt lat="49.1889" lon="6.94685">
        <ele>343</ele>
        <time>2011-07-31T06:34:36Z</time>
      </trkpt>
      <trkpt lat="49.1889" lon="6.94682">
        <ele>343</ele>
        <time>2011-07-31T06:34:38Z</time>
      </trkpt>
      <trkpt lat="49.1889" lon="6.94679">
        <ele>343</ele>
        <time>2011-07-31T06:34:40Z</time>
      </trkpt>
      <trkpt lat="49.1889" lon="6.94676">
        <ele>343</ele>
        <time>2011-07-31T06:34:42Z</time>
      </trkpt>
      <trkpt lat="49.18889" lon="6.94673">
        <ele>343</ele>
        <time>2011-07-31T06:34:44Z</time>
      </trkpt>
      <trkpt lat="49.18889" lon="6.94671">
        <ele>343</ele>
        <time>2011-07-31T06:34:45Z</time>
      </trkpt>
      <trkpt lat="49.18888" lon="6.94669">
        <ele>343</ele>
        <time>2011-07-31T06:34:47Z</time>
      </trkpt>
      <trkpt lat="49.18887" lon="6.94666">
        <ele>343</ele>
        <time>2011-07-31T06:34:49Z</time>
      </trkpt>
      <trkpt lat="49.18885" lon="6.94664">
        <ele>343</ele>
        <time>2011-07-31T06:34:51Z</time>
      </trkpt>
      <trkpt lat="49.18885" lon="6.94663">
        <ele>343</ele>
        <time>2011-07-31T06:34:52Z</time>
      </trkpt>
      <trkpt lat="49.18884" lon="6.94661">
        <ele>343</ele>
        <time>2011-07-31T06:34:53Z</time>
      </trkpt>
      <trkpt lat="49.18884" lon="6.94658">
        <ele>343</ele>
        <time>2011-07-31T06:34:55Z</time>
      </trkpt>
      <trkpt lat="49.18882" lon="6.94655">
        <ele>343</ele>
        <time>2011-07-31T06:34:57Z</time>
      </trkpt>
      <trkpt lat="49.18882" lon="6.94653">
        <ele>343</ele>
        <time>2011-07-31T06:34:58Z</time>
      </trkpt>
      <trkpt lat="49.18882" lon="6.94651">
        <ele>344</ele>
        <time>2011-07-31T06:35:00Z</time>
      </trkpt>
      <trkpt lat="49.18882" lon="6.94649">
        <ele>345</ele>
        <time>2011-07-31T06:35:02Z</time>
      </trkpt>
      <trkpt lat="49.18881" lon="6.94646">
        <ele>345</ele>
        <time>2011-07-31T06:35:04Z</time>
      </trkpt>
      <trkpt lat="49.1888" lon="6.94643">
        <ele>346</ele>
        <time>2011-07-31T06:35:06Z</time>
      </trkpt>
      <trkpt lat="49.1888" lon="6.94641">
        <ele>346</ele>
        <time>2011-07-31T06:35:07Z</time>
      </trkpt>
      <trkpt lat="49.18879" lon="6.94638">
        <ele>346</ele>
        <time>2011-07-31T06:35:09Z</time>
      </trkpt>
      <trkpt lat="49.18879" lon="6.94637">
        <ele>346</ele>
        <time>2011-07-31T06:35:10Z</time>
      </trkpt>
      <trkpt lat="49.18879" lon="6.94635">
        <ele>346</ele>
        <time>2011-07-31T06:35:11Z</time>
      </trkpt>
      <trkpt lat="49.18879" lon="6.94633">
        <ele>346</ele>
        <time>2011-07-31T06:35:12Z</time>
      </trkpt>
      <trkpt lat="49.18878" lon="6.94631">
        <ele>346</ele>
        <time>2011-07-31T06:35:14Z</time>
      </trkpt>
      <trkpt lat="49.18876" lon="6.94632">
        <ele>346</ele>
        <time>2011-07-31T06:35:18Z</time>
      </trkpt>
      <trkpt lat="49.18876" lon="6.9463">
        <ele>347</ele>
        <time>2011-07-31T06:35:20Z</time>
      </trkpt>
      <trkpt lat="49.18876" lon="6.94628">
        <ele>347</ele>
        <time>2011-07-31T06:35:23Z</time>
      </trkpt>
      <trkpt lat="49.18876" lon="6.94627">
        <ele>347</ele>
        <time>2011-07-31T06:35:25Z</time>
      </trkpt>
      <trkpt lat="49.18876" lon="6.94625">
        <ele>348</ele>
        <time>2011-07-31T06:35:27Z</time>
      </trkpt>
      <trkpt lat="49.18876" lon="6.94622">
        <ele>348</ele>
        <time>2011-07-31T06:35:29Z</time>
      </trkpt>
      <trkpt lat="49.18876" lon="6.94619">
        <ele>348</ele>
        <time>2011-07-31T06:35:31Z</time>
      </trkpt>
      <trkpt lat="49.18876" lon="6.94616">
        <ele>349</ele>
        <time>2011-07-31T06:35:33Z</time>
      </trkpt>
      <trkpt lat="49.18876" lon="6.94615">
        <ele>349</ele>
        <time>2011-07-31T06:35:35Z</time>
      </trkpt>
      <trkpt lat="49.18877" lon="6.94613">
        <ele>350</ele>
        <time>2011-07-31T06:35:37Z</time>
      </trkpt>
      <trkpt lat="49.18876" lon="6.9461">
        <ele>350</ele>
        <time>2011-07-31T06:35:39Z</time>
      </trkpt>
      <trkpt lat="49.18875" lon="6.94607">
        <ele>350</ele>
        <time>2011-07-31T06:35:40Z</time>
      </trkpt>
      <trkpt lat="49.18874" lon="6.94605">
        <ele>350</ele>
        <time>2011-07-31T06:35:42Z</time>
      </trkpt>
      <trkpt lat="49.18874" lon="6.94603">
        <ele>350</ele>
        <time>2011-07-31T06:35:43Z</time>
      </trkpt>
      <trkpt lat="49.18873" lon="6.94601">
        <ele>350</ele>
        <time>2011-07-31T06:35:44Z</time>
      </trkpt>
      <trkpt lat="49.18874" lon="6.94599">
        <ele>350</ele>
        <time>2011-07-31T06:35:45Z</time>
      </trkpt>
      <trkpt lat="49.18874" lon="6.94597">
        <ele>350</ele>
        <time>2011-07-31T06:35:47Z</time>
      </trkpt>
      <trkpt lat="49.18874" lon="6.94594">
        <ele>350</ele>
        <time>2011-07-31T06:35:49Z</time>
      </trkpt>
      <trkpt lat="49.18875" lon="6.94593">
        <ele>350</ele>
        <time>2011-07-31T06:35:50Z</time>
      </trkpt>
      <trkpt lat="49.18874" lon="6.9459">
        <ele>350</ele>
        <time>2011-07-31T06:35:53Z</time>
      </trkpt>
      <trkpt lat="49.18876" lon="6.94588">
        <ele>349</ele>
        <time>2011-07-31T06:35:55Z</time>
      </trkpt>
      <trkpt lat="49.18875" lon="6.94586">
        <ele>348</ele>
        <time>2011-07-31T06:35:56Z</time>
      </trkpt>
      <trkpt lat="49.18874" lon="6.94584">
        <ele>348</ele>
        <time>2011-07-31T06:35:57Z</time>
      </trkpt>
      <trkpt lat="49.18872" lon="6.94582">
        <ele>348</ele>
        <time>2011-07-31T06:35:58Z</time>
      </trkpt>
      <trkpt lat="49.18872" lon="6.9458">
        <ele>347</ele>
        <time>2011-07-31T06:36:00Z</time>
      </trkpt>
      <trkpt lat="49.18871" lon="6.94578">
        <ele>347</ele>
        <time>2011-07-31T06:36:01Z</time>
      </trkpt>
      <trkpt lat="49.18871" lon="6.94576">
        <ele>346</ele>
        <time>2011-07-31T06:36:02Z</time>
      </trkpt>
      <trkpt lat="49.18871" lon="6.94574">
        <ele>346</ele>
        <time>2011-07-31T06:36:03Z</time>
      </trkpt>
      <trkpt lat="49.18871" lon="6.94572">
        <ele>345</ele>
        <time>2011-07-31T06:36:05Z</time>
      </trkpt>
      <trkpt lat="49.18871" lon="6.94569">
        <ele>344</ele>
        <time>2011-07-31T06:36:07Z</time>
      </trkpt>
      <trkpt lat="49.18871" lon="6.94567">
        <ele>344</ele>
        <time>2011-07-31T06:36:08Z</time>
      </trkpt>
      <trkpt lat="49.18871" lon="6.94563">
        <ele>344</ele>
        <time>2011-07-31T06:36:10Z</time>
      </trkpt>
      <trkpt lat="49.1887" lon="6.94561">
        <ele>344</ele>
        <time>2011-07-31T06:36:12Z</time>
      </trkpt>
      <trkpt lat="49.18869" lon="6.94558">
        <ele>344</ele>
        <time>2011-07-31T06:36:14Z</time>
      </trkpt>
      <trkpt lat="49.18869" lon="6.94556">
        <ele>344</ele>
        <time>2011-07-31T06:36:16Z</time>
      </trkpt>
      <trkpt lat="49.18869" lon="6.94553">
        <ele>344</ele>
        <time>2011-07-31T06:36:18Z</time>
      </trkpt>
      <trkpt lat="49.18868" lon="6.94551">
        <ele>344</ele>
        <time>2011-07-31T06:36:20Z</time>
      </trkpt>
      <trkpt lat="49.18867" lon="6.94549">
        <ele>343</ele>
        <time>2011-07-31T06:36:21Z</time>
      </trkpt>
      <trkpt lat="49.18867" lon="6.94546">
        <ele>342</ele>
        <time>2011-07-31T06:36:23Z</time>
      </trkpt>
      <trkpt lat="49.18866" lon="6.94544">
        <ele>340</ele>
        <time>2011-07-31T06:36:25Z</time>
      </trkpt>
      <trkpt lat="49.18865" lon="6.94542">
        <ele>338</ele>
        <time>2011-07-31T06:36:27Z</time>
      </trkpt>
      <trkpt lat="49.18865" lon="6.94539">
        <ele>338</ele>
        <time>2011-07-31T06:36:30Z</time>
      </trkpt>
      <trkpt lat="49.18864" lon="6.94537">
        <ele>338</ele>
        <time>2011-07-31T06:36:32Z</time>
      </trkpt>
      <trkpt lat="49.18863" lon="6.94534">
        <ele>338</ele>
        <time>2011-07-31T06:36:34Z</time>
      </trkpt>
      <trkpt lat="49.18863" lon="6.94531">
        <ele>338</ele>
        <time>2011-07-31T06:36:36Z</time>
      </trkpt>
      <trkpt lat="49.18862" lon="6.94529">
        <ele>338</ele>
        <time>2011-07-31T06:36:37Z</time>
      </trkpt>
      <trkpt lat="49.18861" lon="6.94526">
        <ele>338</ele>
        <time>2011-07-31T06:36:39Z</time>
      </trkpt>
      <trkpt lat="49.18859" lon="6.94525">
        <ele>338</ele>
        <time>2011-07-31T06:36:40Z</time>
      </trkpt>
      <trkpt lat="49.18859" lon="6.94522">
        <ele>338</ele>
        <time>2011-07-31T06:36:42Z</time>
      </trkpt>
      <trkpt lat="49.18859" lon="6.9452">
        <ele>338</ele>
        <time>2011-07-31T06:36:43Z</time>
      </trkpt>
      <trkpt lat="49.18858" lon="6.94518">
        <ele>338</ele>
        <time>2011-07-31T06:36:44Z</time>
      </trkpt>
      <trkpt lat="49.18858" lon="6.94516">
        <ele>338</ele>
        <time>2011-07-31T06:36:45Z</time>
      </trkpt>
      <trkpt lat="49.18857" lon="6.94513">
        <ele>337</ele>
        <time>2011-07-31T06:36:47Z</time>
      </trkpt>
      <trkpt lat="49.18857" lon="6.9451">
        <ele>336</ele>
        <time>2011-07-31T06:36:49Z</time>
      </trkpt>
      <trkpt lat="49.18856" lon="6.94508">
        <ele>335</ele>
        <time>2011-07-31T06:36:50Z</time>
      </trkpt>
      <trkpt lat="49.18856" lon="6.94506">
        <ele>335</ele>
        <time>2011-07-31T06:36:51Z</time>
      </trkpt>
      <trkpt lat="49.18856" lon="6.94504">
        <ele>334</ele>
        <time>2011-07-31T06:36:52Z</time>
      </trkpt>
      <trkpt lat="49.18856" lon="6.94502">
        <ele>333</ele>
        <time>2011-07-31T06:36:53Z</time>
      </trkpt>
      <trkpt lat="49.18855" lon="6.94499">
        <ele>333</ele>
        <time>2011-07-31T06:36:55Z</time>
      </trkpt>
      <trkpt lat="49.18854" lon="6.94497">
        <ele>333</ele>
        <time>2011-07-31T06:36:57Z</time>
      </trkpt>
      <trkpt lat="49.18854" lon="6.94494">
        <ele>333</ele>
        <time>2011-07-31T06:36:58Z</time>
      </trkpt>
      <trkpt lat="49.18854" lon="6.94492">
        <ele>333</ele>
        <time>2011-07-31T06:37:00Z</time>
      </trkpt>
      <trkpt lat="49.18853" lon="6.94489">
        <ele>333</ele>
        <time>2011-07-31T06:37:01Z</time>
      </trkpt>
      <trkpt lat="49.18853" lon="6.94486">
        <ele>333</ele>
        <time>2011-07-31T06:37:03Z</time>
      </trkpt>
      <trkpt lat="49.18853" lon="6.94483">
        <ele>333</ele>
        <time>2011-07-31T06:37:05Z</time>
      </trkpt>
      <trkpt lat="49.18855" lon="6.9448">
        <ele>333</ele>
        <time>2011-07-31T06:37:07Z</time>
      </trkpt>
      <trkpt lat="49.18856" lon="6.94478">
        <ele>333</ele>
        <time>2011-07-31T06:37:08Z</time>
      </trkpt>
      <trkpt lat="49.18856" lon="6.94476">
        <ele>333</ele>
        <time>2011-07-31T06:37:09Z</time>
      </trkpt>
      <trkpt lat="49.18857" lon="6.94474">
        <ele>335</ele>
        <time>2011-07-31T06:37:11Z</time>
      </trkpt>
      <trkpt lat="49.18857" lon="6.94471">
        <ele>337</ele>
        <time>2011-07-31T06:37:13Z</time>
      </trkpt>
      <trkpt lat="49.18858" lon="6.94468">
        <ele>339</ele>
        <time>2011-07-31T06:37:15Z</time>
      </trkpt>
      <trkpt lat="49.18859" lon="6.94466">
        <ele>340</ele>
        <time>2011-07-31T06:37:16Z</time>
      </trkpt>
      <trkpt lat="49.18859" lon="6.94464">
        <ele>341</ele>
        <time>2011-07-31T06:37:17Z</time>
      </trkpt>
      <trkpt lat="49.18861" lon="6.94463">
        <ele>341</ele>
        <time>2011-07-31T06:37:18Z</time>
      </trkpt>
      <trkpt lat="49.18861" lon="6.94459">
        <ele>341</ele>
        <time>2011-07-31T06:37:19Z</time>
      </trkpt>
      <trkpt lat="49.18862" lon="6.94457">
        <ele>342</ele>
        <time>2011-07-31T06:37:20Z</time>
      </trkpt>
      <trkpt lat="49.18863" lon="6.94454">
        <ele>343</ele>
        <time>2011-07-31T06:37:21Z</time>
      </trkpt>
      <trkpt lat="49.18864" lon="6.94452">
        <ele>344</ele>
        <time>2011-07-31T06:37:22Z</time>
      </trkpt>
      <trkpt lat="49.18865" lon="6.9445">
        <ele>345</ele>
        <time>2011-07-31T06:37:23Z</time>
      </trkpt>
      <trkpt lat="49.18866" lon="6.94448">
        <ele>346</ele>
        <time>2011-07-31T06:37:24Z</time>
      </trkpt>
      <trkpt lat="49.18867" lon="6.94444">
        <ele>348</ele>
        <time>2011-07-31T06:37:26Z</time>
      </trkpt>
      <trkpt lat="49.18868" lon="6.94442">
        <ele>349</ele>
        <time>2011-07-31T06:37:27Z</time>
      </trkpt>
      <trkpt lat="49.18868" lon="6.94438">
        <ele>350</ele>
        <time>2011-07-31T06:37:28Z</time>
      </trkpt>
      <trkpt lat="49.18869" lon="6.94436">
        <ele>351</ele>
        <time>2011-07-31T06:37:29Z</time>
      </trkpt>
      <trkpt lat="49.18869" lon="6.94434">
        <ele>351</ele>
        <time>2011-07-31T06:37:30Z</time>
      </trkpt>
      <trkpt lat="49.1887" lon="6.94431">
        <ele>351</ele>
        <time>2011-07-31T06:37:31Z</time>
      </trkpt>
      <trkpt lat="49.18871" lon="6.9443">
        <ele>352</ele>
        <time>2011-07-31T06:37:32Z</time>
      </trkpt>
      <trkpt lat="49.18873" lon="6.94427">
        <ele>353</ele>
        <time>2011-07-31T06:37:34Z</time>
      </trkpt>
      <trkpt lat="49.18875" lon="6.94426">
        <ele>354</ele>
        <time>2011-07-31T06:37:35Z</time>
      </trkpt>
      <trkpt lat="49.18876" lon="6.94424">
        <ele>356</ele>
        <time>2011-07-31T06:37:37Z</time>
      </trkpt>
      <trkpt lat="49.18877" lon="6.94421">
        <ele>358</ele>
        <time>2011-07-31T06:37:39Z</time>
      </trkpt>
      <trkpt lat="49.18878" lon="6.94418">
        <ele>360</ele>
        <time>2011-07-31T06:37:41Z</time>
      </trkpt>
      <trkpt lat="49.1888" lon="6.94416">
        <ele>362</ele>
        <time>2011-07-31T06:37:43Z</time>
      </trkpt>
      <trkpt lat="49.18881" lon="6.94413">
        <ele>363</ele>
        <time>2011-07-31T06:37:44Z</time>
      </trkpt>
      <trkpt lat="49.18882" lon="6.94411">
        <ele>363</ele>
        <time>2011-07-31T06:37:45Z</time>
      </trkpt>
      <trkpt lat="49.18882" lon="6.94409">
        <ele>364</ele>
        <time>2011-07-31T06:37:46Z</time>
      </trkpt>
      <trkpt lat="49.18884" lon="6.94407">
        <ele>365</ele>
        <time>2011-07-31T06:37:48Z</time>
      </trkpt>
      <trkpt lat="49.18886" lon="6.94405">
        <ele>365</ele>
        <time>2011-07-31T06:37:50Z</time>
      </trkpt>
      <trkpt lat="49.18887" lon="6.94403">
        <ele>365</ele>
        <time>2011-07-31T06:37:52Z</time>
      </trkpt>
      <trkpt lat="49.18888" lon="6.94401">
        <ele>365</ele>
        <time>2011-07-31T06:37:54Z</time>
      </trkpt>
      <trkpt lat="49.1889" lon="6.944">
        <ele>365</ele>
        <time>2011-07-31T06:37:55Z</time>
      </trkpt>
      <trkpt lat="49.18891" lon="6.94399">
        <ele>365</ele>
        <time>2011-07-31T06:37:56Z</time>
      </trkpt>
      <trkpt lat="49.18893" lon="6.94398">
        <ele>365</ele>
        <time>2011-07-31T06:37:57Z</time>
      </trkpt>
      <trkpt lat="49.18895" lon="6.94397">
        <ele>365</ele>
        <time>2011-07-31T06:37:58Z</time>
      </trkpt>
      <trkpt lat="49.18896" lon="6.94396">
        <ele>365</ele>
        <time>2011-07-31T06:38:00Z</time>
      </trkpt>
      <trkpt lat="49.18896" lon="6.94394">
        <ele>365</ele>
        <time>2011-07-31T06:38:02Z</time>
      </trkpt>
      <trkpt lat="49.18895" lon="6.94388">
        <ele>365</ele>
        <time>2011-07-31T06:38:06Z</time>
      </trkpt>
      <trkpt lat="49.18893" lon="6.94385">
        <ele>365</ele>
        <time>2011-07-31T06:38:07Z</time>
      </trkpt>
      <trkpt lat="49.18892" lon="6.94383">
        <ele>364</ele>
        <time>2011-07-31T06:38:09Z</time>
      </trkpt>
      <trkpt lat="49.18893" lon="6.94381">
        <ele>362</ele>
        <time>2011-07-31T06:38:11Z</time>
      </trkpt>
      <trkpt lat="49.18891" lon="6.94378">
        <ele>361</ele>
        <time>2011-07-31T06:38:13Z</time>
      </trkpt>
      <trkpt lat="49.18892" lon="6.94375">
        <ele>361</ele>
        <time>2011-07-31T06:38:17Z</time>
      </trkpt>
      <trkpt lat="49.1889" lon="6.94374">
        <ele>361</ele>
        <time>2011-07-31T06:38:19Z</time>
      </trkpt>
      <trkpt lat="49.18889" lon="6.94374">
        <ele>361</ele>
        <time>2011-07-31T06:38:21Z</time>
      </trkpt>
      <trkpt lat="49.18887" lon="6.94372">
        <ele>361</ele>
        <time>2011-07-31T06:38:23Z</time>
      </trkpt>
      <trkpt lat="49.18885" lon="6.94372">
        <ele>361</ele>
        <time>2011-07-31T06:38:25Z</time>
      </trkpt>
      <trkpt lat="49.18884" lon="6.94372">
        <ele>361</ele>
        <time>2011-07-31T06:38:27Z</time>
      </trkpt>
      <trkpt lat="49.18882" lon="6.94371">
        <ele>361</ele>
        <time>2011-07-31T06:38:29Z</time>
      </trkpt>
      <trkpt lat="49.18881" lon="6.94371">
        <ele>361</ele>
        <time>2011-07-31T06:38:31Z</time>
      </trkpt>
      <trkpt lat="49.18879" lon="6.94369">
        <ele>361</ele>
        <time>2011-07-31T06:38:33Z</time>
      </trkpt>
      <trkpt lat="49.18879" lon="6.94367">
        <ele>361</ele>
        <time>2011-07-31T06:38:35Z</time>
      </trkpt>
      <trkpt lat="49.18877" lon="6.94364">
        <ele>361</ele>
        <time>2011-07-31T06:38:38Z</time>
      </trkpt>
      <trkpt lat="49.18876" lon="6.94363">
        <ele>361</ele>
        <time>2011-07-31T06:38:40Z</time>
      </trkpt>
      <trkpt lat="49.18874" lon="6.94361">
        <ele>361</ele>
        <time>2011-07-31T06:38:43Z</time>
      </trkpt>
      <trkpt lat="49.18872" lon="6.94359">
        <ele>361</ele>
        <time>2011-07-31T06:38:45Z</time>
      </trkpt>
      <trkpt lat="49.1887" lon="6.94357">
        <ele>361</ele>
        <time>2011-07-31T06:38:47Z</time>
      </trkpt>
      <trkpt lat="49.18869" lon="6.94356">
        <ele>361</ele>
        <time>2011-07-31T06:38:49Z</time>
      </trkpt>
      <trkpt lat="49.18868" lon="6.94354">
        <ele>361</ele>
        <time>2011-07-31T06:38:51Z</time>
      </trkpt>
      <trkpt lat="49.18867" lon="6.94352">
        <ele>361</ele>
        <time>2011-07-31T06:38:52Z</time>
      </trkpt>
      <trkpt lat="49.18866" lon="6.9435">
        <ele>361</ele>
        <time>2011-07-31T06:38:55Z</time>
      </trkpt>
      <trkpt lat="49.18864" lon="6.9435">
        <ele>361</ele>
        <time>2011-07-31T06:38:57Z</time>
      </trkpt>
      <trkpt lat="49.18863" lon="6.94348">
        <ele>361</ele>
        <time>2011-07-31T06:38:59Z</time>
      </trkpt>
      <trkpt lat="49.18861" lon="6.94347">
        <ele>361</ele>
        <time>2011-07-31T06:39:00Z</time>
      </trkpt>
      <trkpt lat="49.1886" lon="6.94344">
        <ele>361</ele>
        <time>2011-07-31T06:39:02Z</time>
      </trkpt>
      <trkpt lat="49.18858" lon="6.94344">
        <ele>361</ele>
        <time>2011-07-31T06:39:04Z</time>
      </trkpt>
      <trkpt lat="49.18857" lon="6.94341">
        <ele>361</ele>
        <time>2011-07-31T06:39:06Z</time>
      </trkpt>
      <trkpt lat="49.18856" lon="6.94339">
        <ele>361</ele>
        <time>2011-07-31T06:39:07Z</time>
      </trkpt>
      <trkpt lat="49.18855" lon="6.94337">
        <ele>361</ele>
        <time>2011-07-31T06:39:08Z</time>
      </trkpt>
      <trkpt lat="49.18854" lon="6.94335">
        <ele>361</ele>
        <time>2011-07-31T06:39:10Z</time>
      </trkpt>
      <trkpt lat="49.18852" lon="6.94333">
        <ele>361</ele>
        <time>2011-07-31T06:39:12Z</time>
      </trkpt>
      <trkpt lat="49.1885" lon="6.9433">
        <ele>361</ele>
        <time>2011-07-31T06:39:14Z</time>
      </trkpt>
      <trkpt lat="49.18848" lon="6.94327">
        <ele>361</ele>
        <time>2011-07-31T06:39:16Z</time>
      </trkpt>
      <trkpt lat="49.18847" lon="6.94325">
        <ele>361</ele>
        <time>2011-07-31T06:39:18Z</time>
      </trkpt>
      <trkpt lat="49.18846" lon="6.94323">
        <ele>361</ele>
        <time>2011-07-31T06:39:20Z</time>
      </trkpt>
      <trkpt lat="49.18844" lon="6.94321">
        <ele>361</ele>
        <time>2011-07-31T06:39:22Z</time>
      </trkpt>
      <trkpt lat="49.18842" lon="6.9432">
        <ele>360</ele>
        <time>2011-07-31T06:39:24Z</time>
      </trkpt>
      <trkpt lat="49.18841" lon="6.94318">
        <ele>359</ele>
        <time>2011-07-31T06:39:26Z</time>
      </trkpt>
      <trkpt lat="49.1884" lon="6.94316">
        <ele>358</ele>
        <time>2011-07-31T06:39:28Z</time>
      </trkpt>
      <trkpt lat="49.18839" lon="6.94315">
        <ele>356</ele>
        <time>2011-07-31T06:39:30Z</time>
      </trkpt>
      <trkpt lat="49.18837" lon="6.94312">
        <ele>356</ele>
        <time>2011-07-31T06:39:31Z</time>
      </trkpt>
      <trkpt lat="49.18835" lon="6.9431">
        <ele>356</ele>
        <time>2011-07-31T06:39:32Z</time>
      </trkpt>
      <trkpt lat="49.18833" lon="6.94309">
        <ele>356</ele>
        <time>2011-07-31T06:39:34Z</time>
      </trkpt>
      <trkpt lat="49.18831" lon="6.94306">
        <ele>356</ele>
        <time>2011-07-31T06:39:36Z</time>
      </trkpt>
      <trkpt lat="49.18831" lon="6.94303">
        <ele>356</ele>
        <time>2011-07-31T06:39:38Z</time>
      </trkpt>
      <trkpt lat="49.18831" lon="6.94301">
        <ele>356</ele>
        <time>2011-07-31T06:39:39Z</time>
      </trkpt>
      <trkpt lat="49.18832" lon="6.94299">
        <ele>355</ele>
        <time>2011-07-31T06:39:40Z</time>
      </trkpt>
      <trkpt lat="49.18831" lon="6.94298">
        <ele>355</ele>
        <time>2011-07-31T06:39:41Z</time>
      </trkpt>
      <trkpt lat="49.18832" lon="6.94295">
        <ele>354</ele>
        <time>2011-07-31T06:39:43Z</time>
      </trkpt>
      <trkpt lat="49.18833" lon="6.94293">
        <ele>354</ele>
        <time>2011-07-31T06:39:44Z</time>
      </trkpt>
      <trkpt lat="49.18835" lon="6.9429">
        <ele>354</ele>
        <time>2011-07-31T06:39:46Z</time>
      </trkpt>
      <trkpt lat="49.18836" lon="6.94288">
        <ele>354</ele>
        <time>2011-07-31T06:39:48Z</time>
      </trkpt>
      <trkpt lat="49.18837" lon="6.94286">
        <ele>354</ele>
        <time>2011-07-31T06:39:50Z</time>
      </trkpt>
      <trkpt lat="49.18838" lon="6.94284">
        <ele>354</ele>
        <time>2011-07-31T06:39:51Z</time>
      </trkpt>
      <trkpt lat="49.18839" lon="6.94282">
        <ele>354</ele>
        <time>2011-07-31T06:39:52Z</time>
      </trkpt>
      <trkpt lat="49.1884" lon="6.94279">
        <ele>354</ele>
        <time>2011-07-31T06:39:54Z</time>
      </trkpt>
      <trkpt lat="49.18841" lon="6.94276">
        <ele>354</ele>
        <time>2011-07-31T06:39:56Z</time>
      </trkpt>
      <trkpt lat="49.18842" lon="6.94274">
        <ele>354</ele>
        <time>2011-07-31T06:39:57Z</time>
      </trkpt>
      <trkpt lat="49.18843" lon="6.94271">
        <ele>354</ele>
        <time>2011-07-31T06:39:58Z</time>
      </trkpt>
      <trkpt lat="49.18843" lon="6.94269">
        <ele>354</ele>
        <time>2011-07-31T06:39:59Z</time>
      </trkpt>
      <trkpt lat="49.18844" lon="6.94268">
        <ele>355</ele>
        <time>2011-07-31T06:40:00Z</time>
      </trkpt>
      <trkpt lat="49.18845" lon="6.94265">
        <ele>356</ele>
        <time>2011-07-31T06:40:02Z</time>
      </trkpt>
      <trkpt lat="49.18845" lon="6.94262">
        <ele>357</ele>
        <time>2011-07-31T06:40:03Z</time>
      </trkpt>
      <trkpt lat="49.18845" lon="6.9426">
        <ele>357</ele>
        <time>2011-07-31T06:40:04Z</time>
      </trkpt>
      <trkpt lat="49.18846" lon="6.94258">
        <ele>358</ele>
        <time>2011-07-31T06:40:05Z</time>
      </trkpt>
      <trkpt lat="49.18846" lon="6.94255">
        <ele>359</ele>
        <time>2011-07-31T06:40:06Z</time>
      </trkpt>
      <trkpt lat="49.18846" lon="6.94253">
        <ele>360</ele>
        <time>2011-07-31T06:40:07Z</time>
      </trkpt>
      <trkpt lat="49.18846" lon="6.94251">
        <ele>361</ele>
        <time>2011-07-31T06:40:08Z</time>
      </trkpt>
      <trkpt lat="49.18847" lon="6.94249">
        <ele>361</ele>
        <time>2011-07-31T06:40:09Z</time>
      </trkpt>
      <trkpt lat="49.18848" lon="6.94247">
        <ele>362</ele>
        <time>2011-07-31T06:40:10Z</time>
      </trkpt>
      <trkpt lat="49.1885" lon="6.94246">
        <ele>362</ele>
        <time>2011-07-31T06:40:11Z</time>
      </trkpt>
      <trkpt lat="49.18851" lon="6.94245">
        <ele>362</ele>
        <time>2011-07-31T06:40:12Z</time>
      </trkpt>
      <trkpt lat="49.18851" lon="6.94242">
        <ele>362</ele>
        <time>2011-07-31T06:40:14Z</time>
      </trkpt>
      <trkpt lat="49.18852" lon="6.94239">
        <ele>362</ele>
        <time>2011-07-31T06:40:16Z</time>
      </trkpt>
      <trkpt lat="49.18853" lon="6.94236">
        <ele>363</ele>
        <time>2011-07-31T06:40:18Z</time>
      </trkpt>
      <trkpt lat="49.18854" lon="6.94235">
        <ele>363</ele>
        <time>2011-07-31T06:40:19Z</time>
      </trkpt>
      <trkpt lat="49.18856" lon="6.94233">
        <ele>365</ele>
        <time>2011-07-31T06:40:21Z</time>
      </trkpt>
      <trkpt lat="49.18857" lon="6.94231">
        <ele>366</ele>
        <time>2011-07-31T06:40:22Z</time>
      </trkpt>
      <trkpt lat="49.18857" lon="6.94229">
        <ele>366</ele>
        <time>2011-07-31T06:40:24Z</time>
      </trkpt>
      <trkpt lat="49.18856" lon="6.94227">
        <ele>366</ele>
        <time>2011-07-31T06:40:27Z</time>
      </trkpt>
      <trkpt lat="49.18857" lon="6.94224">
        <ele>366</ele>
        <time>2011-07-31T06:40:29Z</time>
      </trkpt>
      <trkpt lat="49.18856" lon="6.94222">
        <ele>366</ele>
        <time>2011-07-31T06:40:33Z</time>
      </trkpt>
      <trkpt lat="49.18856" lon="6.94221">
        <ele>366</ele>
        <time>2011-07-31T06:40:37Z</time>
      </trkpt>
      <trkpt lat="49.18855" lon="6.9422">
        <ele>372</ele>
        <time>2011-07-31T06:40:52Z</time>
      </trkpt>
      <trkpt lat="49.18856" lon="6.94219">
        <ele>377</ele>
        <time>2011-07-31T06:41:00Z</time>
      </trkpt>
      <trkpt lat="49.18855" lon="6.94217">
        <ele>377</ele>
        <time>2011-07-31T06:41:05Z</time>
      </trkpt>
      <trkpt lat="49.18853" lon="6.94217">
        <ele>378</ele>
        <time>2011-07-31T06:41:06Z</time>
      </trkpt>
      <trkpt lat="49.18855" lon="6.94217">
        <ele>379</ele>
        <time>2011-07-31T06:41:11Z</time>
      </trkpt>
      <trkpt lat="49.18855" lon="6.94215">
        <ele>379</ele>
        <time>2011-07-31T06:41:12Z</time>
      </trkpt>
      <trkpt lat="49.18857" lon="6.94214">
        <ele>379</ele>
        <time>2011-07-31T06:41:14Z</time>
      </trkpt>
      <trkpt lat="49.18858" lon="6.94214">
        <ele>379</ele>
        <time>2011-07-31T06:41:14Z</time>
      </trkpt>
      <trkpt lat="49.1886" lon="6.94212">
        <ele>380</ele>
        <time>2011-07-31T06:41:17Z</time>
      </trkpt>
      <trkpt lat="49.18862" lon="6.94211">
        <ele>380</ele>
        <time>2011-07-31T06:41:20Z</time>
      </trkpt>
      <trkpt lat="49.18864" lon="6.9421">
        <ele>380</ele>
        <time>2011-07-31T06:41:21Z</time>
      </trkpt>
      <trkpt lat="49.18865" lon="6.94208">
        <ele>380</ele>
        <time>2011-07-31T06:41:24Z</time>
      </trkpt>
      <trkpt lat="49.18866" lon="6.94205">
        <ele>380</ele>
        <time>2011-07-31T06:41:26Z</time>
      </trkpt>
      <trkpt lat="49.18866" lon="6.942">
        <ele>380</ele>
        <time>2011-07-31T06:41:30Z</time>
      </trkpt>
      <trkpt lat="49.18865" lon="6.94197">
        <ele>380</ele>
        <time>2011-07-31T06:41:31Z</time>
      </trkpt>
      <trkpt lat="49.18865" lon="6.94195">
        <ele>380</ele>
        <time>2011-07-31T06:41:32Z</time>
      </trkpt>
      <trkpt lat="49.18865" lon="6.94193">
        <ele>380</ele>
        <time>2011-07-31T06:41:34Z</time>
      </trkpt>
      <trkpt lat="49.18863" lon="6.94192">
        <ele>380</ele>
        <time>2011-07-31T06:41:37Z</time>
      </trkpt>
      <trkpt lat="49.18862" lon="6.94192">
        <ele>379</ele>
        <time>2011-07-31T06:41:38Z</time>
      </trkpt>
      <trkpt lat="49.18861" lon="6.94192">
        <ele>377</ele>
        <time>2011-07-31T06:41:41Z</time>
      </trkpt>
      <trkpt lat="49.18859" lon="6.94191">
        <ele>375</ele>
        <time>2011-07-31T06:41:43Z</time>
      </trkpt>
      <trkpt lat="49.18858" lon="6.9419">
        <ele>374</ele>
        <time>2011-07-31T06:41:44Z</time>
      </trkpt>
      <trkpt lat="49.18856" lon="6.94187">
        <ele>374</ele>
        <time>2011-07-31T06:41:45Z</time>
      </trkpt>
      <trkpt lat="49.18855" lon="6.94186">
        <ele>374</ele>
        <time>2011-07-31T06:41:48Z</time>
      </trkpt>
      <trkpt lat="49.18854" lon="6.94185">
        <ele>374</ele>
        <time>2011-07-31T06:41:49Z</time>
      </trkpt>
      <trkpt lat="49.18852" lon="6.94184">
        <ele>373</ele>
        <time>2011-07-31T06:41:52Z</time>
      </trkpt>
      <trkpt lat="49.1885" lon="6.94183">
        <ele>372</ele>
        <time>2011-07-31T06:41:53Z</time>
      </trkpt>
      <trkpt lat="49.18849" lon="6.94183">
        <ele>372</ele>
        <time>2011-07-31T06:41:54Z</time>
      </trkpt>
      <trkpt lat="49.18848" lon="6.94183">
        <ele>371</ele>
        <time>2011-07-31T06:41:54Z</time>
      </trkpt>
      <trkpt lat="49.18847" lon="6.94181">
        <ele>370</ele>
        <time>2011-07-31T06:41:56Z</time>
      </trkpt>
      <trkpt lat="49.18846" lon="6.94179">
        <ele>370</ele>
        <time>2011-07-31T06:41:59Z</time>
      </trkpt>
      <trkpt lat="49.18845" lon="6.94177">
        <ele>370</ele>
        <time>2011-07-31T06:42:01Z</time>
      </trkpt>
      <trkpt lat="49.18844" lon="6.94175">
        <ele>370</ele>
        <time>2011-07-31T06:42:02Z</time>
      </trkpt>
      <trkpt lat="49.18843" lon="6.94173">
        <ele>370</ele>
        <time>2011-07-31T06:42:04Z</time>
      </trkpt>
      <trkpt lat="49.18843" lon="6.94171">
        <ele>370</ele>
        <time>2011-07-31T06:42:06Z</time>
      </trkpt>
      <trkpt lat="49.18842" lon="6.9417">
        <ele>370</ele>
        <time>2011-07-31T06:42:07Z</time>
      </trkpt>
      <trkpt lat="49.1884" lon="6.94171">
        <ele>370</ele>
        <time>2011-07-31T06:42:09Z</time>
      </trkpt>
      <trkpt lat="49.18838" lon="6.94169">
        <ele>370</ele>
        <time>2011-07-31T06:42:10Z</time>
      </trkpt>
      <trkpt lat="49.18837" lon="6.94168">
        <ele>370</ele>
        <time>2011-07-31T06:42:10Z</time>
      </trkpt>
      <trkpt lat="49.18836" lon="6.94166">
        <ele>371</ele>
        <time>2011-07-31T06:42:12Z</time>
      </trkpt>
      <trkpt lat="49.18834" lon="6.94164">
        <ele>371</ele>
        <time>2011-07-31T06:42:12Z</time>
      </trkpt>
      <trkpt lat="49.18833" lon="6.94163">
        <ele>371</ele>
        <time>2011-07-31T06:42:13Z</time>
      </trkpt>
      <trkpt lat="49.18831" lon="6.94162">
        <ele>371</ele>
        <time>2011-07-31T06:42:16Z</time>
      </trkpt>
      <trkpt lat="49.18831" lon="6.94159">
        <ele>371</ele>
        <time>2011-07-31T06:42:17Z</time>
      </trkpt>
      <trkpt lat="49.18829" lon="6.94156">
        <ele>371</ele>
        <time>2011-07-31T06:42:19Z</time>
      </trkpt>
      <trkpt lat="49.18829" lon="6.94154">
        <ele>371</ele>
        <time>2011-07-31T06:42:21Z</time>
      </trkpt>
      <trkpt lat="49.18828" lon="6.94151">
        <ele>371</ele>
        <time>2011-07-31T06:42:22Z</time>
      </trkpt>
      <trkpt lat="49.18827" lon="6.94148">
        <ele>371</ele>
        <time>2011-07-31T06:42:23Z</time>
      </trkpt>
      <trkpt lat="49.18826" lon="6.94145">
        <ele>371</ele>
        <time>2011-07-31T06:42:26Z</time>
      </trkpt>
      <trkpt lat="49.18825" lon="6.94143">
        <ele>371</ele>
        <time>2011-07-31T06:42:28Z</time>
      </trkpt>
      <trkpt lat="49.18823" lon="6.94141">
        <ele>371</ele>
        <time>2011-07-31T06:42:29Z</time>
      </trkpt>
      <trkpt lat="49.18822" lon="6.94138">
        <ele>371</ele>
        <time>2011-07-31T06:42:31Z</time>
      </trkpt>
      <trkpt lat="49.18821" lon="6.94137">
        <ele>371</ele>
        <time>2011-07-31T06:42:32Z</time>
      </trkpt>
      <trkpt lat="49.18819" lon="6.94135">
        <ele>371</ele>
        <time>2011-07-31T06:42:33Z</time>
      </trkpt>
      <trkpt lat="49.18818" lon="6.94134">
        <ele>371</ele>
        <time>2011-07-31T06:42:33Z</time>
      </trkpt>
      <trkpt lat="49.18817" lon="6.94133">
        <ele>371</ele>
        <time>2011-07-31T06:42:35Z</time>
      </trkpt>
      <trkpt lat="49.18815" lon="6.94132">
        <ele>371</ele>
        <time>2011-07-31T06:42:37Z</time>
      </trkpt>
      <trkpt lat="49.18814" lon="6.94129">
        <ele>370</ele>
        <time>2011-07-31T06:42:39Z</time>
      </trkpt>
      <trkpt lat="49.18813" lon="6.94128">
        <ele>370</ele>
        <time>2011-07-31T06:42:41Z</time>
      </trkpt>
      <trkpt lat="49.18811" lon="6.94127">
        <ele>369</ele>
        <time>2011-07-31T06:42:42Z</time>
      </trkpt>
      <trkpt lat="49.1881" lon="6.94127">
        <ele>369</ele>
        <time>2011-07-31T06:42:43Z</time>
      </trkpt>
      <trkpt lat="49.18809" lon="6.94127">
        <ele>368</ele>
        <time>2011-07-31T06:42:45Z</time>
      </trkpt>
      <trkpt lat="49.18808" lon="6.94126">
        <ele>368</ele>
        <time>2011-07-31T06:42:46Z</time>
      </trkpt>
      <trkpt lat="49.18806" lon="6.94123">
        <ele>368</ele>
        <time>2011-07-31T06:42:48Z</time>
      </trkpt>
      <trkpt lat="49.18806" lon="6.9412">
        <ele>368</ele>
        <time>2011-07-31T06:42:50Z</time>
      </trkpt>
      <trkpt lat="49.18804" lon="6.94118">
        <ele>368</ele>
        <time>2011-07-31T06:42:51Z</time>
      </trkpt>
      <trkpt lat="49.18803" lon="6.94116">
        <ele>367</ele>
        <time>2011-07-31T06:42:54Z</time>
      </trkpt>
      <trkpt lat="49.18803" lon="6.94114">
        <ele>367</ele>
        <time>2011-07-31T06:42:56Z</time>
      </trkpt>
      <trkpt lat="49.18802" lon="6.94112">
        <ele>367</ele>
        <time>2011-07-31T06:42:57Z</time>
      </trkpt>
      <trkpt lat="49.18801" lon="6.94109">
        <ele>367</ele>
        <time>2011-07-31T06:42:58Z</time>
      </trkpt>
      <trkpt lat="49.188" lon="6.94108">
        <ele>367</ele>
        <time>2011-07-31T06:42:59Z</time>
      </trkpt>
      <trkpt lat="49.18798" lon="6.94107">
        <ele>367</ele>
        <time>2011-07-31T06:42:59Z</time>
      </trkpt>
      <trkpt lat="49.18797" lon="6.94105">
        <ele>367</ele>
        <time>2011-07-31T06:43:01Z</time>
      </trkpt>
      <trkpt lat="49.18796" lon="6.94103">
        <ele>367</ele>
        <time>2011-07-31T06:43:02Z</time>
      </trkpt>
      <trkpt lat="49.18795" lon="6.94102">
        <ele>367</ele>
        <time>2011-07-31T06:43:04Z</time>
      </trkpt>
      <trkpt lat="49.18794" lon="6.941">
        <ele>367</ele>
        <time>2011-07-31T06:43:06Z</time>
      </trkpt>
      <trkpt lat="49.18793" lon="6.94099">
        <ele>367</ele>
        <time>2011-07-31T06:43:11Z</time>
      </trkpt>
      <trkpt lat="49.18792" lon="6.94097">
        <ele>367</ele>
        <time>2011-07-31T06:43:11Z</time>
      </trkpt>
      <trkpt lat="49.18791" lon="6.94094">
        <ele>367</ele>
        <time>2011-07-31T06:43:13Z</time>
      </trkpt>
      <trkpt lat="49.1879" lon="6.94092">
        <ele>367</ele>
        <time>2011-07-31T06:43:15Z</time>
      </trkpt>
      <trkpt lat="49.18789" lon="6.94091">
        <ele>367</ele>
        <time>2011-07-31T06:43:17Z</time>
      </trkpt>
      <trkpt lat="49.18788" lon="6.9409">
        <ele>367</ele>
        <time>2011-07-31T06:43:17Z</time>
      </trkpt>
      <trkpt lat="49.18785" lon="6.94088">
        <ele>367</ele>
        <time>2011-07-31T06:43:19Z</time>
      </trkpt>
      <trkpt lat="49.18783" lon="6.94085">
        <ele>367</ele>
        <time>2011-07-31T06:43:22Z</time>
      </trkpt>
      <trkpt lat="49.18781" lon="6.94084">
        <ele>367</ele>
        <time>2011-07-31T06:43:23Z</time>
      </trkpt>
      <trkpt lat="49.1878" lon="6.94082">
        <ele>367</ele>
        <time>2011-07-31T06:43:24Z</time>
      </trkpt>
      <trkpt lat="49.18779" lon="6.9408">
        <ele>367</ele>
        <time>2011-07-31T06:43:26Z</time>
      </trkpt>
      <trkpt lat="49.18776" lon="6.94079">
        <ele>367</ele>
        <time>2011-07-31T06:43:28Z</time>
      </trkpt>
      <trkpt lat="49.18774" lon="6.94077">
        <ele>367</ele>
        <time>2011-07-31T06:43:28Z</time>
      </trkpt>
      <trkpt lat="49.18773" lon="6.94076">
        <ele>367</ele>
        <time>2011-07-31T06:43:29Z</time>
      </trkpt>
      <trkpt lat="49.18771" lon="6.94074">
        <ele>367</ele>
        <time>2011-07-31T06:43:31Z</time>
      </trkpt>
      <trkpt lat="49.1877" lon="6.94073">
        <ele>367</ele>
        <time>2011-07-31T06:43:33Z</time>
      </trkpt>
      <trkpt lat="49.18769" lon="6.94071">
        <ele>367</ele>
        <time>2011-07-31T06:43:34Z</time>
      </trkpt>
      <trkpt lat="49.18769" lon="6.94069">
        <ele>367</ele>
        <time>2011-07-31T06:43:35Z</time>
      </trkpt>
      <trkpt lat="49.18768" lon="6.94067">
        <ele>367</ele>
        <time>2011-07-31T06:43:37Z</time>
      </trkpt>
      <trkpt lat="49.18766" lon="6.94065">
        <ele>367</ele>
        <time>2011-07-31T06:43:39Z</time>
      </trkpt>
      <trkpt lat="49.18766" lon="6.94062">
        <ele>367</ele>
        <time>2011-07-31T06:43:41Z</time>
      </trkpt>
      <trkpt lat="49.18765" lon="6.94059">
        <ele>367</ele>
        <time>2011-07-31T06:43:41Z</time>
      </trkpt>
      <trkpt lat="49.18765" lon="6.94056">
        <ele>367</ele>
        <time>2011-07-31T06:43:43Z</time>
      </trkpt>
      <trkpt lat="49.18764" lon="6.94054">
        <ele>367</ele>
        <time>2011-07-31T06:43:43Z</time>
      </trkpt>
      <trkpt lat="49.18762" lon="6.94051">
        <ele>367</ele>
        <time>2011-07-31T06:43:46Z</time>
      </trkpt>
      <trkpt lat="49.18762" lon="6.94049">
        <ele>367</ele>
        <time>2011-07-31T06:43:47Z</time>
      </trkpt>
      <trkpt lat="49.18761" lon="6.94045">
        <ele>367</ele>
        <time>2011-07-31T06:43:49Z</time>
      </trkpt>
      <trkpt lat="49.18761" lon="6.94041">
        <ele>367</ele>
        <time>2011-07-31T06:43:51Z</time>
      </trkpt>
      <trkpt lat="49.18761" lon="6.94039">
        <ele>367</ele>
        <time>2011-07-31T06:43:51Z</time>
      </trkpt>
      <trkpt lat="49.1876" lon="6.94037">
        <ele>367</ele>
        <time>2011-07-31T06:43:52Z</time>
      </trkpt>
      <trkpt lat="49.1876" lon="6.94035">
        <ele>367</ele>
        <time>2011-07-31T06:43:54Z</time>
      </trkpt>
      <trkpt lat="49.1876" lon="6.94032">
        <ele>367</ele>
        <time>2011-07-31T06:43:55Z</time>
      </trkpt>
      <trkpt lat="49.1876" lon="6.9403">
        <ele>367</ele>
        <time>2011-07-31T06:43:56Z</time>
      </trkpt>
      <trkpt lat="49.1876" lon="6.94027">
        <ele>367</ele>
        <time>2011-07-31T06:43:57Z</time>
      </trkpt>
      <trkpt lat="49.18759" lon="6.94024">
        <ele>368</ele>
        <time>2011-07-31T06:43:59Z</time>
      </trkpt>
      <trkpt lat="49.18759" lon="6.94022">
        <ele>368</ele>
        <time>2011-07-31T06:43:59Z</time>
      </trkpt>
      <trkpt lat="49.18759" lon="6.9402">
        <ele>368</ele>
        <time>2011-07-31T06:44:02Z</time>
      </trkpt>
      <trkpt lat="49.18759" lon="6.94018">
        <ele>369</ele>
        <time>2011-07-31T06:44:03Z</time>
      </trkpt>
      <trkpt lat="49.1876" lon="6.94016">
        <ele>369</ele>
        <time>2011-07-31T06:44:04Z</time>
      </trkpt>
      <trkpt lat="49.1876" lon="6.94014">
        <ele>369</ele>
        <time>2011-07-31T06:44:05Z</time>
      </trkpt>
      <trkpt lat="49.18759" lon="6.9401">
        <ele>369</ele>
        <time>2011-07-31T06:44:08Z</time>
      </trkpt>
      <trkpt lat="49.18759" lon="6.94007">
        <ele>369</ele>
        <time>2011-07-31T06:44:09Z</time>
      </trkpt>
      <trkpt lat="49.18758" lon="6.94004">
        <ele>369</ele>
        <time>2011-07-31T06:44:11Z</time>
      </trkpt>
      <trkpt lat="49.18758" lon="6.94002">
        <ele>369</ele>
        <time>2011-07-31T06:44:13Z</time>
      </trkpt>
      <trkpt lat="49.18758" lon="6.94">
        <ele>369</ele>
        <time>2011-07-31T06:44:13Z</time>
      </trkpt>
      <trkpt lat="49.18757" lon="6.93998">
        <ele>369</ele>
        <time>2011-07-31T06:44:14Z</time>
      </trkpt>
      <trkpt lat="49.18757" lon="6.93996">
        <ele>369</ele>
        <time>2011-07-31T06:44:15Z</time>
      </trkpt>
      <trkpt lat="49.18756" lon="6.93992">
        <ele>369</ele>
        <time>2011-07-31T06:44:18Z</time>
      </trkpt>
      <trkpt lat="49.18755" lon="6.9399">
        <ele>369</ele>
        <time>2011-07-31T06:44:20Z</time>
      </trkpt>
      <trkpt lat="49.18753" lon="6.93988">
        <ele>369</ele>
        <time>2011-07-31T06:44:22Z</time>
      </trkpt>
      <trkpt lat="49.18751" lon="6.93987">
        <ele>369</ele>
        <time>2011-07-31T06:44:23Z</time>
      </trkpt>
      <trkpt lat="49.1875" lon="6.93986">
        <ele>369</ele>
        <time>2011-07-31T06:44:24Z</time>
      </trkpt>
      <trkpt lat="49.1875" lon="6.93983">
        <ele>370</ele>
        <time>2011-07-31T06:44:26Z</time>
      </trkpt>
      <trkpt lat="49.18748" lon="6.93981">
        <ele>371</ele>
        <time>2011-07-31T06:44:29Z</time>
      </trkpt>
      <trkpt lat="49.18748" lon="6.93979">
        <ele>371</ele>
        <time>2011-07-31T06:44:29Z</time>
      </trkpt>
      <trkpt lat="49.18748" lon="6.93977">
        <ele>372</ele>
        <time>2011-07-31T06:44:30Z</time>
      </trkpt>
      <trkpt lat="49.18747" lon="6.93974">
        <ele>372</ele>
        <time>2011-07-31T06:44:31Z</time>
      </trkpt>
      <trkpt lat="49.18745" lon="6.93973">
        <ele>373</ele>
        <time>2011-07-31T06:44:33Z</time>
      </trkpt>
      <trkpt lat="49.18742" lon="6.93973">
        <ele>374</ele>
        <time>2011-07-31T06:44:35Z</time>
      </trkpt>
      <trkpt lat="49.18742" lon="6.93971">
        <ele>374</ele>
        <time>2011-07-31T06:44:37Z</time>
      </trkpt>
      <trkpt lat="49.1874" lon="6.93968">
        <ele>375</ele>
        <time>2011-07-31T06:44:40Z</time>
      </trkpt>
      <trkpt lat="49.18739" lon="6.93968">
        <ele>375</ele>
        <time>2011-07-31T06:44:40Z</time>
      </trkpt>
      <trkpt lat="49.18738" lon="6.93966">
        <ele>375</ele>
        <time>2011-07-31T06:44:42Z</time>
      </trkpt>
      <trkpt lat="49.18739" lon="6.93962">
        <ele>375</ele>
        <time>2011-07-31T06:44:45Z</time>
      </trkpt>
      <trkpt lat="49.18739" lon="6.93961">
        <ele>375</ele>
        <time>2011-07-31T06:44:46Z</time>
      </trkpt>
      <trkpt lat="49.18739" lon="6.93958">
        <ele>375</ele>
        <time>2011-07-31T06:44:48Z</time>
      </trkpt>
      <trkpt lat="49.18738" lon="6.93955">
        <ele>374</ele>
        <time>2011-07-31T06:44:51Z</time>
      </trkpt>
      <trkpt lat="49.18738" lon="6.93953">
        <ele>373</ele>
        <time>2011-07-31T06:44:51Z</time>
      </trkpt>
      <trkpt lat="49.18737" lon="6.93951">
        <ele>373</ele>
        <time>2011-07-31T06:44:52Z</time>
      </trkpt>
      <trkpt lat="49.18737" lon="6.93948">
        <ele>372</ele>
        <time>2011-07-31T06:44:54Z</time>
      </trkpt>
      <trkpt lat="49.18737" lon="6.93946">
        <ele>371</ele>
        <time>2011-07-31T06:44:57Z</time>
      </trkpt>
      <trkpt lat="49.18737" lon="6.93943">
        <ele>370</ele>
        <time>2011-07-31T06:44:58Z</time>
      </trkpt>
      <trkpt lat="49.18737" lon="6.9394">
        <ele>370</ele>
        <time>2011-07-31T06:45:00Z</time>
      </trkpt>
      <trkpt lat="49.18737" lon="6.93938">
        <ele>369</ele>
        <time>2011-07-31T06:45:01Z</time>
      </trkpt>
      <trkpt lat="49.18737" lon="6.93936">
        <ele>369</ele>
        <time>2011-07-31T06:45:02Z</time>
      </trkpt>
      <trkpt lat="49.18738" lon="6.93933">
        <ele>368</ele>
        <time>2011-07-31T06:45:04Z</time>
      </trkpt>
      <trkpt lat="49.18738" lon="6.9393">
        <ele>368</ele>
        <time>2011-07-31T06:45:05Z</time>
      </trkpt>
      <trkpt lat="49.18738" lon="6.93928">
        <ele>368</ele>
        <time>2011-07-31T06:45:07Z</time>
      </trkpt>
      <trkpt lat="49.18737" lon="6.93925">
        <ele>368</ele>
        <time>2011-07-31T06:45:08Z</time>
      </trkpt>
      <trkpt lat="49.18736" lon="6.93922">
        <ele>367</ele>
        <time>2011-07-31T06:45:10Z</time>
      </trkpt>
      <trkpt lat="49.18735" lon="6.93919">
        <ele>366</ele>
        <time>2011-07-31T06:45:13Z</time>
      </trkpt>
      <trkpt lat="49.18735" lon="6.93917">
        <ele>366</ele>
        <time>2011-07-31T06:45:13Z</time>
      </trkpt>
      <trkpt lat="49.18736" lon="6.93915">
        <ele>366</ele>
        <time>2011-07-31T06:45:14Z</time>
      </trkpt>
      <trkpt lat="49.18737" lon="6.93912">
        <ele>366</ele>
        <time>2011-07-31T06:45:16Z</time>
      </trkpt>
      <trkpt lat="49.18737" lon="6.9391">
        <ele>366</ele>
        <time>2011-07-31T06:45:18Z</time>
      </trkpt>
      <trkpt lat="49.18736" lon="6.93908">
        <ele>366</ele>
        <time>2011-07-31T06:45:18Z</time>
      </trkpt>
      <trkpt lat="49.18735" lon="6.93906">
        <ele>366</ele>
        <time>2011-07-31T06:45:19Z</time>
      </trkpt>
      <trkpt lat="49.18734" lon="6.93903">
        <ele>366</ele>
        <time>2011-07-31T06:45:21Z</time>
      </trkpt>
      <trkpt lat="49.18734" lon="6.93902">
        <ele>366</ele>
        <time>2011-07-31T06:45:23Z</time>
      </trkpt>
      <trkpt lat="49.18733" lon="6.939">
        <ele>366</ele>
        <time>2011-07-31T06:45:23Z</time>
      </trkpt>
      <trkpt lat="49.18733" lon="6.93897">
        <ele>366</ele>
        <time>2011-07-31T06:45:25Z</time>
      </trkpt>
      <trkpt lat="49.18733" lon="6.93895">
        <ele>366</ele>
        <time>2011-07-31T06:45:26Z</time>
      </trkpt>
      <trkpt lat="49.18733" lon="6.93892">
        <ele>366</ele>
        <time>2011-07-31T06:45:28Z</time>
      </trkpt>
      <trkpt lat="49.18732" lon="6.93889">
        <ele>366</ele>
        <time>2011-07-31T06:45:29Z</time>
      </trkpt>
      <trkpt lat="49.18731" lon="6.93887">
        <ele>366</ele>
        <time>2011-07-31T06:45:30Z</time>
      </trkpt>
      <trkpt lat="49.1873" lon="6.93886">
        <ele>366</ele>
        <time>2011-07-31T06:45:31Z</time>
      </trkpt>
      <trkpt lat="49.1873" lon="6.93884">
        <ele>365</ele>
        <time>2011-07-31T06:45:34Z</time>
      </trkpt>
      <trkpt lat="49.18728" lon="6.93882">
        <ele>365</ele>
        <time>2011-07-31T06:45:34Z</time>
      </trkpt>
      <trkpt lat="49.18727" lon="6.93879">
        <ele>364</ele>
        <time>2011-07-31T06:45:36Z</time>
      </trkpt>
      <trkpt lat="49.18727" lon="6.93877">
        <ele>363</ele>
        <time>2011-07-31T06:45:37Z</time>
      </trkpt>
      <trkpt lat="49.18726" lon="6.93874">
        <ele>362</ele>
        <time>2011-07-31T06:45:40Z</time>
      </trkpt>
      <trkpt lat="49.18725" lon="6.93871">
        <ele>361</ele>
        <time>2011-07-31T06:45:40Z</time>
      </trkpt>
      <trkpt lat="49.18725" lon="6.93868">
        <ele>359</ele>
        <time>2011-07-31T06:45:42Z</time>
      </trkpt>
      <trkpt lat="49.18724" lon="6.93866">
        <ele>359</ele>
        <time>2011-07-31T06:45:43Z</time>
      </trkpt>
      <trkpt lat="49.18723" lon="6.93864">
        <ele>358</ele>
        <time>2011-07-31T06:45:45Z</time>
      </trkpt>
      <trkpt lat="49.18722" lon="6.93862">
        <ele>358</ele>
        <time>2011-07-31T06:45:45Z</time>
      </trkpt>
      <trkpt lat="49.1872" lon="6.9386">
        <ele>358</ele>
        <time>2011-07-31T06:45:47Z</time>
      </trkpt>
      <trkpt lat="49.18719" lon="6.93859">
        <ele>358</ele>
        <time>2011-07-31T06:45:48Z</time>
      </trkpt>
      <trkpt lat="49.18718" lon="6.93856">
        <ele>358</ele>
        <time>2011-07-31T06:45:50Z</time>
      </trkpt>
      <trkpt lat="49.18717" lon="6.93855">
        <ele>358</ele>
        <time>2011-07-31T06:45:51Z</time>
      </trkpt>
      <trkpt lat="49.18716" lon="6.93853">
        <ele>358</ele>
        <time>2011-07-31T06:45:53Z</time>
      </trkpt>
      <trkpt lat="49.18716" lon="6.93851">
        <ele>359</ele>
        <time>2011-07-31T06:45:54Z</time>
      </trkpt>
      <trkpt lat="49.18715" lon="6.93848">
        <ele>359</ele>
        <time>2011-07-31T06:45:57Z</time>
      </trkpt>
      <trkpt lat="49.18715" lon="6.93846">
        <ele>359</ele>
        <time>2011-07-31T06:45:57Z</time>
      </trkpt>
      <trkpt lat="49.18714" lon="6.93844">
        <ele>360</ele>
        <time>2011-07-31T06:45:58Z</time>
      </trkpt>
      <trkpt lat="49.18714" lon="6.9384">
        <ele>361</ele>
        <time>2011-07-31T06:46:00Z</time>
      </trkpt>
      <trkpt lat="49.18713" lon="6.93837">
        <ele>362</ele>
        <time>2011-07-31T06:46:02Z</time>
      </trkpt>
      <trkpt lat="49.18712" lon="6.93833">
        <ele>364</ele>
        <time>2011-07-31T06:46:03Z</time>
      </trkpt>
      <trkpt lat="49.18711" lon="6.93831">
        <ele>365</ele>
        <time>2011-07-31T06:46:04Z</time>
      </trkpt>
      <trkpt lat="49.1871" lon="6.93827">
        <ele>366</ele>
        <time>2011-07-31T06:46:05Z</time>
      </trkpt>
      <trkpt lat="49.1871" lon="6.93824">
        <ele>367</ele>
        <time>2011-07-31T06:46:06Z</time>
      </trkpt>
      <trkpt lat="49.18711" lon="6.93822">
        <ele>369</ele>
        <time>2011-07-31T06:46:08Z</time>
      </trkpt>
      <trkpt lat="49.18711" lon="6.93819">
        <ele>370</ele>
        <time>2011-07-31T06:46:09Z</time>
      </trkpt>
      <trkpt lat="49.1871" lon="6.93817">
        <ele>371</ele>
        <time>2011-07-31T06:46:10Z</time>
      </trkpt>
      <trkpt lat="49.1871" lon="6.93815">
        <ele>372</ele>
        <time>2011-07-31T06:46:11Z</time>
      </trkpt>
      <trkpt lat="49.1871" lon="6.93814">
        <ele>373</ele>
        <time>2011-07-31T06:46:12Z</time>
      </trkpt>
      <trkpt lat="49.1871" lon="6.93811">
        <ele>374</ele>
        <time>2011-07-31T06:46:13Z</time>
      </trkpt>
      <trkpt lat="49.1871" lon="6.93809">
        <ele>375</ele>
        <time>2011-07-31T06:46:14Z</time>
      </trkpt>
      <trkpt lat="49.1871" lon="6.93807">
        <ele>375</ele>
        <time>2011-07-31T06:46:18Z</time>
      </trkpt>
      <trkpt lat="49.18711" lon="6.93806">
        <ele>375</ele>
        <time>2011-07-31T06:46:20Z</time>
      </trkpt>
      <trkpt lat="49.18712" lon="6.93804">
        <ele>375</ele>
        <time>2011-07-31T06:46:21Z</time>
      </trkpt>
      <trkpt lat="49.18712" lon="6.93802">
        <ele>375</ele>
        <time>2011-07-31T06:46:23Z</time>
      </trkpt>
      <trkpt lat="49.18712" lon="6.93799">
        <ele>375</ele>
        <time>2011-07-31T06:46:25Z</time>
      </trkpt>
      <trkpt lat="49.18712" lon="6.93797">
        <ele>375</ele>
        <time>2011-07-31T06:46:26Z</time>
      </trkpt>
      <trkpt lat="49.18712" lon="6.93795">
        <ele>375</ele>
        <time>2011-07-31T06:46:27Z</time>
      </trkpt>
      <trkpt lat="49.18711" lon="6.93792">
        <ele>375</ele>
        <time>2011-07-31T06:46:29Z</time>
      </trkpt>
      <trkpt lat="49.1871" lon="6.93792">
        <ele>375</ele>
        <time>2011-07-31T06:46:31Z</time>
      </trkpt>
      <trkpt lat="49.18709" lon="6.9379">
        <ele>374</ele>
        <time>2011-07-31T06:46:33Z</time>
      </trkpt>
      <trkpt lat="49.18708" lon="6.93788">
        <ele>373</ele>
        <time>2011-07-31T06:46:35Z</time>
      </trkpt>
      <trkpt lat="49.18708" lon="6.93785">
        <ele>373</ele>
        <time>2011-07-31T06:46:37Z</time>
      </trkpt>
      <trkpt lat="49.18708" lon="6.93782">
        <ele>373</ele>
        <time>2011-07-31T06:46:39Z</time>
      </trkpt>
      <trkpt lat="49.18708" lon="6.93779">
        <ele>373</ele>
        <time>2011-07-31T06:46:41Z</time>
      </trkpt>
      <trkpt lat="49.18708" lon="6.93776">
        <ele>373</ele>
        <time>2011-07-31T06:46:42Z</time>
      </trkpt>
      <trkpt lat="49.18707" lon="6.93774">
        <ele>373</ele>
        <time>2011-07-31T06:46:43Z</time>
      </trkpt>
      <trkpt lat="49.18706" lon="6.93771">
        <ele>373</ele>
        <time>2011-07-31T06:46:45Z</time>
      </trkpt>
      <trkpt lat="49.18706" lon="6.93768">
        <ele>373</ele>
        <time>2011-07-31T06:46:47Z</time>
      </trkpt>
      <trkpt lat="49.18706" lon="6.93765">
        <ele>373</ele>
        <time>2011-07-31T06:46:49Z</time>
      </trkpt>
      <trkpt lat="49.18706" lon="6.93762">
        <ele>373</ele>
        <time>2011-07-31T06:46:51Z</time>
      </trkpt>
      <trkpt lat="49.18706" lon="6.9376">
        <ele>373</ele>
        <time>2011-07-31T06:46:52Z</time>
      </trkpt>
      <trkpt lat="49.18706" lon="6.93758">
        <ele>373</ele>
        <time>2011-07-31T06:46:53Z</time>
      </trkpt>
      <trkpt lat="49.18705" lon="6.93756">
        <ele>373</ele>
        <time>2011-07-31T06:46:54Z</time>
      </trkpt>
      <trkpt lat="49.18705" lon="6.93753">
        <ele>373</ele>
        <time>2011-07-31T06:46:55Z</time>
      </trkpt>
      <trkpt lat="49.18705" lon="6.93751">
        <ele>373</ele>
        <time>2011-07-31T06:46:56Z</time>
      </trkpt>
      <trkpt lat="49.18705" lon="6.93749">
        <ele>373</ele>
        <time>2011-07-31T06:46:57Z</time>
      </trkpt>
      <trkpt lat="49.18705" lon="6.93747">
        <ele>373</ele>
        <time>2011-07-31T06:46:59Z</time>
      </trkpt>
      <trkpt lat="49.18704" lon="6.93746">
        <ele>373</ele>
        <time>2011-07-31T06:47:01Z</time>
      </trkpt>
      <trkpt lat="49.18704" lon="6.93744">
        <ele>373</ele>
        <time>2011-07-31T06:47:02Z</time>
      </trkpt>
      <trkpt lat="49.18705" lon="6.93741">
        <ele>372</ele>
        <time>2011-07-31T06:47:04Z</time>
      </trkpt>
      <trkpt lat="49.18704" lon="6.93738">
        <ele>370</ele>
        <time>2011-07-31T06:47:06Z</time>
      </trkpt>
      <trkpt lat="49.18704" lon="6.93736">
        <ele>370</ele>
        <time>2011-07-31T06:47:08Z</time>
      </trkpt>
      <trkpt lat="49.18704" lon="6.93732">
        <ele>370</ele>
        <time>2011-07-31T06:47:10Z</time>
      </trkpt>
      <trkpt lat="49.18704" lon="6.9373">
        <ele>370</ele>
        <time>2011-07-31T06:47:12Z</time>
      </trkpt>
      <trkpt lat="49.18703" lon="6.93727">
        <ele>370</ele>
        <time>2011-07-31T06:47:14Z</time>
      </trkpt>
      <trkpt lat="49.18702" lon="6.93725">
        <ele>370</ele>
        <time>2011-07-31T06:47:16Z</time>
      </trkpt>
      <trkpt lat="49.18702" lon="6.93723">
        <ele>370</ele>
        <time>2011-07-31T06:47:17Z</time>
      </trkpt>
      <trkpt lat="49.18701" lon="6.93721">
        <ele>370</ele>
        <time>2011-07-31T06:47:18Z</time>
      </trkpt>
      <trkpt lat="49.18701" lon="6.93719">
        <ele>370</ele>
        <time>2011-07-31T06:47:19Z</time>
      </trkpt>
      <trkpt lat="49.187" lon="6.93715">
        <ele>370</ele>
        <time>2011-07-31T06:47:21Z</time>
      </trkpt>
      <trkpt lat="49.187" lon="6.93713">
        <ele>370</ele>
        <time>2011-07-31T06:47:22Z</time>
      </trkpt>
      <trkpt lat="49.187" lon="6.93712">
        <ele>370</ele>
        <time>2011-07-31T06:47:23Z</time>
      </trkpt>
      <trkpt lat="49.187" lon="6.9371">
        <ele>370</ele>
        <time>2011-07-31T06:47:25Z</time>
      </trkpt>
      <trkpt lat="49.187" lon="6.93706">
        <ele>370</ele>
        <time>2011-07-31T06:47:27Z</time>
      </trkpt>
      <trkpt lat="49.187" lon="6.93704">
        <ele>370</ele>
        <time>2011-07-31T06:47:28Z</time>
      </trkpt>
      <trkpt lat="49.187" lon="6.93703">
        <ele>370</ele>
        <time>2011-07-31T06:47:29Z</time>
      </trkpt>
      <trkpt lat="49.187" lon="6.937">
        <ele>370</ele>
        <time>2011-07-31T06:47:30Z</time>
      </trkpt>
      <trkpt lat="49.187" lon="6.93698">
        <ele>370</ele>
        <time>2011-07-31T06:47:31Z</time>
      </trkpt>
      <trkpt lat="49.187" lon="6.93696">
        <ele>370</ele>
        <time>2011-07-31T06:47:32Z</time>
      </trkpt>
      <trkpt lat="49.187" lon="6.93693">
        <ele>370</ele>
        <time>2011-07-31T06:47:34Z</time>
      </trkpt>
      <trkpt lat="49.187" lon="6.9369">
        <ele>370</ele>
        <time>2011-07-31T06:47:37Z</time>
      </trkpt>
      <trkpt lat="49.187" lon="6.93688">
        <ele>370</ele>
        <time>2011-07-31T06:47:38Z</time>
      </trkpt>
      <trkpt lat="49.18701" lon="6.93686">
        <ele>370</ele>
        <time>2011-07-31T06:47:40Z</time>
      </trkpt>
      <trkpt lat="49.18701" lon="6.93683">
        <ele>370</ele>
        <time>2011-07-31T06:47:42Z</time>
      </trkpt>
      <trkpt lat="49.18701" lon="6.93682">
        <ele>370</ele>
        <time>2011-07-31T06:47:43Z</time>
      </trkpt>
      <trkpt lat="49.18701" lon="6.9368">
        <ele>370</ele>
        <time>2011-07-31T06:47:44Z</time>
      </trkpt>
      <trkpt lat="49.18701" lon="6.93678">
        <ele>370</ele>
        <time>2011-07-31T06:47:45Z</time>
      </trkpt>
      <trkpt lat="49.187" lon="6.93675">
        <ele>370</ele>
        <time>2011-07-31T06:47:47Z</time>
      </trkpt>
      <trkpt lat="49.18699" lon="6.93673">
        <ele>370</ele>
        <time>2011-07-31T06:47:48Z</time>
      </trkpt>
      <trkpt lat="49.187" lon="6.93671">
        <ele>370</ele>
        <time>2011-07-31T06:47:49Z</time>
      </trkpt>
      <trkpt lat="49.187" lon="6.93669">
        <ele>370</ele>
        <time>2011-07-31T06:47:50Z</time>
      </trkpt>
      <trkpt lat="49.18699" lon="6.93667">
        <ele>370</ele>
        <time>2011-07-31T06:47:51Z</time>
      </trkpt>
      <trkpt lat="49.18697" lon="6.93666">
        <ele>370</ele>
        <time>2011-07-31T06:47:53Z</time>
      </trkpt>
      <trkpt lat="49.18697" lon="6.93664">
        <ele>370</ele>
        <time>2011-07-31T06:47:55Z</time>
      </trkpt>
      <trkpt lat="49.18697" lon="6.93662">
        <ele>370</ele>
        <time>2011-07-31T06:47:57Z</time>
      </trkpt>
      <trkpt lat="49.18696" lon="6.9366">
        <ele>370</ele>
        <time>2011-07-31T06:47:58Z</time>
      </trkpt>
      <trkpt lat="49.18695" lon="6.93657">
        <ele>371</ele>
        <time>2011-07-31T06:48:00Z</time>
      </trkpt>
      <trkpt lat="49.18695" lon="6.93655">
        <ele>372</ele>
        <time>2011-07-31T06:48:01Z</time>
      </trkpt>
      <trkpt lat="49.18695" lon="6.93653">
        <ele>373</ele>
        <time>2011-07-31T06:48:02Z</time>
      </trkpt>
      <trkpt lat="49.18695" lon="6.9365">
        <ele>373</ele>
        <time>2011-07-31T06:48:04Z</time>
      </trkpt>
      <trkpt lat="49.18695" lon="6.93648">
        <ele>373</ele>
        <time>2011-07-31T06:48:05Z</time>
      </trkpt>
      <trkpt lat="49.18695" lon="6.93646">
        <ele>373</ele>
        <time>2011-07-31T06:48:06Z</time>
      </trkpt>
      <trkpt lat="49.18694" lon="6.93645">
        <ele>373</ele>
        <time>2011-07-31T06:48:07Z</time>
      </trkpt>
      <trkpt lat="49.18694" lon="6.93643">
        <ele>373</ele>
        <time>2011-07-31T06:48:08Z</time>
      </trkpt>
      <trkpt lat="49.18694" lon="6.93641">
        <ele>373</ele>
        <time>2011-07-31T06:48:10Z</time>
      </trkpt>
      <trkpt lat="49.18695" lon="6.93638">
        <ele>373</ele>
        <time>2011-07-31T06:48:12Z</time>
      </trkpt>
      <trkpt lat="49.18694" lon="6.93636">
        <ele>373</ele>
        <time>2011-07-31T06:48:14Z</time>
      </trkpt>
      <trkpt lat="49.18692" lon="6.93634">
        <ele>373</ele>
        <time>2011-07-31T06:48:16Z</time>
      </trkpt>
      <trkpt lat="49.18692" lon="6.93632">
        <ele>373</ele>
        <time>2011-07-31T06:48:18Z</time>
      </trkpt>
      <trkpt lat="49.18692" lon="6.9363">
        <ele>373</ele>
        <time>2011-07-31T06:48:20Z</time>
      </trkpt>
      <trkpt lat="49.18692" lon="6.93627">
        <ele>373</ele>
        <time>2011-07-31T06:48:21Z</time>
      </trkpt>
      <trkpt lat="49.18692" lon="6.93625">
        <ele>373</ele>
        <time>2011-07-31T06:48:22Z</time>
      </trkpt>
      <trkpt lat="49.18693" lon="6.93623">
        <ele>373</ele>
        <time>2011-07-31T06:48:24Z</time>
      </trkpt>
      <trkpt lat="49.18693" lon="6.9362">
        <ele>373</ele>
        <time>2011-07-31T06:48:26Z</time>
      </trkpt>
      <trkpt lat="49.18694" lon="6.93616">
        <ele>373</ele>
        <time>2011-07-31T06:48:28Z</time>
      </trkpt>
      <trkpt lat="49.18694" lon="6.93614">
        <ele>373</ele>
        <time>2011-07-31T06:48:29Z</time>
      </trkpt>
      <trkpt lat="49.18693" lon="6.9361">
        <ele>373</ele>
        <time>2011-07-31T06:48:32Z</time>
      </trkpt>
      <trkpt lat="49.18693" lon="6.93608">
        <ele>373</ele>
        <time>2011-07-31T06:48:32Z</time>
      </trkpt>
      <trkpt lat="49.18693" lon="6.93605">
        <ele>373</ele>
        <time>2011-07-31T06:48:33Z</time>
      </trkpt>
      <trkpt lat="49.18693" lon="6.93604">
        <ele>373</ele>
        <time>2011-07-31T06:48:34Z</time>
      </trkpt>
      <trkpt lat="49.18693" lon="6.93602">
        <ele>373</ele>
        <time>2011-07-31T06:48:35Z</time>
      </trkpt>
      <trkpt lat="49.18693" lon="6.936">
        <ele>373</ele>
        <time>2011-07-31T06:48:37Z</time>
      </trkpt>
      <trkpt lat="49.18693" lon="6.93598">
        <ele>373</ele>
        <time>2011-07-31T06:48:37Z</time>
      </trkpt>
      <trkpt lat="49.18692" lon="6.93594">
        <ele>373</ele>
        <time>2011-07-31T06:48:39Z</time>
      </trkpt>
      <trkpt lat="49.18692" lon="6.93592">
        <ele>373</ele>
        <time>2011-07-31T06:48:40Z</time>
      </trkpt>
      <trkpt lat="49.18692" lon="6.93589">
        <ele>373</ele>
        <time>2011-07-31T06:48:43Z</time>
      </trkpt>
      <trkpt lat="49.18692" lon="6.93587">
        <ele>373</ele>
        <time>2011-07-31T06:48:43Z</time>
      </trkpt>
      <trkpt lat="49.1869" lon="6.93585">
        <ele>374</ele>
        <time>2011-07-31T06:48:46Z</time>
      </trkpt>
      <trkpt lat="49.18689" lon="6.93584">
        <ele>374</ele>
        <time>2011-07-31T06:48:49Z</time>
      </trkpt>
      <trkpt lat="49.18689" lon="6.93582">
        <ele>374</ele>
        <time>2011-07-31T06:48:50Z</time>
      </trkpt>
      <trkpt lat="49.18688" lon="6.9358">
        <ele>374</ele>
        <time>2011-07-31T06:48:52Z</time>
      </trkpt>
      <trkpt lat="49.18688" lon="6.93578">
        <ele>374</ele>
        <time>2011-07-31T06:48:54Z</time>
      </trkpt>
      <trkpt lat="49.18688" lon="6.93575">
        <ele>374</ele>
        <time>2011-07-31T06:48:54Z</time>
      </trkpt>
      <trkpt lat="49.18688" lon="6.93573">
        <ele>374</ele>
        <time>2011-07-31T06:48:55Z</time>
      </trkpt>
      <trkpt lat="49.18688" lon="6.93571">
        <ele>374</ele>
        <time>2011-07-31T06:48:56Z</time>
      </trkpt>
      <trkpt lat="49.18688" lon="6.93569">
        <ele>374</ele>
        <time>2011-07-31T06:48:57Z</time>
      </trkpt>
      <trkpt lat="49.18689" lon="6.93567">
        <ele>374</ele>
        <time>2011-07-31T06:49:00Z</time>
      </trkpt>
      <trkpt lat="49.18688" lon="6.93566">
        <ele>374</ele>
        <time>2011-07-31T06:49:00Z</time>
      </trkpt>
      <trkpt lat="49.18688" lon="6.93564">
        <ele>374</ele>
        <time>2011-07-31T06:49:01Z</time>
      </trkpt>
      <trkpt lat="49.18687" lon="6.9356">
        <ele>374</ele>
        <time>2011-07-31T06:49:03Z</time>
      </trkpt>
      <trkpt lat="49.18687" lon="6.93558">
        <ele>374</ele>
        <time>2011-07-31T06:49:05Z</time>
      </trkpt>
      <trkpt lat="49.18686" lon="6.93555">
        <ele>374</ele>
        <time>2011-07-31T06:49:06Z</time>
      </trkpt>
      <trkpt lat="49.18685" lon="6.93554">
        <ele>374</ele>
        <time>2011-07-31T06:49:08Z</time>
      </trkpt>
      <trkpt lat="49.18685" lon="6.93552">
        <ele>374</ele>
        <time>2011-07-31T06:49:11Z</time>
      </trkpt>
      <trkpt lat="49.18685" lon="6.9355">
        <ele>374</ele>
        <time>2011-07-31T06:49:12Z</time>
      </trkpt>
      <trkpt lat="49.18684" lon="6.93547">
        <ele>374</ele>
        <time>2011-07-31T06:49:13Z</time>
      </trkpt>
      <trkpt lat="49.18684" lon="6.93545">
        <ele>374</ele>
        <time>2011-07-31T06:49:14Z</time>
      </trkpt>
      <trkpt lat="49.18685" lon="6.93544">
        <ele>374</ele>
        <time>2011-07-31T06:49:16Z</time>
      </trkpt>
      <trkpt lat="49.18685" lon="6.9354">
        <ele>375</ele>
        <time>2011-07-31T06:49:17Z</time>
      </trkpt>
      <trkpt lat="49.18685" lon="6.93537">
        <ele>376</ele>
        <time>2011-07-31T06:49:18Z</time>
      </trkpt>
      <trkpt lat="49.18685" lon="6.93534">
        <ele>377</ele>
        <time>2011-07-31T06:49:19Z</time>
      </trkpt>
      <trkpt lat="49.18685" lon="6.93533">
        <ele>377</ele>
        <time>2011-07-31T06:49:21Z</time>
      </trkpt>
      <trkpt lat="49.18685" lon="6.9353">
        <ele>378</ele>
        <time>2011-07-31T06:49:22Z</time>
      </trkpt>
      <trkpt lat="49.18686" lon="6.93526">
        <ele>378</ele>
        <time>2011-07-31T06:49:24Z</time>
      </trkpt>
      <trkpt lat="49.18686" lon="6.93524">
        <ele>378</ele>
        <time>2011-07-31T06:49:26Z</time>
      </trkpt>
      <trkpt lat="49.18686" lon="6.93522">
        <ele>378</ele>
        <time>2011-07-31T06:49:26Z</time>
      </trkpt>
      <trkpt lat="49.18686" lon="6.93519">
        <ele>378</ele>
        <time>2011-07-31T06:49:27Z</time>
      </trkpt>
      <trkpt lat="49.18687" lon="6.93518">
        <ele>378</ele>
        <time>2011-07-31T06:49:28Z</time>
      </trkpt>
      <trkpt lat="49.18687" lon="6.93515">
        <ele>378</ele>
        <time>2011-07-31T06:49:29Z</time>
      </trkpt>
      <trkpt lat="49.18689" lon="6.93514">
        <ele>378</ele>
        <time>2011-07-31T06:49:32Z</time>
      </trkpt>
      <trkpt lat="49.1869" lon="6.93512">
        <ele>378</ele>
        <time>2011-07-31T06:49:33Z</time>
      </trkpt>
      <trkpt lat="49.18691" lon="6.93509">
        <ele>378</ele>
        <time>2011-07-31T06:49:35Z</time>
      </trkpt>
      <trkpt lat="49.18692" lon="6.93506">
        <ele>378</ele>
        <time>2011-07-31T06:49:38Z</time>
      </trkpt>
      <trkpt lat="49.18692" lon="6.93504">
        <ele>379</ele>
        <time>2011-07-31T06:49:39Z</time>
      </trkpt>
      <trkpt lat="49.18692" lon="6.93501">
        <ele>379</ele>
        <time>2011-07-31T06:49:41Z</time>
      </trkpt>
      <trkpt lat="49.18692" lon="6.93498">
        <ele>379</ele>
        <time>2011-07-31T06:49:44Z</time>
      </trkpt>
      <trkpt lat="49.18693" lon="6.93496">
        <ele>379</ele>
        <time>2011-07-31T06:49:45Z</time>
      </trkpt>
      <trkpt lat="49.18695" lon="6.93494">
        <ele>379</ele>
        <time>2011-07-31T06:49:47Z</time>
      </trkpt>
      <trkpt lat="49.18697" lon="6.93492">
        <ele>380</ele>
        <time>2011-07-31T06:49:50Z</time>
      </trkpt>
      <trkpt lat="49.18698" lon="6.93491">
        <ele>380</ele>
        <time>2011-07-31T06:49:50Z</time>
      </trkpt>
      <trkpt lat="49.187" lon="6.93491">
        <ele>380</ele>
        <time>2011-07-31T06:49:51Z</time>
      </trkpt>
      <trkpt lat="49.18702" lon="6.9349">
        <ele>380</ele>
        <time>2011-07-31T06:49:53Z</time>
      </trkpt>
      <trkpt lat="49.18703" lon="6.93488">
        <ele>380</ele>
        <time>2011-07-31T06:49:55Z</time>
      </trkpt>
      <trkpt lat="49.18704" lon="6.93486">
        <ele>380</ele>
        <time>2011-07-31T06:49:57Z</time>
      </trkpt>
      <trkpt lat="49.18705" lon="6.93483">
        <ele>380</ele>
        <time>2011-07-31T06:49:59Z</time>
      </trkpt>
      <trkpt lat="49.18707" lon="6.93482">
        <ele>380</ele>
        <time>2011-07-31T06:50:00Z</time>
      </trkpt>
      <trkpt lat="49.18708" lon="6.93483">
        <ele>380</ele>
        <time>2011-07-31T06:50:01Z</time>
      </trkpt>
      <trkpt lat="49.1871" lon="6.93482">
        <ele>380</ele>
        <time>2011-07-31T06:50:02Z</time>
      </trkpt>
      <trkpt lat="49.18712" lon="6.93479">
        <ele>380</ele>
        <time>2011-07-31T06:50:04Z</time>
      </trkpt>
      <trkpt lat="49.18712" lon="6.93477">
        <ele>380</ele>
        <time>2011-07-31T06:50:05Z</time>
      </trkpt>
      <trkpt lat="49.18714" lon="6.93475">
        <ele>380</ele>
        <time>2011-07-31T06:50:07Z</time>
      </trkpt>
      <trkpt lat="49.18716" lon="6.93474">
        <ele>379</ele>
        <time>2011-07-31T06:50:08Z</time>
      </trkpt>
      <trkpt lat="49.18718" lon="6.93474">
        <ele>379</ele>
        <time>2011-07-31T06:50:09Z</time>
      </trkpt>
      <trkpt lat="49.18718" lon="6.93471">
        <ele>378</ele>
        <time>2011-07-31T06:50:11Z</time>
      </trkpt>
      <trkpt lat="49.1872" lon="6.93471">
        <ele>377</ele>
        <time>2011-07-31T06:50:12Z</time>
      </trkpt>
      <trkpt lat="49.18721" lon="6.9347">
        <ele>377</ele>
        <time>2011-07-31T06:50:13Z</time>
      </trkpt>
      <trkpt lat="49.18722" lon="6.93469">
        <ele>376</ele>
        <time>2011-07-31T06:50:14Z</time>
      </trkpt>
      <trkpt lat="49.18722" lon="6.93466">
        <ele>375</ele>
        <time>2011-07-31T06:50:15Z</time>
      </trkpt>
      <trkpt lat="49.18722" lon="6.93464">
        <ele>375</ele>
        <time>2011-07-31T06:50:16Z</time>
      </trkpt>
      <trkpt lat="49.18723" lon="6.9346">
        <ele>375</ele>
        <time>2011-07-31T06:50:18Z</time>
      </trkpt>
      <trkpt lat="49.18723" lon="6.93458">
        <ele>375</ele>
        <time>2011-07-31T06:50:19Z</time>
      </trkpt>
      <trkpt lat="49.18724" lon="6.93455">
        <ele>375</ele>
        <time>2011-07-31T06:50:20Z</time>
      </trkpt>
      <trkpt lat="49.18726" lon="6.93454">
        <ele>376</ele>
        <time>2011-07-31T06:50:22Z</time>
      </trkpt>
      <trkpt lat="49.18728" lon="6.93454">
        <ele>377</ele>
        <time>2011-07-31T06:50:23Z</time>
      </trkpt>
      <trkpt lat="49.18729" lon="6.93451">
        <ele>377</ele>
        <time>2011-07-31T06:50:24Z</time>
      </trkpt>
      <trkpt lat="49.18729" lon="6.93449">
        <ele>378</ele>
        <time>2011-07-31T06:50:25Z</time>
      </trkpt>
      <trkpt lat="49.18729" lon="6.93448">
        <ele>379</ele>
        <time>2011-07-31T06:50:26Z</time>
      </trkpt>
      <trkpt lat="49.18731" lon="6.93446">
        <ele>380</ele>
        <time>2011-07-31T06:50:28Z</time>
      </trkpt>
      <trkpt lat="49.18732" lon="6.93446">
        <ele>381</ele>
        <time>2011-07-31T06:50:30Z</time>
      </trkpt>
      <trkpt lat="49.18732" lon="6.93442">
        <ele>381</ele>
        <time>2011-07-31T06:50:32Z</time>
      </trkpt>
      <trkpt lat="49.18732" lon="6.93441">
        <ele>381</ele>
        <time>2011-07-31T06:50:33Z</time>
      </trkpt>
      <trkpt lat="49.18734" lon="6.93439">
        <ele>381</ele>
        <time>2011-07-31T06:50:34Z</time>
      </trkpt>
      <trkpt lat="49.18734" lon="6.93437">
        <ele>381</ele>
        <time>2011-07-31T06:50:35Z</time>
      </trkpt>
      <trkpt lat="49.18734" lon="6.93435">
        <ele>381</ele>
        <time>2011-07-31T06:50:36Z</time>
      </trkpt>
      <trkpt lat="49.18734" lon="6.93433">
        <ele>382</ele>
        <time>2011-07-31T06:50:37Z</time>
      </trkpt>
      <trkpt lat="49.18734" lon="6.9343">
        <ele>384</ele>
        <time>2011-07-31T06:50:39Z</time>
      </trkpt>
      <trkpt lat="49.18735" lon="6.93427">
        <ele>387</ele>
        <time>2011-07-31T06:50:42Z</time>
      </trkpt>
      <trkpt lat="49.18735" lon="6.93425">
        <ele>389</ele>
        <time>2011-07-31T06:50:44Z</time>
      </trkpt>
      <trkpt lat="49.18736" lon="6.93422">
        <ele>391</ele>
        <time>2011-07-31T06:50:46Z</time>
      </trkpt>
      <trkpt lat="49.18737" lon="6.93419">
        <ele>392</ele>
        <time>2011-07-31T06:50:47Z</time>
      </trkpt>
      <trkpt lat="49.18739" lon="6.93419">
        <ele>393</ele>
        <time>2011-07-31T06:50:48Z</time>
      </trkpt>
      <trkpt lat="49.18741" lon="6.93418">
        <ele>394</ele>
        <time>2011-07-31T06:50:49Z</time>
      </trkpt>
      <trkpt lat="49.18744" lon="6.93418">
        <ele>395</ele>
        <time>2011-07-31T06:50:50Z</time>
      </trkpt>
      <trkpt lat="49.18745" lon="6.93417">
        <ele>395</ele>
        <time>2011-07-31T06:50:51Z</time>
      </trkpt>
      <trkpt lat="49.18747" lon="6.93415">
        <ele>395</ele>
        <time>2011-07-31T06:50:53Z</time>
      </trkpt>
      <trkpt lat="49.18748" lon="6.93415">
        <ele>395</ele>
        <time>2011-07-31T06:50:55Z</time>
      </trkpt>
      <trkpt lat="49.1875" lon="6.93413">
        <ele>393</ele>
        <time>2011-07-31T06:50:57Z</time>
      </trkpt>
      <trkpt lat="49.18751" lon="6.9341">
        <ele>391</ele>
        <time>2011-07-31T06:51:00Z</time>
      </trkpt>
      <trkpt lat="49.18753" lon="6.9341">
        <ele>390</ele>
        <time>2011-07-31T06:51:02Z</time>
      </trkpt>
      <trkpt lat="49.18755" lon="6.93409">
        <ele>390</ele>
        <time>2011-07-31T06:51:03Z</time>
      </trkpt>
      <trkpt lat="49.18756" lon="6.93406">
        <ele>388</ele>
        <time>2011-07-31T06:51:05Z</time>
      </trkpt>
      <trkpt lat="49.18756" lon="6.93404">
        <ele>387</ele>
        <time>2011-07-31T06:51:06Z</time>
      </trkpt>
      <trkpt lat="49.18757" lon="6.93402">
        <ele>386</ele>
        <time>2011-07-31T06:51:08Z</time>
      </trkpt>
      <trkpt lat="49.18757" lon="6.934">
        <ele>386</ele>
        <time>2011-07-31T06:51:10Z</time>
      </trkpt>
      <trkpt lat="49.18759" lon="6.93398">
        <ele>386</ele>
        <time>2011-07-31T06:51:12Z</time>
      </trkpt>
      <trkpt lat="49.1876" lon="6.93395">
        <ele>386</ele>
        <time>2011-07-31T06:51:14Z</time>
      </trkpt>
      <trkpt lat="49.18761" lon="6.93392">
        <ele>386</ele>
        <time>2011-07-31T06:51:16Z</time>
      </trkpt>
      <trkpt lat="49.18762" lon="6.93391">
        <ele>386</ele>
        <time>2011-07-31T06:51:17Z</time>
      </trkpt>
      <trkpt lat="49.18764" lon="6.93391">
        <ele>386</ele>
        <time>2011-07-31T06:51:18Z</time>
      </trkpt>
      <trkpt lat="49.18766" lon="6.93389">
        <ele>386</ele>
        <time>2011-07-31T06:51:20Z</time>
      </trkpt>
      <trkpt lat="49.18767" lon="6.93387">
        <ele>386</ele>
        <time>2011-07-31T06:51:22Z</time>
      </trkpt>
      <trkpt lat="49.18767" lon="6.93385">
        <ele>386</ele>
        <time>2011-07-31T06:51:23Z</time>
      </trkpt>
      <trkpt lat="49.18768" lon="6.93382">
        <ele>386</ele>
        <time>2011-07-31T06:51:24Z</time>
      </trkpt>
      <trkpt lat="49.1877" lon="6.93381">
        <ele>386</ele>
        <time>2011-07-31T06:51:26Z</time>
      </trkpt>
      <trkpt lat="49.18771" lon="6.93378">
        <ele>386</ele>
        <time>2011-07-31T06:51:29Z</time>
      </trkpt>
      <trkpt lat="49.18773" lon="6.93378">
        <ele>386</ele>
        <time>2011-07-31T06:51:31Z</time>
      </trkpt>
      <trkpt lat="49.18774" lon="6.93376">
        <ele>386</ele>
        <time>2011-07-31T06:51:32Z</time>
      </trkpt>
      <trkpt lat="49.18775" lon="6.93374">
        <ele>386</ele>
        <time>2011-07-31T06:51:34Z</time>
      </trkpt>
      <trkpt lat="49.18777" lon="6.93371">
        <ele>386</ele>
        <time>2011-07-31T06:51:36Z</time>
      </trkpt>
      <trkpt lat="49.18777" lon="6.9337">
        <ele>386</ele>
        <time>2011-07-31T06:51:38Z</time>
      </trkpt>
      <trkpt lat="49.18777" lon="6.93368">
        <ele>386</ele>
        <time>2011-07-31T06:51:39Z</time>
      </trkpt>
      <trkpt lat="49.18778" lon="6.93365">
        <ele>388</ele>
        <time>2011-07-31T06:51:41Z</time>
      </trkpt>
      <trkpt lat="49.18779" lon="6.93364">
        <ele>389</ele>
        <time>2011-07-31T06:51:42Z</time>
      </trkpt>
      <trkpt lat="49.1878" lon="6.93363">
        <ele>389</ele>
        <time>2011-07-31T06:51:43Z</time>
      </trkpt>
      <trkpt lat="49.18782" lon="6.93361">
        <ele>390</ele>
        <time>2011-07-31T06:51:45Z</time>
      </trkpt>
      <trkpt lat="49.18784" lon="6.93361">
        <ele>390</ele>
        <time>2011-07-31T06:51:46Z</time>
      </trkpt>
      <trkpt lat="49.18784" lon="6.93358">
        <ele>390</ele>
        <time>2011-07-31T06:51:48Z</time>
      </trkpt>
      <trkpt lat="49.18786" lon="6.93357">
        <ele>390</ele>
        <time>2011-07-31T06:51:49Z</time>
      </trkpt>
      <trkpt lat="49.18787" lon="6.93355">
        <ele>390</ele>
        <time>2011-07-31T06:51:50Z</time>
      </trkpt>
      <trkpt lat="49.18788" lon="6.93354">
        <ele>390</ele>
        <time>2011-07-31T06:51:51Z</time>
      </trkpt>
      <trkpt lat="49.1879" lon="6.93353">
        <ele>390</ele>
        <time>2011-07-31T06:51:53Z</time>
      </trkpt>
      <trkpt lat="49.18791" lon="6.9335">
        <ele>391</ele>
        <time>2011-07-31T06:51:54Z</time>
      </trkpt>
      <trkpt lat="49.18791" lon="6.93348">
        <ele>391</ele>
        <time>2011-07-31T06:51:55Z</time>
      </trkpt>
      <trkpt lat="49.18791" lon="6.93346">
        <ele>392</ele>
        <time>2011-07-31T06:51:56Z</time>
      </trkpt>
      <trkpt lat="49.18793" lon="6.93343">
        <ele>394</ele>
        <time>2011-07-31T06:51:58Z</time>
      </trkpt>
      <trkpt lat="49.18795" lon="6.93342">
        <ele>395</ele>
        <time>2011-07-31T06:51:59Z</time>
      </trkpt>
      <trkpt lat="49.18796" lon="6.9334">
        <ele>395</ele>
        <time>2011-07-31T06:52:00Z</time>
      </trkpt>
      <trkpt lat="49.18795" lon="6.93338">
        <ele>395</ele>
        <time>2011-07-31T06:52:02Z</time>
      </trkpt>
      <trkpt lat="49.18798" lon="6.93337">
        <ele>395</ele>
        <time>2011-07-31T06:52:05Z</time>
      </trkpt>
      <trkpt lat="49.188" lon="6.93337">
        <ele>395</ele>
        <time>2011-07-31T06:52:06Z</time>
      </trkpt>
      <trkpt lat="49.18801" lon="6.93334">
        <ele>395</ele>
        <time>2011-07-31T06:52:07Z</time>
      </trkpt>
      <trkpt lat="49.18802" lon="6.93333">
        <ele>395</ele>
        <time>2011-07-31T06:52:09Z</time>
      </trkpt>
      <trkpt lat="49.18803" lon="6.93331">
        <ele>395</ele>
        <time>2011-07-31T06:52:11Z</time>
      </trkpt>
      <trkpt lat="49.18804" lon="6.93329">
        <ele>395</ele>
        <time>2011-07-31T06:52:13Z</time>
      </trkpt>
      <trkpt lat="49.18805" lon="6.93327">
        <ele>395</ele>
        <time>2011-07-31T06:52:15Z</time>
      </trkpt>
      <trkpt lat="49.18807" lon="6.93325">
        <ele>395</ele>
        <time>2011-07-31T06:52:17Z</time>
      </trkpt>
      <trkpt lat="49.18808" lon="6.93325">
        <ele>395</ele>
        <time>2011-07-31T06:52:18Z</time>
      </trkpt>
      <trkpt lat="49.18808" lon="6.93326">
        <ele>395</ele>
        <time>2011-07-31T06:52:23Z</time>
      </trkpt>
      <trkpt lat="49.18808" lon="6.93328">
        <ele>395</ele>
        <time>2011-07-31T06:52:25Z</time>
      </trkpt>
      <trkpt lat="49.18809" lon="6.93329">
        <ele>395</ele>
        <time>2011-07-31T06:52:27Z</time>
      </trkpt>
      <trkpt lat="49.18811" lon="6.93329">
        <ele>395</ele>
        <time>2011-07-31T06:52:28Z</time>
      </trkpt>
      <trkpt lat="49.18812" lon="6.93331">
        <ele>395</ele>
        <time>2011-07-31T06:52:30Z</time>
      </trkpt>
      <trkpt lat="49.18813" lon="6.93332">
        <ele>395</ele>
        <time>2011-07-31T06:52:31Z</time>
      </trkpt>
      <trkpt lat="49.18813" lon="6.93334">
        <ele>395</ele>
        <time>2011-07-31T06:52:32Z</time>
      </trkpt>
      <trkpt lat="49.18814" lon="6.93336">
        <ele>395</ele>
        <time>2011-07-31T06:52:33Z</time>
      </trkpt>
      <trkpt lat="49.18815" lon="6.93339">
        <ele>395</ele>
        <time>2011-07-31T06:52:35Z</time>
      </trkpt>
      <trkpt lat="49.18817" lon="6.9334">
        <ele>395</ele>
        <time>2011-07-31T06:52:36Z</time>
      </trkpt>
      <trkpt lat="49.1882" lon="6.93342">
        <ele>395</ele>
        <time>2011-07-31T06:52:37Z</time>
      </trkpt>
      <trkpt lat="49.18821" lon="6.93344">
        <ele>395</ele>
        <time>2011-07-31T06:52:38Z</time>
      </trkpt>
      <trkpt lat="49.18823" lon="6.93345">
        <ele>395</ele>
        <time>2011-07-31T06:52:39Z</time>
      </trkpt>
      <trkpt lat="49.18821" lon="6.93347">
        <ele>395</ele>
        <time>2011-07-31T06:52:40Z</time>
      </trkpt>
      <trkpt lat="49.18822" lon="6.93349">
        <ele>395</ele>
        <time>2011-07-31T06:52:42Z</time>
      </trkpt>
      <trkpt lat="49.18825" lon="6.9335">
        <ele>395</ele>
        <time>2011-07-31T06:52:44Z</time>
      </trkpt>
      <trkpt lat="49.18827" lon="6.93351">
        <ele>395</ele>
        <time>2011-07-31T06:52:45Z</time>
      </trkpt>
      <trkpt lat="49.18829" lon="6.93355">
        <ele>395</ele>
        <time>2011-07-31T06:52:47Z</time>
      </trkpt>
      <trkpt lat="49.1883" lon="6.93356">
        <ele>395</ele>
        <time>2011-07-31T06:52:48Z</time>
      </trkpt>
      <trkpt lat="49.18832" lon="6.93359">
        <ele>395</ele>
        <time>2011-07-31T06:52:50Z</time>
      </trkpt>
      <trkpt lat="49.18833" lon="6.93361">
        <ele>395</ele>
        <time>2011-07-31T06:52:51Z</time>
      </trkpt>
      <trkpt lat="49.18835" lon="6.93362">
        <ele>395</ele>
        <time>2011-07-31T06:52:52Z</time>
      </trkpt>
      <trkpt lat="49.18835" lon="6.93364">
        <ele>395</ele>
        <time>2011-07-31T06:52:53Z</time>
      </trkpt>
      <trkpt lat="49.18836" lon="6.93366">
        <ele>395</ele>
        <time>2011-07-31T06:52:54Z</time>
      </trkpt>
      <trkpt lat="49.18837" lon="6.93368">
        <ele>395</ele>
        <time>2011-07-31T06:52:55Z</time>
      </trkpt>
      <trkpt lat="49.18838" lon="6.9337">
        <ele>395</ele>
        <time>2011-07-31T06:52:56Z</time>
      </trkpt>
      <trkpt lat="49.1884" lon="6.93373">
        <ele>395</ele>
        <time>2011-07-31T06:52:58Z</time>
      </trkpt>
      <trkpt lat="49.1884" lon="6.93376">
        <ele>395</ele>
        <time>2011-07-31T06:53:00Z</time>
      </trkpt>
      <trkpt lat="49.1884" lon="6.93378">
        <ele>395</ele>
        <time>2011-07-31T06:53:01Z</time>
      </trkpt>
      <trkpt lat="49.1884" lon="6.9338">
        <ele>395</ele>
        <time>2011-07-31T06:53:02Z</time>
      </trkpt>
      <trkpt lat="49.18839" lon="6.93382">
        <ele>395</ele>
        <time>2011-07-31T06:53:03Z</time>
      </trkpt>
      <trkpt lat="49.1884" lon="6.93385">
        <ele>395</ele>
        <time>2011-07-31T06:53:05Z</time>
      </trkpt>
      <trkpt lat="49.18841" lon="6.93387">
        <ele>395</ele>
        <time>2011-07-31T06:53:06Z</time>
      </trkpt>
      <trkpt lat="49.18842" lon="6.93389">
        <ele>395</ele>
        <time>2011-07-31T06:53:07Z</time>
      </trkpt>
      <trkpt lat="49.18843" lon="6.93391">
        <ele>395</ele>
        <time>2011-07-31T06:53:08Z</time>
      </trkpt>
      <trkpt lat="49.18844" lon="6.93393">
        <ele>395</ele>
        <time>2011-07-31T06:53:09Z</time>
      </trkpt>
      <trkpt lat="49.18845" lon="6.93396">
        <ele>395</ele>
        <time>2011-07-31T06:53:11Z</time>
      </trkpt>
      <trkpt lat="49.18846" lon="6.93398">
        <ele>395</ele>
        <time>2011-07-31T06:53:13Z</time>
      </trkpt>
      <trkpt lat="49.18848" lon="6.93401">
        <ele>394</ele>
        <time>2011-07-31T06:53:15Z</time>
      </trkpt>
      <trkpt lat="49.18848" lon="6.93404">
        <ele>393</ele>
        <time>2011-07-31T06:53:17Z</time>
      </trkpt>
      <trkpt lat="49.18851" lon="6.93406">
        <ele>392</ele>
        <time>2011-07-31T06:53:19Z</time>
      </trkpt>
      <trkpt lat="49.18852" lon="6.93409">
        <ele>391</ele>
        <time>2011-07-31T06:53:21Z</time>
      </trkpt>
      <trkpt lat="49.18853" lon="6.93411">
        <ele>391</ele>
        <time>2011-07-31T06:53:22Z</time>
      </trkpt>
      <trkpt lat="49.18853" lon="6.93413">
        <ele>391</ele>
        <time>2011-07-31T06:53:23Z</time>
      </trkpt>
      <trkpt lat="49.18854" lon="6.93415">
        <ele>391</ele>
        <time>2011-07-31T06:53:24Z</time>
      </trkpt>
      <trkpt lat="49.18856" lon="6.93417">
        <ele>391</ele>
        <time>2011-07-31T06:53:25Z</time>
      </trkpt>
      <trkpt lat="49.18856" lon="6.93419">
        <ele>391</ele>
        <time>2011-07-31T06:53:26Z</time>
      </trkpt>
      <trkpt lat="49.18857" lon="6.93421">
        <ele>391</ele>
        <time>2011-07-31T06:53:27Z</time>
      </trkpt>
      <trkpt lat="49.18858" lon="6.93423">
        <ele>391</ele>
        <time>2011-07-31T06:53:28Z</time>
      </trkpt>
      <trkpt lat="49.18859" lon="6.93424">
        <ele>391</ele>
        <time>2011-07-31T06:53:29Z</time>
      </trkpt>
      <trkpt lat="49.18861" lon="6.93426">
        <ele>391</ele>
        <time>2011-07-31T06:53:30Z</time>
      </trkpt>
      <trkpt lat="49.18862" lon="6.93428">
        <ele>391</ele>
        <time>2011-07-31T06:53:31Z</time>
      </trkpt>
      <trkpt lat="49.18862" lon="6.9343">
        <ele>391</ele>
        <time>2011-07-31T06:53:32Z</time>
      </trkpt>
      <trkpt lat="49.18862" lon="6.93432">
        <ele>391</ele>
        <time>2011-07-31T06:53:33Z</time>
      </trkpt>
      <trkpt lat="49.18863" lon="6.93434">
        <ele>391</ele>
        <time>2011-07-31T06:53:34Z</time>
      </trkpt>
      <trkpt lat="49.18864" lon="6.93437">
        <ele>391</ele>
        <time>2011-07-31T06:53:36Z</time>
      </trkpt>
      <trkpt lat="49.18865" lon="6.93438">
        <ele>391</ele>
        <time>2011-07-31T06:53:37Z</time>
      </trkpt>
      <trkpt lat="49.18867" lon="6.93441">
        <ele>391</ele>
        <time>2011-07-31T06:53:39Z</time>
      </trkpt>
      <trkpt lat="49.18867" lon="6.93443">
        <ele>391</ele>
        <time>2011-07-31T06:53:40Z</time>
      </trkpt>
      <trkpt lat="49.18869" lon="6.93444">
        <ele>391</ele>
        <time>2011-07-31T06:53:41Z</time>
      </trkpt>
      <trkpt lat="49.18869" lon="6.93446">
        <ele>391</ele>
        <time>2011-07-31T06:53:42Z</time>
      </trkpt>
      <trkpt lat="49.18869" lon="6.93449">
        <ele>391</ele>
        <time>2011-07-31T06:53:43Z</time>
      </trkpt>
      <trkpt lat="49.18869" lon="6.93452">
        <ele>391</ele>
        <time>2011-07-31T06:53:45Z</time>
      </trkpt>
      <trkpt lat="49.18869" lon="6.93455">
        <ele>391</ele>
        <time>2011-07-31T06:53:47Z</time>
      </trkpt>
      <trkpt lat="49.18869" lon="6.93457">
        <ele>391</ele>
        <time>2011-07-31T06:53:48Z</time>
      </trkpt>
      <trkpt lat="49.18871" lon="6.93459">
        <ele>391</ele>
        <time>2011-07-31T06:53:49Z</time>
      </trkpt>
      <trkpt lat="49.18872" lon="6.93462">
        <ele>391</ele>
        <time>2011-07-31T06:53:51Z</time>
      </trkpt>
      <trkpt lat="49.18872" lon="6.93464">
        <ele>392</ele>
        <time>2011-07-31T06:53:52Z</time>
      </trkpt>
      <trkpt lat="49.18873" lon="6.93467">
        <ele>392</ele>
        <time>2011-07-31T06:53:53Z</time>
      </trkpt>
      <trkpt lat="49.18873" lon="6.93468">
        <ele>392</ele>
        <time>2011-07-31T06:53:54Z</time>
      </trkpt>
      <trkpt lat="49.18873" lon="6.9347">
        <ele>392</ele>
        <time>2011-07-31T06:53:55Z</time>
      </trkpt>
      <trkpt lat="49.18874" lon="6.93472">
        <ele>392</ele>
        <time>2011-07-31T06:53:57Z</time>
      </trkpt>
      <trkpt lat="49.18874" lon="6.93475">
        <ele>392</ele>
        <time>2011-07-31T06:53:59Z</time>
      </trkpt>
      <trkpt lat="49.18874" lon="6.93477">
        <ele>392</ele>
        <time>2011-07-31T06:54:00Z</time>
      </trkpt>
      <trkpt lat="49.18874" lon="6.93479">
        <ele>392</ele>
        <time>2011-07-31T06:54:01Z</time>
      </trkpt>
      <trkpt lat="49.18874" lon="6.9348">
        <ele>392</ele>
        <time>2011-07-31T06:54:02Z</time>
      </trkpt>
      <trkpt lat="49.18874" lon="6.93482">
        <ele>392</ele>
        <time>2011-07-31T06:54:03Z</time>
      </trkpt>
      <trkpt lat="49.18874" lon="6.93484">
        <ele>392</ele>
        <time>2011-07-31T06:54:04Z</time>
      </trkpt>
      <trkpt lat="49.18875" lon="6.93486">
        <ele>392</ele>
        <time>2011-07-31T06:54:05Z</time>
      </trkpt>
      <trkpt lat="49.18875" lon="6.93488">
        <ele>392</ele>
        <time>2011-07-31T06:54:06Z</time>
      </trkpt>
      <trkpt lat="49.18877" lon="6.93489">
        <ele>392</ele>
        <time>2011-07-31T06:54:07Z</time>
      </trkpt>
      <trkpt lat="49.18877" lon="6.9349">
        <ele>392</ele>
        <time>2011-07-31T06:54:08Z</time>
      </trkpt>
      <trkpt lat="49.18878" lon="6.93492">
        <ele>392</ele>
        <time>2011-07-31T06:54:09Z</time>
      </trkpt>
      <trkpt lat="49.18878" lon="6.93494">
        <ele>392</ele>
        <time>2011-07-31T06:54:10Z</time>
      </trkpt>
      <trkpt lat="49.18878" lon="6.93496">
        <ele>392</ele>
        <time>2011-07-31T06:54:11Z</time>
      </trkpt>
      <trkpt lat="49.18879" lon="6.93498">
        <ele>392</ele>
        <time>2011-07-31T06:54:12Z</time>
      </trkpt>
      <trkpt lat="49.18879" lon="6.935">
        <ele>392</ele>
        <time>2011-07-31T06:54:13Z</time>
      </trkpt>
      <trkpt lat="49.18882" lon="6.93501">
        <ele>392</ele>
        <time>2011-07-31T06:54:14Z</time>
      </trkpt>
      <trkpt lat="49.18883" lon="6.93503">
        <ele>392</ele>
        <time>2011-07-31T06:54:15Z</time>
      </trkpt>
      <trkpt lat="49.18884" lon="6.93504">
        <ele>392</ele>
        <time>2011-07-31T06:54:16Z</time>
      </trkpt>
      <trkpt lat="49.18884" lon="6.93506">
        <ele>392</ele>
        <time>2011-07-31T06:54:17Z</time>
      </trkpt>
      <trkpt lat="49.18882" lon="6.93508">
        <ele>392</ele>
        <time>2011-07-31T06:54:19Z</time>
      </trkpt>
      <trkpt lat="49.18881" lon="6.93509">
        <ele>392</ele>
        <time>2011-07-31T06:54:20Z</time>
      </trkpt>
      <trkpt lat="49.18882" lon="6.9351">
        <ele>392</ele>
        <time>2011-07-31T06:54:22Z</time>
      </trkpt>
      <trkpt lat="49.18883" lon="6.93513">
        <ele>392</ele>
        <time>2011-07-31T06:54:23Z</time>
      </trkpt>
      <trkpt lat="49.18885" lon="6.93514">
        <ele>392</ele>
        <time>2011-07-31T06:54:24Z</time>
      </trkpt>
      <trkpt lat="49.18886" lon="6.93516">
        <ele>392</ele>
        <time>2011-07-31T06:54:25Z</time>
      </trkpt>
      <trkpt lat="49.18887" lon="6.93518">
        <ele>392</ele>
        <time>2011-07-31T06:54:26Z</time>
      </trkpt>
      <trkpt lat="49.18888" lon="6.9352">
        <ele>392</ele>
        <time>2011-07-31T06:54:27Z</time>
      </trkpt>
      <trkpt lat="49.18889" lon="6.93521">
        <ele>392</ele>
        <time>2011-07-31T06:54:28Z</time>
      </trkpt>
      <trkpt lat="49.18889" lon="6.93523">
        <ele>393</ele>
        <time>2011-07-31T06:54:29Z</time>
      </trkpt>
      <trkpt lat="49.18888" lon="6.93526">
        <ele>393</ele>
        <time>2011-07-31T06:54:31Z</time>
      </trkpt>
      <trkpt lat="49.18888" lon="6.93528">
        <ele>393</ele>
        <time>2011-07-31T06:54:32Z</time>
      </trkpt>
      <trkpt lat="49.18888" lon="6.9353">
        <ele>394</ele>
        <time>2011-07-31T06:54:33Z</time>
      </trkpt>
      <trkpt lat="49.18889" lon="6.93532">
        <ele>394</ele>
        <time>2011-07-31T06:54:35Z</time>
      </trkpt>
      <trkpt lat="49.1889" lon="6.93534">
        <ele>395</ele>
        <time>2011-07-31T06:54:36Z</time>
      </trkpt>
      <trkpt lat="49.1889" lon="6.93536">
        <ele>395</ele>
        <time>2011-07-31T06:54:37Z</time>
      </trkpt>
      <trkpt lat="49.18891" lon="6.93538">
        <ele>395</ele>
        <time>2011-07-31T06:54:38Z</time>
      </trkpt>
      <trkpt lat="49.18892" lon="6.9354">
        <ele>395</ele>
        <time>2011-07-31T06:54:39Z</time>
      </trkpt>
      <trkpt lat="49.18892" lon="6.93542">
        <ele>395</ele>
        <time>2011-07-31T06:54:40Z</time>
      </trkpt>
      <trkpt lat="49.18893" lon="6.93544">
        <ele>395</ele>
        <time>2011-07-31T06:54:41Z</time>
      </trkpt>
      <trkpt lat="49.18895" lon="6.93546">
        <ele>395</ele>
        <time>2011-07-31T06:54:42Z</time>
      </trkpt>
      <trkpt lat="49.18896" lon="6.93548">
        <ele>395</ele>
        <time>2011-07-31T06:54:43Z</time>
      </trkpt>
      <trkpt lat="49.18897" lon="6.93549">
        <ele>395</ele>
        <time>2011-07-31T06:54:44Z</time>
      </trkpt>
      <trkpt lat="49.18899" lon="6.93552">
        <ele>395</ele>
        <time>2011-07-31T06:54:46Z</time>
      </trkpt>
      <trkpt lat="49.18902" lon="6.93553">
        <ele>395</ele>
        <time>2011-07-31T06:54:47Z</time>
      </trkpt>
      <trkpt lat="49.18902" lon="6.93556">
        <ele>395</ele>
        <time>2011-07-31T06:54:49Z</time>
      </trkpt>
      <trkpt lat="49.18904" lon="6.93559">
        <ele>395</ele>
        <time>2011-07-31T06:54:51Z</time>
      </trkpt>
      <trkpt lat="49.18904" lon="6.93561">
        <ele>395</ele>
        <time>2011-07-31T06:54:52Z</time>
      </trkpt>
      <trkpt lat="49.18904" lon="6.93563">
        <ele>395</ele>
        <time>2011-07-31T06:54:53Z</time>
      </trkpt>
      <trkpt lat="49.18904" lon="6.93565">
        <ele>395</ele>
        <time>2011-07-31T06:54:54Z</time>
      </trkpt>
      <trkpt lat="49.18904" lon="6.93567">
        <ele>395</ele>
        <time>2011-07-31T06:54:55Z</time>
      </trkpt>
      <trkpt lat="49.18904" lon="6.93568">
        <ele>395</ele>
        <time>2011-07-31T06:54:56Z</time>
      </trkpt>
      <trkpt lat="49.18906" lon="6.93571">
        <ele>395</ele>
        <time>2011-07-31T06:54:58Z</time>
      </trkpt>
      <trkpt lat="49.18908" lon="6.93574">
        <ele>395</ele>
        <time>2011-07-31T06:55:00Z</time>
      </trkpt>
      <trkpt lat="49.18909" lon="6.93577">
        <ele>395</ele>
        <time>2011-07-31T06:55:02Z</time>
      </trkpt>
      <trkpt lat="49.18909" lon="6.93579">
        <ele>395</ele>
        <time>2011-07-31T06:55:03Z</time>
      </trkpt>
      <trkpt lat="49.1891" lon="6.93582">
        <ele>395</ele>
        <time>2011-07-31T06:55:05Z</time>
      </trkpt>
      <trkpt lat="49.18911" lon="6.93584">
        <ele>395</ele>
        <time>2011-07-31T06:55:07Z</time>
      </trkpt>
      <trkpt lat="49.18913" lon="6.93586">
        <ele>395</ele>
        <time>2011-07-31T06:55:09Z</time>
      </trkpt>
      <trkpt lat="49.18914" lon="6.93589">
        <ele>395</ele>
        <time>2011-07-31T06:55:11Z</time>
      </trkpt>
      <trkpt lat="49.18915" lon="6.93591">
        <ele>395</ele>
        <time>2011-07-31T06:55:12Z</time>
      </trkpt>
      <trkpt lat="49.18916" lon="6.93593">
        <ele>395</ele>
        <time>2011-07-31T06:55:13Z</time>
      </trkpt>
      <trkpt lat="49.18917" lon="6.93596">
        <ele>395</ele>
        <time>2011-07-31T06:55:15Z</time>
      </trkpt>
      <trkpt lat="49.18918" lon="6.93598">
        <ele>395</ele>
        <time>2011-07-31T06:55:16Z</time>
      </trkpt>
      <trkpt lat="49.18919" lon="6.936">
        <ele>395</ele>
        <time>2011-07-31T06:55:17Z</time>
      </trkpt>
      <trkpt lat="49.1892" lon="6.93602">
        <ele>395</ele>
        <time>2011-07-31T06:55:18Z</time>
      </trkpt>
      <trkpt lat="49.18921" lon="6.93604">
        <ele>395</ele>
        <time>2011-07-31T06:55:20Z</time>
      </trkpt>
      <trkpt lat="49.18922" lon="6.93606">
        <ele>395</ele>
        <time>2011-07-31T06:55:21Z</time>
      </trkpt>
      <trkpt lat="49.18922" lon="6.93608">
        <ele>395</ele>
        <time>2011-07-31T06:55:22Z</time>
      </trkpt>
      <trkpt lat="49.18924" lon="6.93611">
        <ele>395</ele>
        <time>2011-07-31T06:55:24Z</time>
      </trkpt>
      <trkpt lat="49.18926" lon="6.93613">
        <ele>395</ele>
        <time>2011-07-31T06:55:25Z</time>
      </trkpt>
      <trkpt lat="49.18928" lon="6.93615">
        <ele>395</ele>
        <time>2011-07-31T06:55:27Z</time>
      </trkpt>
      <trkpt lat="49.18929" lon="6.93616">
        <ele>395</ele>
        <time>2011-07-31T06:55:29Z</time>
      </trkpt>
      <trkpt lat="49.18931" lon="6.93617">
        <ele>395</ele>
        <time>2011-07-31T06:55:30Z</time>
      </trkpt>
      <trkpt lat="49.18932" lon="6.93618">
        <ele>395</ele>
        <time>2011-07-31T06:55:32Z</time>
      </trkpt>
      <trkpt lat="49.18933" lon="6.93619">
        <ele>395</ele>
        <time>2011-07-31T06:55:33Z</time>
      </trkpt>
      <trkpt lat="49.18935" lon="6.93621">
        <ele>395</ele>
        <time>2011-07-31T06:55:35Z</time>
      </trkpt>
      <trkpt lat="49.18936" lon="6.93622">
        <ele>395</ele>
        <time>2011-07-31T06:55:36Z</time>
      </trkpt>
      <trkpt lat="49.18937" lon="6.93623">
        <ele>395</ele>
        <time>2011-07-31T06:55:37Z</time>
      </trkpt>
      <trkpt lat="49.1894" lon="6.93625">
        <ele>395</ele>
        <time>2011-07-31T06:55:39Z</time>
      </trkpt>
      <trkpt lat="49.18941" lon="6.93626">
        <ele>395</ele>
        <time>2011-07-31T06:55:40Z</time>
      </trkpt>
      <trkpt lat="49.18943" lon="6.93628">
        <ele>395</ele>
        <time>2011-07-31T06:55:41Z</time>
      </trkpt>
      <trkpt lat="49.18945" lon="6.93631">
        <ele>395</ele>
        <time>2011-07-31T06:55:44Z</time>
      </trkpt>
      <trkpt lat="49.18946" lon="6.93632">
        <ele>395</ele>
        <time>2011-07-31T06:55:45Z</time>
      </trkpt>
      <trkpt lat="49.18948" lon="6.93633">
        <ele>395</ele>
        <time>2011-07-31T06:55:46Z</time>
      </trkpt>
      <trkpt lat="49.1895" lon="6.93635">
        <ele>395</ele>
        <time>2011-07-31T06:55:48Z</time>
      </trkpt>
      <trkpt lat="49.18952" lon="6.93637">
        <ele>395</ele>
        <time>2011-07-31T06:55:50Z</time>
      </trkpt>
      <trkpt lat="49.18954" lon="6.93639">
        <ele>395</ele>
        <time>2011-07-31T06:55:52Z</time>
      </trkpt>
      <trkpt lat="49.18956" lon="6.93642">
        <ele>395</ele>
        <time>2011-07-31T06:55:54Z</time>
      </trkpt>
      <trkpt lat="49.18957" lon="6.93644">
        <ele>395</ele>
        <time>2011-07-31T06:55:56Z</time>
      </trkpt>
      <trkpt lat="49.18959" lon="6.93645">
        <ele>395</ele>
        <time>2011-07-31T06:55:57Z</time>
      </trkpt>
      <trkpt lat="49.1896" lon="6.93647">
        <ele>395</ele>
        <time>2011-07-31T06:55:59Z</time>
      </trkpt>
      <trkpt lat="49.18962" lon="6.9365">
        <ele>394</ele>
        <time>2011-07-31T06:56:01Z</time>
      </trkpt>
      <trkpt lat="49.18963" lon="6.93651">
        <ele>394</ele>
        <time>2011-07-31T06:56:02Z</time>
      </trkpt>
      <trkpt lat="49.18964" lon="6.93652">
        <ele>393</ele>
        <time>2011-07-31T06:56:03Z</time>
      </trkpt>
      <trkpt lat="49.18966" lon="6.93652">
        <ele>393</ele>
        <time>2011-07-31T06:56:04Z</time>
      </trkpt>
      <trkpt lat="49.18968" lon="6.93654">
        <ele>393</ele>
        <time>2011-07-31T06:56:07Z</time>
      </trkpt>
      <trkpt lat="49.18969" lon="6.93656">
        <ele>393</ele>
        <time>2011-07-31T06:56:09Z</time>
      </trkpt>
      <trkpt lat="49.1897" lon="6.93658">
        <ele>393</ele>
        <time>2011-07-31T06:56:12Z</time>
      </trkpt>
      <trkpt lat="49.18972" lon="6.93659">
        <ele>393</ele>
        <time>2011-07-31T06:56:13Z</time>
      </trkpt>
      <trkpt lat="49.18974" lon="6.9366">
        <ele>393</ele>
        <time>2011-07-31T06:56:14Z</time>
      </trkpt>
      <trkpt lat="49.18975" lon="6.93662">
        <ele>393</ele>
        <time>2011-07-31T06:56:15Z</time>
      </trkpt>
      <trkpt lat="49.18977" lon="6.93663">
        <ele>393</ele>
        <time>2011-07-31T06:56:16Z</time>
      </trkpt>
      <trkpt lat="49.18979" lon="6.93664">
        <ele>393</ele>
        <time>2011-07-31T06:56:17Z</time>
      </trkpt>
      <trkpt lat="49.1898" lon="6.93666">
        <ele>393</ele>
        <time>2011-07-31T06:56:19Z</time>
      </trkpt>
      <trkpt lat="49.18982" lon="6.93668">
        <ele>393</ele>
        <time>2011-07-31T06:56:23Z</time>
      </trkpt>
      <trkpt lat="49.18983" lon="6.93669">
        <ele>393</ele>
        <time>2011-07-31T06:56:25Z</time>
      </trkpt>
      <trkpt lat="49.18984" lon="6.93671">
        <ele>393</ele>
        <time>2011-07-31T06:56:26Z</time>
      </trkpt>
      <trkpt lat="49.18985" lon="6.93673">
        <ele>393</ele>
        <time>2011-07-31T06:56:27Z</time>
      </trkpt>
      <trkpt lat="49.18985" lon="6.93675">
        <ele>393</ele>
        <time>2011-07-31T06:56:29Z</time>
      </trkpt>
      <trkpt lat="49.18986" lon="6.93677">
        <ele>393</ele>
        <time>2011-07-31T06:56:31Z</time>
      </trkpt>
      <trkpt lat="49.18987" lon="6.93679">
        <ele>393</ele>
        <time>2011-07-31T06:56:33Z</time>
      </trkpt>
      <trkpt lat="49.18988" lon="6.9368">
        <ele>393</ele>
        <time>2011-07-31T06:56:34Z</time>
      </trkpt>
      <trkpt lat="49.18991" lon="6.9368">
        <ele>393</ele>
        <time>2011-07-31T06:56:35Z</time>
      </trkpt>
      <trkpt lat="49.18992" lon="6.93681">
        <ele>393</ele>
        <time>2011-07-31T06:56:36Z</time>
      </trkpt>
      <trkpt lat="49.18993" lon="6.93682">
        <ele>393</ele>
        <time>2011-07-31T06:56:37Z</time>
      </trkpt>
      <trkpt lat="49.18996" lon="6.93684">
        <ele>393</ele>
        <time>2011-07-31T06:56:38Z</time>
      </trkpt>
      <trkpt lat="49.18998" lon="6.93684">
        <ele>393</ele>
        <time>2011-07-31T06:56:39Z</time>
      </trkpt>
      <trkpt lat="49.18999" lon="6.93687">
        <ele>393</ele>
        <time>2011-07-31T06:56:41Z</time>
      </trkpt>
      <trkpt lat="49.19001" lon="6.93689">
        <ele>392</ele>
        <time>2011-07-31T06:56:42Z</time>
      </trkpt>
      <trkpt lat="49.19002" lon="6.9369">
        <ele>392</ele>
        <time>2011-07-31T06:56:43Z</time>
      </trkpt>
      <trkpt lat="49.19003" lon="6.93692">
        <ele>391</ele>
        <time>2011-07-31T06:56:45Z</time>
      </trkpt>
      <trkpt lat="49.19004" lon="6.93694">
        <ele>390</ele>
        <time>2011-07-31T06:56:47Z</time>
      </trkpt>
      <trkpt lat="49.19006" lon="6.93696">
        <ele>390</ele>
        <time>2011-07-31T06:56:48Z</time>
      </trkpt>
      <trkpt lat="49.19006" lon="6.93698">
        <ele>389</ele>
        <time>2011-07-31T06:56:49Z</time>
      </trkpt>
      <trkpt lat="49.19007" lon="6.93701">
        <ele>389</ele>
        <time>2011-07-31T06:56:51Z</time>
      </trkpt>
      <trkpt lat="49.19009" lon="6.93704">
        <ele>389</ele>
        <time>2011-07-31T06:56:54Z</time>
      </trkpt>
      <trkpt lat="49.1901" lon="6.93706">
        <ele>389</ele>
        <time>2011-07-31T06:56:56Z</time>
      </trkpt>
      <trkpt lat="49.19011" lon="6.93708">
        <ele>389</ele>
        <time>2011-07-31T06:56:57Z</time>
      </trkpt>
      <trkpt lat="49.19012" lon="6.93709">
        <ele>389</ele>
        <time>2011-07-31T06:56:58Z</time>
      </trkpt>
      <trkpt lat="49.19014" lon="6.93711">
        <ele>389</ele>
        <time>2011-07-31T06:56:59Z</time>
      </trkpt>
      <trkpt lat="49.19014" lon="6.93713">
        <ele>389</ele>
        <time>2011-07-31T06:57:00Z</time>
      </trkpt>
      <trkpt lat="49.19016" lon="6.93716">
        <ele>389</ele>
        <time>2011-07-31T06:57:02Z</time>
      </trkpt>
      <trkpt lat="49.19017" lon="6.93719">
        <ele>388</ele>
        <time>2011-07-31T06:57:04Z</time>
      </trkpt>
      <trkpt lat="49.19022" lon="6.9372">
        <ele>387</ele>
        <time>2011-07-31T06:57:07Z</time>
      </trkpt>
      <trkpt lat="49.19023" lon="6.93722">
        <ele>387</ele>
        <time>2011-07-31T06:57:08Z</time>
      </trkpt>
      <trkpt lat="49.19024" lon="6.93724">
        <ele>387</ele>
        <time>2011-07-31T06:57:09Z</time>
      </trkpt>
      <trkpt lat="49.19025" lon="6.93726">
        <ele>387</ele>
        <time>2011-07-31T06:57:10Z</time>
      </trkpt>
      <trkpt lat="49.19026" lon="6.93727">
        <ele>387</ele>
        <time>2011-07-31T06:57:11Z</time>
      </trkpt>
      <trkpt lat="49.19029" lon="6.93728">
        <ele>387</ele>
        <time>2011-07-31T06:57:12Z</time>
      </trkpt>
      <trkpt lat="49.19031" lon="6.9373">
        <ele>386</ele>
        <time>2011-07-31T06:57:14Z</time>
      </trkpt>
      <trkpt lat="49.19032" lon="6.93732">
        <ele>385</ele>
        <time>2011-07-31T06:57:16Z</time>
      </trkpt>
      <trkpt lat="49.19035" lon="6.93733">
        <ele>385</ele>
        <time>2011-07-31T06:57:17Z</time>
      </trkpt>
      <trkpt lat="49.19037" lon="6.93733">
        <ele>385</ele>
        <time>2011-07-31T06:57:19Z</time>
      </trkpt>
      <trkpt lat="49.19038" lon="6.93733">
        <ele>385</ele>
        <time>2011-07-31T06:57:20Z</time>
      </trkpt>
      <trkpt lat="49.1904" lon="6.93733">
        <ele>385</ele>
        <time>2011-07-31T06:57:22Z</time>
      </trkpt>
      <trkpt lat="49.19043" lon="6.93733">
        <ele>385</ele>
        <time>2011-07-31T06:57:24Z</time>
      </trkpt>
      <trkpt lat="49.19044" lon="6.93731">
        <ele>385</ele>
        <time>2011-07-31T06:57:26Z</time>
      </trkpt>
      <trkpt lat="49.19045" lon="6.9373">
        <ele>385</ele>
        <time>2011-07-31T06:57:27Z</time>
      </trkpt>
      <trkpt lat="49.19047" lon="6.93732">
        <ele>386</ele>
        <time>2011-07-31T06:57:30Z</time>
      </trkpt>
      <trkpt lat="49.19048" lon="6.93733">
        <ele>386</ele>
        <time>2011-07-31T06:57:31Z</time>
      </trkpt>
      <trkpt lat="49.1905" lon="6.93733">
        <ele>387</ele>
        <time>2011-07-31T06:57:32Z</time>
      </trkpt>
      <trkpt lat="49.19052" lon="6.93734">
        <ele>387</ele>
        <time>2011-07-31T06:57:33Z</time>
      </trkpt>
      <trkpt lat="49.19053" lon="6.93735">
        <ele>387</ele>
        <time>2011-07-31T06:57:34Z</time>
      </trkpt>
      <trkpt lat="49.19055" lon="6.93737">
        <ele>387</ele>
        <time>2011-07-31T06:57:36Z</time>
      </trkpt>
      <trkpt lat="49.19058" lon="6.93738">
        <ele>387</ele>
        <time>2011-07-31T06:57:38Z</time>
      </trkpt>
      <trkpt lat="49.19059" lon="6.93738">
        <ele>387</ele>
        <time>2011-07-31T06:57:39Z</time>
      </trkpt>
      <trkpt lat="49.19061" lon="6.93738">
        <ele>388</ele>
        <time>2011-07-31T06:57:42Z</time>
      </trkpt>
      <trkpt lat="49.19062" lon="6.9374">
        <ele>389</ele>
        <time>2011-07-31T06:57:44Z</time>
      </trkpt>
      <trkpt lat="49.19064" lon="6.93742">
        <ele>389</ele>
        <time>2011-07-31T06:57:45Z</time>
      </trkpt>
      <trkpt lat="49.19066" lon="6.93745">
        <ele>389</ele>
        <time>2011-07-31T06:57:47Z</time>
      </trkpt>
      <trkpt lat="49.19068" lon="6.93747">
        <ele>389</ele>
        <time>2011-07-31T06:57:49Z</time>
      </trkpt>
      <trkpt lat="49.1907" lon="6.93748">
        <ele>389</ele>
        <time>2011-07-31T06:57:50Z</time>
      </trkpt>
      <trkpt lat="49.19072" lon="6.93748">
        <ele>389</ele>
        <time>2011-07-31T06:57:51Z</time>
      </trkpt>
      <trkpt lat="49.19074" lon="6.93748">
        <ele>389</ele>
        <time>2011-07-31T06:57:52Z</time>
      </trkpt>
      <trkpt lat="49.19075" lon="6.93749">
        <ele>389</ele>
        <time>2011-07-31T06:57:53Z</time>
      </trkpt>
      <trkpt lat="49.19078" lon="6.9375">
        <ele>389</ele>
        <time>2011-07-31T06:57:55Z</time>
      </trkpt>
      <trkpt lat="49.1908" lon="6.9375">
        <ele>389</ele>
        <time>2011-07-31T06:57:57Z</time>
      </trkpt>
      <trkpt lat="49.19082" lon="6.93749">
        <ele>390</ele>
        <time>2011-07-31T06:57:59Z</time>
      </trkpt>
      <trkpt lat="49.19084" lon="6.9375">
        <ele>392</ele>
        <time>2011-07-31T06:58:01Z</time>
      </trkpt>
      <trkpt lat="49.19086" lon="6.93751">
        <ele>392</ele>
        <time>2011-07-31T06:58:03Z</time>
      </trkpt>
      <trkpt lat="49.19088" lon="6.93752">
        <ele>392</ele>
        <time>2011-07-31T06:58:04Z</time>
      </trkpt>
      <trkpt lat="49.19089" lon="6.93752">
        <ele>392</ele>
        <time>2011-07-31T06:58:05Z</time>
      </trkpt>
      <trkpt lat="49.1909" lon="6.93752">
        <ele>392</ele>
        <time>2011-07-31T06:58:06Z</time>
      </trkpt>
      <trkpt lat="49.19091" lon="6.93753">
        <ele>392</ele>
        <time>2011-07-31T06:58:07Z</time>
      </trkpt>
      <trkpt lat="49.19093" lon="6.93753">
        <ele>392</ele>
        <time>2011-07-31T06:58:08Z</time>
      </trkpt>
      <trkpt lat="49.19095" lon="6.93753">
        <ele>392</ele>
        <time>2011-07-31T06:58:09Z</time>
      </trkpt>
      <trkpt lat="49.19097" lon="6.93754">
        <ele>392</ele>
        <time>2011-07-31T06:58:10Z</time>
      </trkpt>
      <trkpt lat="49.19099" lon="6.93755">
        <ele>392</ele>
        <time>2011-07-31T06:58:12Z</time>
      </trkpt>
      <trkpt lat="49.191" lon="6.93754">
        <ele>393</ele>
        <time>2011-07-31T06:58:15Z</time>
      </trkpt>
      <trkpt lat="49.19102" lon="6.93754">
        <ele>393</ele>
        <time>2011-07-31T06:58:16Z</time>
      </trkpt>
      <trkpt lat="49.19103" lon="6.93756">
        <ele>394</ele>
        <time>2011-07-31T06:58:17Z</time>
      </trkpt>
      <trkpt lat="49.19104" lon="6.93757">
        <ele>394</ele>
        <time>2011-07-31T06:58:18Z</time>
      </trkpt>
      <trkpt lat="49.19106" lon="6.93757">
        <ele>394</ele>
        <time>2011-07-31T06:58:19Z</time>
      </trkpt>
      <trkpt lat="49.19107" lon="6.93758">
        <ele>394</ele>
        <time>2011-07-31T06:58:20Z</time>
      </trkpt>
      <trkpt lat="49.19109" lon="6.9376">
        <ele>394</ele>
        <time>2011-07-31T06:58:22Z</time>
      </trkpt>
      <trkpt lat="49.1911" lon="6.9376">
        <ele>394</ele>
        <time>2011-07-31T06:58:23Z</time>
      </trkpt>
      <trkpt lat="49.19111" lon="6.93761">
        <ele>394</ele>
        <time>2011-07-31T06:58:25Z</time>
      </trkpt>
      <trkpt lat="49.19114" lon="6.93762">
        <ele>394</ele>
        <time>2011-07-31T06:58:27Z</time>
      </trkpt>
      <trkpt lat="49.19115" lon="6.93763">
        <ele>394</ele>
        <time>2011-07-31T06:58:28Z</time>
      </trkpt>
      <trkpt lat="49.19117" lon="6.93764">
        <ele>394</ele>
        <time>2011-07-31T06:58:30Z</time>
      </trkpt>
      <trkpt lat="49.19118" lon="6.93764">
        <ele>394</ele>
        <time>2011-07-31T06:58:32Z</time>
      </trkpt>
      <trkpt lat="49.1912" lon="6.93763">
        <ele>394</ele>
        <time>2011-07-31T06:58:34Z</time>
      </trkpt>
      <trkpt lat="49.19121" lon="6.93762">
        <ele>394</ele>
        <time>2011-07-31T06:58:35Z</time>
      </trkpt>
      <trkpt lat="49.19122" lon="6.93762">
        <ele>394</ele>
        <time>2011-07-31T06:58:36Z</time>
      </trkpt>
      <trkpt lat="49.19125" lon="6.93764">
        <ele>394</ele>
        <time>2011-07-31T06:58:38Z</time>
      </trkpt>
      <trkpt lat="49.19127" lon="6.93766">
        <ele>394</ele>
        <time>2011-07-31T06:58:39Z</time>
      </trkpt>
      <trkpt lat="49.19128" lon="6.93767">
        <ele>394</ele>
        <time>2011-07-31T06:58:40Z</time>
      </trkpt>
      <trkpt lat="49.1913" lon="6.93768">
        <ele>394</ele>
        <time>2011-07-31T06:58:42Z</time>
      </trkpt>
      <trkpt lat="49.19132" lon="6.93771">
        <ele>394</ele>
        <time>2011-07-31T06:58:44Z</time>
      </trkpt>
      <trkpt lat="49.19134" lon="6.93774">
        <ele>394</ele>
        <time>2011-07-31T06:58:46Z</time>
      </trkpt>
      <trkpt lat="49.19135" lon="6.93775">
        <ele>394</ele>
        <time>2011-07-31T06:58:47Z</time>
      </trkpt>
      <trkpt lat="49.19137" lon="6.93775">
        <ele>394</ele>
        <time>2011-07-31T06:58:48Z</time>
      </trkpt>
      <trkpt lat="49.19139" lon="6.93775">
        <ele>394</ele>
        <time>2011-07-31T06:58:49Z</time>
      </trkpt>
      <trkpt lat="49.19141" lon="6.93775">
        <ele>394</ele>
        <time>2011-07-31T06:58:50Z</time>
      </trkpt>
      <trkpt lat="49.19142" lon="6.93774">
        <ele>394</ele>
        <time>2011-07-31T06:58:52Z</time>
      </trkpt>
      <trkpt lat="49.19144" lon="6.93774">
        <ele>394</ele>
        <time>2011-07-31T06:58:53Z</time>
      </trkpt>
      <trkpt lat="49.19145" lon="6.93773">
        <ele>394</ele>
        <time>2011-07-31T06:58:55Z</time>
      </trkpt>
      <trkpt lat="49.19147" lon="6.93773">
        <ele>394</ele>
        <time>2011-07-31T06:58:57Z</time>
      </trkpt>
      <trkpt lat="49.19149" lon="6.93772">
        <ele>394</ele>
        <time>2011-07-31T06:58:58Z</time>
      </trkpt>
      <trkpt lat="49.19151" lon="6.93773">
        <ele>394</ele>
        <time>2011-07-31T06:58:59Z</time>
      </trkpt>
      <trkpt lat="49.19153" lon="6.93774">
        <ele>394</ele>
        <time>2011-07-31T06:59:01Z</time>
      </trkpt>
      <trkpt lat="49.19156" lon="6.93776">
        <ele>393</ele>
        <time>2011-07-31T06:59:03Z</time>
      </trkpt>
      <trkpt lat="49.19157" lon="6.93777">
        <ele>393</ele>
        <time>2011-07-31T06:59:04Z</time>
      </trkpt>
      <trkpt lat="49.19159" lon="6.93778">
        <ele>392</ele>
        <time>2011-07-31T06:59:05Z</time>
      </trkpt>
      <trkpt lat="49.1916" lon="6.93778">
        <ele>391</ele>
        <time>2011-07-31T06:59:06Z</time>
      </trkpt>
      <trkpt lat="49.19161" lon="6.93778">
        <ele>390</ele>
        <time>2011-07-31T06:59:07Z</time>
      </trkpt>
      <trkpt lat="49.19164" lon="6.9378">
        <ele>389</ele>
        <time>2011-07-31T06:59:09Z</time>
      </trkpt>
      <trkpt lat="49.19165" lon="6.9378">
        <ele>388</ele>
        <time>2011-07-31T06:59:10Z</time>
      </trkpt>
      <trkpt lat="49.19167" lon="6.93781">
        <ele>387</ele>
        <time>2011-07-31T06:59:11Z</time>
      </trkpt>
      <trkpt lat="49.19169" lon="6.9378">
        <ele>386</ele>
        <time>2011-07-31T06:59:12Z</time>
      </trkpt>
      <trkpt lat="49.1917" lon="6.93781">
        <ele>385</ele>
        <time>2011-07-31T06:59:13Z</time>
      </trkpt>
      <trkpt lat="49.19172" lon="6.93781">
        <ele>384</ele>
        <time>2011-07-31T06:59:14Z</time>
      </trkpt>
      <trkpt lat="49.19174" lon="6.93782">
        <ele>382</ele>
        <time>2011-07-31T06:59:16Z</time>
      </trkpt>
      <trkpt lat="49.19176" lon="6.93782">
        <ele>381</ele>
        <time>2011-07-31T06:59:17Z</time>
      </trkpt>
      <trkpt lat="49.19178" lon="6.93783">
        <ele>380</ele>
        <time>2011-07-31T06:59:18Z</time>
      </trkpt>
      <trkpt lat="49.19179" lon="6.93784">
        <ele>379</ele>
        <time>2011-07-31T06:59:19Z</time>
      </trkpt>
      <trkpt lat="49.19181" lon="6.93784">
        <ele>378</ele>
        <time>2011-07-31T06:59:20Z</time>
      </trkpt>
      <trkpt lat="49.19183" lon="6.93784">
        <ele>377</ele>
        <time>2011-07-31T06:59:21Z</time>
      </trkpt>
      <trkpt lat="49.19184" lon="6.93785">
        <ele>377</ele>
        <time>2011-07-31T06:59:23Z</time>
      </trkpt>
      <trkpt lat="49.19186" lon="6.93785">
        <ele>377</ele>
        <time>2011-07-31T06:59:24Z</time>
      </trkpt>
      <trkpt lat="49.19187" lon="6.93785">
        <ele>377</ele>
        <time>2011-07-31T06:59:25Z</time>
      </trkpt>
      <trkpt lat="49.19188" lon="6.93785">
        <ele>377</ele>
        <time>2011-07-31T06:59:26Z</time>
      </trkpt>
      <trkpt lat="49.19189" lon="6.93785">
        <ele>377</ele>
        <time>2011-07-31T06:59:27Z</time>
      </trkpt>
      <trkpt lat="49.19191" lon="6.93786">
        <ele>377</ele>
        <time>2011-07-31T06:59:28Z</time>
      </trkpt>
      <trkpt lat="49.19193" lon="6.93787">
        <ele>377</ele>
        <time>2011-07-31T06:59:30Z</time>
      </trkpt>
      <trkpt lat="49.19194" lon="6.93787">
        <ele>377</ele>
        <time>2011-07-31T06:59:31Z</time>
      </trkpt>
      <trkpt lat="49.19195" lon="6.93787">
        <ele>377</ele>
        <time>2011-07-31T06:59:32Z</time>
      </trkpt>
      <trkpt lat="49.19197" lon="6.93787">
        <ele>377</ele>
        <time>2011-07-31T06:59:34Z</time>
      </trkpt>
      <trkpt lat="49.19199" lon="6.93788">
        <ele>377</ele>
        <time>2011-07-31T06:59:36Z</time>
      </trkpt>
      <trkpt lat="49.19201" lon="6.93789">
        <ele>377</ele>
        <time>2011-07-31T06:59:37Z</time>
      </trkpt>
      <trkpt lat="49.19202" lon="6.93789">
        <ele>377</ele>
        <time>2011-07-31T06:59:38Z</time>
      </trkpt>
      <trkpt lat="49.19204" lon="6.9379">
        <ele>377</ele>
        <time>2011-07-31T06:59:39Z</time>
      </trkpt>
      <trkpt lat="49.19205" lon="6.93789">
        <ele>377</ele>
        <time>2011-07-31T06:59:41Z</time>
      </trkpt>
      <trkpt lat="49.19207" lon="6.93789">
        <ele>377</ele>
        <time>2011-07-31T06:59:43Z</time>
      </trkpt>
      <trkpt lat="49.19208" lon="6.93788">
        <ele>377</ele>
        <time>2011-07-31T06:59:45Z</time>
      </trkpt>
      <trkpt lat="49.1921" lon="6.93788">
        <ele>377</ele>
        <time>2011-07-31T06:59:46Z</time>
      </trkpt>
      <trkpt lat="49.19211" lon="6.93787">
        <ele>377</ele>
        <time>2011-07-31T06:59:47Z</time>
      </trkpt>
      <trkpt lat="49.19213" lon="6.93786">
        <ele>377</ele>
        <time>2011-07-31T06:59:49Z</time>
      </trkpt>
      <trkpt lat="49.19214" lon="6.93786">
        <ele>377</ele>
        <time>2011-07-31T06:59:50Z</time>
      </trkpt>
      <trkpt lat="49.19215" lon="6.93786">
        <ele>377</ele>
        <time>2011-07-31T06:59:51Z</time>
      </trkpt>
      <trkpt lat="49.19217" lon="6.93786">
        <ele>378</ele>
        <time>2011-07-31T06:59:52Z</time>
      </trkpt>
      <trkpt lat="49.19218" lon="6.93785">
        <ele>378</ele>
        <time>2011-07-31T06:59:53Z</time>
      </trkpt>
      <trkpt lat="49.19219" lon="6.93785">
        <ele>378</ele>
        <time>2011-07-31T06:59:54Z</time>
      </trkpt>
      <trkpt lat="49.19221" lon="6.93784">
        <ele>378</ele>
        <time>2011-07-31T06:59:56Z</time>
      </trkpt>
      <trkpt lat="49.19222" lon="6.93784">
        <ele>378</ele>
        <time>2011-07-31T06:59:57Z</time>
      </trkpt>
      <trkpt lat="49.19224" lon="6.93784">
        <ele>378</ele>
        <time>2011-07-31T06:59:58Z</time>
      </trkpt>
      <trkpt lat="49.19226" lon="6.93782">
        <ele>380</ele>
        <time>2011-07-31T07:00:01Z</time>
      </trkpt>
      <trkpt lat="49.19229" lon="6.9378">
        <ele>382</ele>
        <time>2011-07-31T07:00:03Z</time>
      </trkpt>
      <trkpt lat="49.1923" lon="6.93778">
        <ele>383</ele>
        <time>2011-07-31T07:00:05Z</time>
      </trkpt>
      <trkpt lat="49.19232" lon="6.93778">
        <ele>384</ele>
        <time>2011-07-31T07:00:06Z</time>
      </trkpt>
      <trkpt lat="49.19233" lon="6.93778">
        <ele>384</ele>
        <time>2011-07-31T07:00:07Z</time>
      </trkpt>
      <trkpt lat="49.19235" lon="6.93777">
        <ele>385</ele>
        <time>2011-07-31T07:00:09Z</time>
      </trkpt>
      <trkpt lat="49.19236" lon="6.93777">
        <ele>385</ele>
        <time>2011-07-31T07:00:10Z</time>
      </trkpt>
      <trkpt lat="49.19238" lon="6.93777">
        <ele>385</ele>
        <time>2011-07-31T07:00:11Z</time>
      </trkpt>
      <trkpt lat="49.1924" lon="6.93777">
        <ele>385</ele>
        <time>2011-07-31T07:00:12Z</time>
      </trkpt>
      <trkpt lat="49.19242" lon="6.93777">
        <ele>385</ele>
        <time>2011-07-31T07:00:13Z</time>
      </trkpt>
      <trkpt lat="49.19243" lon="6.93776">
        <ele>385</ele>
        <time>2011-07-31T07:00:14Z</time>
      </trkpt>
      <trkpt lat="49.19244" lon="6.93776">
        <ele>385</ele>
        <time>2011-07-31T07:00:16Z</time>
      </trkpt>
      <trkpt lat="49.19246" lon="6.93775">
        <ele>385</ele>
        <time>2011-07-31T07:00:18Z</time>
      </trkpt>
      <trkpt lat="49.19247" lon="6.93774">
        <ele>385</ele>
        <time>2011-07-31T07:00:20Z</time>
      </trkpt>
      <trkpt lat="49.19249" lon="6.93776">
        <ele>385</ele>
        <time>2011-07-31T07:00:21Z</time>
      </trkpt>
      <trkpt lat="49.19251" lon="6.93776">
        <ele>385</ele>
        <time>2011-07-31T07:00:22Z</time>
      </trkpt>
      <trkpt lat="49.19253" lon="6.93777">
        <ele>385</ele>
        <time>2011-07-31T07:00:23Z</time>
      </trkpt>
      <trkpt lat="49.19254" lon="6.93777">
        <ele>385</ele>
        <time>2011-07-31T07:00:24Z</time>
      </trkpt>
      <trkpt lat="49.19256" lon="6.93777">
        <ele>385</ele>
        <time>2011-07-31T07:00:25Z</time>
      </trkpt>
      <trkpt lat="49.19258" lon="6.93776">
        <ele>385</ele>
        <time>2011-07-31T07:00:27Z</time>
      </trkpt>
      <trkpt lat="49.1926" lon="6.93774">
        <ele>385</ele>
        <time>2011-07-31T07:00:29Z</time>
      </trkpt>
      <trkpt lat="49.19262" lon="6.93773">
        <ele>385</ele>
        <time>2011-07-31T07:00:31Z</time>
      </trkpt>
      <trkpt lat="49.19263" lon="6.93773">
        <ele>385</ele>
        <time>2011-07-31T07:00:32Z</time>
      </trkpt>
      <trkpt lat="49.19264" lon="6.93773">
        <ele>385</ele>
        <time>2011-07-31T07:00:33Z</time>
      </trkpt>
      <trkpt lat="49.19265" lon="6.93771">
        <ele>384</ele>
        <time>2011-07-31T07:00:35Z</time>
      </trkpt>
      <trkpt lat="49.19267" lon="6.9377">
        <ele>384</ele>
        <time>2011-07-31T07:00:37Z</time>
      </trkpt>
      <trkpt lat="49.19268" lon="6.93769">
        <ele>384</ele>
        <time>2011-07-31T07:00:39Z</time>
      </trkpt>
      <trkpt lat="49.1927" lon="6.93769">
        <ele>382</ele>
        <time>2011-07-31T07:00:41Z</time>
      </trkpt>
      <trkpt lat="49.19272" lon="6.93769">
        <ele>380</ele>
        <time>2011-07-31T07:00:43Z</time>
      </trkpt>
      <trkpt lat="49.19274" lon="6.93769">
        <ele>379</ele>
        <time>2011-07-31T07:00:45Z</time>
      </trkpt>
      <trkpt lat="49.19275" lon="6.93769">
        <ele>379</ele>
        <time>2011-07-31T07:00:46Z</time>
      </trkpt>
      <trkpt lat="49.19276" lon="6.93769">
        <ele>379</ele>
        <time>2011-07-31T07:00:47Z</time>
      </trkpt>
      <trkpt lat="49.19278" lon="6.93768">
        <ele>379</ele>
        <time>2011-07-31T07:00:48Z</time>
      </trkpt>
      <trkpt lat="49.19279" lon="6.93767">
        <ele>379</ele>
        <time>2011-07-31T07:00:49Z</time>
      </trkpt>
      <trkpt lat="49.19281" lon="6.93767">
        <ele>379</ele>
        <time>2011-07-31T07:00:50Z</time>
      </trkpt>
      <trkpt lat="49.19283" lon="6.93768">
        <ele>378</ele>
        <time>2011-07-31T07:00:52Z</time>
      </trkpt>
      <trkpt lat="49.19285" lon="6.93768">
        <ele>376</ele>
        <time>2011-07-31T07:00:55Z</time>
      </trkpt>
      <trkpt lat="49.19287" lon="6.93767">
        <ele>374</ele>
        <time>2011-07-31T07:00:57Z</time>
      </trkpt>
      <trkpt lat="49.19288" lon="6.93766">
        <ele>372</ele>
        <time>2011-07-31T07:00:59Z</time>
      </trkpt>
      <trkpt lat="49.19289" lon="6.93764">
        <ele>372</ele>
        <time>2011-07-31T07:01:01Z</time>
      </trkpt>
      <trkpt lat="49.19292" lon="6.93763">
        <ele>372</ele>
        <time>2011-07-31T07:01:03Z</time>
      </trkpt>
      <trkpt lat="49.19294" lon="6.93765">
        <ele>371</ele>
        <time>2011-07-31T07:01:06Z</time>
      </trkpt>
      <trkpt lat="49.19296" lon="6.93766">
        <ele>369</ele>
        <time>2011-07-31T07:01:09Z</time>
      </trkpt>
      <trkpt lat="49.19298" lon="6.93764">
        <ele>368</ele>
        <time>2011-07-31T07:01:11Z</time>
      </trkpt>
      <trkpt lat="49.19299" lon="6.93761">
        <ele>368</ele>
        <time>2011-07-31T07:01:14Z</time>
      </trkpt>
      <trkpt lat="49.193" lon="6.93759">
        <ele>368</ele>
        <time>2011-07-31T07:01:16Z</time>
      </trkpt>
      <trkpt lat="49.19302" lon="6.93758">
        <ele>368</ele>
        <time>2011-07-31T07:01:19Z</time>
      </trkpt>
      <trkpt lat="49.19302" lon="6.93756">
        <ele>368</ele>
        <time>2011-07-31T07:01:21Z</time>
      </trkpt>
      <trkpt lat="49.19304" lon="6.93756">
        <ele>368</ele>
        <time>2011-07-31T07:01:23Z</time>
      </trkpt>
      <trkpt lat="49.19306" lon="6.93758">
        <ele>368</ele>
        <time>2011-07-31T07:01:25Z</time>
      </trkpt>
      <trkpt lat="49.19307" lon="6.93758">
        <ele>368</ele>
        <time>2011-07-31T07:01:27Z</time>
      </trkpt>
      <trkpt lat="49.19308" lon="6.93757">
        <ele>368</ele>
        <time>2011-07-31T07:01:29Z</time>
      </trkpt>
      <trkpt lat="49.19309" lon="6.93755">
        <ele>368</ele>
        <time>2011-07-31T07:01:31Z</time>
      </trkpt>
      <trkpt lat="49.19311" lon="6.93754">
        <ele>368</ele>
        <time>2011-07-31T07:01:33Z</time>
      </trkpt>
      <trkpt lat="49.19313" lon="6.93755">
        <ele>368</ele>
        <time>2011-07-31T07:01:35Z</time>
      </trkpt>
      <trkpt lat="49.19315" lon="6.93755">
        <ele>368</ele>
        <time>2011-07-31T07:01:36Z</time>
      </trkpt>
      <trkpt lat="49.19316" lon="6.93755">
        <ele>368</ele>
        <time>2011-07-31T07:01:38Z</time>
      </trkpt>
      <trkpt lat="49.19318" lon="6.93755">
        <ele>368</ele>
        <time>2011-07-31T07:01:39Z</time>
      </trkpt>
      <trkpt lat="49.19319" lon="6.93753">
        <ele>368</ele>
        <time>2011-07-31T07:01:42Z</time>
      </trkpt>
      <trkpt lat="49.19321" lon="6.93751">
        <ele>368</ele>
        <time>2011-07-31T07:01:44Z</time>
      </trkpt>
      <trkpt lat="49.19322" lon="6.9375">
        <ele>367</ele>
        <time>2011-07-31T07:01:46Z</time>
      </trkpt>
      <trkpt lat="49.19323" lon="6.93749">
        <ele>366</ele>
        <time>2011-07-31T07:01:48Z</time>
      </trkpt>
      <trkpt lat="49.19325" lon="6.93747">
        <ele>365</ele>
        <time>2011-07-31T07:01:51Z</time>
      </trkpt>
      <trkpt lat="49.19326" lon="6.93747">
        <ele>365</ele>
        <time>2011-07-31T07:01:52Z</time>
      </trkpt>
      <trkpt lat="49.19328" lon="6.93746">
        <ele>364</ele>
        <time>2011-07-31T07:01:53Z</time>
      </trkpt>
      <trkpt lat="49.19329" lon="6.93745">
        <ele>363</ele>
        <time>2011-07-31T07:01:55Z</time>
      </trkpt>
      <trkpt lat="49.19331" lon="6.93744">
        <ele>363</ele>
        <time>2011-07-31T07:01:57Z</time>
      </trkpt>
      <trkpt lat="49.19332" lon="6.93744">
        <ele>363</ele>
        <time>2011-07-31T07:01:58Z</time>
      </trkpt>
      <trkpt lat="49.19333" lon="6.93743">
        <ele>363</ele>
        <time>2011-07-31T07:01:59Z</time>
      </trkpt>
      <trkpt lat="49.19334" lon="6.93742">
        <ele>363</ele>
        <time>2011-07-31T07:02:00Z</time>
      </trkpt>
      <trkpt lat="49.19336" lon="6.9374">
        <ele>363</ele>
        <time>2011-07-31T07:02:03Z</time>
      </trkpt>
      <trkpt lat="49.19339" lon="6.93742">
        <ele>363</ele>
        <time>2011-07-31T07:02:05Z</time>
      </trkpt>
      <trkpt lat="49.19341" lon="6.93743">
        <ele>363</ele>
        <time>2011-07-31T07:02:06Z</time>
      </trkpt>
      <trkpt lat="49.19342" lon="6.93743">
        <ele>363</ele>
        <time>2011-07-31T07:02:08Z</time>
      </trkpt>
      <trkpt lat="49.19344" lon="6.93743">
        <ele>363</ele>
        <time>2011-07-31T07:02:09Z</time>
      </trkpt>
      <trkpt lat="49.19346" lon="6.93743">
        <ele>362</ele>
        <time>2011-07-31T07:02:10Z</time>
      </trkpt>
      <trkpt lat="49.19348" lon="6.93744">
        <ele>361</ele>
        <time>2011-07-31T07:02:13Z</time>
      </trkpt>
      <trkpt lat="49.1935" lon="6.93743">
        <ele>361</ele>
        <time>2011-07-31T07:02:15Z</time>
      </trkpt>
      <trkpt lat="49.19351" lon="6.93743">
        <ele>361</ele>
        <time>2011-07-31T07:02:16Z</time>
      </trkpt>
      <trkpt lat="49.19352" lon="6.93743">
        <ele>361</ele>
        <time>2011-07-31T07:02:17Z</time>
      </trkpt>
      <trkpt lat="49.19353" lon="6.93743">
        <ele>361</ele>
        <time>2011-07-31T07:02:18Z</time>
      </trkpt>
      <trkpt lat="49.19355" lon="6.93744">
        <ele>361</ele>
        <time>2011-07-31T07:02:19Z</time>
      </trkpt>
      <trkpt lat="49.19358" lon="6.93745">
        <ele>360</ele>
        <time>2011-07-31T07:02:20Z</time>
      </trkpt>
      <trkpt lat="49.19359" lon="6.93747">
        <ele>360</ele>
        <time>2011-07-31T07:02:22Z</time>
      </trkpt>
      <trkpt lat="49.19361" lon="6.93746">
        <ele>358</ele>
        <time>2011-07-31T07:02:25Z</time>
      </trkpt>
      <trkpt lat="49.19362" lon="6.93747">
        <ele>358</ele>
        <time>2011-07-31T07:02:26Z</time>
      </trkpt>
      <trkpt lat="49.19364" lon="6.93746">
        <ele>358</ele>
        <time>2011-07-31T07:02:27Z</time>
      </trkpt>
      <trkpt lat="49.19365" lon="6.93746">
        <ele>357</ele>
        <time>2011-07-31T07:02:32Z</time>
      </trkpt>
      <trkpt lat="49.19366" lon="6.93746">
        <ele>356</ele>
        <time>2011-07-31T07:02:33Z</time>
      </trkpt>
      <trkpt lat="49.19368" lon="6.93747">
        <ele>356</ele>
        <time>2011-07-31T07:02:34Z</time>
      </trkpt>
      <trkpt lat="49.1937" lon="6.93747">
        <ele>355</ele>
        <time>2011-07-31T07:02:36Z</time>
      </trkpt>
      <trkpt lat="49.19372" lon="6.93747">
        <ele>355</ele>
        <time>2011-07-31T07:02:37Z</time>
      </trkpt>
      <trkpt lat="49.19374" lon="6.93748">
        <ele>354</ele>
        <time>2011-07-31T07:02:39Z</time>
      </trkpt>
      <trkpt lat="49.19375" lon="6.9375">
        <ele>353</ele>
        <time>2011-07-31T07:02:41Z</time>
      </trkpt>
      <trkpt lat="49.19378" lon="6.93751">
        <ele>351</ele>
        <time>2011-07-31T07:02:43Z</time>
      </trkpt>
      <trkpt lat="49.19379" lon="6.93751">
        <ele>350</ele>
        <time>2011-07-31T07:02:44Z</time>
      </trkpt>
      <trkpt lat="49.19381" lon="6.93751">
        <ele>349</ele>
        <time>2011-07-31T07:02:47Z</time>
      </trkpt>
      <trkpt lat="49.19382" lon="6.9375">
        <ele>347</ele>
        <time>2011-07-31T07:02:50Z</time>
      </trkpt>
      <trkpt lat="49.19384" lon="6.9375">
        <ele>347</ele>
        <time>2011-07-31T07:02:51Z</time>
      </trkpt>
      <trkpt lat="49.19385" lon="6.93749">
        <ele>346</ele>
        <time>2011-07-31T07:02:52Z</time>
      </trkpt>
      <trkpt lat="49.19387" lon="6.9375">
        <ele>346</ele>
        <time>2011-07-31T07:02:53Z</time>
      </trkpt>
      <trkpt lat="49.19389" lon="6.93749">
        <ele>346</ele>
        <time>2011-07-31T07:02:54Z</time>
      </trkpt>
      <trkpt lat="49.1939" lon="6.93749">
        <ele>345</ele>
        <time>2011-07-31T07:02:56Z</time>
      </trkpt>
      <trkpt lat="49.19392" lon="6.93748">
        <ele>345</ele>
        <time>2011-07-31T07:02:57Z</time>
      </trkpt>
      <trkpt lat="49.19393" lon="6.93748">
        <ele>345</ele>
        <time>2011-07-31T07:02:58Z</time>
      </trkpt>
      <trkpt lat="49.19395" lon="6.93748">
        <ele>345</ele>
        <time>2011-07-31T07:02:59Z</time>
      </trkpt>
      <trkpt lat="49.19396" lon="6.93747">
        <ele>345</ele>
        <time>2011-07-31T07:03:00Z</time>
      </trkpt>
      <trkpt lat="49.19397" lon="6.93747">
        <ele>345</ele>
        <time>2011-07-31T07:03:01Z</time>
      </trkpt>
      <trkpt lat="49.19398" lon="6.93744">
        <ele>345</ele>
        <time>2011-07-31T07:03:03Z</time>
      </trkpt>
      <trkpt lat="49.194" lon="6.93743">
        <ele>345</ele>
        <time>2011-07-31T07:03:06Z</time>
      </trkpt>
      <trkpt lat="49.19402" lon="6.93743">
        <ele>346</ele>
        <time>2011-07-31T07:03:08Z</time>
      </trkpt>
      <trkpt lat="49.19404" lon="6.93743">
        <ele>346</ele>
        <time>2011-07-31T07:03:09Z</time>
      </trkpt>
      <trkpt lat="49.19405" lon="6.93745">
        <ele>346</ele>
        <time>2011-07-31T07:03:11Z</time>
      </trkpt>
      <trkpt lat="49.19406" lon="6.93746">
        <ele>346</ele>
        <time>2011-07-31T07:03:12Z</time>
      </trkpt>
      <trkpt lat="49.19408" lon="6.93747">
        <ele>346</ele>
        <time>2011-07-31T07:03:13Z</time>
      </trkpt>
      <trkpt lat="49.19409" lon="6.93747">
        <ele>346</ele>
        <time>2011-07-31T07:03:14Z</time>
      </trkpt>
      <trkpt lat="49.19411" lon="6.93748">
        <ele>346</ele>
        <time>2011-07-31T07:03:15Z</time>
      </trkpt>
      <trkpt lat="49.19412" lon="6.93749">
        <ele>346</ele>
        <time>2011-07-31T07:03:16Z</time>
      </trkpt>
      <trkpt lat="49.19414" lon="6.93749">
        <ele>346</ele>
        <time>2011-07-31T07:03:17Z</time>
      </trkpt>
      <trkpt lat="49.19418" lon="6.9375">
        <ele>346</ele>
        <time>2011-07-31T07:03:19Z</time>
      </trkpt>
      <trkpt lat="49.19419" lon="6.93751">
        <ele>345</ele>
        <time>2011-07-31T07:03:20Z</time>
      </trkpt>
      <trkpt lat="49.19421" lon="6.93752">
        <ele>344</ele>
        <time>2011-07-31T07:03:22Z</time>
      </trkpt>
      <trkpt lat="49.19422" lon="6.93753">
        <ele>342</ele>
        <time>2011-07-31T07:03:26Z</time>
      </trkpt>
      <trkpt lat="49.19423" lon="6.93755">
        <ele>342</ele>
        <time>2011-07-31T07:03:28Z</time>
      </trkpt>
      <trkpt lat="49.19424" lon="6.93756">
        <ele>342</ele>
        <time>2011-07-31T07:03:29Z</time>
      </trkpt>
      <trkpt lat="49.19426" lon="6.93755">
        <ele>341</ele>
        <time>2011-07-31T07:03:32Z</time>
      </trkpt>
      <trkpt lat="49.19428" lon="6.93755">
        <ele>341</ele>
        <time>2011-07-31T07:03:33Z</time>
      </trkpt>
      <trkpt lat="49.1943" lon="6.93756">
        <ele>341</ele>
        <time>2011-07-31T07:03:34Z</time>
      </trkpt>
      <trkpt lat="49.19432" lon="6.93757">
        <ele>340</ele>
        <time>2011-07-31T07:03:35Z</time>
      </trkpt>
      <trkpt lat="49.19433" lon="6.93758">
        <ele>340</ele>
        <time>2011-07-31T07:03:37Z</time>
      </trkpt>
      <trkpt lat="49.19435" lon="6.93758">
        <ele>340</ele>
        <time>2011-07-31T07:03:38Z</time>
      </trkpt>
      <trkpt lat="49.19437" lon="6.93758">
        <ele>340</ele>
        <time>2011-07-31T07:03:40Z</time>
      </trkpt>
      <trkpt lat="49.19438" lon="6.9376">
        <ele>340</ele>
        <time>2011-07-31T07:03:41Z</time>
      </trkpt>
      <trkpt lat="49.1944" lon="6.9376">
        <ele>339</ele>
        <time>2011-07-31T07:03:42Z</time>
      </trkpt>
      <trkpt lat="49.19442" lon="6.93761">
        <ele>339</ele>
        <time>2011-07-31T07:03:43Z</time>
      </trkpt>
      <trkpt lat="49.19444" lon="6.93762">
        <ele>337</ele>
        <time>2011-07-31T07:03:45Z</time>
      </trkpt>
      <trkpt lat="49.19446" lon="6.93764">
        <ele>336</ele>
        <time>2011-07-31T07:03:47Z</time>
      </trkpt>
      <trkpt lat="49.19447" lon="6.93766">
        <ele>336</ele>
        <time>2011-07-31T07:03:49Z</time>
      </trkpt>
      <trkpt lat="49.19449" lon="6.93766">
        <ele>336</ele>
        <time>2011-07-31T07:03:50Z</time>
      </trkpt>
      <trkpt lat="49.1945" lon="6.93767">
        <ele>336</ele>
        <time>2011-07-31T07:03:51Z</time>
      </trkpt>
      <trkpt lat="49.19452" lon="6.93768">
        <ele>336</ele>
        <time>2011-07-31T07:03:52Z</time>
      </trkpt>
      <trkpt lat="49.19454" lon="6.93769">
        <ele>336</ele>
        <time>2011-07-31T07:03:53Z</time>
      </trkpt>
      <trkpt lat="49.19456" lon="6.9377">
        <ele>336</ele>
        <time>2011-07-31T07:03:54Z</time>
      </trkpt>
      <trkpt lat="49.19457" lon="6.93771">
        <ele>336</ele>
        <time>2011-07-31T07:03:55Z</time>
      </trkpt>
      <trkpt lat="49.19458" lon="6.93771">
        <ele>336</ele>
        <time>2011-07-31T07:03:56Z</time>
      </trkpt>
      <trkpt lat="49.19461" lon="6.93774">
        <ele>336</ele>
        <time>2011-07-31T07:03:58Z</time>
      </trkpt>
      <trkpt lat="49.19463" lon="6.93776">
        <ele>336</ele>
        <time>2011-07-31T07:03:59Z</time>
      </trkpt>
      <trkpt lat="49.19463" lon="6.93778">
        <ele>336</ele>
        <time>2011-07-31T07:04:01Z</time>
      </trkpt>
      <trkpt lat="49.19465" lon="6.9378">
        <ele>335</ele>
        <time>2011-07-31T07:04:03Z</time>
      </trkpt>
      <trkpt lat="49.19466" lon="6.93781">
        <ele>333</ele>
        <time>2011-07-31T07:04:06Z</time>
      </trkpt>
      <trkpt lat="49.19467" lon="6.93781">
        <ele>333</ele>
        <time>2011-07-31T07:04:07Z</time>
      </trkpt>
      <trkpt lat="49.19469" lon="6.93782">
        <ele>332</ele>
        <time>2011-07-31T07:04:09Z</time>
      </trkpt>
      <trkpt lat="49.19471" lon="6.93782">
        <ele>331</ele>
        <time>2011-07-31T07:04:11Z</time>
      </trkpt>
      <trkpt lat="49.19473" lon="6.93783">
        <ele>331</ele>
        <time>2011-07-31T07:04:12Z</time>
      </trkpt>
      <trkpt lat="49.19474" lon="6.93783">
        <ele>330</ele>
        <time>2011-07-31T07:04:14Z</time>
      </trkpt>
      <trkpt lat="49.19476" lon="6.93784">
        <ele>329</ele>
        <time>2011-07-31T07:04:15Z</time>
      </trkpt>
      <trkpt lat="49.19478" lon="6.93784">
        <ele>328</ele>
        <time>2011-07-31T07:04:17Z</time>
      </trkpt>
      <trkpt lat="49.1948" lon="6.93786">
        <ele>327</ele>
        <time>2011-07-31T07:04:19Z</time>
      </trkpt>
      <trkpt lat="49.19481" lon="6.93787">
        <ele>327</ele>
        <time>2011-07-31T07:04:21Z</time>
      </trkpt>
      <trkpt lat="49.19483" lon="6.93788">
        <ele>327</ele>
        <time>2011-07-31T07:04:24Z</time>
      </trkpt>
      <trkpt lat="49.19484" lon="6.93788">
        <ele>327</ele>
        <time>2011-07-31T07:04:26Z</time>
      </trkpt>
      <trkpt lat="49.19486" lon="6.93788">
        <ele>327</ele>
        <time>2011-07-31T07:04:27Z</time>
      </trkpt>
      <trkpt lat="49.19488" lon="6.93789">
        <ele>327</ele>
        <time>2011-07-31T07:04:29Z</time>
      </trkpt>
      <trkpt lat="49.19489" lon="6.9379">
        <ele>327</ele>
        <time>2011-07-31T07:04:31Z</time>
      </trkpt>
      <trkpt lat="49.1949" lon="6.93791">
        <ele>327</ele>
        <time>2011-07-31T07:04:33Z</time>
      </trkpt>
      <trkpt lat="49.19494" lon="6.93792">
        <ele>327</ele>
        <time>2011-07-31T07:04:34Z</time>
      </trkpt>
      <trkpt lat="49.19495" lon="6.93794">
        <ele>327</ele>
        <time>2011-07-31T07:04:37Z</time>
      </trkpt>
      <trkpt lat="49.19497" lon="6.93795">
        <ele>327</ele>
        <time>2011-07-31T07:04:39Z</time>
      </trkpt>
      <trkpt lat="49.19498" lon="6.93795">
        <ele>327</ele>
        <time>2011-07-31T07:04:40Z</time>
      </trkpt>
      <trkpt lat="49.19499" lon="6.93795">
        <ele>327</ele>
        <time>2011-07-31T07:04:41Z</time>
      </trkpt>
      <trkpt lat="49.195" lon="6.93795">
        <ele>327</ele>
        <time>2011-07-31T07:04:42Z</time>
      </trkpt>
      <trkpt lat="49.19503" lon="6.93795">
        <ele>327</ele>
        <time>2011-07-31T07:04:43Z</time>
      </trkpt>
      <trkpt lat="49.19504" lon="6.93796">
        <ele>327</ele>
        <time>2011-07-31T07:04:45Z</time>
      </trkpt>
      <trkpt lat="49.19506" lon="6.93796">
        <ele>327</ele>
        <time>2011-07-31T07:04:46Z</time>
      </trkpt>
      <trkpt lat="49.19507" lon="6.93796">
        <ele>327</ele>
        <time>2011-07-31T07:04:47Z</time>
      </trkpt>
      <trkpt lat="49.19508" lon="6.93797">
        <ele>327</ele>
        <time>2011-07-31T07:04:48Z</time>
      </trkpt>
      <trkpt lat="49.19509" lon="6.93797">
        <ele>327</ele>
        <time>2011-07-31T07:04:49Z</time>
      </trkpt>
      <trkpt lat="49.19511" lon="6.93797">
        <ele>327</ele>
        <time>2011-07-31T07:04:50Z</time>
      </trkpt>
      <trkpt lat="49.19512" lon="6.93797">
        <ele>327</ele>
        <time>2011-07-31T07:04:51Z</time>
      </trkpt>
      <trkpt lat="49.19514" lon="6.93796">
        <ele>327</ele>
        <time>2011-07-31T07:04:52Z</time>
      </trkpt>
      <trkpt lat="49.19516" lon="6.93797">
        <ele>327</ele>
        <time>2011-07-31T07:04:53Z</time>
      </trkpt>
      <trkpt lat="49.19519" lon="6.93798">
        <ele>327</ele>
        <time>2011-07-31T07:04:54Z</time>
      </trkpt>
      <trkpt lat="49.19521" lon="6.93798">
        <ele>327</ele>
        <time>2011-07-31T07:04:55Z</time>
      </trkpt>
      <trkpt lat="49.19522" lon="6.93798">
        <ele>327</ele>
        <time>2011-07-31T07:04:56Z</time>
      </trkpt>
      <trkpt lat="49.19524" lon="6.93797">
        <ele>327</ele>
        <time>2011-07-31T07:04:58Z</time>
      </trkpt>
      <trkpt lat="49.19525" lon="6.93796">
        <ele>327</ele>
        <time>2011-07-31T07:05:00Z</time>
      </trkpt>
      <trkpt lat="49.19527" lon="6.93797">
        <ele>327</ele>
        <time>2011-07-31T07:05:01Z</time>
      </trkpt>
      <trkpt lat="49.1953" lon="6.93798">
        <ele>327</ele>
        <time>2011-07-31T07:05:03Z</time>
      </trkpt>
      <trkpt lat="49.19531" lon="6.93798">
        <ele>327</ele>
        <time>2011-07-31T07:05:04Z</time>
      </trkpt>
      <trkpt lat="49.19532" lon="6.93798">
        <ele>327</ele>
        <time>2011-07-31T07:05:05Z</time>
      </trkpt>
      <trkpt lat="49.19534" lon="6.93798">
        <ele>327</ele>
        <time>2011-07-31T07:05:06Z</time>
      </trkpt>
      <trkpt lat="49.19536" lon="6.93799">
        <ele>327</ele>
        <time>2011-07-31T07:05:07Z</time>
      </trkpt>
      <trkpt lat="49.19538" lon="6.93799">
        <ele>327</ele>
        <time>2011-07-31T07:05:08Z</time>
      </trkpt>
      <trkpt lat="49.19539" lon="6.938">
        <ele>327</ele>
        <time>2011-07-31T07:05:09Z</time>
      </trkpt>
      <trkpt lat="49.19541" lon="6.93801">
        <ele>327</ele>
        <time>2011-07-31T07:05:11Z</time>
      </trkpt>
      <trkpt lat="49.19542" lon="6.93801">
        <ele>327</ele>
        <time>2011-07-31T07:05:16Z</time>
      </trkpt>
      <trkpt lat="49.19544" lon="6.938">
        <ele>327</ele>
        <time>2011-07-31T07:05:18Z</time>
      </trkpt>
      <trkpt lat="49.19545" lon="6.938">
        <ele>327</ele>
        <time>2011-07-31T07:05:20Z</time>
      </trkpt>
      <trkpt lat="49.19547" lon="6.93799">
        <ele>327</ele>
        <time>2011-07-31T07:05:22Z</time>
      </trkpt>
      <trkpt lat="49.19548" lon="6.93798">
        <ele>327</ele>
        <time>2011-07-31T07:05:24Z</time>
      </trkpt>
      <trkpt lat="49.1955" lon="6.93799">
        <ele>326</ele>
        <time>2011-07-31T07:05:26Z</time>
      </trkpt>
      <trkpt lat="49.19551" lon="6.93799">
        <ele>324</ele>
        <time>2011-07-31T07:05:31Z</time>
      </trkpt>
      <trkpt lat="49.19553" lon="6.93799">
        <ele>323</ele>
        <time>2011-07-31T07:05:36Z</time>
      </trkpt>
      <trkpt lat="49.19551" lon="6.93799">
        <ele>322</ele>
        <time>2011-07-31T07:05:44Z</time>
      </trkpt>
      <trkpt lat="49.19549" lon="6.93799">
        <ele>322</ele>
        <time>2011-07-31T07:05:45Z</time>
      </trkpt>
      <trkpt lat="49.19548" lon="6.93799">
        <ele>321</ele>
        <time>2011-07-31T07:05:46Z</time>
      </trkpt>
      <trkpt lat="49.19546" lon="6.938">
        <ele>320</ele>
        <time>2011-07-31T07:05:56Z</time>
      </trkpt>
      <trkpt lat="49.19544" lon="6.938">
        <ele>320</ele>
        <time>2011-07-31T07:05:58Z</time>
      </trkpt>
      <trkpt lat="49.19545" lon="6.93799">
        <ele>320</ele>
        <time>2011-07-31T07:06:03Z</time>
      </trkpt>
      <trkpt lat="49.19547" lon="6.938">
        <ele>319</ele>
        <time>2011-07-31T07:06:06Z</time>
      </trkpt>
      <trkpt lat="49.19548" lon="6.93799">
        <ele>319</ele>
        <time>2011-07-31T07:06:14Z</time>
      </trkpt>
      <trkpt lat="49.1955" lon="6.93798">
        <ele>319</ele>
        <time>2011-07-31T07:06:17Z</time>
      </trkpt>
      <trkpt lat="49.19551" lon="6.93798">
        <ele>319</ele>
        <time>2011-07-31T07:06:19Z</time>
      </trkpt>
      <trkpt lat="49.19552" lon="6.93798">
        <ele>319</ele>
        <time>2011-07-31T07:06:25Z</time>
      </trkpt>
      <trkpt lat="49.19551" lon="6.93799">
        <ele>319</ele>
        <time>2011-07-31T07:06:32Z</time>
      </trkpt>
      <trkpt lat="49.19552" lon="6.93799">
        <ele>319</ele>
        <time>2011-07-31T07:06:37Z</time>
      </trkpt>
      <trkpt lat="49.19554" lon="6.938">
        <ele>319</ele>
        <time>2011-07-31T07:06:41Z</time>
      </trkpt>
      <trkpt lat="49.19555" lon="6.93801">
        <ele>319</ele>
        <time>2011-07-31T07:06:46Z</time>
      </trkpt>
      <trkpt lat="49.19556" lon="6.93802">
        <ele>318</ele>
        <time>2011-07-31T07:06:49Z</time>
      </trkpt>
      <trkpt lat="49.19556" lon="6.938">
        <ele>318</ele>
        <time>2011-07-31T07:06:58Z</time>
      </trkpt>
      <trkpt lat="49.19556" lon="6.93798">
        <ele>318</ele>
        <time>2011-07-31T07:07:03Z</time>
      </trkpt>
      <trkpt lat="49.19557" lon="6.93798">
        <ele>318</ele>
        <time>2011-07-31T07:07:09Z</time>
      </trkpt>
      <trkpt lat="49.19556" lon="6.93798">
        <ele>318</ele>
        <time>2011-07-31T07:07:19Z</time>
      </trkpt>
      <trkpt lat="49.19555" lon="6.93798">
        <ele>318</ele>
        <time>2011-07-31T07:07:20Z</time>
      </trkpt>
      <trkpt lat="49.19555" lon="6.93796">
        <ele>318</ele>
        <time>2011-07-31T07:07:34Z</time>
      </trkpt>
      <trkpt lat="49.19553" lon="6.93797">
        <ele>318</ele>
        <time>2011-07-31T07:07:38Z</time>
      </trkpt>
      <trkpt lat="49.19551" lon="6.93797">
        <ele>318</ele>
        <time>2011-07-31T07:07:42Z</time>
      </trkpt>
      <trkpt lat="49.1955" lon="6.93796">
        <ele>318</ele>
        <time>2011-07-31T07:07:45Z</time>
      </trkpt>
      <trkpt lat="49.19552" lon="6.93796">
        <ele>318</ele>
        <time>2011-07-31T07:07:55Z</time>
      </trkpt>
      <trkpt lat="49.1955" lon="6.93797">
        <ele>318</ele>
        <time>2011-07-31T07:07:59Z</time>
      </trkpt>
      <trkpt lat="49.19549" lon="6.93798">
        <ele>318</ele>
        <time>2011-07-31T07:08:07Z</time>
      </trkpt>
      <trkpt lat="49.19548" lon="6.93798">
        <ele>318</ele>
        <time>2011-07-31T07:08:13Z</time>
      </trkpt>
      <trkpt lat="49.19549" lon="6.938">
        <ele>318</ele>
        <time>2011-07-31T07:08:28Z</time>
      </trkpt>
      <trkpt lat="49.1955" lon="6.93802">
        <ele>318</ele>
        <time>2011-07-31T07:08:30Z</time>
      </trkpt>
      <trkpt lat="49.19552" lon="6.93804">
        <ele>318</ele>
        <time>2011-07-31T07:08:31Z</time>
      </trkpt>
      <trkpt lat="49.19553" lon="6.93804">
        <ele>318</ele>
        <time>2011-07-31T07:08:32Z</time>
      </trkpt>
      <trkpt lat="49.19555" lon="6.93805">
        <ele>318</ele>
        <time>2011-07-31T07:08:33Z</time>
      </trkpt>
      <trkpt lat="49.19556" lon="6.93805">
        <ele>318</ele>
        <time>2011-07-31T07:08:34Z</time>
      </trkpt>
      <trkpt lat="49.19558" lon="6.93804">
        <ele>319</ele>
        <time>2011-07-31T07:08:36Z</time>
      </trkpt>
      <trkpt lat="49.19559" lon="6.93803">
        <ele>319</ele>
        <time>2011-07-31T07:08:37Z</time>
      </trkpt>
      <trkpt lat="49.19561" lon="6.93803">
        <ele>319</ele>
        <time>2011-07-31T07:08:38Z</time>
      </trkpt>
      <trkpt lat="49.19562" lon="6.93804">
        <ele>319</ele>
        <time>2011-07-31T07:08:39Z</time>
      </trkpt>
      <trkpt lat="49.19565" lon="6.93804">
        <ele>319</ele>
        <time>2011-07-31T07:08:40Z</time>
      </trkpt>
      <trkpt lat="49.19566" lon="6.93804">
        <ele>319</ele>
        <time>2011-07-31T07:08:41Z</time>
      </trkpt>
      <trkpt lat="49.19567" lon="6.93804">
        <ele>319</ele>
        <time>2011-07-31T07:08:42Z</time>
      </trkpt>
      <trkpt lat="49.1957" lon="6.93803">
        <ele>319</ele>
        <time>2011-07-31T07:08:44Z</time>
      </trkpt>
      <trkpt lat="49.19571" lon="6.93804">
        <ele>319</ele>
        <time>2011-07-31T07:08:45Z</time>
      </trkpt>
      <trkpt lat="49.19572" lon="6.93804">
        <ele>319</ele>
        <time>2011-07-31T07:08:46Z</time>
      </trkpt>
      <trkpt lat="49.19573" lon="6.93804">
        <ele>319</ele>
        <time>2011-07-31T07:08:47Z</time>
      </trkpt>
      <trkpt lat="49.19576" lon="6.93804">
        <ele>319</ele>
        <time>2011-07-31T07:08:49Z</time>
      </trkpt>
      <trkpt lat="49.19578" lon="6.93804">
        <ele>319</ele>
        <time>2011-07-31T07:08:51Z</time>
      </trkpt>
      <trkpt lat="49.1958" lon="6.93804">
        <ele>319</ele>
        <time>2011-07-31T07:08:53Z</time>
      </trkpt>
      <trkpt lat="49.19581" lon="6.93804">
        <ele>319</ele>
        <time>2011-07-31T07:08:55Z</time>
      </trkpt>
      <trkpt lat="49.19583" lon="6.93805">
        <ele>319</ele>
        <time>2011-07-31T07:08:57Z</time>
      </trkpt>
      <trkpt lat="49.19585" lon="6.93805">
        <ele>319</ele>
        <time>2011-07-31T07:08:59Z</time>
      </trkpt>
      <trkpt lat="49.19586" lon="6.93805">
        <ele>319</ele>
        <time>2011-07-31T07:09:00Z</time>
      </trkpt>
      <trkpt lat="49.19587" lon="6.93805">
        <ele>319</ele>
        <time>2011-07-31T07:09:01Z</time>
      </trkpt>
      <trkpt lat="49.19588" lon="6.93806">
        <ele>319</ele>
        <time>2011-07-31T07:09:02Z</time>
      </trkpt>
      <trkpt lat="49.1959" lon="6.93807">
        <ele>319</ele>
        <time>2011-07-31T07:09:03Z</time>
      </trkpt>
      <trkpt lat="49.19594" lon="6.93806">
        <ele>319</ele>
        <time>2011-07-31T07:09:04Z</time>
      </trkpt>
      <trkpt lat="49.19597" lon="6.93807">
        <ele>319</ele>
        <time>2011-07-31T07:09:05Z</time>
      </trkpt>
      <trkpt lat="49.19598" lon="6.93807">
        <ele>319</ele>
        <time>2011-07-31T07:09:06Z</time>
      </trkpt>
      <trkpt lat="49.196" lon="6.93807">
        <ele>319</ele>
        <time>2011-07-31T07:09:08Z</time>
      </trkpt>
      <trkpt lat="49.19602" lon="6.93808">
        <ele>319</ele>
        <time>2011-07-31T07:09:10Z</time>
      </trkpt>
      <trkpt lat="49.19603" lon="6.9381">
        <ele>317</ele>
        <time>2011-07-31T07:09:12Z</time>
      </trkpt>
      <trkpt lat="49.19605" lon="6.93811">
        <ele>317</ele>
        <time>2011-07-31T07:09:13Z</time>
      </trkpt>
      <trkpt lat="49.19606" lon="6.93813">
        <ele>315</ele>
        <time>2011-07-31T07:09:15Z</time>
      </trkpt>
      <trkpt lat="49.19611" lon="6.93813">
        <ele>313</ele>
        <time>2011-07-31T07:09:17Z</time>
      </trkpt>
      <trkpt lat="49.19612" lon="6.93814">
        <ele>313</ele>
        <time>2011-07-31T07:09:18Z</time>
      </trkpt>
      <trkpt lat="49.19613" lon="6.93814">
        <ele>312</ele>
        <time>2011-07-31T07:09:19Z</time>
      </trkpt>
      <trkpt lat="49.19616" lon="6.93814">
        <ele>312</ele>
        <time>2011-07-31T07:09:20Z</time>
      </trkpt>
      <trkpt lat="49.19619" lon="6.93816">
        <ele>312</ele>
        <time>2011-07-31T07:09:22Z</time>
      </trkpt>
      <trkpt lat="49.19621" lon="6.93817">
        <ele>312</ele>
        <time>2011-07-31T07:09:25Z</time>
      </trkpt>
      <trkpt lat="49.19623" lon="6.93819">
        <ele>312</ele>
        <time>2011-07-31T07:09:27Z</time>
      </trkpt>
      <trkpt lat="49.19624" lon="6.93819">
        <ele>312</ele>
        <time>2011-07-31T07:09:28Z</time>
      </trkpt>
      <trkpt lat="49.19626" lon="6.93819">
        <ele>312</ele>
        <time>2011-07-31T07:09:29Z</time>
      </trkpt>
      <trkpt lat="49.19628" lon="6.9382">
        <ele>312</ele>
        <time>2011-07-31T07:09:31Z</time>
      </trkpt>
      <trkpt lat="49.19629" lon="6.93822">
        <ele>312</ele>
        <time>2011-07-31T07:09:33Z</time>
      </trkpt>
      <trkpt lat="49.19631" lon="6.93823">
        <ele>312</ele>
        <time>2011-07-31T07:09:35Z</time>
      </trkpt>
      <trkpt lat="49.19632" lon="6.93824">
        <ele>311</ele>
        <time>2011-07-31T07:09:38Z</time>
      </trkpt>
      <trkpt lat="49.19635" lon="6.93825">
        <ele>310</ele>
        <time>2011-07-31T07:09:40Z</time>
      </trkpt>
      <trkpt lat="49.19637" lon="6.93827">
        <ele>308</ele>
        <time>2011-07-31T07:09:42Z</time>
      </trkpt>
      <trkpt lat="49.19638" lon="6.93827">
        <ele>307</ele>
        <time>2011-07-31T07:09:44Z</time>
      </trkpt>
      <trkpt lat="49.1964" lon="6.93829">
        <ele>306</ele>
        <time>2011-07-31T07:09:46Z</time>
      </trkpt>
      <trkpt lat="49.19643" lon="6.93829">
        <ele>306</ele>
        <time>2011-07-31T07:09:47Z</time>
      </trkpt>
      <trkpt lat="49.19645" lon="6.9383">
        <ele>305</ele>
        <time>2011-07-31T07:09:48Z</time>
      </trkpt>
      <trkpt lat="49.19646" lon="6.9383">
        <ele>305</ele>
        <time>2011-07-31T07:09:49Z</time>
      </trkpt>
      <trkpt lat="49.19648" lon="6.93831">
        <ele>305</ele>
        <time>2011-07-31T07:09:50Z</time>
      </trkpt>
      <trkpt lat="49.19649" lon="6.93831">
        <ele>304</ele>
        <time>2011-07-31T07:09:51Z</time>
      </trkpt>
      <trkpt lat="49.19651" lon="6.93832">
        <ele>303</ele>
        <time>2011-07-31T07:09:53Z</time>
      </trkpt>
      <trkpt lat="49.19653" lon="6.93832">
        <ele>303</ele>
        <time>2011-07-31T07:09:54Z</time>
      </trkpt>
      <trkpt lat="49.19655" lon="6.93834">
        <ele>302</ele>
        <time>2011-07-31T07:09:56Z</time>
      </trkpt>
      <trkpt lat="49.19657" lon="6.93835">
        <ele>302</ele>
        <time>2011-07-31T07:09:58Z</time>
      </trkpt>
      <trkpt lat="49.19659" lon="6.93836">
        <ele>301</ele>
        <time>2011-07-31T07:10:00Z</time>
      </trkpt>
      <trkpt lat="49.1966" lon="6.93836">
        <ele>301</ele>
        <time>2011-07-31T07:10:01Z</time>
      </trkpt>
      <trkpt lat="49.19661" lon="6.93837">
        <ele>301</ele>
        <time>2011-07-31T07:10:02Z</time>
      </trkpt>
      <trkpt lat="49.19663" lon="6.93837">
        <ele>301</ele>
        <time>2011-07-31T07:10:04Z</time>
      </trkpt>
      <trkpt lat="49.19667" lon="6.93839">
        <ele>301</ele>
        <time>2011-07-31T07:10:06Z</time>
      </trkpt>
      <trkpt lat="49.19668" lon="6.9384">
        <ele>301</ele>
        <time>2011-07-31T07:10:07Z</time>
      </trkpt>
      <trkpt lat="49.1967" lon="6.93842">
        <ele>301</ele>
        <time>2011-07-31T07:10:09Z</time>
      </trkpt>
      <trkpt lat="49.19672" lon="6.93843">
        <ele>301</ele>
        <time>2011-07-31T07:10:10Z</time>
      </trkpt>
      <trkpt lat="49.19674" lon="6.93844">
        <ele>301</ele>
        <time>2011-07-31T07:10:12Z</time>
      </trkpt>
      <trkpt lat="49.19676" lon="6.93844">
        <ele>301</ele>
        <time>2011-07-31T07:10:13Z</time>
      </trkpt>
      <trkpt lat="49.19679" lon="6.93846">
        <ele>301</ele>
        <time>2011-07-31T07:10:15Z</time>
      </trkpt>
      <trkpt lat="49.1968" lon="6.93848">
        <ele>301</ele>
        <time>2011-07-31T07:10:17Z</time>
      </trkpt>
      <trkpt lat="49.19682" lon="6.93849">
        <ele>301</ele>
        <time>2011-07-31T07:10:19Z</time>
      </trkpt>
      <trkpt lat="49.19685" lon="6.93851">
        <ele>301</ele>
        <time>2011-07-31T07:10:21Z</time>
      </trkpt>
      <trkpt lat="49.19687" lon="6.93852">
        <ele>301</ele>
        <time>2011-07-31T07:10:23Z</time>
      </trkpt>
      <trkpt lat="49.19689" lon="6.93851">
        <ele>301</ele>
        <time>2011-07-31T07:10:24Z</time>
      </trkpt>
      <trkpt lat="49.19691" lon="6.9385">
        <ele>301</ele>
        <time>2011-07-31T07:10:25Z</time>
      </trkpt>
      <trkpt lat="49.19693" lon="6.93849">
        <ele>301</ele>
        <time>2011-07-31T07:10:26Z</time>
      </trkpt>
      <trkpt lat="49.19695" lon="6.93848">
        <ele>301</ele>
        <time>2011-07-31T07:10:28Z</time>
      </trkpt>
      <trkpt lat="49.19696" lon="6.93845">
        <ele>301</ele>
        <time>2011-07-31T07:10:30Z</time>
      </trkpt>
      <trkpt lat="49.19698" lon="6.93843">
        <ele>301</ele>
        <time>2011-07-31T07:10:32Z</time>
      </trkpt>
      <trkpt lat="49.19698" lon="6.93841">
        <ele>301</ele>
        <time>2011-07-31T07:10:34Z</time>
      </trkpt>
      <trkpt lat="49.19702" lon="6.9384">
        <ele>301</ele>
        <time>2011-07-31T07:10:36Z</time>
      </trkpt>
      <trkpt lat="49.19703" lon="6.93839">
        <ele>302</ele>
        <time>2011-07-31T07:10:38Z</time>
      </trkpt>
      <trkpt lat="49.19704" lon="6.93838">
        <ele>302</ele>
        <time>2011-07-31T07:10:39Z</time>
      </trkpt>
      <trkpt lat="49.19704" lon="6.93835">
        <ele>302</ele>
        <time>2011-07-31T07:10:40Z</time>
      </trkpt>
      <trkpt lat="49.19704" lon="6.93833">
        <ele>302</ele>
        <time>2011-07-31T07:10:41Z</time>
      </trkpt>
      <trkpt lat="49.19704" lon="6.93831">
        <ele>302</ele>
        <time>2011-07-31T07:10:42Z</time>
      </trkpt>
      <trkpt lat="49.19704" lon="6.93829">
        <ele>303</ele>
        <time>2011-07-31T07:10:43Z</time>
      </trkpt>
      <trkpt lat="49.19705" lon="6.93828">
        <ele>303</ele>
        <time>2011-07-31T07:10:44Z</time>
      </trkpt>
      <trkpt lat="49.19704" lon="6.93826">
        <ele>304</ele>
        <time>2011-07-31T07:10:47Z</time>
      </trkpt>
      <trkpt lat="49.19703" lon="6.93823">
        <ele>304</ele>
        <time>2011-07-31T07:10:49Z</time>
      </trkpt>
      <trkpt lat="49.19703" lon="6.93821">
        <ele>304</ele>
        <time>2011-07-31T07:10:51Z</time>
      </trkpt>
      <trkpt lat="49.19702" lon="6.93819">
        <ele>304</ele>
        <time>2011-07-31T07:10:53Z</time>
      </trkpt>
      <trkpt lat="49.19701" lon="6.93819">
        <ele>304</ele>
        <time>2011-07-31T07:10:54Z</time>
      </trkpt>
      <trkpt lat="49.19699" lon="6.93817">
        <ele>302</ele>
        <time>2011-07-31T07:10:56Z</time>
      </trkpt>
      <trkpt lat="49.19699" lon="6.93816">
        <ele>301</ele>
        <time>2011-07-31T07:10:57Z</time>
      </trkpt>
      <trkpt lat="49.19698" lon="6.93813">
        <ele>300</ele>
        <time>2011-07-31T07:10:58Z</time>
      </trkpt>
      <trkpt lat="49.19699" lon="6.9381">
        <ele>300</ele>
        <time>2011-07-31T07:11:00Z</time>
      </trkpt>
      <trkpt lat="49.19699" lon="6.93808">
        <ele>300</ele>
        <time>2011-07-31T07:11:02Z</time>
      </trkpt>
      <trkpt lat="49.19699" lon="6.93805">
        <ele>299</ele>
        <time>2011-07-31T07:11:04Z</time>
      </trkpt>
      <trkpt lat="49.19698" lon="6.93803">
        <ele>299</ele>
        <time>2011-07-31T07:11:05Z</time>
      </trkpt>
      <trkpt lat="49.19697" lon="6.93799">
        <ele>299</ele>
        <time>2011-07-31T07:11:06Z</time>
      </trkpt>
      <trkpt lat="49.19696" lon="6.93797">
        <ele>299</ele>
        <time>2011-07-31T07:11:07Z</time>
      </trkpt>
      <trkpt lat="49.19696" lon="6.93795">
        <ele>299</ele>
        <time>2011-07-31T07:11:08Z</time>
      </trkpt>
      <trkpt lat="49.19696" lon="6.93792">
        <ele>299</ele>
        <time>2011-07-31T07:11:09Z</time>
      </trkpt>
      <trkpt lat="49.19695" lon="6.93789">
        <ele>299</ele>
        <time>2011-07-31T07:11:10Z</time>
      </trkpt>
      <trkpt lat="49.19695" lon="6.93787">
        <ele>299</ele>
        <time>2011-07-31T07:11:11Z</time>
      </trkpt>
      <trkpt lat="49.19694" lon="6.93784">
        <ele>299</ele>
        <time>2011-07-31T07:11:12Z</time>
      </trkpt>
      <trkpt lat="49.19694" lon="6.93782">
        <ele>299</ele>
        <time>2011-07-31T07:11:13Z</time>
      </trkpt>
      <trkpt lat="49.19694" lon="6.9378">
        <ele>299</ele>
        <time>2011-07-31T07:11:15Z</time>
      </trkpt>
      <trkpt lat="49.19693" lon="6.93777">
        <ele>298</ele>
        <time>2011-07-31T07:11:17Z</time>
      </trkpt>
      <trkpt lat="49.19692" lon="6.93776">
        <ele>298</ele>
        <time>2011-07-31T07:11:18Z</time>
      </trkpt>
      <trkpt lat="49.19691" lon="6.93773">
        <ele>297</ele>
        <time>2011-07-31T07:11:21Z</time>
      </trkpt>
      <trkpt lat="49.19691" lon="6.93771">
        <ele>297</ele>
        <time>2011-07-31T07:11:23Z</time>
      </trkpt>
      <trkpt lat="49.19692" lon="6.93769">
        <ele>296</ele>
        <time>2011-07-31T07:11:24Z</time>
      </trkpt>
      <trkpt lat="49.19693" lon="6.93767">
        <ele>296</ele>
        <time>2011-07-31T07:11:25Z</time>
      </trkpt>
      <trkpt lat="49.19693" lon="6.93766">
        <ele>296</ele>
        <time>2011-07-31T07:11:26Z</time>
      </trkpt>
      <trkpt lat="49.19693" lon="6.93762">
        <ele>295</ele>
        <time>2011-07-31T07:11:28Z</time>
      </trkpt>
      <trkpt lat="49.19693" lon="6.93759">
        <ele>295</ele>
        <time>2011-07-31T07:11:29Z</time>
      </trkpt>
      <trkpt lat="49.19693" lon="6.93757">
        <ele>295</ele>
        <time>2011-07-31T07:11:30Z</time>
      </trkpt>
      <trkpt lat="49.19693" lon="6.93754">
        <ele>295</ele>
        <time>2011-07-31T07:11:32Z</time>
      </trkpt>
      <trkpt lat="49.19694" lon="6.93752">
        <ele>295</ele>
        <time>2011-07-31T07:11:33Z</time>
      </trkpt>
      <trkpt lat="49.19694" lon="6.9375">
        <ele>295</ele>
        <time>2011-07-31T07:11:34Z</time>
      </trkpt>
      <trkpt lat="49.19693" lon="6.93748">
        <ele>295</ele>
        <time>2011-07-31T07:11:35Z</time>
      </trkpt>
      <trkpt lat="49.19693" lon="6.93744">
        <ele>295</ele>
        <time>2011-07-31T07:11:36Z</time>
      </trkpt>
      <trkpt lat="49.19692" lon="6.93742">
        <ele>295</ele>
        <time>2011-07-31T07:11:37Z</time>
      </trkpt>
      <trkpt lat="49.19691" lon="6.9374">
        <ele>295</ele>
        <time>2011-07-31T07:11:38Z</time>
      </trkpt>
      <trkpt lat="49.1969" lon="6.93739">
        <ele>295</ele>
        <time>2011-07-31T07:11:39Z</time>
      </trkpt>
      <trkpt lat="49.1969" lon="6.93737">
        <ele>295</ele>
        <time>2011-07-31T07:11:40Z</time>
      </trkpt>
      <trkpt lat="49.1969" lon="6.93735">
        <ele>295</ele>
        <time>2011-07-31T07:11:41Z</time>
      </trkpt>
      <trkpt lat="49.1969" lon="6.93733">
        <ele>295</ele>
        <time>2011-07-31T07:11:42Z</time>
      </trkpt>
      <trkpt lat="49.19689" lon="6.93731">
        <ele>295</ele>
        <time>2011-07-31T07:11:44Z</time>
      </trkpt>
      <trkpt lat="49.1969" lon="6.93728">
        <ele>295</ele>
        <time>2011-07-31T07:11:45Z</time>
      </trkpt>
      <trkpt lat="49.1969" lon="6.93726">
        <ele>295</ele>
        <time>2011-07-31T07:11:46Z</time>
      </trkpt>
      <trkpt lat="49.19691" lon="6.93724">
        <ele>295</ele>
        <time>2011-07-31T07:11:48Z</time>
      </trkpt>
      <trkpt lat="49.19693" lon="6.93726">
        <ele>295</ele>
        <time>2011-07-31T07:11:49Z</time>
      </trkpt>
      <trkpt lat="49.19695" lon="6.93728">
        <ele>295</ele>
        <time>2011-07-31T07:11:50Z</time>
      </trkpt>
      <trkpt lat="49.19696" lon="6.9373">
        <ele>295</ele>
        <time>2011-07-31T07:11:51Z</time>
      </trkpt>
      <trkpt lat="49.19698" lon="6.93732">
        <ele>295</ele>
        <time>2011-07-31T07:11:53Z</time>
      </trkpt>
      <trkpt lat="49.19698" lon="6.93734">
        <ele>295</ele>
        <time>2011-07-31T07:11:54Z</time>
      </trkpt>
      <trkpt lat="49.19699" lon="6.93737">
        <ele>295</ele>
        <time>2011-07-31T07:11:56Z</time>
      </trkpt>
      <trkpt lat="49.197" lon="6.93739">
        <ele>294</ele>
        <time>2011-07-31T07:11:57Z</time>
      </trkpt>
      <trkpt lat="49.19701" lon="6.9374">
        <ele>293</ele>
        <time>2011-07-31T07:11:58Z</time>
      </trkpt>
      <trkpt lat="49.19701" lon="6.93742">
        <ele>292</ele>
        <time>2011-07-31T07:11:59Z</time>
      </trkpt>
      <trkpt lat="49.19702" lon="6.93745">
        <ele>290</ele>
        <time>2011-07-31T07:12:01Z</time>
      </trkpt>
      <trkpt lat="49.19702" lon="6.93747">
        <ele>289</ele>
        <time>2011-07-31T07:12:02Z</time>
      </trkpt>
      <trkpt lat="49.19702" lon="6.93749">
        <ele>288</ele>
        <time>2011-07-31T07:12:03Z</time>
      </trkpt>
      <trkpt lat="49.19704" lon="6.93751">
        <ele>287</ele>
        <time>2011-07-31T07:12:05Z</time>
      </trkpt>
      <trkpt lat="49.19704" lon="6.93753">
        <ele>286</ele>
        <time>2011-07-31T07:12:06Z</time>
      </trkpt>
      <trkpt lat="49.19706" lon="6.93755">
        <ele>285</ele>
        <time>2011-07-31T07:12:07Z</time>
      </trkpt>
      <trkpt lat="49.19707" lon="6.93758">
        <ele>285</ele>
        <time>2011-07-31T07:12:08Z</time>
      </trkpt>
      <trkpt lat="49.19708" lon="6.9376">
        <ele>284</ele>
        <time>2011-07-31T07:12:09Z</time>
      </trkpt>
      <trkpt lat="49.19709" lon="6.93762">
        <ele>284</ele>
        <time>2011-07-31T07:12:10Z</time>
      </trkpt>
      <trkpt lat="49.19709" lon="6.93764">
        <ele>284</ele>
        <time>2011-07-31T07:12:11Z</time>
      </trkpt>
      <trkpt lat="49.1971" lon="6.93767">
        <ele>283</ele>
        <time>2011-07-31T07:12:13Z</time>
      </trkpt>
      <trkpt lat="49.19712" lon="6.93769">
        <ele>283</ele>
        <time>2011-07-31T07:12:14Z</time>
      </trkpt>
      <trkpt lat="49.19711" lon="6.9377">
        <ele>282</ele>
        <time>2011-07-31T07:12:15Z</time>
      </trkpt>
      <trkpt lat="49.19712" lon="6.93772">
        <ele>282</ele>
        <time>2011-07-31T07:12:16Z</time>
      </trkpt>
      <trkpt lat="49.19711" lon="6.93775">
        <ele>281</ele>
        <time>2011-07-31T07:12:17Z</time>
      </trkpt>
      <trkpt lat="49.19712" lon="6.93777">
        <ele>279</ele>
        <time>2011-07-31T07:12:19Z</time>
      </trkpt>
      <trkpt lat="49.19713" lon="6.9378">
        <ele>278</ele>
        <time>2011-07-31T07:12:21Z</time>
      </trkpt>
      <trkpt lat="49.19713" lon="6.93781">
        <ele>277</ele>
        <time>2011-07-31T07:12:22Z</time>
      </trkpt>
      <trkpt lat="49.19714" lon="6.93783">
        <ele>277</ele>
        <time>2011-07-31T07:12:23Z</time>
      </trkpt>
      <trkpt lat="49.19714" lon="6.93785">
        <ele>277</ele>
        <time>2011-07-31T07:12:24Z</time>
      </trkpt>
      <trkpt lat="49.19715" lon="6.93787">
        <ele>276</ele>
        <time>2011-07-31T07:12:25Z</time>
      </trkpt>
      <trkpt lat="49.19717" lon="6.93789">
        <ele>276</ele>
        <time>2011-07-31T07:12:26Z</time>
      </trkpt>
      <trkpt lat="49.19719" lon="6.93791">
        <ele>276</ele>
        <time>2011-07-31T07:12:27Z</time>
      </trkpt>
      <trkpt lat="49.19721" lon="6.93793">
        <ele>276</ele>
        <time>2011-07-31T07:12:28Z</time>
      </trkpt>
      <trkpt lat="49.19722" lon="6.93795">
        <ele>276</ele>
        <time>2011-07-31T07:12:29Z</time>
      </trkpt>
      <trkpt lat="49.19722" lon="6.93797">
        <ele>276</ele>
        <time>2011-07-31T07:12:30Z</time>
      </trkpt>
      <trkpt lat="49.19723" lon="6.938">
        <ele>276</ele>
        <time>2011-07-31T07:12:32Z</time>
      </trkpt>
      <trkpt lat="49.19723" lon="6.93802">
        <ele>276</ele>
        <time>2011-07-31T07:12:33Z</time>
      </trkpt>
      <trkpt lat="49.19724" lon="6.93804">
        <ele>276</ele>
        <time>2011-07-31T07:12:34Z</time>
      </trkpt>
      <trkpt lat="49.19724" lon="6.93806">
        <ele>276</ele>
        <time>2011-07-31T07:12:35Z</time>
      </trkpt>
      <trkpt lat="49.19725" lon="6.93809">
        <ele>276</ele>
        <time>2011-07-31T07:12:37Z</time>
      </trkpt>
      <trkpt lat="49.19726" lon="6.93811">
        <ele>275</ele>
        <time>2011-07-31T07:12:38Z</time>
      </trkpt>
      <trkpt lat="49.19727" lon="6.93813">
        <ele>275</ele>
        <time>2011-07-31T07:12:39Z</time>
      </trkpt>
      <trkpt lat="49.19729" lon="6.93816">
        <ele>275</ele>
        <time>2011-07-31T07:12:40Z</time>
      </trkpt>
      <trkpt lat="49.1973" lon="6.93818">
        <ele>275</ele>
        <time>2011-07-31T07:12:41Z</time>
      </trkpt>
      <trkpt lat="49.19732" lon="6.93822">
        <ele>275</ele>
        <time>2011-07-31T07:12:43Z</time>
      </trkpt>
      <trkpt lat="49.19734" lon="6.93824">
        <ele>275</ele>
        <time>2011-07-31T07:12:44Z</time>
      </trkpt>
      <trkpt lat="49.19735" lon="6.93825">
        <ele>275</ele>
        <time>2011-07-31T07:12:45Z</time>
      </trkpt>
      <trkpt lat="49.19737" lon="6.93828">
        <ele>275</ele>
        <time>2011-07-31T07:12:47Z</time>
      </trkpt>
      <trkpt lat="49.19736" lon="6.93831">
        <ele>276</ele>
        <time>2011-07-31T07:12:49Z</time>
      </trkpt>
      <trkpt lat="49.19736" lon="6.93835">
        <ele>277</ele>
        <time>2011-07-31T07:12:51Z</time>
      </trkpt>
      <trkpt lat="49.19737" lon="6.93837">
        <ele>277</ele>
        <time>2011-07-31T07:12:52Z</time>
      </trkpt>
      <trkpt lat="49.19738" lon="6.93839">
        <ele>277</ele>
        <time>2011-07-31T07:12:53Z</time>
      </trkpt>
      <trkpt lat="49.1974" lon="6.93841">
        <ele>277</ele>
        <time>2011-07-31T07:12:54Z</time>
      </trkpt>
      <trkpt lat="49.1974" lon="6.93844">
        <ele>277</ele>
        <time>2011-07-31T07:12:55Z</time>
      </trkpt>
      <trkpt lat="49.1974" lon="6.93846">
        <ele>277</ele>
        <time>2011-07-31T07:12:56Z</time>
      </trkpt>
      <trkpt lat="49.1974" lon="6.93848">
        <ele>277</ele>
        <time>2011-07-31T07:12:57Z</time>
      </trkpt>
      <trkpt lat="49.19739" lon="6.93849">
        <ele>277</ele>
        <time>2011-07-31T07:12:58Z</time>
      </trkpt>
      <trkpt lat="49.19738" lon="6.93851">
        <ele>277</ele>
        <time>2011-07-31T07:12:59Z</time>
      </trkpt>
      <trkpt lat="49.19738" lon="6.93854">
        <ele>277</ele>
        <time>2011-07-31T07:13:00Z</time>
      </trkpt>
      <trkpt lat="49.19738" lon="6.93856">
        <ele>277</ele>
        <time>2011-07-31T07:13:01Z</time>
      </trkpt>
      <trkpt lat="49.19738" lon="6.93857">
        <ele>277</ele>
        <time>2011-07-31T07:13:02Z</time>
      </trkpt>
      <trkpt lat="49.19738" lon="6.93859">
        <ele>277</ele>
        <time>2011-07-31T07:13:03Z</time>
      </trkpt>
      <trkpt lat="49.19738" lon="6.93862">
        <ele>277</ele>
        <time>2011-07-31T07:13:04Z</time>
      </trkpt>
      <trkpt lat="49.19738" lon="6.93864">
        <ele>277</ele>
        <time>2011-07-31T07:13:05Z</time>
      </trkpt>
      <trkpt lat="49.19737" lon="6.93867">
        <ele>277</ele>
        <time>2011-07-31T07:13:07Z</time>
      </trkpt>
      <trkpt lat="49.19736" lon="6.93869">
        <ele>277</ele>
        <time>2011-07-31T07:13:08Z</time>
      </trkpt>
      <trkpt lat="49.19736" lon="6.93871">
        <ele>277</ele>
        <time>2011-07-31T07:13:09Z</time>
      </trkpt>
      <trkpt lat="49.19736" lon="6.93873">
        <ele>277</ele>
        <time>2011-07-31T07:13:10Z</time>
      </trkpt>
      <trkpt lat="49.19736" lon="6.93875">
        <ele>277</ele>
        <time>2011-07-31T07:13:11Z</time>
      </trkpt>
      <trkpt lat="49.19737" lon="6.93878">
        <ele>277</ele>
        <time>2011-07-31T07:13:12Z</time>
      </trkpt>
      <trkpt lat="49.19737" lon="6.93881">
        <ele>277</ele>
        <time>2011-07-31T07:13:14Z</time>
      </trkpt>
      <trkpt lat="49.19738" lon="6.93883">
        <ele>278</ele>
        <time>2011-07-31T07:13:15Z</time>
      </trkpt>
      <trkpt lat="49.19738" lon="6.93885">
        <ele>278</ele>
        <time>2011-07-31T07:13:16Z</time>
      </trkpt>
      <trkpt lat="49.19738" lon="6.93887">
        <ele>278</ele>
        <time>2011-07-31T07:13:17Z</time>
      </trkpt>
      <trkpt lat="49.19739" lon="6.93889">
        <ele>279</ele>
        <time>2011-07-31T07:13:18Z</time>
      </trkpt>
      <trkpt lat="49.19739" lon="6.9389">
        <ele>279</ele>
        <time>2011-07-31T07:13:19Z</time>
      </trkpt>
      <trkpt lat="49.1974" lon="6.93892">
        <ele>280</ele>
        <time>2011-07-31T07:13:20Z</time>
      </trkpt>
      <trkpt lat="49.1974" lon="6.93894">
        <ele>280</ele>
        <time>2011-07-31T07:13:21Z</time>
      </trkpt>
      <trkpt lat="49.19739" lon="6.93896">
        <ele>281</ele>
        <time>2011-07-31T07:13:22Z</time>
      </trkpt>
      <trkpt lat="49.19739" lon="6.93899">
        <ele>282</ele>
        <time>2011-07-31T07:13:23Z</time>
      </trkpt>
      <trkpt lat="49.19737" lon="6.93901">
        <ele>283</ele>
        <time>2011-07-31T07:13:25Z</time>
      </trkpt>
      <trkpt lat="49.19735" lon="6.93904">
        <ele>283</ele>
        <time>2011-07-31T07:13:27Z</time>
      </trkpt>
      <trkpt lat="49.19733" lon="6.93906">
        <ele>283</ele>
        <time>2011-07-31T07:13:28Z</time>
      </trkpt>
      <trkpt lat="49.19732" lon="6.93908">
        <ele>283</ele>
        <time>2011-07-31T07:13:29Z</time>
      </trkpt>
      <trkpt lat="49.1973" lon="6.9391">
        <ele>283</ele>
        <time>2011-07-31T07:13:31Z</time>
      </trkpt>
      <trkpt lat="49.19728" lon="6.93911">
        <ele>283</ele>
        <time>2011-07-31T07:13:32Z</time>
      </trkpt>
      <trkpt lat="49.19727" lon="6.93912">
        <ele>283</ele>
        <time>2011-07-31T07:13:33Z</time>
      </trkpt>
      <trkpt lat="49.19726" lon="6.93914">
        <ele>283</ele>
        <time>2011-07-31T07:13:34Z</time>
      </trkpt>
      <trkpt lat="49.19724" lon="6.93917">
        <ele>283</ele>
        <time>2011-07-31T07:13:36Z</time>
      </trkpt>
      <trkpt lat="49.19722" lon="6.93917">
        <ele>283</ele>
        <time>2011-07-31T07:13:37Z</time>
      </trkpt>
      <trkpt lat="49.19721" lon="6.93918">
        <ele>282</ele>
        <time>2011-07-31T07:13:39Z</time>
      </trkpt>
      <trkpt lat="49.1972" lon="6.9392">
        <ele>282</ele>
        <time>2011-07-31T07:13:40Z</time>
      </trkpt>
      <trkpt lat="49.19719" lon="6.93922">
        <ele>282</ele>
        <time>2011-07-31T07:13:42Z</time>
      </trkpt>
      <trkpt lat="49.19717" lon="6.93923">
        <ele>282</ele>
        <time>2011-07-31T07:13:43Z</time>
      </trkpt>
      <trkpt lat="49.19715" lon="6.93922">
        <ele>282</ele>
        <time>2011-07-31T07:13:44Z</time>
      </trkpt>
      <trkpt lat="49.19713" lon="6.93923">
        <ele>282</ele>
        <time>2011-07-31T07:13:45Z</time>
      </trkpt>
      <trkpt lat="49.19712" lon="6.93924">
        <ele>282</ele>
        <time>2011-07-31T07:13:46Z</time>
      </trkpt>
      <trkpt lat="49.19711" lon="6.93924">
        <ele>282</ele>
        <time>2011-07-31T07:13:47Z</time>
      </trkpt>
      <trkpt lat="49.19709" lon="6.93923">
        <ele>282</ele>
        <time>2011-07-31T07:13:50Z</time>
      </trkpt>
      <trkpt lat="49.19708" lon="6.93925">
        <ele>282</ele>
        <time>2011-07-31T07:13:54Z</time>
      </trkpt>
      <trkpt lat="49.19707" lon="6.93927">
        <ele>282</ele>
        <time>2011-07-31T07:13:55Z</time>
      </trkpt>
      <trkpt lat="49.19706" lon="6.93929">
        <ele>282</ele>
        <time>2011-07-31T07:13:56Z</time>
      </trkpt>
      <trkpt lat="49.19704" lon="6.9393">
        <ele>281</ele>
        <time>2011-07-31T07:13:57Z</time>
      </trkpt>
      <trkpt lat="49.19703" lon="6.93929">
        <ele>281</ele>
        <time>2011-07-31T07:14:02Z</time>
      </trkpt>
      <trkpt lat="49.19702" lon="6.93928">
        <ele>281</ele>
        <time>2011-07-31T07:14:05Z</time>
      </trkpt>
      <trkpt lat="49.197" lon="6.93928">
        <ele>281</ele>
        <time>2011-07-31T07:14:09Z</time>
      </trkpt>
      <trkpt lat="49.19698" lon="6.93928">
        <ele>281</ele>
        <time>2011-07-31T07:14:10Z</time>
      </trkpt>
      <trkpt lat="49.19697" lon="6.93927">
        <ele>281</ele>
        <time>2011-07-31T07:14:11Z</time>
      </trkpt>
      <trkpt lat="49.19694" lon="6.93927">
        <ele>281</ele>
        <time>2011-07-31T07:14:13Z</time>
      </trkpt>
      <trkpt lat="49.19691" lon="6.93927">
        <ele>281</ele>
        <time>2011-07-31T07:14:14Z</time>
      </trkpt>
      <trkpt lat="49.19689" lon="6.93926">
        <ele>281</ele>
        <time>2011-07-31T07:14:15Z</time>
      </trkpt>
      <trkpt lat="49.19687" lon="6.93925">
        <ele>281</ele>
        <time>2011-07-31T07:14:16Z</time>
      </trkpt>
      <trkpt lat="49.19686" lon="6.93924">
        <ele>281</ele>
        <time>2011-07-31T07:14:17Z</time>
      </trkpt>
      <trkpt lat="49.19684" lon="6.93924">
        <ele>281</ele>
        <time>2011-07-31T07:14:18Z</time>
      </trkpt>
      <trkpt lat="49.19682" lon="6.93923">
        <ele>281</ele>
        <time>2011-07-31T07:14:19Z</time>
      </trkpt>
      <trkpt lat="49.1968" lon="6.93924">
        <ele>281</ele>
        <time>2011-07-31T07:14:20Z</time>
      </trkpt>
      <trkpt lat="49.19678" lon="6.93924">
        <ele>281</ele>
        <time>2011-07-31T07:14:22Z</time>
      </trkpt>
      <trkpt lat="49.19677" lon="6.93924">
        <ele>281</ele>
        <time>2011-07-31T07:14:23Z</time>
      </trkpt>
      <trkpt lat="49.19675" lon="6.93924">
        <ele>281</ele>
        <time>2011-07-31T07:14:24Z</time>
      </trkpt>
      <trkpt lat="49.19673" lon="6.93922">
        <ele>281</ele>
        <time>2011-07-31T07:14:26Z</time>
      </trkpt>
      <trkpt lat="49.19672" lon="6.93921">
        <ele>281</ele>
        <time>2011-07-31T07:14:27Z</time>
      </trkpt>
      <trkpt lat="49.1967" lon="6.93921">
        <ele>281</ele>
        <time>2011-07-31T07:14:28Z</time>
      </trkpt>
      <trkpt lat="49.19668" lon="6.93921">
        <ele>281</ele>
        <time>2011-07-31T07:14:29Z</time>
      </trkpt>
      <trkpt lat="49.19667" lon="6.9392">
        <ele>281</ele>
        <time>2011-07-31T07:14:30Z</time>
      </trkpt>
      <trkpt lat="49.19665" lon="6.9392">
        <ele>281</ele>
        <time>2011-07-31T07:14:31Z</time>
      </trkpt>
      <trkpt lat="49.19663" lon="6.93918">
        <ele>281</ele>
        <time>2011-07-31T07:14:33Z</time>
      </trkpt>
      <trkpt lat="49.19662" lon="6.93918">
        <ele>281</ele>
        <time>2011-07-31T07:14:34Z</time>
      </trkpt>
      <trkpt lat="49.19659" lon="6.93917">
        <ele>281</ele>
        <time>2011-07-31T07:14:36Z</time>
      </trkpt>
      <trkpt lat="49.19658" lon="6.93917">
        <ele>281</ele>
        <time>2011-07-31T07:14:37Z</time>
      </trkpt>
      <trkpt lat="49.19656" lon="6.93917">
        <ele>281</ele>
        <time>2011-07-31T07:14:38Z</time>
      </trkpt>
      <trkpt lat="49.19655" lon="6.93917">
        <ele>281</ele>
        <time>2011-07-31T07:14:39Z</time>
      </trkpt>
      <trkpt lat="49.19653" lon="6.93918">
        <ele>281</ele>
        <time>2011-07-31T07:14:40Z</time>
      </trkpt>
      <trkpt lat="49.19651" lon="6.93917">
        <ele>281</ele>
        <time>2011-07-31T07:14:43Z</time>
      </trkpt>
      <trkpt lat="49.19651" lon="6.93915">
        <ele>281</ele>
        <time>2011-07-31T07:14:45Z</time>
      </trkpt>
      <trkpt lat="49.1965" lon="6.93915">
        <ele>282</ele>
        <time>2011-07-31T07:14:46Z</time>
      </trkpt>
      <trkpt lat="49.19648" lon="6.93915">
        <ele>282</ele>
        <time>2011-07-31T07:14:47Z</time>
      </trkpt>
      <trkpt lat="49.19646" lon="6.93916">
        <ele>282</ele>
        <time>2011-07-31T07:14:48Z</time>
      </trkpt>
      <trkpt lat="49.19645" lon="6.93915">
        <ele>283</ele>
        <time>2011-07-31T07:14:49Z</time>
      </trkpt>
      <trkpt lat="49.19643" lon="6.93915">
        <ele>283</ele>
        <time>2011-07-31T07:14:51Z</time>
      </trkpt>
      <trkpt lat="49.19641" lon="6.93915">
        <ele>283</ele>
        <time>2011-07-31T07:14:52Z</time>
      </trkpt>
      <trkpt lat="49.1964" lon="6.93915">
        <ele>283</ele>
        <time>2011-07-31T07:14:53Z</time>
      </trkpt>
      <trkpt lat="49.19639" lon="6.93916">
        <ele>283</ele>
        <time>2011-07-31T07:14:54Z</time>
      </trkpt>
      <trkpt lat="49.19637" lon="6.93917">
        <ele>283</ele>
        <time>2011-07-31T07:14:55Z</time>
      </trkpt>
      <trkpt lat="49.19635" lon="6.93917">
        <ele>283</ele>
        <time>2011-07-31T07:14:56Z</time>
      </trkpt>
      <trkpt lat="49.19634" lon="6.93918">
        <ele>283</ele>
        <time>2011-07-31T07:14:58Z</time>
      </trkpt>
      <trkpt lat="49.19632" lon="6.93919">
        <ele>283</ele>
        <time>2011-07-31T07:15:00Z</time>
      </trkpt>
      <trkpt lat="49.1963" lon="6.93918">
        <ele>283</ele>
        <time>2011-07-31T07:15:02Z</time>
      </trkpt>
      <trkpt lat="49.19627" lon="6.93915">
        <ele>283</ele>
        <time>2011-07-31T07:15:06Z</time>
      </trkpt>
      <trkpt lat="49.19624" lon="6.93914">
        <ele>283</ele>
        <time>2011-07-31T07:15:07Z</time>
      </trkpt>
      <trkpt lat="49.19621" lon="6.93913">
        <ele>283</ele>
        <time>2011-07-31T07:15:08Z</time>
      </trkpt>
      <trkpt lat="49.1962" lon="6.93914">
        <ele>283</ele>
        <time>2011-07-31T07:15:09Z</time>
      </trkpt>
      <trkpt lat="49.19618" lon="6.93914">
        <ele>283</ele>
        <time>2011-07-31T07:15:11Z</time>
      </trkpt>
      <trkpt lat="49.19617" lon="6.93913">
        <ele>283</ele>
        <time>2011-07-31T07:15:13Z</time>
      </trkpt>
      <trkpt lat="49.19615" lon="6.93915">
        <ele>283</ele>
        <time>2011-07-31T07:15:15Z</time>
      </trkpt>
      <trkpt lat="49.19614" lon="6.93916">
        <ele>283</ele>
        <time>2011-07-31T07:15:19Z</time>
      </trkpt>
      <trkpt lat="49.19612" lon="6.93916">
        <ele>283</ele>
        <time>2011-07-31T07:15:21Z</time>
      </trkpt>
      <trkpt lat="49.1961" lon="6.93915">
        <ele>284</ele>
        <time>2011-07-31T07:15:23Z</time>
      </trkpt>
      <trkpt lat="49.19608" lon="6.93915">
        <ele>284</ele>
        <time>2011-07-31T07:15:24Z</time>
      </trkpt>
      <trkpt lat="49.19607" lon="6.93915">
        <ele>284</ele>
        <time>2011-07-31T07:15:25Z</time>
      </trkpt>
      <trkpt lat="49.19606" lon="6.93915">
        <ele>284</ele>
        <time>2011-07-31T07:15:26Z</time>
      </trkpt>
      <trkpt lat="49.19603" lon="6.93914">
        <ele>285</ele>
        <time>2011-07-31T07:15:29Z</time>
      </trkpt>
      <trkpt lat="49.19601" lon="6.93913">
        <ele>285</ele>
        <time>2011-07-31T07:15:30Z</time>
      </trkpt>
      <trkpt lat="49.196" lon="6.93914">
        <ele>285</ele>
        <time>2011-07-31T07:15:31Z</time>
      </trkpt>
      <trkpt lat="49.19598" lon="6.93914">
        <ele>285</ele>
        <time>2011-07-31T07:15:32Z</time>
      </trkpt>
      <trkpt lat="49.19597" lon="6.93913">
        <ele>285</ele>
        <time>2011-07-31T07:15:33Z</time>
      </trkpt>
      <trkpt lat="49.19596" lon="6.93913">
        <ele>285</ele>
        <time>2011-07-31T07:15:34Z</time>
      </trkpt>
      <trkpt lat="49.19594" lon="6.93913">
        <ele>285</ele>
        <time>2011-07-31T07:15:35Z</time>
      </trkpt>
      <trkpt lat="49.19593" lon="6.93913">
        <ele>285</ele>
        <time>2011-07-31T07:15:38Z</time>
      </trkpt>
      <trkpt lat="49.19591" lon="6.93914">
        <ele>285</ele>
        <time>2011-07-31T07:15:39Z</time>
      </trkpt>
      <trkpt lat="49.19589" lon="6.93914">
        <ele>285</ele>
        <time>2011-07-31T07:15:40Z</time>
      </trkpt>
      <trkpt lat="49.19587" lon="6.93914">
        <ele>285</ele>
        <time>2011-07-31T07:15:41Z</time>
      </trkpt>
      <trkpt lat="49.19585" lon="6.93914">
        <ele>285</ele>
        <time>2011-07-31T07:15:42Z</time>
      </trkpt>
      <trkpt lat="49.19584" lon="6.93914">
        <ele>285</ele>
        <time>2011-07-31T07:15:44Z</time>
      </trkpt>
      <trkpt lat="49.19582" lon="6.93913">
        <ele>285</ele>
        <time>2011-07-31T07:15:46Z</time>
      </trkpt>
      <trkpt lat="49.1958" lon="6.93913">
        <ele>285</ele>
        <time>2011-07-31T07:15:48Z</time>
      </trkpt>
      <trkpt lat="49.19579" lon="6.93911">
        <ele>285</ele>
        <time>2011-07-31T07:15:50Z</time>
      </trkpt>
      <trkpt lat="49.19578" lon="6.93912">
        <ele>285</ele>
        <time>2011-07-31T07:15:51Z</time>
      </trkpt>
      <trkpt lat="49.19576" lon="6.93913">
        <ele>285</ele>
        <time>2011-07-31T07:15:52Z</time>
      </trkpt>
      <trkpt lat="49.19574" lon="6.93913">
        <ele>285</ele>
        <time>2011-07-31T07:15:54Z</time>
      </trkpt>
      <trkpt lat="49.19573" lon="6.93911">
        <ele>285</ele>
        <time>2011-07-31T07:15:56Z</time>
      </trkpt>
      <trkpt lat="49.19571" lon="6.93911">
        <ele>286</ele>
        <time>2011-07-31T07:15:58Z</time>
      </trkpt>
      <trkpt lat="49.19568" lon="6.93912">
        <ele>286</ele>
        <time>2011-07-31T07:16:00Z</time>
      </trkpt>
      <trkpt lat="49.19567" lon="6.93913">
        <ele>287</ele>
        <time>2011-07-31T07:16:02Z</time>
      </trkpt>
      <trkpt lat="49.19565" lon="6.93913">
        <ele>287</ele>
        <time>2011-07-31T07:16:03Z</time>
      </trkpt>
      <trkpt lat="49.19563" lon="6.93915">
        <ele>287</ele>
        <time>2011-07-31T07:16:04Z</time>
      </trkpt>
      <trkpt lat="49.19561" lon="6.93915">
        <ele>287</ele>
        <time>2011-07-31T07:16:06Z</time>
      </trkpt>
      <trkpt lat="49.1956" lon="6.93915">
        <ele>287</ele>
        <time>2011-07-31T07:16:07Z</time>
      </trkpt>
      <trkpt lat="49.19558" lon="6.93916">
        <ele>287</ele>
        <time>2011-07-31T07:16:08Z</time>
      </trkpt>
      <trkpt lat="49.19556" lon="6.93917">
        <ele>287</ele>
        <time>2011-07-31T07:16:09Z</time>
      </trkpt>
      <trkpt lat="49.19554" lon="6.93917">
        <ele>287</ele>
        <time>2011-07-31T07:16:11Z</time>
      </trkpt>
      <trkpt lat="49.19553" lon="6.93918">
        <ele>287</ele>
        <time>2011-07-31T07:16:12Z</time>
      </trkpt>
      <trkpt lat="49.19551" lon="6.93917">
        <ele>287</ele>
        <time>2011-07-31T07:16:15Z</time>
      </trkpt>
      <trkpt lat="49.1955" lon="6.93916">
        <ele>287</ele>
        <time>2011-07-31T07:16:16Z</time>
      </trkpt>
      <trkpt lat="49.19548" lon="6.93917">
        <ele>287</ele>
        <time>2011-07-31T07:16:19Z</time>
      </trkpt>
      <trkpt lat="49.19546" lon="6.93918">
        <ele>287</ele>
        <time>2011-07-31T07:16:21Z</time>
      </trkpt>
      <trkpt lat="49.19543" lon="6.93919">
        <ele>287</ele>
        <time>2011-07-31T07:16:22Z</time>
      </trkpt>
      <trkpt lat="49.19542" lon="6.9392">
        <ele>287</ele>
        <time>2011-07-31T07:16:23Z</time>
      </trkpt>
      <trkpt lat="49.19541" lon="6.9392">
        <ele>287</ele>
        <time>2011-07-31T07:16:24Z</time>
      </trkpt>
      <trkpt lat="49.19539" lon="6.9392">
        <ele>287</ele>
        <time>2011-07-31T07:16:25Z</time>
      </trkpt>
      <trkpt lat="49.19537" lon="6.93921">
        <ele>287</ele>
        <time>2011-07-31T07:16:26Z</time>
      </trkpt>
      <trkpt lat="49.19535" lon="6.93922">
        <ele>287</ele>
        <time>2011-07-31T07:16:27Z</time>
      </trkpt>
      <trkpt lat="49.19534" lon="6.93921">
        <ele>287</ele>
        <time>2011-07-31T07:16:30Z</time>
      </trkpt>
      <trkpt lat="49.19532" lon="6.93923">
        <ele>287</ele>
        <time>2011-07-31T07:16:31Z</time>
      </trkpt>
      <trkpt lat="49.19529" lon="6.93923">
        <ele>287</ele>
        <time>2011-07-31T07:16:32Z</time>
      </trkpt>
      <trkpt lat="49.19527" lon="6.93924">
        <ele>287</ele>
        <time>2011-07-31T07:16:34Z</time>
      </trkpt>
      <trkpt lat="49.19524" lon="6.93925">
        <ele>287</ele>
        <time>2011-07-31T07:16:35Z</time>
      </trkpt>
      <trkpt lat="49.19521" lon="6.93926">
        <ele>287</ele>
        <time>2011-07-31T07:16:36Z</time>
      </trkpt>
      <trkpt lat="49.19519" lon="6.93927">
        <ele>287</ele>
        <time>2011-07-31T07:16:37Z</time>
      </trkpt>
      <trkpt lat="49.19516" lon="6.93927">
        <ele>287</ele>
        <time>2011-07-31T07:16:38Z</time>
      </trkpt>
      <trkpt lat="49.19514" lon="6.93926">
        <ele>287</ele>
        <time>2011-07-31T07:16:40Z</time>
      </trkpt>
      <trkpt lat="49.19512" lon="6.93927">
        <ele>287</ele>
        <time>2011-07-31T07:16:42Z</time>
      </trkpt>
      <trkpt lat="49.1951" lon="6.93926">
        <ele>287</ele>
        <time>2011-07-31T07:16:43Z</time>
      </trkpt>
      <trkpt lat="49.19508" lon="6.93928">
        <ele>287</ele>
        <time>2011-07-31T07:16:45Z</time>
      </trkpt>
      <trkpt lat="49.19506" lon="6.93929">
        <ele>287</ele>
        <time>2011-07-31T07:16:46Z</time>
      </trkpt>
      <trkpt lat="49.19504" lon="6.9393">
        <ele>287</ele>
        <time>2011-07-31T07:16:48Z</time>
      </trkpt>
      <trkpt lat="49.19503" lon="6.9393">
        <ele>287</ele>
        <time>2011-07-31T07:16:49Z</time>
      </trkpt>
      <trkpt lat="49.19502" lon="6.93931">
        <ele>287</ele>
        <time>2011-07-31T07:16:51Z</time>
      </trkpt>
      <trkpt lat="49.195" lon="6.93931">
        <ele>287</ele>
        <time>2011-07-31T07:16:52Z</time>
      </trkpt>
      <trkpt lat="49.19498" lon="6.93933">
        <ele>287</ele>
        <time>2011-07-31T07:16:54Z</time>
      </trkpt>
      <trkpt lat="49.19496" lon="6.93935">
        <ele>287</ele>
        <time>2011-07-31T07:16:55Z</time>
      </trkpt>
      <trkpt lat="49.19495" lon="6.93937">
        <ele>287</ele>
        <time>2011-07-31T07:16:57Z</time>
      </trkpt>
      <trkpt lat="49.19495" lon="6.9394">
        <ele>287</ele>
        <time>2011-07-31T07:17:00Z</time>
      </trkpt>
      <trkpt lat="49.19496" lon="6.93942">
        <ele>289</ele>
        <time>2011-07-31T07:17:02Z</time>
      </trkpt>
      <trkpt lat="49.19495" lon="6.93944">
        <ele>291</ele>
        <time>2011-07-31T07:17:04Z</time>
      </trkpt>
      <trkpt lat="49.19493" lon="6.93944">
        <ele>292</ele>
        <time>2011-07-31T07:17:05Z</time>
      </trkpt>
      <trkpt lat="49.19492" lon="6.93945">
        <ele>293</ele>
        <time>2011-07-31T07:17:06Z</time>
      </trkpt>
      <trkpt lat="49.1949" lon="6.93947">
        <ele>293</ele>
        <time>2011-07-31T07:17:07Z</time>
      </trkpt>
      <trkpt lat="49.19488" lon="6.93948">
        <ele>293</ele>
        <time>2011-07-31T07:17:08Z</time>
      </trkpt>
      <trkpt lat="49.19486" lon="6.9395">
        <ele>293</ele>
        <time>2011-07-31T07:17:10Z</time>
      </trkpt>
      <trkpt lat="49.19485" lon="6.93952">
        <ele>293</ele>
        <time>2011-07-31T07:17:11Z</time>
      </trkpt>
      <trkpt lat="49.19484" lon="6.93954">
        <ele>294</ele>
        <time>2011-07-31T07:17:13Z</time>
      </trkpt>
      <trkpt lat="49.19482" lon="6.93955">
        <ele>295</ele>
        <time>2011-07-31T07:17:14Z</time>
      </trkpt>
      <trkpt lat="49.19481" lon="6.93956">
        <ele>295</ele>
        <time>2011-07-31T07:17:15Z</time>
      </trkpt>
      <trkpt lat="49.1948" lon="6.93957">
        <ele>295</ele>
        <time>2011-07-31T07:17:16Z</time>
      </trkpt>
      <trkpt lat="49.19479" lon="6.9396">
        <ele>295</ele>
        <time>2011-07-31T07:17:18Z</time>
      </trkpt>
      <trkpt lat="49.19478" lon="6.93963">
        <ele>296</ele>
        <time>2011-07-31T07:17:20Z</time>
      </trkpt>
      <trkpt lat="49.19477" lon="6.93964">
        <ele>297</ele>
        <time>2011-07-31T07:17:21Z</time>
      </trkpt>
      <trkpt lat="49.19476" lon="6.93965">
        <ele>297</ele>
        <time>2011-07-31T07:17:22Z</time>
      </trkpt>
      <trkpt lat="49.19474" lon="6.93967">
        <ele>297</ele>
        <time>2011-07-31T07:17:23Z</time>
      </trkpt>
      <trkpt lat="49.19472" lon="6.93969">
        <ele>297</ele>
        <time>2011-07-31T07:17:25Z</time>
      </trkpt>
      <trkpt lat="49.1947" lon="6.93971">
        <ele>299</ele>
        <time>2011-07-31T07:17:27Z</time>
      </trkpt>
      <trkpt lat="49.19469" lon="6.93972">
        <ele>300</ele>
        <time>2011-07-31T07:17:28Z</time>
      </trkpt>
      <trkpt lat="49.19468" lon="6.93974">
        <ele>302</ele>
        <time>2011-07-31T07:17:30Z</time>
      </trkpt>
      <trkpt lat="49.19467" lon="6.93976">
        <ele>303</ele>
        <time>2011-07-31T07:17:31Z</time>
      </trkpt>
      <trkpt lat="49.19466" lon="6.93977">
        <ele>304</ele>
        <time>2011-07-31T07:17:32Z</time>
      </trkpt>
      <trkpt lat="49.19466" lon="6.9398">
        <ele>306</ele>
        <time>2011-07-31T07:17:34Z</time>
      </trkpt>
      <trkpt lat="49.19465" lon="6.93982">
        <ele>306</ele>
        <time>2011-07-31T07:17:35Z</time>
      </trkpt>
      <trkpt lat="49.19465" lon="6.93984">
        <ele>306</ele>
        <time>2011-07-31T07:17:36Z</time>
      </trkpt>
      <trkpt lat="49.19464" lon="6.93986">
        <ele>306</ele>
        <time>2011-07-31T07:17:37Z</time>
      </trkpt>
      <trkpt lat="49.19464" lon="6.93988">
        <ele>307</ele>
        <time>2011-07-31T07:17:39Z</time>
      </trkpt>
      <trkpt lat="49.19465" lon="6.93991">
        <ele>309</ele>
        <time>2011-07-31T07:17:41Z</time>
      </trkpt>
      <trkpt lat="49.19466" lon="6.93995">
        <ele>311</ele>
        <time>2011-07-31T07:17:43Z</time>
      </trkpt>
      <trkpt lat="49.19468" lon="6.93997">
        <ele>313</ele>
        <time>2011-07-31T07:17:45Z</time>
      </trkpt>
      <trkpt lat="49.19467" lon="6.94">
        <ele>315</ele>
        <time>2011-07-31T07:17:47Z</time>
      </trkpt>
      <trkpt lat="49.19467" lon="6.94003">
        <ele>316</ele>
        <time>2011-07-31T07:17:48Z</time>
      </trkpt>
      <trkpt lat="49.19468" lon="6.94004">
        <ele>318</ele>
        <time>2011-07-31T07:17:50Z</time>
      </trkpt>
      <trkpt lat="49.19469" lon="6.94006">
        <ele>320</ele>
        <time>2011-07-31T07:17:52Z</time>
      </trkpt>
      <trkpt lat="49.1947" lon="6.94007">
        <ele>322</ele>
        <time>2011-07-31T07:17:54Z</time>
      </trkpt>
      <trkpt lat="49.19468" lon="6.94009">
        <ele>321</ele>
        <time>2011-07-31T07:18:01Z</time>
      </trkpt>
      <trkpt lat="49.19467" lon="6.94008">
        <ele>320</ele>
        <time>2011-07-31T07:18:02Z</time>
      </trkpt>
      <trkpt lat="49.19467" lon="6.94011">
        <ele>312</ele>
        <time>2011-07-31T07:18:07Z</time>
      </trkpt>
      <trkpt lat="49.19468" lon="6.94014">
        <ele>309</ele>
        <time>2011-07-31T07:18:09Z</time>
      </trkpt>
      <trkpt lat="49.19469" lon="6.94016">
        <ele>303</ele>
        <time>2011-07-31T07:18:12Z</time>
      </trkpt>
      <trkpt lat="49.19471" lon="6.94018">
        <ele>300</ele>
        <time>2011-07-31T07:18:15Z</time>
      </trkpt>
      <trkpt lat="49.19473" lon="6.9402">
        <ele>297</ele>
        <time>2011-07-31T07:18:18Z</time>
      </trkpt>
      <trkpt lat="49.19474" lon="6.94021">
        <ele>296</ele>
        <time>2011-07-31T07:18:20Z</time>
      </trkpt>
      <trkpt lat="49.19478" lon="6.94021">
        <ele>296</ele>
        <time>2011-07-31T07:18:22Z</time>
      </trkpt>
      <trkpt lat="49.19481" lon="6.9402">
        <ele>296</ele>
        <time>2011-07-31T07:18:24Z</time>
      </trkpt>
      <trkpt lat="49.19482" lon="6.94018">
        <ele>296</ele>
        <time>2011-07-31T07:18:27Z</time>
      </trkpt>
      <trkpt lat="49.19484" lon="6.94017">
        <ele>296</ele>
        <time>2011-07-31T07:18:28Z</time>
      </trkpt>
      <trkpt lat="49.19486" lon="6.94017">
        <ele>296</ele>
        <time>2011-07-31T07:18:29Z</time>
      </trkpt>
      <trkpt lat="49.19487" lon="6.94017">
        <ele>295</ele>
        <time>2011-07-31T07:18:31Z</time>
      </trkpt>
      <trkpt lat="49.19487" lon="6.94019">
        <ele>294</ele>
        <time>2011-07-31T07:18:33Z</time>
      </trkpt>
      <trkpt lat="49.19486" lon="6.94021">
        <ele>293</ele>
        <time>2011-07-31T07:18:35Z</time>
      </trkpt>
      <trkpt lat="49.19485" lon="6.94021">
        <ele>292</ele>
        <time>2011-07-31T07:18:36Z</time>
      </trkpt>
      <trkpt lat="49.19485" lon="6.94019">
        <ele>290</ele>
        <time>2011-07-31T07:18:39Z</time>
      </trkpt>
      <trkpt lat="49.19487" lon="6.94017">
        <ele>290</ele>
        <time>2011-07-31T07:18:40Z</time>
      </trkpt>
      <trkpt lat="49.19489" lon="6.94015">
        <ele>290</ele>
        <time>2011-07-31T07:18:42Z</time>
      </trkpt>
      <trkpt lat="49.1949" lon="6.94015">
        <ele>289</ele>
        <time>2011-07-31T07:18:43Z</time>
      </trkpt>
      <trkpt lat="49.19492" lon="6.94013">
        <ele>287</ele>
        <time>2011-07-31T07:18:46Z</time>
      </trkpt>
      <trkpt lat="49.19493" lon="6.94011">
        <ele>286</ele>
        <time>2011-07-31T07:18:48Z</time>
      </trkpt>
      <trkpt lat="49.19494" lon="6.9401">
        <ele>286</ele>
        <time>2011-07-31T07:18:49Z</time>
      </trkpt>
      <trkpt lat="49.19495" lon="6.9401">
        <ele>286</ele>
        <time>2011-07-31T07:18:51Z</time>
      </trkpt>
      <trkpt lat="49.19497" lon="6.94011">
        <ele>286</ele>
        <time>2011-07-31T07:18:52Z</time>
      </trkpt>
      <trkpt lat="49.19497" lon="6.94013">
        <ele>286</ele>
        <time>2011-07-31T07:18:53Z</time>
      </trkpt>
      <trkpt lat="49.19498" lon="6.94016">
        <ele>287</ele>
        <time>2011-07-31T07:18:54Z</time>
      </trkpt>
      <trkpt lat="49.195" lon="6.94018">
        <ele>288</ele>
        <time>2011-07-31T07:18:55Z</time>
      </trkpt>
      <trkpt lat="49.19501" lon="6.94019">
        <ele>289</ele>
        <time>2011-07-31T07:18:56Z</time>
      </trkpt>
      <trkpt lat="49.19502" lon="6.9402">
        <ele>290</ele>
        <time>2011-07-31T07:18:57Z</time>
      </trkpt>
      <trkpt lat="49.19503" lon="6.94022">
        <ele>291</ele>
        <time>2011-07-31T07:18:58Z</time>
      </trkpt>
      <trkpt lat="49.19505" lon="6.94023">
        <ele>293</ele>
        <time>2011-07-31T07:19:00Z</time>
      </trkpt>
      <trkpt lat="49.19507" lon="6.94024">
        <ele>293</ele>
        <time>2011-07-31T07:19:02Z</time>
      </trkpt>
      <trkpt lat="49.19508" lon="6.94025">
        <ele>293</ele>
        <time>2011-07-31T07:19:03Z</time>
      </trkpt>
      <trkpt lat="49.1951" lon="6.94026">
        <ele>293</ele>
        <time>2011-07-31T07:19:04Z</time>
      </trkpt>
      <trkpt lat="49.19512" lon="6.94027">
        <ele>293</ele>
        <time>2011-07-31T07:19:06Z</time>
      </trkpt>
      <trkpt lat="49.19513" lon="6.94027">
        <ele>293</ele>
        <time>2011-07-31T07:19:08Z</time>
      </trkpt>
      <trkpt lat="49.19511" lon="6.94028">
        <ele>293</ele>
        <time>2011-07-31T07:19:12Z</time>
      </trkpt>
      <trkpt lat="49.19513" lon="6.94028">
        <ele>288</ele>
        <time>2011-07-31T07:19:23Z</time>
      </trkpt>
      <trkpt lat="49.19514" lon="6.94027">
        <ele>287</ele>
        <time>2011-07-31T07:19:27Z</time>
      </trkpt>
      <trkpt lat="49.19516" lon="6.94025">
        <ele>287</ele>
        <time>2011-07-31T07:19:32Z</time>
      </trkpt>
      <trkpt lat="49.19517" lon="6.94025">
        <ele>287</ele>
        <time>2011-07-31T07:19:37Z</time>
      </trkpt>
      <trkpt lat="49.19519" lon="6.94024">
        <ele>287</ele>
        <time>2011-07-31T07:19:40Z</time>
      </trkpt>
      <trkpt lat="49.19518" lon="6.94024">
        <ele>287</ele>
        <time>2011-07-31T07:19:42Z</time>
      </trkpt>
      <trkpt lat="49.19519" lon="6.94024">
        <ele>287</ele>
        <time>2011-07-31T07:19:45Z</time>
      </trkpt>
      <trkpt lat="49.19518" lon="6.94024">
        <ele>287</ele>
        <time>2011-07-31T07:19:59Z</time>
      </trkpt>
      <trkpt lat="49.19519" lon="6.94025">
        <ele>289</ele>
        <time>2011-07-31T07:20:13Z</time>
      </trkpt>
      <trkpt lat="49.1952" lon="6.94025">
        <ele>289</ele>
        <time>2011-07-31T07:20:15Z</time>
      </trkpt>
      <trkpt lat="49.19521" lon="6.94025">
        <ele>289</ele>
        <time>2011-07-31T07:20:16Z</time>
      </trkpt>
      <trkpt lat="49.19523" lon="6.94024">
        <ele>289</ele>
        <time>2011-07-31T07:20:17Z</time>
      </trkpt>
      <trkpt lat="49.19524" lon="6.94023">
        <ele>289</ele>
        <time>2011-07-31T07:20:18Z</time>
      </trkpt>
      <trkpt lat="49.19525" lon="6.94023">
        <ele>289</ele>
        <time>2011-07-31T07:20:20Z</time>
      </trkpt>
      <trkpt lat="49.19527" lon="6.94022">
        <ele>289</ele>
        <time>2011-07-31T07:20:22Z</time>
      </trkpt>
      <trkpt lat="49.19529" lon="6.94021">
        <ele>289</ele>
        <time>2011-07-31T07:20:23Z</time>
      </trkpt>
      <trkpt lat="49.1953" lon="6.94021">
        <ele>289</ele>
        <time>2011-07-31T07:20:24Z</time>
      </trkpt>
      <trkpt lat="49.19532" lon="6.94019">
        <ele>289</ele>
        <time>2011-07-31T07:20:26Z</time>
      </trkpt>
      <trkpt lat="49.1953" lon="6.9402">
        <ele>289</ele>
        <time>2011-07-31T07:20:32Z</time>
      </trkpt>
      <trkpt lat="49.19529" lon="6.94021">
        <ele>287</ele>
        <time>2011-07-31T07:20:34Z</time>
      </trkpt>
      <trkpt lat="49.1953" lon="6.94021">
        <ele>284</ele>
        <time>2011-07-31T07:20:37Z</time>
      </trkpt>
      <trkpt lat="49.19532" lon="6.94021">
        <ele>282</ele>
        <time>2011-07-31T07:20:39Z</time>
      </trkpt>
      <trkpt lat="49.19534" lon="6.94023">
        <ele>280</ele>
        <time>2011-07-31T07:20:41Z</time>
      </trkpt>
      <trkpt lat="49.19535" lon="6.94024">
        <ele>279</ele>
        <time>2011-07-31T07:20:43Z</time>
      </trkpt>
      <trkpt lat="49.19537" lon="6.94027">
        <ele>279</ele>
        <time>2011-07-31T07:20:45Z</time>
      </trkpt>
      <trkpt lat="49.19538" lon="6.9403">
        <ele>279</ele>
        <time>2011-07-31T07:20:47Z</time>
      </trkpt>
      <trkpt lat="49.1954" lon="6.94032">
        <ele>279</ele>
        <time>2011-07-31T07:20:49Z</time>
      </trkpt>
      <trkpt lat="49.19541" lon="6.94034">
        <ele>279</ele>
        <time>2011-07-31T07:20:51Z</time>
      </trkpt>
      <trkpt lat="49.19541" lon="6.94036">
        <ele>279</ele>
        <time>2011-07-31T07:20:52Z</time>
      </trkpt>
      <trkpt lat="49.19542" lon="6.94037">
        <ele>279</ele>
        <time>2011-07-31T07:20:53Z</time>
      </trkpt>
      <trkpt lat="49.19543" lon="6.94039">
        <ele>279</ele>
        <time>2011-07-31T07:20:54Z</time>
      </trkpt>
      <trkpt lat="49.19545" lon="6.94042">
        <ele>279</ele>
        <time>2011-07-31T07:20:56Z</time>
      </trkpt>
      <trkpt lat="49.19547" lon="6.94043">
        <ele>279</ele>
        <time>2011-07-31T07:20:57Z</time>
      </trkpt>
      <trkpt lat="49.19546" lon="6.94045">
        <ele>279</ele>
        <time>2011-07-31T07:21:03Z</time>
      </trkpt>
      <trkpt lat="49.19547" lon="6.94045">
        <ele>279</ele>
        <time>2011-07-31T07:21:07Z</time>
      </trkpt>
      <trkpt lat="49.19548" lon="6.94043">
        <ele>282</ele>
        <time>2011-07-31T07:21:13Z</time>
      </trkpt>
      <trkpt lat="49.1955" lon="6.94041">
        <ele>286</ele>
        <time>2011-07-31T07:21:17Z</time>
      </trkpt>
      <trkpt lat="49.1955" lon="6.94043">
        <ele>292</ele>
        <time>2011-07-31T07:21:23Z</time>
      </trkpt>
      <trkpt lat="49.19553" lon="6.94045">
        <ele>292</ele>
        <time>2011-07-31T07:21:26Z</time>
      </trkpt>
      <trkpt lat="49.19554" lon="6.94045">
        <ele>292</ele>
        <time>2011-07-31T07:21:28Z</time>
      </trkpt>
      <trkpt lat="49.19556" lon="6.94047">
        <ele>292</ele>
        <time>2011-07-31T07:21:31Z</time>
      </trkpt>
      <trkpt lat="49.19555" lon="6.9405">
        <ele>292</ele>
        <time>2011-07-31T07:21:33Z</time>
      </trkpt>
      <trkpt lat="49.19553" lon="6.9405">
        <ele>292</ele>
        <time>2011-07-31T07:21:34Z</time>
      </trkpt>
      <trkpt lat="49.19555" lon="6.94052">
        <ele>292</ele>
        <time>2011-07-31T07:21:37Z</time>
      </trkpt>
      <trkpt lat="49.19556" lon="6.94054">
        <ele>292</ele>
        <time>2011-07-31T07:21:39Z</time>
      </trkpt>
      <trkpt lat="49.19557" lon="6.94056">
        <ele>292</ele>
        <time>2011-07-31T07:21:42Z</time>
      </trkpt>
      <trkpt lat="49.19559" lon="6.94057">
        <ele>292</ele>
        <time>2011-07-31T07:21:43Z</time>
      </trkpt>
      <trkpt lat="49.1956" lon="6.94059">
        <ele>292</ele>
        <time>2011-07-31T07:21:45Z</time>
      </trkpt>
      <trkpt lat="49.19562" lon="6.94062">
        <ele>292</ele>
        <time>2011-07-31T07:21:47Z</time>
      </trkpt>
      <trkpt lat="49.19564" lon="6.94063">
        <ele>292</ele>
        <time>2011-07-31T07:21:49Z</time>
      </trkpt>
      <trkpt lat="49.19565" lon="6.94064">
        <ele>292</ele>
        <time>2011-07-31T07:21:50Z</time>
      </trkpt>
      <trkpt lat="49.19567" lon="6.94065">
        <ele>293</ele>
        <time>2011-07-31T07:21:52Z</time>
      </trkpt>
      <trkpt lat="49.19568" lon="6.94066">
        <ele>295</ele>
        <time>2011-07-31T07:21:54Z</time>
      </trkpt>
      <trkpt lat="49.1957" lon="6.94067">
        <ele>296</ele>
        <time>2011-07-31T07:21:56Z</time>
      </trkpt>
      <trkpt lat="49.19571" lon="6.94069">
        <ele>297</ele>
        <time>2011-07-31T07:21:58Z</time>
      </trkpt>
      <trkpt lat="49.19572" lon="6.94071">
        <ele>297</ele>
        <time>2011-07-31T07:21:59Z</time>
      </trkpt>
      <trkpt lat="49.19574" lon="6.94072">
        <ele>297</ele>
        <time>2011-07-31T07:22:00Z</time>
      </trkpt>
      <trkpt lat="49.19576" lon="6.94073">
        <ele>297</ele>
        <time>2011-07-31T07:22:01Z</time>
      </trkpt>
      <trkpt lat="49.19578" lon="6.94074">
        <ele>297</ele>
        <time>2011-07-31T07:22:02Z</time>
      </trkpt>
      <trkpt lat="49.1958" lon="6.94075">
        <ele>297</ele>
        <time>2011-07-31T07:22:03Z</time>
      </trkpt>
      <trkpt lat="49.19581" lon="6.94076">
        <ele>297</ele>
        <time>2011-07-31T07:22:04Z</time>
      </trkpt>
      <trkpt lat="49.19583" lon="6.94076">
        <ele>297</ele>
        <time>2011-07-31T07:22:05Z</time>
      </trkpt>
      <trkpt lat="49.19585" lon="6.94077">
        <ele>297</ele>
        <time>2011-07-31T07:22:07Z</time>
      </trkpt>
      <trkpt lat="49.19586" lon="6.94079">
        <ele>297</ele>
        <time>2011-07-31T07:22:09Z</time>
      </trkpt>
      <trkpt lat="49.19587" lon="6.94079">
        <ele>297</ele>
        <time>2011-07-31T07:22:10Z</time>
      </trkpt>
      <trkpt lat="49.19589" lon="6.94081">
        <ele>297</ele>
        <time>2011-07-31T07:22:12Z</time>
      </trkpt>
      <trkpt lat="49.1959" lon="6.94082">
        <ele>297</ele>
        <time>2011-07-31T07:22:13Z</time>
      </trkpt>
      <trkpt lat="49.19591" lon="6.94083">
        <ele>297</ele>
        <time>2011-07-31T07:22:14Z</time>
      </trkpt>
      <trkpt lat="49.19593" lon="6.94084">
        <ele>297</ele>
        <time>2011-07-31T07:22:15Z</time>
      </trkpt>
      <trkpt lat="49.19596" lon="6.94086">
        <ele>297</ele>
        <time>2011-07-31T07:22:17Z</time>
      </trkpt>
      <trkpt lat="49.19597" lon="6.94088">
        <ele>297</ele>
        <time>2011-07-31T07:22:19Z</time>
      </trkpt>
      <trkpt lat="49.19599" lon="6.94091">
        <ele>297</ele>
        <time>2011-07-31T07:22:21Z</time>
      </trkpt>
      <trkpt lat="49.19601" lon="6.94092">
        <ele>297</ele>
        <time>2011-07-31T07:22:23Z</time>
      </trkpt>
      <trkpt lat="49.19603" lon="6.94094">
        <ele>297</ele>
        <time>2011-07-31T07:22:25Z</time>
      </trkpt>
      <trkpt lat="49.19604" lon="6.94097">
        <ele>297</ele>
        <time>2011-07-31T07:22:27Z</time>
      </trkpt>
      <trkpt lat="49.19606" lon="6.94098">
        <ele>297</ele>
        <time>2011-07-31T07:22:28Z</time>
      </trkpt>
      <trkpt lat="49.19609" lon="6.941">
        <ele>296</ele>
        <time>2011-07-31T07:22:30Z</time>
      </trkpt>
      <trkpt lat="49.19611" lon="6.94102">
        <ele>296</ele>
        <time>2011-07-31T07:22:32Z</time>
      </trkpt>
      <trkpt lat="49.19612" lon="6.94103">
        <ele>295</ele>
        <time>2011-07-31T07:22:34Z</time>
      </trkpt>
      <trkpt lat="49.19613" lon="6.94104">
        <ele>294</ele>
        <time>2011-07-31T07:22:35Z</time>
      </trkpt>
      <trkpt lat="49.19615" lon="6.94105">
        <ele>293</ele>
        <time>2011-07-31T07:22:37Z</time>
      </trkpt>
      <trkpt lat="49.19616" lon="6.94105">
        <ele>293</ele>
        <time>2011-07-31T07:22:38Z</time>
      </trkpt>
      <trkpt lat="49.19619" lon="6.94105">
        <ele>292</ele>
        <time>2011-07-31T07:22:40Z</time>
      </trkpt>
      <trkpt lat="49.1962" lon="6.94106">
        <ele>292</ele>
        <time>2011-07-31T07:22:42Z</time>
      </trkpt>
      <trkpt lat="49.19622" lon="6.94107">
        <ele>292</ele>
        <time>2011-07-31T07:22:44Z</time>
      </trkpt>
      <trkpt lat="49.19622" lon="6.94109">
        <ele>292</ele>
        <time>2011-07-31T07:22:46Z</time>
      </trkpt>
      <trkpt lat="49.19624" lon="6.94111">
        <ele>292</ele>
        <time>2011-07-31T07:22:48Z</time>
      </trkpt>
      <trkpt lat="49.19626" lon="6.94113">
        <ele>292</ele>
        <time>2011-07-31T07:22:50Z</time>
      </trkpt>
      <trkpt lat="49.19628" lon="6.94115">
        <ele>292</ele>
        <time>2011-07-31T07:22:52Z</time>
      </trkpt>
      <trkpt lat="49.19629" lon="6.94116">
        <ele>292</ele>
        <time>2011-07-31T07:22:53Z</time>
      </trkpt>
      <trkpt lat="49.19629" lon="6.94118">
        <ele>292</ele>
        <time>2011-07-31T07:22:55Z</time>
      </trkpt>
      <trkpt lat="49.19631" lon="6.94119">
        <ele>292</ele>
        <time>2011-07-31T07:22:57Z</time>
      </trkpt>
      <trkpt lat="49.19632" lon="6.9412">
        <ele>292</ele>
        <time>2011-07-31T07:22:58Z</time>
      </trkpt>
      <trkpt lat="49.19634" lon="6.94121">
        <ele>292</ele>
        <time>2011-07-31T07:22:59Z</time>
      </trkpt>
      <trkpt lat="49.19635" lon="6.94122">
        <ele>292</ele>
        <time>2011-07-31T07:23:00Z</time>
      </trkpt>
      <trkpt lat="49.19638" lon="6.94123">
        <ele>291</ele>
        <time>2011-07-31T07:23:02Z</time>
      </trkpt>
      <trkpt lat="49.19639" lon="6.94125">
        <ele>291</ele>
        <time>2011-07-31T07:23:03Z</time>
      </trkpt>
      <trkpt lat="49.19641" lon="6.94126">
        <ele>291</ele>
        <time>2011-07-31T07:23:04Z</time>
      </trkpt>
      <trkpt lat="49.19644" lon="6.94126">
        <ele>291</ele>
        <time>2011-07-31T07:23:05Z</time>
      </trkpt>
      <trkpt lat="49.19645" lon="6.94127">
        <ele>291</ele>
        <time>2011-07-31T07:23:06Z</time>
      </trkpt>
      <trkpt lat="49.19647" lon="6.94128">
        <ele>291</ele>
        <time>2011-07-31T07:23:07Z</time>
      </trkpt>
      <trkpt lat="49.19649" lon="6.94129">
        <ele>291</ele>
        <time>2011-07-31T07:23:08Z</time>
      </trkpt>
      <trkpt lat="49.1965" lon="6.9413">
        <ele>291</ele>
        <time>2011-07-31T07:23:09Z</time>
      </trkpt>
      <trkpt lat="49.19651" lon="6.94131">
        <ele>291</ele>
        <time>2011-07-31T07:23:10Z</time>
      </trkpt>
      <trkpt lat="49.19653" lon="6.94132">
        <ele>291</ele>
        <time>2011-07-31T07:23:11Z</time>
      </trkpt>
      <trkpt lat="49.19656" lon="6.94133">
        <ele>291</ele>
        <time>2011-07-31T07:23:12Z</time>
      </trkpt>
      <trkpt lat="49.19657" lon="6.94134">
        <ele>291</ele>
        <time>2011-07-31T07:23:13Z</time>
      </trkpt>
      <trkpt lat="49.19659" lon="6.94134">
        <ele>291</ele>
        <time>2011-07-31T07:23:14Z</time>
      </trkpt>
      <trkpt lat="49.19661" lon="6.94136">
        <ele>291</ele>
        <time>2011-07-31T07:23:16Z</time>
      </trkpt>
      <trkpt lat="49.1966" lon="6.94138">
        <ele>290</ele>
        <time>2011-07-31T07:23:18Z</time>
      </trkpt>
      <trkpt lat="49.19661" lon="6.9414">
        <ele>287</ele>
        <time>2011-07-31T07:23:21Z</time>
      </trkpt>
      <trkpt lat="49.19663" lon="6.94141">
        <ele>285</ele>
        <time>2011-07-31T07:23:23Z</time>
      </trkpt>
      <trkpt lat="49.19665" lon="6.94143">
        <ele>285</ele>
        <time>2011-07-31T07:23:25Z</time>
      </trkpt>
      <trkpt lat="49.19667" lon="6.94145">
        <ele>285</ele>
        <time>2011-07-31T07:23:27Z</time>
      </trkpt>
      <trkpt lat="49.19669" lon="6.94146">
        <ele>284</ele>
        <time>2011-07-31T07:23:30Z</time>
      </trkpt>
      <trkpt lat="49.1967" lon="6.94147">
        <ele>284</ele>
        <time>2011-07-31T07:23:31Z</time>
      </trkpt>
      <trkpt lat="49.19672" lon="6.94149">
        <ele>284</ele>
        <time>2011-07-31T07:23:32Z</time>
      </trkpt>
      <trkpt lat="49.19674" lon="6.9415">
        <ele>284</ele>
        <time>2011-07-31T07:23:33Z</time>
      </trkpt>
      <trkpt lat="49.19675" lon="6.94151">
        <ele>284</ele>
        <time>2011-07-31T07:23:34Z</time>
      </trkpt>
      <trkpt lat="49.19677" lon="6.94152">
        <ele>284</ele>
        <time>2011-07-31T07:23:35Z</time>
      </trkpt>
      <trkpt lat="49.19678" lon="6.94153">
        <ele>284</ele>
        <time>2011-07-31T07:23:36Z</time>
      </trkpt>
      <trkpt lat="49.1968" lon="6.94154">
        <ele>284</ele>
        <time>2011-07-31T07:23:37Z</time>
      </trkpt>
      <trkpt lat="49.19682" lon="6.94155">
        <ele>284</ele>
        <time>2011-07-31T07:23:39Z</time>
      </trkpt>
      <trkpt lat="49.19685" lon="6.94156">
        <ele>284</ele>
        <time>2011-07-31T07:23:41Z</time>
      </trkpt>
      <trkpt lat="49.19686" lon="6.94156">
        <ele>284</ele>
        <time>2011-07-31T07:23:42Z</time>
      </trkpt>
      <trkpt lat="49.19688" lon="6.94157">
        <ele>284</ele>
        <time>2011-07-31T07:23:43Z</time>
      </trkpt>
      <trkpt lat="49.19689" lon="6.94157">
        <ele>284</ele>
        <time>2011-07-31T07:23:44Z</time>
      </trkpt>
      <trkpt lat="49.19691" lon="6.94158">
        <ele>283</ele>
        <time>2011-07-31T07:23:45Z</time>
      </trkpt>
      <trkpt lat="49.19693" lon="6.94159">
        <ele>283</ele>
        <time>2011-07-31T07:23:46Z</time>
      </trkpt>
      <trkpt lat="49.19694" lon="6.94159">
        <ele>283</ele>
        <time>2011-07-31T07:23:47Z</time>
      </trkpt>
      <trkpt lat="49.19696" lon="6.94161">
        <ele>283</ele>
        <time>2011-07-31T07:23:49Z</time>
      </trkpt>
      <trkpt lat="49.19697" lon="6.94162">
        <ele>283</ele>
        <time>2011-07-31T07:23:50Z</time>
      </trkpt>
      <trkpt lat="49.19698" lon="6.94163">
        <ele>282</ele>
        <time>2011-07-31T07:23:51Z</time>
      </trkpt>
      <trkpt lat="49.197" lon="6.94164">
        <ele>282</ele>
        <time>2011-07-31T07:23:52Z</time>
      </trkpt>
      <trkpt lat="49.19702" lon="6.94164">
        <ele>282</ele>
        <time>2011-07-31T07:23:53Z</time>
      </trkpt>
      <trkpt lat="49.19704" lon="6.94167">
        <ele>282</ele>
        <time>2011-07-31T07:23:55Z</time>
      </trkpt>
      <trkpt lat="49.19706" lon="6.94168">
        <ele>282</ele>
        <time>2011-07-31T07:23:57Z</time>
      </trkpt>
      <trkpt lat="49.19708" lon="6.9417">
        <ele>282</ele>
        <time>2011-07-31T07:23:59Z</time>
      </trkpt>
      <trkpt lat="49.19709" lon="6.9417">
        <ele>282</ele>
        <time>2011-07-31T07:24:00Z</time>
      </trkpt>
      <trkpt lat="49.19711" lon="6.94171">
        <ele>282</ele>
        <time>2011-07-31T07:24:01Z</time>
      </trkpt>
      <trkpt lat="49.19714" lon="6.94172">
        <ele>282</ele>
        <time>2011-07-31T07:24:03Z</time>
      </trkpt>
      <trkpt lat="49.19716" lon="6.94173">
        <ele>282</ele>
        <time>2011-07-31T07:24:04Z</time>
      </trkpt>
      <trkpt lat="49.19717" lon="6.94174">
        <ele>282</ele>
        <time>2011-07-31T07:24:05Z</time>
      </trkpt>
      <trkpt lat="49.19719" lon="6.94175">
        <ele>282</ele>
        <time>2011-07-31T07:24:07Z</time>
      </trkpt>
      <trkpt lat="49.19721" lon="6.94175">
        <ele>282</ele>
        <time>2011-07-31T07:24:08Z</time>
      </trkpt>
      <trkpt lat="49.19723" lon="6.94177">
        <ele>282</ele>
        <time>2011-07-31T07:24:10Z</time>
      </trkpt>
      <trkpt lat="49.19725" lon="6.94178">
        <ele>283</ele>
        <time>2011-07-31T07:24:12Z</time>
      </trkpt>
      <trkpt lat="49.19726" lon="6.94179">
        <ele>284</ele>
        <time>2011-07-31T07:24:13Z</time>
      </trkpt>
      <trkpt lat="49.19728" lon="6.9418">
        <ele>285</ele>
        <time>2011-07-31T07:24:14Z</time>
      </trkpt>
      <trkpt lat="49.19729" lon="6.9418">
        <ele>285</ele>
        <time>2011-07-31T07:24:15Z</time>
      </trkpt>
      <trkpt lat="49.1973" lon="6.94181">
        <ele>285</ele>
        <time>2011-07-31T07:24:17Z</time>
      </trkpt>
      <trkpt lat="49.19732" lon="6.94181">
        <ele>285</ele>
        <time>2011-07-31T07:24:18Z</time>
      </trkpt>
      <trkpt lat="49.19734" lon="6.94182">
        <ele>285</ele>
        <time>2011-07-31T07:24:20Z</time>
      </trkpt>
      <trkpt lat="49.19736" lon="6.94183">
        <ele>285</ele>
        <time>2011-07-31T07:24:22Z</time>
      </trkpt>
      <trkpt lat="49.19738" lon="6.94185">
        <ele>285</ele>
        <time>2011-07-31T07:24:24Z</time>
      </trkpt>
      <trkpt lat="49.1974" lon="6.94187">
        <ele>285</ele>
        <time>2011-07-31T07:24:26Z</time>
      </trkpt>
      <trkpt lat="49.19742" lon="6.94188">
        <ele>285</ele>
        <time>2011-07-31T07:24:27Z</time>
      </trkpt>
      <trkpt lat="49.19744" lon="6.94189">
        <ele>285</ele>
        <time>2011-07-31T07:24:28Z</time>
      </trkpt>
      <trkpt lat="49.19746" lon="6.94191">
        <ele>285</ele>
        <time>2011-07-31T07:24:29Z</time>
      </trkpt>
      <trkpt lat="49.19748" lon="6.94192">
        <ele>285</ele>
        <time>2011-07-31T07:24:30Z</time>
      </trkpt>
      <trkpt lat="49.19749" lon="6.94193">
        <ele>285</ele>
        <time>2011-07-31T07:24:31Z</time>
      </trkpt>
      <trkpt lat="49.19751" lon="6.94193">
        <ele>286</ele>
        <time>2011-07-31T07:24:33Z</time>
      </trkpt>
      <trkpt lat="49.19752" lon="6.94194">
        <ele>286</ele>
        <time>2011-07-31T07:24:34Z</time>
      </trkpt>
      <trkpt lat="49.19754" lon="6.94195">
        <ele>287</ele>
        <time>2011-07-31T07:24:35Z</time>
      </trkpt>
      <trkpt lat="49.19756" lon="6.94197">
        <ele>287</ele>
        <time>2011-07-31T07:24:36Z</time>
      </trkpt>
      <trkpt lat="49.19758" lon="6.94198">
        <ele>287</ele>
        <time>2011-07-31T07:24:40Z</time>
      </trkpt>
      <trkpt lat="49.19759" lon="6.942">
        <ele>287</ele>
        <time>2011-07-31T07:24:42Z</time>
      </trkpt>
      <trkpt lat="49.19759" lon="6.94201">
        <ele>287</ele>
        <time>2011-07-31T07:24:43Z</time>
      </trkpt>
      <trkpt lat="49.19761" lon="6.94202">
        <ele>287</ele>
        <time>2011-07-31T07:24:44Z</time>
      </trkpt>
      <trkpt lat="49.19762" lon="6.94204">
        <ele>286</ele>
        <time>2011-07-31T07:24:46Z</time>
      </trkpt>
      <trkpt lat="49.19764" lon="6.94205">
        <ele>285</ele>
        <time>2011-07-31T07:24:47Z</time>
      </trkpt>
      <trkpt lat="49.19765" lon="6.94206">
        <ele>284</ele>
        <time>2011-07-31T07:24:49Z</time>
      </trkpt>
      <trkpt lat="49.19766" lon="6.94208">
        <ele>283</ele>
        <time>2011-07-31T07:24:51Z</time>
      </trkpt>
      <trkpt lat="49.19767" lon="6.94211">
        <ele>280</ele>
        <time>2011-07-31T07:24:54Z</time>
      </trkpt>
      <trkpt lat="49.19768" lon="6.94212">
        <ele>279</ele>
        <time>2011-07-31T07:24:55Z</time>
      </trkpt>
      <trkpt lat="49.19769" lon="6.94213">
        <ele>278</ele>
        <time>2011-07-31T07:24:56Z</time>
      </trkpt>
      <trkpt lat="49.19771" lon="6.94215">
        <ele>276</ele>
        <time>2011-07-31T07:24:58Z</time>
      </trkpt>
      <trkpt lat="49.19772" lon="6.94215">
        <ele>276</ele>
        <time>2011-07-31T07:24:59Z</time>
      </trkpt>
      <trkpt lat="49.19774" lon="6.94217">
        <ele>275</ele>
        <time>2011-07-31T07:25:01Z</time>
      </trkpt>
      <trkpt lat="49.19775" lon="6.94218">
        <ele>274</ele>
        <time>2011-07-31T07:25:02Z</time>
      </trkpt>
      <trkpt lat="49.19777" lon="6.94219">
        <ele>274</ele>
        <time>2011-07-31T07:25:03Z</time>
      </trkpt>
      <trkpt lat="49.19778" lon="6.94219">
        <ele>274</ele>
        <time>2011-07-31T07:25:04Z</time>
      </trkpt>
      <trkpt lat="49.19779" lon="6.9422">
        <ele>274</ele>
        <time>2011-07-31T07:25:05Z</time>
      </trkpt>
      <trkpt lat="49.19781" lon="6.94219">
        <ele>274</ele>
        <time>2011-07-31T07:25:06Z</time>
      </trkpt>
      <trkpt lat="49.19783" lon="6.9422">
        <ele>274</ele>
        <time>2011-07-31T07:25:08Z</time>
      </trkpt>
      <trkpt lat="49.19785" lon="6.94222">
        <ele>274</ele>
        <time>2011-07-31T07:25:09Z</time>
      </trkpt>
      <trkpt lat="49.19786" lon="6.94223">
        <ele>274</ele>
        <time>2011-07-31T07:25:10Z</time>
      </trkpt>
      <trkpt lat="49.19788" lon="6.94224">
        <ele>274</ele>
        <time>2011-07-31T07:25:11Z</time>
      </trkpt>
      <trkpt lat="49.19789" lon="6.94225">
        <ele>274</ele>
        <time>2011-07-31T07:25:12Z</time>
      </trkpt>
      <trkpt lat="49.19791" lon="6.94226">
        <ele>274</ele>
        <time>2011-07-31T07:25:14Z</time>
      </trkpt>
      <trkpt lat="49.19793" lon="6.94227">
        <ele>274</ele>
        <time>2011-07-31T07:25:16Z</time>
      </trkpt>
      <trkpt lat="49.19794" lon="6.94228">
        <ele>274</ele>
        <time>2011-07-31T07:25:18Z</time>
      </trkpt>
      <trkpt lat="49.19796" lon="6.94229">
        <ele>274</ele>
        <time>2011-07-31T07:25:20Z</time>
      </trkpt>
      <trkpt lat="49.19798" lon="6.94231">
        <ele>274</ele>
        <time>2011-07-31T07:25:22Z</time>
      </trkpt>
      <trkpt lat="49.19799" lon="6.94233">
        <ele>274</ele>
        <time>2011-07-31T07:25:23Z</time>
      </trkpt>
      <trkpt lat="49.19801" lon="6.94234">
        <ele>274</ele>
        <time>2011-07-31T07:25:24Z</time>
      </trkpt>
      <trkpt lat="49.19802" lon="6.94235">
        <ele>274</ele>
        <time>2011-07-31T07:25:25Z</time>
      </trkpt>
      <trkpt lat="49.19804" lon="6.94236">
        <ele>274</ele>
        <time>2011-07-31T07:25:26Z</time>
      </trkpt>
      <trkpt lat="49.19806" lon="6.94236">
        <ele>274</ele>
        <time>2011-07-31T07:25:27Z</time>
      </trkpt>
      <trkpt lat="49.19808" lon="6.94238">
        <ele>274</ele>
        <time>2011-07-31T07:25:28Z</time>
      </trkpt>
      <trkpt lat="49.19809" lon="6.94239">
        <ele>274</ele>
        <time>2011-07-31T07:25:29Z</time>
      </trkpt>
      <trkpt lat="49.19812" lon="6.9424">
        <ele>274</ele>
        <time>2011-07-31T07:25:30Z</time>
      </trkpt>
      <trkpt lat="49.19814" lon="6.94242">
        <ele>274</ele>
        <time>2011-07-31T07:25:31Z</time>
      </trkpt>
      <trkpt lat="49.19816" lon="6.94244">
        <ele>274</ele>
        <time>2011-07-31T07:25:33Z</time>
      </trkpt>
      <trkpt lat="49.19818" lon="6.94245">
        <ele>274</ele>
        <time>2011-07-31T07:25:34Z</time>
      </trkpt>
      <trkpt lat="49.1982" lon="6.94246">
        <ele>274</ele>
        <time>2011-07-31T07:25:35Z</time>
      </trkpt>
      <trkpt lat="49.19822" lon="6.94248">
        <ele>274</ele>
        <time>2011-07-31T07:25:37Z</time>
      </trkpt>
      <trkpt lat="49.19824" lon="6.94248">
        <ele>274</ele>
        <time>2011-07-31T07:25:38Z</time>
      </trkpt>
      <trkpt lat="49.19825" lon="6.94249">
        <ele>274</ele>
        <time>2011-07-31T07:25:39Z</time>
      </trkpt>
      <trkpt lat="49.19827" lon="6.9425">
        <ele>274</ele>
        <time>2011-07-31T07:25:40Z</time>
      </trkpt>
      <trkpt lat="49.19828" lon="6.9425">
        <ele>275</ele>
        <time>2011-07-31T07:25:41Z</time>
      </trkpt>
      <trkpt lat="49.1983" lon="6.94251">
        <ele>276</ele>
        <time>2011-07-31T07:25:43Z</time>
      </trkpt>
      <trkpt lat="49.19831" lon="6.94253">
        <ele>277</ele>
        <time>2011-07-31T07:25:45Z</time>
      </trkpt>
      <trkpt lat="49.19833" lon="6.94254">
        <ele>277</ele>
        <time>2011-07-31T07:25:46Z</time>
      </trkpt>
      <trkpt lat="49.19834" lon="6.94256">
        <ele>277</ele>
        <time>2011-07-31T07:25:47Z</time>
      </trkpt>
      <trkpt lat="49.19835" lon="6.94257">
        <ele>277</ele>
        <time>2011-07-31T07:25:48Z</time>
      </trkpt>
      <trkpt lat="49.19837" lon="6.94258">
        <ele>277</ele>
        <time>2011-07-31T07:25:50Z</time>
      </trkpt>
      <trkpt lat="49.19838" lon="6.94261">
        <ele>277</ele>
        <time>2011-07-31T07:25:52Z</time>
      </trkpt>
      <trkpt lat="49.19839" lon="6.94263">
        <ele>277</ele>
        <time>2011-07-31T07:25:53Z</time>
      </trkpt>
      <trkpt lat="49.19841" lon="6.94265">
        <ele>276</ele>
        <time>2011-07-31T07:25:55Z</time>
      </trkpt>
      <trkpt lat="49.19843" lon="6.94267">
        <ele>275</ele>
        <time>2011-07-31T07:25:56Z</time>
      </trkpt>
      <trkpt lat="49.19844" lon="6.94269">
        <ele>275</ele>
        <time>2011-07-31T07:25:58Z</time>
      </trkpt>
      <trkpt lat="49.19844" lon="6.9427">
        <ele>275</ele>
        <time>2011-07-31T07:26:00Z</time>
      </trkpt>
      <trkpt lat="49.19846" lon="6.94271">
        <ele>274</ele>
        <time>2011-07-31T07:26:01Z</time>
      </trkpt>
      <trkpt lat="49.19847" lon="6.94272">
        <ele>274</ele>
        <time>2011-07-31T07:26:02Z</time>
      </trkpt>
      <trkpt lat="49.19848" lon="6.94273">
        <ele>274</ele>
        <time>2011-07-31T07:26:04Z</time>
      </trkpt>
      <trkpt lat="49.19851" lon="6.94275">
        <ele>274</ele>
        <time>2011-07-31T07:26:06Z</time>
      </trkpt>
      <trkpt lat="49.19852" lon="6.94276">
        <ele>274</ele>
        <time>2011-07-31T07:26:07Z</time>
      </trkpt>
      <trkpt lat="49.19854" lon="6.94276">
        <ele>274</ele>
        <time>2011-07-31T07:26:08Z</time>
      </trkpt>
      <trkpt lat="49.19856" lon="6.94277">
        <ele>274</ele>
        <time>2011-07-31T07:26:09Z</time>
      </trkpt>
      <trkpt lat="49.19858" lon="6.94278">
        <ele>274</ele>
        <time>2011-07-31T07:26:10Z</time>
      </trkpt>
      <trkpt lat="49.1986" lon="6.94279">
        <ele>274</ele>
        <time>2011-07-31T07:26:12Z</time>
      </trkpt>
      <trkpt lat="49.19862" lon="6.9428">
        <ele>274</ele>
        <time>2011-07-31T07:26:14Z</time>
      </trkpt>
      <trkpt lat="49.19865" lon="6.94282">
        <ele>274</ele>
        <time>2011-07-31T07:26:16Z</time>
      </trkpt>
      <trkpt lat="49.19867" lon="6.94283">
        <ele>274</ele>
        <time>2011-07-31T07:26:18Z</time>
      </trkpt>
      <trkpt lat="49.19868" lon="6.94284">
        <ele>274</ele>
        <time>2011-07-31T07:26:20Z</time>
      </trkpt>
      <trkpt lat="49.1987" lon="6.94285">
        <ele>274</ele>
        <time>2011-07-31T07:26:22Z</time>
      </trkpt>
      <trkpt lat="49.19871" lon="6.94286">
        <ele>274</ele>
        <time>2011-07-31T07:26:23Z</time>
      </trkpt>
      <trkpt lat="49.19873" lon="6.94286">
        <ele>274</ele>
        <time>2011-07-31T07:26:24Z</time>
      </trkpt>
      <trkpt lat="49.19875" lon="6.94288">
        <ele>274</ele>
        <time>2011-07-31T07:26:26Z</time>
      </trkpt>
      <trkpt lat="49.19876" lon="6.94289">
        <ele>274</ele>
        <time>2011-07-31T07:26:27Z</time>
      </trkpt>
      <trkpt lat="49.19878" lon="6.94291">
        <ele>274</ele>
        <time>2011-07-31T07:26:28Z</time>
      </trkpt>
      <trkpt lat="49.19879" lon="6.94291">
        <ele>274</ele>
        <time>2011-07-31T07:26:29Z</time>
      </trkpt>
      <trkpt lat="49.19881" lon="6.94291">
        <ele>274</ele>
        <time>2011-07-31T07:26:31Z</time>
      </trkpt>
      <trkpt lat="49.19883" lon="6.94292">
        <ele>274</ele>
        <time>2011-07-31T07:26:32Z</time>
      </trkpt>
      <trkpt lat="49.19884" lon="6.94293">
        <ele>274</ele>
        <time>2011-07-31T07:26:34Z</time>
      </trkpt>
      <trkpt lat="49.19886" lon="6.94293">
        <ele>274</ele>
        <time>2011-07-31T07:26:35Z</time>
      </trkpt>
      <trkpt lat="49.19887" lon="6.94295">
        <ele>275</ele>
        <time>2011-07-31T07:26:37Z</time>
      </trkpt>
      <trkpt lat="49.19889" lon="6.94295">
        <ele>275</ele>
        <time>2011-07-31T07:26:38Z</time>
      </trkpt>
      <trkpt lat="49.19891" lon="6.94295">
        <ele>275</ele>
        <time>2011-07-31T07:26:40Z</time>
      </trkpt>
      <trkpt lat="49.19893" lon="6.94297">
        <ele>275</ele>
        <time>2011-07-31T07:26:42Z</time>
      </trkpt>
      <trkpt lat="49.19894" lon="6.94298">
        <ele>275</ele>
        <time>2011-07-31T07:26:43Z</time>
      </trkpt>
      <trkpt lat="49.19896" lon="6.943">
        <ele>275</ele>
        <time>2011-07-31T07:26:44Z</time>
      </trkpt>
      <trkpt lat="49.19898" lon="6.94301">
        <ele>275</ele>
        <time>2011-07-31T07:26:46Z</time>
      </trkpt>
      <trkpt lat="49.19899" lon="6.94301">
        <ele>275</ele>
        <time>2011-07-31T07:26:47Z</time>
      </trkpt>
      <trkpt lat="49.19901" lon="6.94302">
        <ele>275</ele>
        <time>2011-07-31T07:26:48Z</time>
      </trkpt>
      <trkpt lat="49.19902" lon="6.94302">
        <ele>275</ele>
        <time>2011-07-31T07:26:49Z</time>
      </trkpt>
      <trkpt lat="49.19904" lon="6.94303">
        <ele>276</ele>
        <time>2011-07-31T07:26:50Z</time>
      </trkpt>
      <trkpt lat="49.19905" lon="6.94303">
        <ele>276</ele>
        <time>2011-07-31T07:26:51Z</time>
      </trkpt>
      <trkpt lat="49.19907" lon="6.94303">
        <ele>277</ele>
        <time>2011-07-31T07:26:52Z</time>
      </trkpt>
      <trkpt lat="49.19909" lon="6.94304">
        <ele>278</ele>
        <time>2011-07-31T07:26:53Z</time>
      </trkpt>
      <trkpt lat="49.1991" lon="6.94305">
        <ele>278</ele>
        <time>2011-07-31T07:26:54Z</time>
      </trkpt>
      <trkpt lat="49.19911" lon="6.94306">
        <ele>278</ele>
        <time>2011-07-31T07:26:55Z</time>
      </trkpt>
      <trkpt lat="49.19913" lon="6.94307">
        <ele>278</ele>
        <time>2011-07-31T07:26:57Z</time>
      </trkpt>
      <trkpt lat="49.19915" lon="6.94307">
        <ele>278</ele>
        <time>2011-07-31T07:26:58Z</time>
      </trkpt>
      <trkpt lat="49.19917" lon="6.94308">
        <ele>278</ele>
        <time>2011-07-31T07:26:59Z</time>
      </trkpt>
      <trkpt lat="49.19918" lon="6.94311">
        <ele>278</ele>
        <time>2011-07-31T07:27:01Z</time>
      </trkpt>
      <trkpt lat="49.19919" lon="6.94313">
        <ele>278</ele>
        <time>2011-07-31T07:27:03Z</time>
      </trkpt>
      <trkpt lat="49.1992" lon="6.94315">
        <ele>278</ele>
        <time>2011-07-31T07:27:04Z</time>
      </trkpt>
      <trkpt lat="49.19921" lon="6.94317">
        <ele>278</ele>
        <time>2011-07-31T07:27:05Z</time>
      </trkpt>
      <trkpt lat="49.19922" lon="6.94318">
        <ele>278</ele>
        <time>2011-07-31T07:27:06Z</time>
      </trkpt>
      <trkpt lat="49.19923" lon="6.9432">
        <ele>278</ele>
        <time>2011-07-31T07:27:09Z</time>
      </trkpt>
      <trkpt lat="49.19925" lon="6.94323">
        <ele>278</ele>
        <time>2011-07-31T07:27:11Z</time>
      </trkpt>
      <trkpt lat="49.19926" lon="6.94324">
        <ele>278</ele>
        <time>2011-07-31T07:27:12Z</time>
      </trkpt>
      <trkpt lat="49.19928" lon="6.94326">
        <ele>278</ele>
        <time>2011-07-31T07:27:13Z</time>
      </trkpt>
      <trkpt lat="49.19929" lon="6.94328">
        <ele>278</ele>
        <time>2011-07-31T07:27:15Z</time>
      </trkpt>
      <trkpt lat="49.19931" lon="6.94329">
        <ele>278</ele>
        <time>2011-07-31T07:27:17Z</time>
      </trkpt>
      <trkpt lat="49.19932" lon="6.94331">
        <ele>278</ele>
        <time>2011-07-31T07:27:18Z</time>
      </trkpt>
      <trkpt lat="49.19935" lon="6.94333">
        <ele>278</ele>
        <time>2011-07-31T07:27:20Z</time>
      </trkpt>
      <trkpt lat="49.19936" lon="6.94333">
        <ele>278</ele>
        <time>2011-07-31T07:27:21Z</time>
      </trkpt>
      <trkpt lat="49.19938" lon="6.94336">
        <ele>277</ele>
        <time>2011-07-31T07:27:23Z</time>
      </trkpt>
      <trkpt lat="49.19939" lon="6.94338">
        <ele>277</ele>
        <time>2011-07-31T07:27:25Z</time>
      </trkpt>
      <trkpt lat="49.1994" lon="6.9434">
        <ele>277</ele>
        <time>2011-07-31T07:27:27Z</time>
      </trkpt>
      <trkpt lat="49.19941" lon="6.94343">
        <ele>277</ele>
        <time>2011-07-31T07:27:29Z</time>
      </trkpt>
      <trkpt lat="49.19942" lon="6.94346">
        <ele>276</ele>
        <time>2011-07-31T07:27:31Z</time>
      </trkpt>
      <trkpt lat="49.19943" lon="6.94349">
        <ele>275</ele>
        <time>2011-07-31T07:27:33Z</time>
      </trkpt>
      <trkpt lat="49.19944" lon="6.9435">
        <ele>274</ele>
        <time>2011-07-31T07:27:34Z</time>
      </trkpt>
      <trkpt lat="49.19945" lon="6.94352">
        <ele>274</ele>
        <time>2011-07-31T07:27:35Z</time>
      </trkpt>
      <trkpt lat="49.19947" lon="6.94355">
        <ele>273</ele>
        <time>2011-07-31T07:27:37Z</time>
      </trkpt>
      <trkpt lat="49.19948" lon="6.94357">
        <ele>272</ele>
        <time>2011-07-31T07:27:39Z</time>
      </trkpt>
      <trkpt lat="49.19949" lon="6.94358">
        <ele>271</ele>
        <time>2011-07-31T07:27:40Z</time>
      </trkpt>
      <trkpt lat="49.19952" lon="6.94359">
        <ele>271</ele>
        <time>2011-07-31T07:27:42Z</time>
      </trkpt>
      <trkpt lat="49.19954" lon="6.9436">
        <ele>271</ele>
        <time>2011-07-31T07:27:45Z</time>
      </trkpt>
      <trkpt lat="49.19955" lon="6.94363">
        <ele>271</ele>
        <time>2011-07-31T07:27:47Z</time>
      </trkpt>
      <trkpt lat="49.19956" lon="6.94364">
        <ele>271</ele>
        <time>2011-07-31T07:27:48Z</time>
      </trkpt>
      <trkpt lat="49.19956" lon="6.94366">
        <ele>271</ele>
        <time>2011-07-31T07:27:49Z</time>
      </trkpt>
      <trkpt lat="49.19957" lon="6.94368">
        <ele>271</ele>
        <time>2011-07-31T07:27:50Z</time>
      </trkpt>
      <trkpt lat="49.19958" lon="6.94369">
        <ele>271</ele>
        <time>2011-07-31T07:27:51Z</time>
      </trkpt>
      <trkpt lat="49.1996" lon="6.94371">
        <ele>271</ele>
        <time>2011-07-31T07:27:53Z</time>
      </trkpt>
      <trkpt lat="49.19962" lon="6.94372">
        <ele>271</ele>
        <time>2011-07-31T07:27:54Z</time>
      </trkpt>
      <trkpt lat="49.19962" lon="6.94373">
        <ele>271</ele>
        <time>2011-07-31T07:27:55Z</time>
      </trkpt>
      <trkpt lat="49.19963" lon="6.94376">
        <ele>271</ele>
        <time>2011-07-31T07:27:56Z</time>
      </trkpt>
      <trkpt lat="49.19964" lon="6.94377">
        <ele>271</ele>
        <time>2011-07-31T07:27:57Z</time>
      </trkpt>
      <trkpt lat="49.19966" lon="6.94378">
        <ele>271</ele>
        <time>2011-07-31T07:27:58Z</time>
      </trkpt>
      <trkpt lat="49.19969" lon="6.9438">
        <ele>271</ele>
        <time>2011-07-31T07:27:59Z</time>
      </trkpt>
      <trkpt lat="49.1997" lon="6.94382">
        <ele>271</ele>
        <time>2011-07-31T07:28:00Z</time>
      </trkpt>
      <trkpt lat="49.19971" lon="6.94383">
        <ele>271</ele>
        <time>2011-07-31T07:28:01Z</time>
      </trkpt>
      <trkpt lat="49.19973" lon="6.94385">
        <ele>271</ele>
        <time>2011-07-31T07:28:02Z</time>
      </trkpt>
      <trkpt lat="49.19975" lon="6.94387">
        <ele>270</ele>
        <time>2011-07-31T07:28:05Z</time>
      </trkpt>
      <trkpt lat="49.19977" lon="6.94388">
        <ele>270</ele>
        <time>2011-07-31T07:28:07Z</time>
      </trkpt>
      <trkpt lat="49.19979" lon="6.9439">
        <ele>270</ele>
        <time>2011-07-31T07:28:09Z</time>
      </trkpt>
      <trkpt lat="49.19981" lon="6.9439">
        <ele>270</ele>
        <time>2011-07-31T07:28:10Z</time>
      </trkpt>
      <trkpt lat="49.19983" lon="6.9439">
        <ele>270</ele>
        <time>2011-07-31T07:28:11Z</time>
      </trkpt>
      <trkpt lat="49.19984" lon="6.94393">
        <ele>270</ele>
        <time>2011-07-31T07:28:13Z</time>
      </trkpt>
      <trkpt lat="49.19986" lon="6.94395">
        <ele>270</ele>
        <time>2011-07-31T07:28:15Z</time>
      </trkpt>
      <trkpt lat="49.19987" lon="6.94398">
        <ele>270</ele>
        <time>2011-07-31T07:28:17Z</time>
      </trkpt>
      <trkpt lat="49.19988" lon="6.94401">
        <ele>270</ele>
        <time>2011-07-31T07:28:18Z</time>
      </trkpt>
      <trkpt lat="49.19989" lon="6.94403">
        <ele>270</ele>
        <time>2011-07-31T07:28:19Z</time>
      </trkpt>
      <trkpt lat="49.19991" lon="6.94403">
        <ele>270</ele>
        <time>2011-07-31T07:28:21Z</time>
      </trkpt>
      <trkpt lat="49.19992" lon="6.94403">
        <ele>270</ele>
        <time>2011-07-31T07:28:22Z</time>
      </trkpt>
      <trkpt lat="49.19994" lon="6.94405">
        <ele>270</ele>
        <time>2011-07-31T07:28:23Z</time>
      </trkpt>
      <trkpt lat="49.19996" lon="6.94407">
        <ele>270</ele>
        <time>2011-07-31T07:28:24Z</time>
      </trkpt>
      <trkpt lat="49.19999" lon="6.94408">
        <ele>270</ele>
        <time>2011-07-31T07:28:25Z</time>
      </trkpt>
      <trkpt lat="49.2" lon="6.9441">
        <ele>270</ele>
        <time>2011-07-31T07:28:26Z</time>
      </trkpt>
      <trkpt lat="49.20002" lon="6.94411">
        <ele>270</ele>
        <time>2011-07-31T07:28:27Z</time>
      </trkpt>
      <trkpt lat="49.20004" lon="6.94413">
        <ele>270</ele>
        <time>2011-07-31T07:28:29Z</time>
      </trkpt>
      <trkpt lat="49.20005" lon="6.94416">
        <ele>270</ele>
        <time>2011-07-31T07:28:31Z</time>
      </trkpt>
      <trkpt lat="49.20007" lon="6.94418">
        <ele>270</ele>
        <time>2011-07-31T07:28:33Z</time>
      </trkpt>
      <trkpt lat="49.20008" lon="6.94419">
        <ele>270</ele>
        <time>2011-07-31T07:28:34Z</time>
      </trkpt>
      <trkpt lat="49.20011" lon="6.94422">
        <ele>270</ele>
        <time>2011-07-31T07:28:36Z</time>
      </trkpt>
      <trkpt lat="49.20012" lon="6.94424">
        <ele>270</ele>
        <time>2011-07-31T07:28:37Z</time>
      </trkpt>
      <trkpt lat="49.20013" lon="6.94425">
        <ele>270</ele>
        <time>2011-07-31T07:28:38Z</time>
      </trkpt>
      <trkpt lat="49.20013" lon="6.94427">
        <ele>270</ele>
        <time>2011-07-31T07:28:39Z</time>
      </trkpt>
      <trkpt lat="49.20015" lon="6.94429">
        <ele>270</ele>
        <time>2011-07-31T07:28:40Z</time>
      </trkpt>
      <trkpt lat="49.20016" lon="6.9443">
        <ele>270</ele>
        <time>2011-07-31T07:28:42Z</time>
      </trkpt>
      <trkpt lat="49.20018" lon="6.94432">
        <ele>270</ele>
        <time>2011-07-31T07:28:43Z</time>
      </trkpt>
      <trkpt lat="49.20019" lon="6.94434">
        <ele>270</ele>
        <time>2011-07-31T07:28:45Z</time>
      </trkpt>
      <trkpt lat="49.20021" lon="6.94437">
        <ele>270</ele>
        <time>2011-07-31T07:28:47Z</time>
      </trkpt>
      <trkpt lat="49.20022" lon="6.9444">
        <ele>270</ele>
        <time>2011-07-31T07:28:49Z</time>
      </trkpt>
      <trkpt lat="49.20023" lon="6.94442">
        <ele>270</ele>
        <time>2011-07-31T07:28:51Z</time>
      </trkpt>
      <trkpt lat="49.20024" lon="6.94444">
        <ele>270</ele>
        <time>2011-07-31T07:28:52Z</time>
      </trkpt>
      <trkpt lat="49.20025" lon="6.94446">
        <ele>270</ele>
        <time>2011-07-31T07:28:53Z</time>
      </trkpt>
      <trkpt lat="49.20026" lon="6.94448">
        <ele>269</ele>
        <time>2011-07-31T07:28:55Z</time>
      </trkpt>
      <trkpt lat="49.20028" lon="6.9445">
        <ele>269</ele>
        <time>2011-07-31T07:28:56Z</time>
      </trkpt>
      <trkpt lat="49.2003" lon="6.94451">
        <ele>268</ele>
        <time>2011-07-31T07:28:58Z</time>
      </trkpt>
      <trkpt lat="49.20032" lon="6.94452">
        <ele>267</ele>
        <time>2011-07-31T07:29:00Z</time>
      </trkpt>
      <trkpt lat="49.20034" lon="6.94453">
        <ele>266</ele>
        <time>2011-07-31T07:29:01Z</time>
      </trkpt>
      <trkpt lat="49.20035" lon="6.94454">
        <ele>266</ele>
        <time>2011-07-31T07:29:02Z</time>
      </trkpt>
      <trkpt lat="49.20036" lon="6.94455">
        <ele>266</ele>
        <time>2011-07-31T07:29:03Z</time>
      </trkpt>
      <trkpt lat="49.20038" lon="6.94458">
        <ele>265</ele>
        <time>2011-07-31T07:29:05Z</time>
      </trkpt>
      <trkpt lat="49.20039" lon="6.94458">
        <ele>265</ele>
        <time>2011-07-31T07:29:06Z</time>
      </trkpt>
      <trkpt lat="49.20041" lon="6.9446">
        <ele>264</ele>
        <time>2011-07-31T07:29:09Z</time>
      </trkpt>
      <trkpt lat="49.20042" lon="6.9446">
        <ele>263</ele>
        <time>2011-07-31T07:29:11Z</time>
      </trkpt>
      <trkpt lat="49.20044" lon="6.94463">
        <ele>262</ele>
        <time>2011-07-31T07:29:13Z</time>
      </trkpt>
      <trkpt lat="49.20045" lon="6.94465">
        <ele>261</ele>
        <time>2011-07-31T07:29:14Z</time>
      </trkpt>
      <trkpt lat="49.20046" lon="6.94466">
        <ele>261</ele>
        <time>2011-07-31T07:29:15Z</time>
      </trkpt>
      <trkpt lat="49.20047" lon="6.94468">
        <ele>261</ele>
        <time>2011-07-31T07:29:16Z</time>
      </trkpt>
      <trkpt lat="49.20048" lon="6.9447">
        <ele>260</ele>
        <time>2011-07-31T07:29:18Z</time>
      </trkpt>
      <trkpt lat="49.20048" lon="6.94472">
        <ele>260</ele>
        <time>2011-07-31T07:29:19Z</time>
      </trkpt>
      <trkpt lat="49.20049" lon="6.94474">
        <ele>260</ele>
        <time>2011-07-31T07:29:20Z</time>
      </trkpt>
      <trkpt lat="49.20051" lon="6.94476">
        <ele>260</ele>
        <time>2011-07-31T07:29:21Z</time>
      </trkpt>
      <trkpt lat="49.20051" lon="6.94479">
        <ele>260</ele>
        <time>2011-07-31T07:29:23Z</time>
      </trkpt>
      <trkpt lat="49.20051" lon="6.94481">
        <ele>260</ele>
        <time>2011-07-31T07:29:24Z</time>
      </trkpt>
      <trkpt lat="49.20052" lon="6.94483">
        <ele>260</ele>
        <time>2011-07-31T07:29:25Z</time>
      </trkpt>
      <trkpt lat="49.20053" lon="6.94484">
        <ele>260</ele>
        <time>2011-07-31T07:29:26Z</time>
      </trkpt>
      <trkpt lat="49.20055" lon="6.94484">
        <ele>260</ele>
        <time>2011-07-31T07:29:27Z</time>
      </trkpt>
      <trkpt lat="49.20056" lon="6.94485">
        <ele>260</ele>
        <time>2011-07-31T07:29:28Z</time>
      </trkpt>
      <trkpt lat="49.20057" lon="6.94487">
        <ele>261</ele>
        <time>2011-07-31T07:29:30Z</time>
      </trkpt>
      <trkpt lat="49.20057" lon="6.9449">
        <ele>263</ele>
        <time>2011-07-31T07:29:32Z</time>
      </trkpt>
      <trkpt lat="49.20057" lon="6.94493">
        <ele>264</ele>
        <time>2011-07-31T07:29:34Z</time>
      </trkpt>
      <trkpt lat="49.20056" lon="6.94494">
        <ele>265</ele>
        <time>2011-07-31T07:29:35Z</time>
      </trkpt>
      <trkpt lat="49.20058" lon="6.94496">
        <ele>265</ele>
        <time>2011-07-31T07:29:36Z</time>
      </trkpt>
      <trkpt lat="49.20058" lon="6.94499">
        <ele>266</ele>
        <time>2011-07-31T07:29:38Z</time>
      </trkpt>
      <trkpt lat="49.20059" lon="6.945">
        <ele>266</ele>
        <time>2011-07-31T07:29:39Z</time>
      </trkpt>
      <trkpt lat="49.20059" lon="6.94503">
        <ele>266</ele>
        <time>2011-07-31T07:29:41Z</time>
      </trkpt>
      <trkpt lat="49.20056" lon="6.94505">
        <ele>266</ele>
        <time>2011-07-31T07:29:43Z</time>
      </trkpt>
      <trkpt lat="49.20056" lon="6.94507">
        <ele>266</ele>
        <time>2011-07-31T07:29:45Z</time>
      </trkpt>
      <trkpt lat="49.20055" lon="6.94509">
        <ele>266</ele>
        <time>2011-07-31T07:29:47Z</time>
      </trkpt>
      <trkpt lat="49.20055" lon="6.94511">
        <ele>266</ele>
        <time>2011-07-31T07:29:49Z</time>
      </trkpt>
      <trkpt lat="49.20056" lon="6.94513">
        <ele>266</ele>
        <time>2011-07-31T07:29:50Z</time>
      </trkpt>
      <trkpt lat="49.20057" lon="6.94514">
        <ele>266</ele>
        <time>2011-07-31T07:29:51Z</time>
      </trkpt>
      <trkpt lat="49.20058" lon="6.94516">
        <ele>266</ele>
        <time>2011-07-31T07:29:52Z</time>
      </trkpt>
      <trkpt lat="49.20059" lon="6.94519">
        <ele>266</ele>
        <time>2011-07-31T07:29:54Z</time>
      </trkpt>
      <trkpt lat="49.2006" lon="6.94521">
        <ele>266</ele>
        <time>2011-07-31T07:29:55Z</time>
      </trkpt>
      <trkpt lat="49.2006" lon="6.94523">
        <ele>266</ele>
        <time>2011-07-31T07:29:56Z</time>
      </trkpt>
      <trkpt lat="49.2006" lon="6.94525">
        <ele>266</ele>
        <time>2011-07-31T07:29:57Z</time>
      </trkpt>
      <trkpt lat="49.2006" lon="6.94528">
        <ele>266</ele>
        <time>2011-07-31T07:29:59Z</time>
      </trkpt>
      <trkpt lat="49.2006" lon="6.94529">
        <ele>267</ele>
        <time>2011-07-31T07:30:00Z</time>
      </trkpt>
      <trkpt lat="49.2006" lon="6.94532">
        <ele>267</ele>
        <time>2011-07-31T07:30:02Z</time>
      </trkpt>
      <trkpt lat="49.20062" lon="6.94533">
        <ele>269</ele>
        <time>2011-07-31T07:30:05Z</time>
      </trkpt>
      <trkpt lat="49.20061" lon="6.94535">
        <ele>270</ele>
        <time>2011-07-31T07:30:07Z</time>
      </trkpt>
      <trkpt lat="49.20061" lon="6.94537">
        <ele>271</ele>
        <time>2011-07-31T07:30:09Z</time>
      </trkpt>
      <trkpt lat="49.20061" lon="6.9454">
        <ele>271</ele>
        <time>2011-07-31T07:30:11Z</time>
      </trkpt>
      <trkpt lat="49.20062" lon="6.94542">
        <ele>271</ele>
        <time>2011-07-31T07:30:13Z</time>
      </trkpt>
      <trkpt lat="49.20063" lon="6.94545">
        <ele>271</ele>
        <time>2011-07-31T07:30:15Z</time>
      </trkpt>
      <trkpt lat="49.20063" lon="6.94548">
        <ele>271</ele>
        <time>2011-07-31T07:30:17Z</time>
      </trkpt>
      <trkpt lat="49.20065" lon="6.94551">
        <ele>271</ele>
        <time>2011-07-31T07:30:19Z</time>
      </trkpt>
      <trkpt lat="49.20066" lon="6.94554">
        <ele>271</ele>
        <time>2011-07-31T07:30:21Z</time>
      </trkpt>
      <trkpt lat="49.20067" lon="6.94556">
        <ele>271</ele>
        <time>2011-07-31T07:30:23Z</time>
      </trkpt>
      <trkpt lat="49.20068" lon="6.94559">
        <ele>271</ele>
        <time>2011-07-31T07:30:25Z</time>
      </trkpt>
      <trkpt lat="49.20068" lon="6.94561">
        <ele>271</ele>
        <time>2011-07-31T07:30:26Z</time>
      </trkpt>
      <trkpt lat="49.20068" lon="6.94563">
        <ele>271</ele>
        <time>2011-07-31T07:30:27Z</time>
      </trkpt>
      <trkpt lat="49.2007" lon="6.94565">
        <ele>271</ele>
        <time>2011-07-31T07:30:29Z</time>
      </trkpt>
      <trkpt lat="49.2007" lon="6.94568">
        <ele>271</ele>
        <time>2011-07-31T07:30:31Z</time>
      </trkpt>
      <trkpt lat="49.2007" lon="6.9457">
        <ele>271</ele>
        <time>2011-07-31T07:30:32Z</time>
      </trkpt>
      <trkpt lat="49.2007" lon="6.94572">
        <ele>271</ele>
        <time>2011-07-31T07:30:33Z</time>
      </trkpt>
      <trkpt lat="49.20071" lon="6.94573">
        <ele>271</ele>
        <time>2011-07-31T07:30:34Z</time>
      </trkpt>
      <trkpt lat="49.20073" lon="6.94576">
        <ele>271</ele>
        <time>2011-07-31T07:30:36Z</time>
      </trkpt>
      <trkpt lat="49.20073" lon="6.94578">
        <ele>271</ele>
        <time>2011-07-31T07:30:37Z</time>
      </trkpt>
      <trkpt lat="49.20074" lon="6.9458">
        <ele>271</ele>
        <time>2011-07-31T07:30:38Z</time>
      </trkpt>
      <trkpt lat="49.20073" lon="6.94581">
        <ele>271</ele>
        <time>2011-07-31T07:30:39Z</time>
      </trkpt>
      <trkpt lat="49.20073" lon="6.94583">
        <ele>271</ele>
        <time>2011-07-31T07:30:40Z</time>
      </trkpt>
      <trkpt lat="49.20074" lon="6.94585">
        <ele>271</ele>
        <time>2011-07-31T07:30:41Z</time>
      </trkpt>
      <trkpt lat="49.20075" lon="6.94586">
        <ele>271</ele>
        <time>2011-07-31T07:30:42Z</time>
      </trkpt>
      <trkpt lat="49.20076" lon="6.94588">
        <ele>271</ele>
        <time>2011-07-31T07:30:43Z</time>
      </trkpt>
      <trkpt lat="49.20076" lon="6.9459">
        <ele>271</ele>
        <time>2011-07-31T07:30:44Z</time>
      </trkpt>
      <trkpt lat="49.20079" lon="6.94592">
        <ele>271</ele>
        <time>2011-07-31T07:30:46Z</time>
      </trkpt>
      <trkpt lat="49.2008" lon="6.94596">
        <ele>271</ele>
        <time>2011-07-31T07:30:48Z</time>
      </trkpt>
      <trkpt lat="49.2008" lon="6.94598">
        <ele>271</ele>
        <time>2011-07-31T07:30:49Z</time>
      </trkpt>
      <trkpt lat="49.2008" lon="6.946">
        <ele>271</ele>
        <time>2011-07-31T07:30:50Z</time>
      </trkpt>
      <trkpt lat="49.20081" lon="6.94602">
        <ele>271</ele>
        <time>2011-07-31T07:30:51Z</time>
      </trkpt>
      <trkpt lat="49.2008" lon="6.94604">
        <ele>271</ele>
        <time>2011-07-31T07:30:52Z</time>
      </trkpt>
      <trkpt lat="49.2008" lon="6.94606">
        <ele>271</ele>
        <time>2011-07-31T07:30:53Z</time>
      </trkpt>
      <trkpt lat="49.2008" lon="6.94609">
        <ele>271</ele>
        <time>2011-07-31T07:30:54Z</time>
      </trkpt>
      <trkpt lat="49.20079" lon="6.9461">
        <ele>271</ele>
        <time>2011-07-31T07:30:55Z</time>
      </trkpt>
      <trkpt lat="49.20079" lon="6.94612">
        <ele>271</ele>
        <time>2011-07-31T07:30:56Z</time>
      </trkpt>
      <trkpt lat="49.20078" lon="6.94614">
        <ele>271</ele>
        <time>2011-07-31T07:30:57Z</time>
      </trkpt>
      <trkpt lat="49.20079" lon="6.94616">
        <ele>271</ele>
        <time>2011-07-31T07:30:58Z</time>
      </trkpt>
      <trkpt lat="49.20079" lon="6.94618">
        <ele>271</ele>
        <time>2011-07-31T07:30:59Z</time>
      </trkpt>
      <trkpt lat="49.20079" lon="6.94621">
        <ele>271</ele>
        <time>2011-07-31T07:31:00Z</time>
      </trkpt>
      <trkpt lat="49.2008" lon="6.94622">
        <ele>271</ele>
        <time>2011-07-31T07:31:01Z</time>
      </trkpt>
      <trkpt lat="49.20081" lon="6.94624">
        <ele>271</ele>
        <time>2011-07-31T07:31:02Z</time>
      </trkpt>
      <trkpt lat="49.20081" lon="6.94627">
        <ele>271</ele>
        <time>2011-07-31T07:31:03Z</time>
      </trkpt>
      <trkpt lat="49.2008" lon="6.94629">
        <ele>271</ele>
        <time>2011-07-31T07:31:04Z</time>
      </trkpt>
      <trkpt lat="49.20079" lon="6.94631">
        <ele>271</ele>
        <time>2011-07-31T07:31:05Z</time>
      </trkpt>
      <trkpt lat="49.20079" lon="6.94633">
        <ele>271</ele>
        <time>2011-07-31T07:31:06Z</time>
      </trkpt>
      <trkpt lat="49.20078" lon="6.94635">
        <ele>271</ele>
        <time>2011-07-31T07:31:08Z</time>
      </trkpt>
      <trkpt lat="49.20076" lon="6.94637">
        <ele>271</ele>
        <time>2011-07-31T07:31:10Z</time>
      </trkpt>
      <trkpt lat="49.20074" lon="6.9464">
        <ele>271</ele>
        <time>2011-07-31T07:31:12Z</time>
      </trkpt>
      <trkpt lat="49.20072" lon="6.94641">
        <ele>271</ele>
        <time>2011-07-31T07:31:13Z</time>
      </trkpt>
      <trkpt lat="49.2007" lon="6.94641">
        <ele>271</ele>
        <time>2011-07-31T07:31:14Z</time>
      </trkpt>
      <trkpt lat="49.20068" lon="6.9464">
        <ele>271</ele>
        <time>2011-07-31T07:31:17Z</time>
      </trkpt>
      <trkpt lat="49.20068" lon="6.94638">
        <ele>271</ele>
        <time>2011-07-31T07:31:18Z</time>
      </trkpt>
      <trkpt lat="49.20066" lon="6.94638">
        <ele>271</ele>
        <time>2011-07-31T07:31:25Z</time>
      </trkpt>
      <trkpt lat="49.20065" lon="6.94637">
        <ele>271</ele>
        <time>2011-07-31T07:31:27Z</time>
      </trkpt>
      <trkpt lat="49.20063" lon="6.94639">
        <ele>271</ele>
        <time>2011-07-31T07:31:29Z</time>
      </trkpt>
      <trkpt lat="49.20062" lon="6.9464">
        <ele>271</ele>
        <time>2011-07-31T07:31:31Z</time>
      </trkpt>
      <trkpt lat="49.20061" lon="6.94641">
        <ele>271</ele>
        <time>2011-07-31T07:31:34Z</time>
      </trkpt>
      <trkpt lat="49.20059" lon="6.94643">
        <ele>273</ele>
        <time>2011-07-31T07:31:36Z</time>
      </trkpt>
      <trkpt lat="49.20057" lon="6.94645">
        <ele>275</ele>
        <time>2011-07-31T07:31:38Z</time>
      </trkpt>
      <trkpt lat="49.20057" lon="6.94647">
        <ele>275</ele>
        <time>2011-07-31T07:31:40Z</time>
      </trkpt>
      <trkpt lat="49.20058" lon="6.9465">
        <ele>275</ele>
        <time>2011-07-31T07:31:43Z</time>
      </trkpt>
      <trkpt lat="49.20058" lon="6.94652">
        <ele>275</ele>
        <time>2011-07-31T07:31:44Z</time>
      </trkpt>
      <trkpt lat="49.20059" lon="6.94654">
        <ele>275</ele>
        <time>2011-07-31T07:31:46Z</time>
      </trkpt>
      <trkpt lat="49.20059" lon="6.94656">
        <ele>275</ele>
        <time>2011-07-31T07:31:48Z</time>
      </trkpt>
      <trkpt lat="49.20059" lon="6.94658">
        <ele>275</ele>
        <time>2011-07-31T07:31:50Z</time>
      </trkpt>
      <trkpt lat="49.20058" lon="6.9466">
        <ele>275</ele>
        <time>2011-07-31T07:31:53Z</time>
      </trkpt>
      <trkpt lat="49.20058" lon="6.94662">
        <ele>275</ele>
        <time>2011-07-31T07:31:54Z</time>
      </trkpt>
      <trkpt lat="49.20057" lon="6.94665">
        <ele>275</ele>
        <time>2011-07-31T07:31:56Z</time>
      </trkpt>
      <trkpt lat="49.20057" lon="6.94667">
        <ele>275</ele>
        <time>2011-07-31T07:31:58Z</time>
      </trkpt>
      <trkpt lat="49.20055" lon="6.94669">
        <ele>274</ele>
        <time>2011-07-31T07:32:01Z</time>
      </trkpt>
      <trkpt lat="49.20054" lon="6.94671">
        <ele>272</ele>
        <time>2011-07-31T07:32:03Z</time>
      </trkpt>
      <trkpt lat="49.20052" lon="6.94672">
        <ele>271</ele>
        <time>2011-07-31T07:32:05Z</time>
      </trkpt>
      <trkpt lat="49.20051" lon="6.94672">
        <ele>270</ele>
        <time>2011-07-31T07:32:06Z</time>
      </trkpt>
      <trkpt lat="49.20049" lon="6.94675">
        <ele>269</ele>
        <time>2011-07-31T07:32:08Z</time>
      </trkpt>
      <trkpt lat="49.20048" lon="6.94677">
        <ele>268</ele>
        <time>2011-07-31T07:32:11Z</time>
      </trkpt>
      <trkpt lat="49.20046" lon="6.94679">
        <ele>267</ele>
        <time>2011-07-31T07:32:13Z</time>
      </trkpt>
      <trkpt lat="49.20045" lon="6.94682">
        <ele>266</ele>
        <time>2011-07-31T07:32:15Z</time>
      </trkpt>
      <trkpt lat="49.20043" lon="6.94683">
        <ele>265</ele>
        <time>2011-07-31T07:32:17Z</time>
      </trkpt>
      <trkpt lat="49.20041" lon="6.94686">
        <ele>265</ele>
        <time>2011-07-31T07:32:19Z</time>
      </trkpt>
      <trkpt lat="49.20039" lon="6.94688">
        <ele>265</ele>
        <time>2011-07-31T07:32:22Z</time>
      </trkpt>
      <trkpt lat="49.20038" lon="6.94692">
        <ele>265</ele>
        <time>2011-07-31T07:32:24Z</time>
      </trkpt>
      <trkpt lat="49.20036" lon="6.94694">
        <ele>265</ele>
        <time>2011-07-31T07:32:27Z</time>
      </trkpt>
      <trkpt lat="49.20034" lon="6.94696">
        <ele>264</ele>
        <time>2011-07-31T07:32:29Z</time>
      </trkpt>
      <trkpt lat="49.20033" lon="6.94698">
        <ele>264</ele>
        <time>2011-07-31T07:32:32Z</time>
      </trkpt>
      <trkpt lat="49.20031" lon="6.947">
        <ele>264</ele>
        <time>2011-07-31T07:32:35Z</time>
      </trkpt>
      <trkpt lat="49.20029" lon="6.94701">
        <ele>264</ele>
        <time>2011-07-31T07:32:37Z</time>
      </trkpt>
      <trkpt lat="49.20028" lon="6.94702">
        <ele>264</ele>
        <time>2011-07-31T07:32:39Z</time>
      </trkpt>
      <trkpt lat="49.20027" lon="6.947">
        <ele>264</ele>
        <time>2011-07-31T07:32:46Z</time>
      </trkpt>
      <trkpt lat="49.20025" lon="6.94699">
        <ele>264</ele>
        <time>2011-07-31T07:32:48Z</time>
      </trkpt>
      <trkpt lat="49.20024" lon="6.94698">
        <ele>263</ele>
        <time>2011-07-31T07:32:50Z</time>
      </trkpt>
      <trkpt lat="49.20023" lon="6.94698">
        <ele>262</ele>
        <time>2011-07-31T07:32:51Z</time>
      </trkpt>
      <trkpt lat="49.20021" lon="6.94697">
        <ele>261</ele>
        <time>2011-07-31T07:32:52Z</time>
      </trkpt>
      <trkpt lat="49.2002" lon="6.94697">
        <ele>261</ele>
        <time>2011-07-31T07:32:53Z</time>
      </trkpt>
      <trkpt lat="49.20019" lon="6.94696">
        <ele>261</ele>
        <time>2011-07-31T07:32:54Z</time>
      </trkpt>
      <trkpt lat="49.20018" lon="6.94695">
        <ele>260</ele>
        <time>2011-07-31T07:32:55Z</time>
      </trkpt>
      <trkpt lat="49.20016" lon="6.94695">
        <ele>260</ele>
        <time>2011-07-31T07:32:56Z</time>
      </trkpt>
      <trkpt lat="49.20015" lon="6.94696">
        <ele>260</ele>
        <time>2011-07-31T07:32:57Z</time>
      </trkpt>
      <trkpt lat="49.20013" lon="6.94695">
        <ele>259</ele>
        <time>2011-07-31T07:32:59Z</time>
      </trkpt>
      <trkpt lat="49.20012" lon="6.94695">
        <ele>257</ele>
        <time>2011-07-31T07:33:01Z</time>
      </trkpt>
      <trkpt lat="49.2001" lon="6.94695">
        <ele>256</ele>
        <time>2011-07-31T07:33:03Z</time>
      </trkpt>
      <trkpt lat="49.20008" lon="6.94695">
        <ele>256</ele>
        <time>2011-07-31T07:33:05Z</time>
      </trkpt>
      <trkpt lat="49.20006" lon="6.94696">
        <ele>256</ele>
        <time>2011-07-31T07:33:07Z</time>
      </trkpt>
      <trkpt lat="49.20005" lon="6.94697">
        <ele>256</ele>
        <time>2011-07-31T07:33:08Z</time>
      </trkpt>
      <trkpt lat="49.20002" lon="6.94698">
        <ele>256</ele>
        <time>2011-07-31T07:33:10Z</time>
      </trkpt>
      <trkpt lat="49.20001" lon="6.94698">
        <ele>256</ele>
        <time>2011-07-31T07:33:11Z</time>
      </trkpt>
      <trkpt lat="49.19999" lon="6.94698">
        <ele>256</ele>
        <time>2011-07-31T07:33:13Z</time>
      </trkpt>
      <trkpt lat="49.19998" lon="6.94698">
        <ele>255</ele>
        <time>2011-07-31T07:33:15Z</time>
      </trkpt>
      <trkpt lat="49.19997" lon="6.94698">
        <ele>255</ele>
        <time>2011-07-31T07:33:17Z</time>
      </trkpt>
      <trkpt lat="49.19995" lon="6.94697">
        <ele>254</ele>
        <time>2011-07-31T07:33:19Z</time>
      </trkpt>
      <trkpt lat="49.19993" lon="6.94698">
        <ele>254</ele>
        <time>2011-07-31T07:33:21Z</time>
      </trkpt>
      <trkpt lat="49.19991" lon="6.94698">
        <ele>253</ele>
        <time>2011-07-31T07:33:23Z</time>
      </trkpt>
      <trkpt lat="49.19989" lon="6.94698">
        <ele>252</ele>
        <time>2011-07-31T07:33:25Z</time>
      </trkpt>
      <trkpt lat="49.19987" lon="6.94698">
        <ele>250</ele>
        <time>2011-07-31T07:33:27Z</time>
      </trkpt>
      <trkpt lat="49.19986" lon="6.94698">
        <ele>249</ele>
        <time>2011-07-31T07:33:29Z</time>
      </trkpt>
      <trkpt lat="49.19984" lon="6.94699">
        <ele>248</ele>
        <time>2011-07-31T07:33:31Z</time>
      </trkpt>
      <trkpt lat="49.19982" lon="6.94699">
        <ele>248</ele>
        <time>2011-07-31T07:33:33Z</time>
      </trkpt>
      <trkpt lat="49.19981" lon="6.94699">
        <ele>248</ele>
        <time>2011-07-31T07:33:34Z</time>
      </trkpt>
      <trkpt lat="49.19979" lon="6.947">
        <ele>248</ele>
        <time>2011-07-31T07:33:36Z</time>
      </trkpt>
      <trkpt lat="49.19978" lon="6.947">
        <ele>248</ele>
        <time>2011-07-31T07:33:38Z</time>
      </trkpt>
      <trkpt lat="49.19976" lon="6.947">
        <ele>247</ele>
        <time>2011-07-31T07:33:40Z</time>
      </trkpt>
      <trkpt lat="49.19974" lon="6.94701">
        <ele>247</ele>
        <time>2011-07-31T07:33:42Z</time>
      </trkpt>
      <trkpt lat="49.19973" lon="6.94701">
        <ele>247</ele>
        <time>2011-07-31T07:33:45Z</time>
      </trkpt>
      <trkpt lat="49.19971" lon="6.94704">
        <ele>247</ele>
        <time>2011-07-31T07:33:47Z</time>
      </trkpt>
      <trkpt lat="49.19969" lon="6.94705">
        <ele>247</ele>
        <time>2011-07-31T07:33:49Z</time>
      </trkpt>
      <trkpt lat="49.19968" lon="6.94706">
        <ele>247</ele>
        <time>2011-07-31T07:33:51Z</time>
      </trkpt>
      <trkpt lat="49.19966" lon="6.94707">
        <ele>247</ele>
        <time>2011-07-31T07:33:53Z</time>
      </trkpt>
      <trkpt lat="49.19965" lon="6.94709">
        <ele>245</ele>
        <time>2011-07-31T07:33:57Z</time>
      </trkpt>
      <trkpt lat="49.19963" lon="6.94709">
        <ele>244</ele>
        <time>2011-07-31T07:34:00Z</time>
      </trkpt>
      <trkpt lat="49.19962" lon="6.9471">
        <ele>243</ele>
        <time>2011-07-31T07:34:03Z</time>
      </trkpt>
      <trkpt lat="49.1996" lon="6.9471">
        <ele>243</ele>
        <time>2011-07-31T07:34:05Z</time>
      </trkpt>
      <trkpt lat="49.19958" lon="6.9471">
        <ele>243</ele>
        <time>2011-07-31T07:34:07Z</time>
      </trkpt>
      <trkpt lat="49.19956" lon="6.94711">
        <ele>243</ele>
        <time>2011-07-31T07:34:08Z</time>
      </trkpt>
      <trkpt lat="49.19955" lon="6.9471">
        <ele>243</ele>
        <time>2011-07-31T07:34:10Z</time>
      </trkpt>
      <trkpt lat="49.19953" lon="6.94712">
        <ele>243</ele>
        <time>2011-07-31T07:34:12Z</time>
      </trkpt>
      <trkpt lat="49.19952" lon="6.94713">
        <ele>243</ele>
        <time>2011-07-31T07:34:13Z</time>
      </trkpt>
      <trkpt lat="49.1995" lon="6.94713">
        <ele>243</ele>
        <time>2011-07-31T07:34:15Z</time>
      </trkpt>
      <trkpt lat="49.19949" lon="6.94715">
        <ele>243</ele>
        <time>2011-07-31T07:34:17Z</time>
      </trkpt>
      <trkpt lat="49.19947" lon="6.94715">
        <ele>243</ele>
        <time>2011-07-31T07:34:19Z</time>
      </trkpt>
      <trkpt lat="49.19946" lon="6.94717">
        <ele>243</ele>
        <time>2011-07-31T07:34:22Z</time>
      </trkpt>
      <trkpt lat="49.19944" lon="6.94718">
        <ele>243</ele>
        <time>2011-07-31T07:34:24Z</time>
      </trkpt>
      <trkpt lat="49.19942" lon="6.94719">
        <ele>244</ele>
        <time>2011-07-31T07:34:26Z</time>
      </trkpt>
      <trkpt lat="49.19941" lon="6.94719">
        <ele>245</ele>
        <time>2011-07-31T07:34:28Z</time>
      </trkpt>
      <trkpt lat="49.19939" lon="6.94721">
        <ele>245</ele>
        <time>2011-07-31T07:34:30Z</time>
      </trkpt>
      <trkpt lat="49.19939" lon="6.94723">
        <ele>245</ele>
        <time>2011-07-31T07:34:32Z</time>
      </trkpt>
      <trkpt lat="49.19936" lon="6.94725">
        <ele>246</ele>
        <time>2011-07-31T07:34:34Z</time>
      </trkpt>
      <trkpt lat="49.19935" lon="6.94726">
        <ele>247</ele>
        <time>2011-07-31T07:34:36Z</time>
      </trkpt>
      <trkpt lat="49.19933" lon="6.94726">
        <ele>247</ele>
        <time>2011-07-31T07:34:37Z</time>
      </trkpt>
      <trkpt lat="49.19932" lon="6.94727">
        <ele>247</ele>
        <time>2011-07-31T07:34:38Z</time>
      </trkpt>
      <trkpt lat="49.1993" lon="6.94727">
        <ele>247</ele>
        <time>2011-07-31T07:34:39Z</time>
      </trkpt>
      <trkpt lat="49.19929" lon="6.94729">
        <ele>247</ele>
        <time>2011-07-31T07:34:40Z</time>
      </trkpt>
      <trkpt lat="49.19927" lon="6.94729">
        <ele>247</ele>
        <time>2011-07-31T07:34:42Z</time>
      </trkpt>
      <trkpt lat="49.19925" lon="6.9473">
        <ele>247</ele>
        <time>2011-07-31T07:34:44Z</time>
      </trkpt>
      <trkpt lat="49.19923" lon="6.94732">
        <ele>247</ele>
        <time>2011-07-31T07:34:47Z</time>
      </trkpt>
      <trkpt lat="49.19922" lon="6.94734">
        <ele>247</ele>
        <time>2011-07-31T07:34:49Z</time>
      </trkpt>
      <trkpt lat="49.19921" lon="6.94736">
        <ele>247</ele>
        <time>2011-07-31T07:34:51Z</time>
      </trkpt>
      <trkpt lat="49.19922" lon="6.94738">
        <ele>247</ele>
        <time>2011-07-31T07:34:53Z</time>
      </trkpt>
      <trkpt lat="49.19922" lon="6.9474">
        <ele>247</ele>
        <time>2011-07-31T07:34:55Z</time>
      </trkpt>
      <trkpt lat="49.19922" lon="6.94742">
        <ele>247</ele>
        <time>2011-07-31T07:34:57Z</time>
      </trkpt>
      <trkpt lat="49.19921" lon="6.94744">
        <ele>249</ele>
        <time>2011-07-31T07:34:59Z</time>
      </trkpt>
      <trkpt lat="49.19918" lon="6.94745">
        <ele>254</ele>
        <time>2011-07-31T07:35:04Z</time>
      </trkpt>
      <trkpt lat="49.19917" lon="6.94745">
        <ele>254</ele>
        <time>2011-07-31T07:35:06Z</time>
      </trkpt>
      <trkpt lat="49.19915" lon="6.94744">
        <ele>254</ele>
        <time>2011-07-31T07:35:07Z</time>
      </trkpt>
      <trkpt lat="49.19914" lon="6.94745">
        <ele>254</ele>
        <time>2011-07-31T07:35:08Z</time>
      </trkpt>
      <trkpt lat="49.19912" lon="6.94744">
        <ele>254</ele>
        <time>2011-07-31T07:35:09Z</time>
      </trkpt>
      <trkpt lat="49.19911" lon="6.94743">
        <ele>254</ele>
        <time>2011-07-31T07:35:10Z</time>
      </trkpt>
      <trkpt lat="49.1991" lon="6.94743">
        <ele>254</ele>
        <time>2011-07-31T07:35:11Z</time>
      </trkpt>
      <trkpt lat="49.19908" lon="6.94742">
        <ele>254</ele>
        <time>2011-07-31T07:35:12Z</time>
      </trkpt>
      <trkpt lat="49.19906" lon="6.94741">
        <ele>254</ele>
        <time>2011-07-31T07:35:13Z</time>
      </trkpt>
      <trkpt lat="49.19904" lon="6.94739">
        <ele>254</ele>
        <time>2011-07-31T07:35:15Z</time>
      </trkpt>
      <trkpt lat="49.19903" lon="6.94738">
        <ele>254</ele>
        <time>2011-07-31T07:35:16Z</time>
      </trkpt>
      <trkpt lat="49.19902" lon="6.94737">
        <ele>254</ele>
        <time>2011-07-31T07:35:18Z</time>
      </trkpt>
      <trkpt lat="49.19899" lon="6.94735">
        <ele>254</ele>
        <time>2011-07-31T07:35:20Z</time>
      </trkpt>
      <trkpt lat="49.19897" lon="6.94734">
        <ele>253</ele>
        <time>2011-07-31T07:35:21Z</time>
      </trkpt>
      <trkpt lat="49.19895" lon="6.94733">
        <ele>252</ele>
        <time>2011-07-31T07:35:23Z</time>
      </trkpt>
      <trkpt lat="49.19893" lon="6.94731">
        <ele>251</ele>
        <time>2011-07-31T07:35:24Z</time>
      </trkpt>
      <trkpt lat="49.19892" lon="6.94731">
        <ele>251</ele>
        <time>2011-07-31T07:35:25Z</time>
      </trkpt>
      <trkpt lat="49.1989" lon="6.94729">
        <ele>251</ele>
        <time>2011-07-31T07:35:27Z</time>
      </trkpt>
      <trkpt lat="49.19888" lon="6.94728">
        <ele>251</ele>
        <time>2011-07-31T07:35:29Z</time>
      </trkpt>
      <trkpt lat="49.19886" lon="6.94727">
        <ele>250</ele>
        <time>2011-07-31T07:35:31Z</time>
      </trkpt>
      <trkpt lat="49.19884" lon="6.94727">
        <ele>250</ele>
        <time>2011-07-31T07:35:32Z</time>
      </trkpt>
      <trkpt lat="49.19883" lon="6.94726">
        <ele>250</ele>
        <time>2011-07-31T07:35:33Z</time>
      </trkpt>
      <trkpt lat="49.19881" lon="6.94726">
        <ele>250</ele>
        <time>2011-07-31T07:35:34Z</time>
      </trkpt>
      <trkpt lat="49.1988" lon="6.94726">
        <ele>250</ele>
        <time>2011-07-31T07:35:35Z</time>
      </trkpt>
      <trkpt lat="49.19878" lon="6.94725">
        <ele>250</ele>
        <time>2011-07-31T07:35:36Z</time>
      </trkpt>
      <trkpt lat="49.19876" lon="6.94725">
        <ele>250</ele>
        <time>2011-07-31T07:35:37Z</time>
      </trkpt>
      <trkpt lat="49.19875" lon="6.94724">
        <ele>250</ele>
        <time>2011-07-31T07:35:38Z</time>
      </trkpt>
      <trkpt lat="49.19873" lon="6.94723">
        <ele>250</ele>
        <time>2011-07-31T07:35:39Z</time>
      </trkpt>
      <trkpt lat="49.19872" lon="6.94722">
        <ele>250</ele>
        <time>2011-07-31T07:35:40Z</time>
      </trkpt>
      <trkpt lat="49.19871" lon="6.94721">
        <ele>250</ele>
        <time>2011-07-31T07:35:41Z</time>
      </trkpt>
      <trkpt lat="49.19869" lon="6.94721">
        <ele>250</ele>
        <time>2011-07-31T07:35:42Z</time>
      </trkpt>
      <trkpt lat="49.19868" lon="6.9472">
        <ele>250</ele>
        <time>2011-07-31T07:35:43Z</time>
      </trkpt>
      <trkpt lat="49.19866" lon="6.94719">
        <ele>250</ele>
        <time>2011-07-31T07:35:44Z</time>
      </trkpt>
      <trkpt lat="49.19865" lon="6.94718">
        <ele>250</ele>
        <time>2011-07-31T07:35:45Z</time>
      </trkpt>
      <trkpt lat="49.19863" lon="6.94716">
        <ele>250</ele>
        <time>2011-07-31T07:35:47Z</time>
      </trkpt>
      <trkpt lat="49.19862" lon="6.94715">
        <ele>250</ele>
        <time>2011-07-31T07:35:49Z</time>
      </trkpt>
      <trkpt lat="49.1986" lon="6.94714">
        <ele>249</ele>
        <time>2011-07-31T07:35:51Z</time>
      </trkpt>
      <trkpt lat="49.19859" lon="6.94713">
        <ele>249</ele>
        <time>2011-07-31T07:35:52Z</time>
      </trkpt>
      <trkpt lat="49.19857" lon="6.94712">
        <ele>248</ele>
        <time>2011-07-31T07:35:53Z</time>
      </trkpt>
      <trkpt lat="49.19855" lon="6.94711">
        <ele>247</ele>
        <time>2011-07-31T07:35:55Z</time>
      </trkpt>
      <trkpt lat="49.19854" lon="6.9471">
        <ele>245</ele>
        <time>2011-07-31T07:35:57Z</time>
      </trkpt>
      <trkpt lat="49.19852" lon="6.94709">
        <ele>245</ele>
        <time>2011-07-31T07:35:59Z</time>
      </trkpt>
      <trkpt lat="49.19851" lon="6.94708">
        <ele>245</ele>
        <time>2011-07-31T07:36:00Z</time>
      </trkpt>
      <trkpt lat="49.19849" lon="6.94706">
        <ele>245</ele>
        <time>2011-07-31T07:36:02Z</time>
      </trkpt>
      <trkpt lat="49.19847" lon="6.94705">
        <ele>245</ele>
        <time>2011-07-31T07:36:03Z</time>
      </trkpt>
      <trkpt lat="49.19846" lon="6.94705">
        <ele>245</ele>
        <time>2011-07-31T07:36:04Z</time>
      </trkpt>
      <trkpt lat="49.19845" lon="6.94705">
        <ele>245</ele>
        <time>2011-07-31T07:36:05Z</time>
      </trkpt>
      <trkpt lat="49.19843" lon="6.94704">
        <ele>245</ele>
        <time>2011-07-31T07:36:06Z</time>
      </trkpt>
      <trkpt lat="49.19842" lon="6.94703">
        <ele>245</ele>
        <time>2011-07-31T07:36:07Z</time>
      </trkpt>
      <trkpt lat="49.19841" lon="6.94702">
        <ele>245</ele>
        <time>2011-07-31T07:36:11Z</time>
      </trkpt>
      <trkpt lat="49.19839" lon="6.94702">
        <ele>245</ele>
        <time>2011-07-31T07:36:12Z</time>
      </trkpt>
      <trkpt lat="49.19838" lon="6.94702">
        <ele>245</ele>
        <time>2011-07-31T07:36:13Z</time>
      </trkpt>
      <trkpt lat="49.19836" lon="6.94701">
        <ele>245</ele>
        <time>2011-07-31T07:36:14Z</time>
      </trkpt>
      <trkpt lat="49.19835" lon="6.947">
        <ele>245</ele>
        <time>2011-07-31T07:36:15Z</time>
      </trkpt>
      <trkpt lat="49.19834" lon="6.947">
        <ele>245</ele>
        <time>2011-07-31T07:36:16Z</time>
      </trkpt>
      <trkpt lat="49.19832" lon="6.94698">
        <ele>245</ele>
        <time>2011-07-31T07:36:18Z</time>
      </trkpt>
      <trkpt lat="49.1983" lon="6.94698">
        <ele>245</ele>
        <time>2011-07-31T07:36:20Z</time>
      </trkpt>
      <trkpt lat="49.19829" lon="6.94698">
        <ele>245</ele>
        <time>2011-07-31T07:36:21Z</time>
      </trkpt>
      <trkpt lat="49.19827" lon="6.94696">
        <ele>245</ele>
        <time>2011-07-31T07:36:23Z</time>
      </trkpt>
      <trkpt lat="49.19826" lon="6.94696">
        <ele>245</ele>
        <time>2011-07-31T07:36:24Z</time>
      </trkpt>
      <trkpt lat="49.19824" lon="6.94695">
        <ele>245</ele>
        <time>2011-07-31T07:36:25Z</time>
      </trkpt>
      <trkpt lat="49.19822" lon="6.94694">
        <ele>245</ele>
        <time>2011-07-31T07:36:27Z</time>
      </trkpt>
      <trkpt lat="49.1982" lon="6.94692">
        <ele>245</ele>
        <time>2011-07-31T07:36:29Z</time>
      </trkpt>
      <trkpt lat="49.19818" lon="6.94691">
        <ele>245</ele>
        <time>2011-07-31T07:36:30Z</time>
      </trkpt>
      <trkpt lat="49.19817" lon="6.94691">
        <ele>245</ele>
        <time>2011-07-31T07:36:31Z</time>
      </trkpt>
      <trkpt lat="49.19816" lon="6.94691">
        <ele>245</ele>
        <time>2011-07-31T07:36:32Z</time>
      </trkpt>
      <trkpt lat="49.19814" lon="6.94691">
        <ele>245</ele>
        <time>2011-07-31T07:36:33Z</time>
      </trkpt>
      <trkpt lat="49.19813" lon="6.9469">
        <ele>245</ele>
        <time>2011-07-31T07:36:34Z</time>
      </trkpt>
      <trkpt lat="49.19812" lon="6.94689">
        <ele>245</ele>
        <time>2011-07-31T07:36:35Z</time>
      </trkpt>
      <trkpt lat="49.19811" lon="6.94689">
        <ele>245</ele>
        <time>2011-07-31T07:36:36Z</time>
      </trkpt>
      <trkpt lat="49.19809" lon="6.94688">
        <ele>244</ele>
        <time>2011-07-31T07:36:37Z</time>
      </trkpt>
      <trkpt lat="49.19808" lon="6.94688">
        <ele>244</ele>
        <time>2011-07-31T07:36:39Z</time>
      </trkpt>
      <trkpt lat="49.19807" lon="6.94688">
        <ele>244</ele>
        <time>2011-07-31T07:36:40Z</time>
      </trkpt>
      <trkpt lat="49.19805" lon="6.94689">
        <ele>244</ele>
        <time>2011-07-31T07:36:41Z</time>
      </trkpt>
      <trkpt lat="49.19804" lon="6.94688">
        <ele>244</ele>
        <time>2011-07-31T07:36:42Z</time>
      </trkpt>
      <trkpt lat="49.19802" lon="6.94686">
        <ele>244</ele>
        <time>2011-07-31T07:36:44Z</time>
      </trkpt>
      <trkpt lat="49.198" lon="6.94685">
        <ele>244</ele>
        <time>2011-07-31T07:36:46Z</time>
      </trkpt>
      <trkpt lat="49.19799" lon="6.94684">
        <ele>244</ele>
        <time>2011-07-31T07:36:47Z</time>
      </trkpt>
      <trkpt lat="49.19797" lon="6.94682">
        <ele>244</ele>
        <time>2011-07-31T07:36:49Z</time>
      </trkpt>
      <trkpt lat="49.19795" lon="6.9468">
        <ele>243</ele>
        <time>2011-07-31T07:36:51Z</time>
      </trkpt>
      <trkpt lat="49.19793" lon="6.94677">
        <ele>243</ele>
        <time>2011-07-31T07:36:53Z</time>
      </trkpt>
      <trkpt lat="49.19792" lon="6.94677">
        <ele>243</ele>
        <time>2011-07-31T07:36:54Z</time>
      </trkpt>
      <trkpt lat="49.19791" lon="6.94677">
        <ele>243</ele>
        <time>2011-07-31T07:36:55Z</time>
      </trkpt>
      <trkpt lat="49.1979" lon="6.94676">
        <ele>243</ele>
        <time>2011-07-31T07:36:56Z</time>
      </trkpt>
      <trkpt lat="49.19789" lon="6.94676">
        <ele>243</ele>
        <time>2011-07-31T07:36:57Z</time>
      </trkpt>
      <trkpt lat="49.19786" lon="6.94675">
        <ele>243</ele>
        <time>2011-07-31T07:36:59Z</time>
      </trkpt>
      <trkpt lat="49.19785" lon="6.94674">
        <ele>243</ele>
        <time>2011-07-31T07:37:00Z</time>
      </trkpt>
      <trkpt lat="49.19783" lon="6.94675">
        <ele>243</ele>
        <time>2011-07-31T07:37:01Z</time>
      </trkpt>
      <trkpt lat="49.19782" lon="6.94674">
        <ele>243</ele>
        <time>2011-07-31T07:37:02Z</time>
      </trkpt>
      <trkpt lat="49.1978" lon="6.94673">
        <ele>243</ele>
        <time>2011-07-31T07:37:03Z</time>
      </trkpt>
      <trkpt lat="49.19779" lon="6.94673">
        <ele>244</ele>
        <time>2011-07-31T07:37:04Z</time>
      </trkpt>
      <trkpt lat="49.19777" lon="6.94673">
        <ele>245</ele>
        <time>2011-07-31T07:37:05Z</time>
      </trkpt>
      <trkpt lat="49.19776" lon="6.94674">
        <ele>246</ele>
        <time>2011-07-31T07:37:06Z</time>
      </trkpt>
      <trkpt lat="49.19774" lon="6.94673">
        <ele>246</ele>
        <time>2011-07-31T07:37:07Z</time>
      </trkpt>
      <trkpt lat="49.19773" lon="6.94672">
        <ele>247</ele>
        <time>2011-07-31T07:37:08Z</time>
      </trkpt>
      <trkpt lat="49.19772" lon="6.94672">
        <ele>248</ele>
        <time>2011-07-31T07:37:09Z</time>
      </trkpt>
      <trkpt lat="49.1977" lon="6.9467">
        <ele>249</ele>
        <time>2011-07-31T07:37:10Z</time>
      </trkpt>
      <trkpt lat="49.19769" lon="6.94668">
        <ele>250</ele>
        <time>2011-07-31T07:37:12Z</time>
      </trkpt>
      <trkpt lat="49.19766" lon="6.94666">
        <ele>251</ele>
        <time>2011-07-31T07:37:14Z</time>
      </trkpt>
      <trkpt lat="49.19765" lon="6.94665">
        <ele>252</ele>
        <time>2011-07-31T07:37:15Z</time>
      </trkpt>
      <trkpt lat="49.19763" lon="6.94663">
        <ele>254</ele>
        <time>2011-07-31T07:37:17Z</time>
      </trkpt>
      <trkpt lat="49.19762" lon="6.94663">
        <ele>254</ele>
        <time>2011-07-31T07:37:18Z</time>
      </trkpt>
      <trkpt lat="49.19759" lon="6.94661">
        <ele>255</ele>
        <time>2011-07-31T07:37:20Z</time>
      </trkpt>
      <trkpt lat="49.19759" lon="6.94658">
        <ele>256</ele>
        <time>2011-07-31T07:37:22Z</time>
      </trkpt>
      <trkpt lat="49.19757" lon="6.94656">
        <ele>256</ele>
        <time>2011-07-31T07:37:23Z</time>
      </trkpt>
      <trkpt lat="49.19756" lon="6.94654">
        <ele>256</ele>
        <time>2011-07-31T07:37:25Z</time>
      </trkpt>
      <trkpt lat="49.19754" lon="6.94653">
        <ele>256</ele>
        <time>2011-07-31T07:37:26Z</time>
      </trkpt>
      <trkpt lat="49.19753" lon="6.94651">
        <ele>256</ele>
        <time>2011-07-31T07:37:28Z</time>
      </trkpt>
      <trkpt lat="49.19752" lon="6.94649">
        <ele>256</ele>
        <time>2011-07-31T07:37:30Z</time>
      </trkpt>
      <trkpt lat="49.19751" lon="6.94648">
        <ele>256</ele>
        <time>2011-07-31T07:37:32Z</time>
      </trkpt>
      <trkpt lat="49.19749" lon="6.94647">
        <ele>256</ele>
        <time>2011-07-31T07:37:34Z</time>
      </trkpt>
      <trkpt lat="49.19748" lon="6.94646">
        <ele>256</ele>
        <time>2011-07-31T07:37:35Z</time>
      </trkpt>
      <trkpt lat="49.19746" lon="6.94646">
        <ele>256</ele>
        <time>2011-07-31T07:37:36Z</time>
      </trkpt>
      <trkpt lat="49.19745" lon="6.94645">
        <ele>256</ele>
        <time>2011-07-31T07:37:37Z</time>
      </trkpt>
      <trkpt lat="49.19744" lon="6.94645">
        <ele>256</ele>
        <time>2011-07-31T07:37:38Z</time>
      </trkpt>
      <trkpt lat="49.19742" lon="6.94644">
        <ele>255</ele>
        <time>2011-07-31T07:37:39Z</time>
      </trkpt>
      <trkpt lat="49.19741" lon="6.94644">
        <ele>255</ele>
        <time>2011-07-31T07:37:40Z</time>
      </trkpt>
      <trkpt lat="49.1974" lon="6.94643">
        <ele>255</ele>
        <time>2011-07-31T07:37:41Z</time>
      </trkpt>
      <trkpt lat="49.19738" lon="6.94643">
        <ele>255</ele>
        <time>2011-07-31T07:37:42Z</time>
      </trkpt>
      <trkpt lat="49.19737" lon="6.94643">
        <ele>255</ele>
        <time>2011-07-31T07:37:43Z</time>
      </trkpt>
      <trkpt lat="49.19735" lon="6.94643">
        <ele>254</ele>
        <time>2011-07-31T07:37:45Z</time>
      </trkpt>
      <trkpt lat="49.19734" lon="6.94641">
        <ele>254</ele>
        <time>2011-07-31T07:37:46Z</time>
      </trkpt>
      <trkpt lat="49.19734" lon="6.94639">
        <ele>253</ele>
        <time>2011-07-31T07:37:48Z</time>
      </trkpt>
      <trkpt lat="49.19732" lon="6.9464">
        <ele>252</ele>
        <time>2011-07-31T07:37:51Z</time>
      </trkpt>
      <trkpt lat="49.1973" lon="6.94639">
        <ele>251</ele>
        <time>2011-07-31T07:37:53Z</time>
      </trkpt>
      <trkpt lat="49.19727" lon="6.94638">
        <ele>251</ele>
        <time>2011-07-31T07:37:55Z</time>
      </trkpt>
      <trkpt lat="49.19726" lon="6.94637">
        <ele>251</ele>
        <time>2011-07-31T07:37:56Z</time>
      </trkpt>
      <trkpt lat="49.19725" lon="6.94636">
        <ele>251</ele>
        <time>2011-07-31T07:37:57Z</time>
      </trkpt>
      <trkpt lat="49.19723" lon="6.94635">
        <ele>251</ele>
        <time>2011-07-31T07:37:58Z</time>
      </trkpt>
      <trkpt lat="49.19722" lon="6.94635">
        <ele>251</ele>
        <time>2011-07-31T07:37:59Z</time>
      </trkpt>
      <trkpt lat="49.1972" lon="6.94635">
        <ele>251</ele>
        <time>2011-07-31T07:38:00Z</time>
      </trkpt>
      <trkpt lat="49.19719" lon="6.94634">
        <ele>251</ele>
        <time>2011-07-31T07:38:01Z</time>
      </trkpt>
      <trkpt lat="49.19718" lon="6.94633">
        <ele>251</ele>
        <time>2011-07-31T07:38:02Z</time>
      </trkpt>
      <trkpt lat="49.19716" lon="6.94631">
        <ele>251</ele>
        <time>2011-07-31T07:38:04Z</time>
      </trkpt>
      <trkpt lat="49.19715" lon="6.9463">
        <ele>251</ele>
        <time>2011-07-31T07:38:06Z</time>
      </trkpt>
      <trkpt lat="49.19713" lon="6.94629">
        <ele>251</ele>
        <time>2011-07-31T07:38:08Z</time>
      </trkpt>
      <trkpt lat="49.19711" lon="6.94628">
        <ele>251</ele>
        <time>2011-07-31T07:38:10Z</time>
      </trkpt>
      <trkpt lat="49.19709" lon="6.94625">
        <ele>251</ele>
        <time>2011-07-31T07:38:12Z</time>
      </trkpt>
      <trkpt lat="49.19708" lon="6.94624">
        <ele>251</ele>
        <time>2011-07-31T07:38:13Z</time>
      </trkpt>
      <trkpt lat="49.19706" lon="6.94623">
        <ele>251</ele>
        <time>2011-07-31T07:38:15Z</time>
      </trkpt>
      <trkpt lat="49.19704" lon="6.94624">
        <ele>251</ele>
        <time>2011-07-31T07:38:17Z</time>
      </trkpt>
      <trkpt lat="49.19702" lon="6.94623">
        <ele>252</ele>
        <time>2011-07-31T07:38:18Z</time>
      </trkpt>
      <trkpt lat="49.19699" lon="6.94623">
        <ele>254</ele>
        <time>2011-07-31T07:38:20Z</time>
      </trkpt>
      <trkpt lat="49.19698" lon="6.94622">
        <ele>256</ele>
        <time>2011-07-31T07:38:22Z</time>
      </trkpt>
      <trkpt lat="49.19697" lon="6.94619">
        <ele>258</ele>
        <time>2011-07-31T07:38:24Z</time>
      </trkpt>
      <trkpt lat="49.19695" lon="6.94618">
        <ele>259</ele>
        <time>2011-07-31T07:38:26Z</time>
      </trkpt>
      <trkpt lat="49.19693" lon="6.94617">
        <ele>260</ele>
        <time>2011-07-31T07:38:28Z</time>
      </trkpt>
      <trkpt lat="49.19691" lon="6.94616">
        <ele>261</ele>
        <time>2011-07-31T07:38:29Z</time>
      </trkpt>
      <trkpt lat="49.1969" lon="6.94615">
        <ele>261</ele>
        <time>2011-07-31T07:38:30Z</time>
      </trkpt>
      <trkpt lat="49.19688" lon="6.94614">
        <ele>261</ele>
        <time>2011-07-31T07:38:32Z</time>
      </trkpt>
      <trkpt lat="49.19686" lon="6.94611">
        <ele>261</ele>
        <time>2011-07-31T07:38:34Z</time>
      </trkpt>
      <trkpt lat="49.19685" lon="6.9461">
        <ele>261</ele>
        <time>2011-07-31T07:38:36Z</time>
      </trkpt>
      <trkpt lat="49.19683" lon="6.94609">
        <ele>261</ele>
        <time>2011-07-31T07:38:37Z</time>
      </trkpt>
      <trkpt lat="49.19682" lon="6.94609">
        <ele>261</ele>
        <time>2011-07-31T07:38:38Z</time>
      </trkpt>
      <trkpt lat="49.19681" lon="6.94609">
        <ele>261</ele>
        <time>2011-07-31T07:38:40Z</time>
      </trkpt>
      <trkpt lat="49.1968" lon="6.94606">
        <ele>261</ele>
        <time>2011-07-31T07:38:42Z</time>
      </trkpt>
      <trkpt lat="49.19678" lon="6.94605">
        <ele>261</ele>
        <time>2011-07-31T07:38:45Z</time>
      </trkpt>
      <trkpt lat="49.19676" lon="6.94604">
        <ele>261</ele>
        <time>2011-07-31T07:38:47Z</time>
      </trkpt>
      <trkpt lat="49.19675" lon="6.94604">
        <ele>261</ele>
        <time>2011-07-31T07:38:48Z</time>
      </trkpt>
      <trkpt lat="49.19674" lon="6.94604">
        <ele>261</ele>
        <time>2011-07-31T07:38:49Z</time>
      </trkpt>
      <trkpt lat="49.19672" lon="6.94603">
        <ele>261</ele>
        <time>2011-07-31T07:38:50Z</time>
      </trkpt>
      <trkpt lat="49.19671" lon="6.94603">
        <ele>261</ele>
        <time>2011-07-31T07:38:51Z</time>
      </trkpt>
      <trkpt lat="49.19669" lon="6.946">
        <ele>261</ele>
        <time>2011-07-31T07:38:53Z</time>
      </trkpt>
      <trkpt lat="49.19667" lon="6.94598">
        <ele>261</ele>
        <time>2011-07-31T07:38:55Z</time>
      </trkpt>
      <trkpt lat="49.19666" lon="6.94596">
        <ele>261</ele>
        <time>2011-07-31T07:38:56Z</time>
      </trkpt>
      <trkpt lat="49.19664" lon="6.94596">
        <ele>261</ele>
        <time>2011-07-31T07:38:59Z</time>
      </trkpt>
      <trkpt lat="49.19663" lon="6.94593">
        <ele>262</ele>
        <time>2011-07-31T07:39:01Z</time>
      </trkpt>
      <trkpt lat="49.19661" lon="6.94592">
        <ele>263</ele>
        <time>2011-07-31T07:39:02Z</time>
      </trkpt>
      <trkpt lat="49.1966" lon="6.94591">
        <ele>264</ele>
        <time>2011-07-31T07:39:03Z</time>
      </trkpt>
      <trkpt lat="49.19659" lon="6.9459">
        <ele>265</ele>
        <time>2011-07-31T07:39:04Z</time>
      </trkpt>
      <trkpt lat="49.19657" lon="6.94588">
        <ele>267</ele>
        <time>2011-07-31T07:39:06Z</time>
      </trkpt>
      <trkpt lat="49.19655" lon="6.94588">
        <ele>269</ele>
        <time>2011-07-31T07:39:08Z</time>
      </trkpt>
      <trkpt lat="49.19653" lon="6.94587">
        <ele>271</ele>
        <time>2011-07-31T07:39:10Z</time>
      </trkpt>
      <trkpt lat="49.19651" lon="6.94585">
        <ele>273</ele>
        <time>2011-07-31T07:39:12Z</time>
      </trkpt>
      <trkpt lat="49.1965" lon="6.94582">
        <ele>275</ele>
        <time>2011-07-31T07:39:14Z</time>
      </trkpt>
      <trkpt lat="49.19649" lon="6.94584">
        <ele>279</ele>
        <time>2011-07-31T07:39:18Z</time>
      </trkpt>
      <trkpt lat="49.19646" lon="6.94584">
        <ele>282</ele>
        <time>2011-07-31T07:39:21Z</time>
      </trkpt>
      <trkpt lat="49.19644" lon="6.94583">
        <ele>284</ele>
        <time>2011-07-31T07:39:23Z</time>
      </trkpt>
      <trkpt lat="49.19643" lon="6.94581">
        <ele>287</ele>
        <time>2011-07-31T07:39:26Z</time>
      </trkpt>
      <trkpt lat="49.19642" lon="6.94581">
        <ele>288</ele>
        <time>2011-07-31T07:39:27Z</time>
      </trkpt>
      <trkpt lat="49.19641" lon="6.9458">
        <ele>289</ele>
        <time>2011-07-31T07:39:28Z</time>
      </trkpt>
      <trkpt lat="49.19638" lon="6.94579">
        <ele>291</ele>
        <time>2011-07-31T07:39:30Z</time>
      </trkpt>
      <trkpt lat="49.19637" lon="6.94578">
        <ele>292</ele>
        <time>2011-07-31T07:39:31Z</time>
      </trkpt>
      <trkpt lat="49.19636" lon="6.94577">
        <ele>293</ele>
        <time>2011-07-31T07:39:32Z</time>
      </trkpt>
      <trkpt lat="49.19634" lon="6.94577">
        <ele>295</ele>
        <time>2011-07-31T07:39:34Z</time>
      </trkpt>
      <trkpt lat="49.19633" lon="6.94575">
        <ele>296</ele>
        <time>2011-07-31T07:39:36Z</time>
      </trkpt>
      <trkpt lat="49.19632" lon="6.94574">
        <ele>297</ele>
        <time>2011-07-31T07:39:37Z</time>
      </trkpt>
      <trkpt lat="49.1963" lon="6.94572">
        <ele>299</ele>
        <time>2011-07-31T07:39:39Z</time>
      </trkpt>
      <trkpt lat="49.19627" lon="6.9457">
        <ele>301</ele>
        <time>2011-07-31T07:39:41Z</time>
      </trkpt>
      <trkpt lat="49.19625" lon="6.94569">
        <ele>302</ele>
        <time>2011-07-31T07:39:42Z</time>
      </trkpt>
      <trkpt lat="49.19624" lon="6.94569">
        <ele>303</ele>
        <time>2011-07-31T07:39:43Z</time>
      </trkpt>
      <trkpt lat="49.19623" lon="6.94568">
        <ele>305</ele>
        <time>2011-07-31T07:39:45Z</time>
      </trkpt>
      <trkpt lat="49.19621" lon="6.94568">
        <ele>305</ele>
        <time>2011-07-31T07:39:47Z</time>
      </trkpt>
      <trkpt lat="49.19619" lon="6.94566">
        <ele>305</ele>
        <time>2011-07-31T07:39:51Z</time>
      </trkpt>
      <trkpt lat="49.19618" lon="6.94567">
        <ele>305</ele>
        <time>2011-07-31T07:39:52Z</time>
      </trkpt>
      <trkpt lat="49.19617" lon="6.94566">
        <ele>305</ele>
        <time>2011-07-31T07:39:54Z</time>
      </trkpt>
      <trkpt lat="49.19615" lon="6.94566">
        <ele>305</ele>
        <time>2011-07-31T07:39:56Z</time>
      </trkpt>
      <trkpt lat="49.19613" lon="6.94565">
        <ele>305</ele>
        <time>2011-07-31T07:39:58Z</time>
      </trkpt>
      <trkpt lat="49.1961" lon="6.94564">
        <ele>306</ele>
        <time>2011-07-31T07:40:01Z</time>
      </trkpt>
      <trkpt lat="49.19608" lon="6.94564">
        <ele>307</ele>
        <time>2011-07-31T07:40:02Z</time>
      </trkpt>
      <trkpt lat="49.19605" lon="6.94564">
        <ele>308</ele>
        <time>2011-07-31T07:40:03Z</time>
      </trkpt>
      <trkpt lat="49.19603" lon="6.94564">
        <ele>309</ele>
        <time>2011-07-31T07:40:04Z</time>
      </trkpt>
      <trkpt lat="49.19601" lon="6.94565">
        <ele>311</ele>
        <time>2011-07-31T07:40:06Z</time>
      </trkpt>
      <trkpt lat="49.19601" lon="6.94567">
        <ele>312</ele>
        <time>2011-07-31T07:40:07Z</time>
      </trkpt>
      <trkpt lat="49.19599" lon="6.94568">
        <ele>313</ele>
        <time>2011-07-31T07:40:08Z</time>
      </trkpt>
      <trkpt lat="49.19598" lon="6.94568">
        <ele>314</ele>
        <time>2011-07-31T07:40:09Z</time>
      </trkpt>
      <trkpt lat="49.19596" lon="6.94569">
        <ele>315</ele>
        <time>2011-07-31T07:40:10Z</time>
      </trkpt>
      <trkpt lat="49.19594" lon="6.94568">
        <ele>318</ele>
        <time>2011-07-31T07:40:13Z</time>
      </trkpt>
      <trkpt lat="49.19592" lon="6.94568">
        <ele>320</ele>
        <time>2011-07-31T07:40:15Z</time>
      </trkpt>
      <trkpt lat="49.19591" lon="6.94569">
        <ele>323</ele>
        <time>2011-07-31T07:40:17Z</time>
      </trkpt>
      <trkpt lat="49.19589" lon="6.94569">
        <ele>325</ele>
        <time>2011-07-31T07:40:19Z</time>
      </trkpt>
      <trkpt lat="49.19587" lon="6.94569">
        <ele>327</ele>
        <time>2011-07-31T07:40:21Z</time>
      </trkpt>
      <trkpt lat="49.19586" lon="6.94569">
        <ele>328</ele>
        <time>2011-07-31T07:40:22Z</time>
      </trkpt>
      <trkpt lat="49.19584" lon="6.94569">
        <ele>329</ele>
        <time>2011-07-31T07:40:23Z</time>
      </trkpt>
      <trkpt lat="49.19582" lon="6.94568">
        <ele>331</ele>
        <time>2011-07-31T07:40:25Z</time>
      </trkpt>
      <trkpt lat="49.19581" lon="6.94567">
        <ele>332</ele>
        <time>2011-07-31T07:40:26Z</time>
      </trkpt>
      <trkpt lat="49.19579" lon="6.94567">
        <ele>332</ele>
        <time>2011-07-31T07:40:27Z</time>
      </trkpt>
      <trkpt lat="49.19578" lon="6.94567">
        <ele>332</ele>
        <time>2011-07-31T07:40:28Z</time>
      </trkpt>
      <trkpt lat="49.19576" lon="6.94567">
        <ele>332</ele>
        <time>2011-07-31T07:40:29Z</time>
      </trkpt>
      <trkpt lat="49.19574" lon="6.94569">
        <ele>332</ele>
        <time>2011-07-31T07:40:31Z</time>
      </trkpt>
      <trkpt lat="49.19572" lon="6.9457">
        <ele>332</ele>
        <time>2011-07-31T07:40:33Z</time>
      </trkpt>
      <trkpt lat="49.1957" lon="6.94572">
        <ele>332</ele>
        <time>2011-07-31T07:40:35Z</time>
      </trkpt>
      <trkpt lat="49.19568" lon="6.94573">
        <ele>332</ele>
        <time>2011-07-31T07:40:36Z</time>
      </trkpt>
      <trkpt lat="49.19566" lon="6.94573">
        <ele>332</ele>
        <time>2011-07-31T07:40:37Z</time>
      </trkpt>
      <trkpt lat="49.19564" lon="6.94572">
        <ele>332</ele>
        <time>2011-07-31T07:40:38Z</time>
      </trkpt>
      <trkpt lat="49.19562" lon="6.94572">
        <ele>332</ele>
        <time>2011-07-31T07:40:39Z</time>
      </trkpt>
      <trkpt lat="49.19561" lon="6.94572">
        <ele>332</ele>
        <time>2011-07-31T07:40:40Z</time>
      </trkpt>
      <trkpt lat="49.19558" lon="6.94572">
        <ele>332</ele>
        <time>2011-07-31T07:40:42Z</time>
      </trkpt>
      <trkpt lat="49.19557" lon="6.94573">
        <ele>332</ele>
        <time>2011-07-31T07:40:43Z</time>
      </trkpt>
      <trkpt lat="49.19555" lon="6.94574">
        <ele>332</ele>
        <time>2011-07-31T07:40:45Z</time>
      </trkpt>
      <trkpt lat="49.19553" lon="6.94574">
        <ele>332</ele>
        <time>2011-07-31T07:40:46Z</time>
      </trkpt>
      <trkpt lat="49.19552" lon="6.94574">
        <ele>333</ele>
        <time>2011-07-31T07:40:47Z</time>
      </trkpt>
      <trkpt lat="49.1955" lon="6.94574">
        <ele>333</ele>
        <time>2011-07-31T07:40:48Z</time>
      </trkpt>
      <trkpt lat="49.19547" lon="6.94576">
        <ele>334</ele>
        <time>2011-07-31T07:40:50Z</time>
      </trkpt>
      <trkpt lat="49.19546" lon="6.94576">
        <ele>335</ele>
        <time>2011-07-31T07:40:51Z</time>
      </trkpt>
      <trkpt lat="49.19545" lon="6.94576">
        <ele>335</ele>
        <time>2011-07-31T07:40:52Z</time>
      </trkpt>
      <trkpt lat="49.19543" lon="6.94576">
        <ele>335</ele>
        <time>2011-07-31T07:40:53Z</time>
      </trkpt>
      <trkpt lat="49.19541" lon="6.94577">
        <ele>336</ele>
        <time>2011-07-31T07:40:55Z</time>
      </trkpt>
      <trkpt lat="49.1954" lon="6.94577">
        <ele>336</ele>
        <time>2011-07-31T07:40:56Z</time>
      </trkpt>
      <trkpt lat="49.19538" lon="6.94578">
        <ele>337</ele>
        <time>2011-07-31T07:40:57Z</time>
      </trkpt>
      <trkpt lat="49.19537" lon="6.94578">
        <ele>339</ele>
        <time>2011-07-31T07:40:59Z</time>
      </trkpt>
      <trkpt lat="49.19535" lon="6.94579">
        <ele>341</ele>
        <time>2011-07-31T07:41:01Z</time>
      </trkpt>
      <trkpt lat="49.19534" lon="6.94579">
        <ele>343</ele>
        <time>2011-07-31T07:41:03Z</time>
      </trkpt>
      <trkpt lat="49.19533" lon="6.94582">
        <ele>344</ele>
        <time>2011-07-31T07:41:04Z</time>
      </trkpt>
      <trkpt lat="49.19533" lon="6.94585">
        <ele>346</ele>
        <time>2011-07-31T07:41:06Z</time>
      </trkpt>
      <trkpt lat="49.19532" lon="6.94587">
        <ele>347</ele>
        <time>2011-07-31T07:41:07Z</time>
      </trkpt>
      <trkpt lat="49.19532" lon="6.9459">
        <ele>348</ele>
        <time>2011-07-31T07:41:08Z</time>
      </trkpt>
      <trkpt lat="49.19532" lon="6.94592">
        <ele>349</ele>
        <time>2011-07-31T07:41:09Z</time>
      </trkpt>
      <trkpt lat="49.19531" lon="6.94594">
        <ele>351</ele>
        <time>2011-07-31T07:41:11Z</time>
      </trkpt>
      <trkpt lat="49.19531" lon="6.94597">
        <ele>354</ele>
        <time>2011-07-31T07:41:14Z</time>
      </trkpt>
      <trkpt lat="49.19532" lon="6.946">
        <ele>356</ele>
        <time>2011-07-31T07:41:16Z</time>
      </trkpt>
      <trkpt lat="49.19534" lon="6.94602">
        <ele>357</ele>
        <time>2011-07-31T07:41:18Z</time>
      </trkpt>
      <trkpt lat="49.19535" lon="6.94603">
        <ele>357</ele>
        <time>2011-07-31T07:41:19Z</time>
      </trkpt>
      <trkpt lat="49.19537" lon="6.94605">
        <ele>357</ele>
        <time>2011-07-31T07:41:21Z</time>
      </trkpt>
      <trkpt lat="49.19538" lon="6.94605">
        <ele>357</ele>
        <time>2011-07-31T07:41:23Z</time>
      </trkpt>
      <trkpt lat="49.19539" lon="6.94607">
        <ele>357</ele>
        <time>2011-07-31T07:41:24Z</time>
      </trkpt>
      <trkpt lat="49.19541" lon="6.94609">
        <ele>357</ele>
        <time>2011-07-31T07:41:25Z</time>
      </trkpt>
      <trkpt lat="49.19543" lon="6.9461">
        <ele>357</ele>
        <time>2011-07-31T07:41:26Z</time>
      </trkpt>
      <trkpt lat="49.19545" lon="6.94611">
        <ele>357</ele>
        <time>2011-07-31T07:41:28Z</time>
      </trkpt>
      <trkpt lat="49.19546" lon="6.94612">
        <ele>355</ele>
        <time>2011-07-31T07:41:30Z</time>
      </trkpt>
      <trkpt lat="49.19548" lon="6.94614">
        <ele>352</ele>
        <time>2011-07-31T07:41:33Z</time>
      </trkpt>
      <trkpt lat="49.19549" lon="6.94615">
        <ele>351</ele>
        <time>2011-07-31T07:41:34Z</time>
      </trkpt>
      <trkpt lat="49.19551" lon="6.94618">
        <ele>348</ele>
        <time>2011-07-31T07:41:36Z</time>
      </trkpt>
      <trkpt lat="49.19552" lon="6.9462">
        <ele>347</ele>
        <time>2011-07-31T07:41:37Z</time>
      </trkpt>
      <trkpt lat="49.19552" lon="6.94622">
        <ele>346</ele>
        <time>2011-07-31T07:41:38Z</time>
      </trkpt>
      <trkpt lat="49.19553" lon="6.94623">
        <ele>344</ele>
        <time>2011-07-31T07:41:39Z</time>
      </trkpt>
      <trkpt lat="49.19554" lon="6.94625">
        <ele>341</ele>
        <time>2011-07-31T07:41:41Z</time>
      </trkpt>
      <trkpt lat="49.19554" lon="6.94628">
        <ele>338</ele>
        <time>2011-07-31T07:41:43Z</time>
      </trkpt>
      <trkpt lat="49.19554" lon="6.9463">
        <ele>336</ele>
        <time>2011-07-31T07:41:44Z</time>
      </trkpt>
      <trkpt lat="49.19553" lon="6.94632">
        <ele>329</ele>
        <time>2011-07-31T07:41:48Z</time>
      </trkpt>
      <trkpt lat="49.19551" lon="6.94634">
        <ele>327</ele>
        <time>2011-07-31T07:41:49Z</time>
      </trkpt>
      <trkpt lat="49.19549" lon="6.94634">
        <ele>323</ele>
        <time>2011-07-31T07:41:51Z</time>
      </trkpt>
      <trkpt lat="49.19549" lon="6.94636">
        <ele>321</ele>
        <time>2011-07-31T07:41:52Z</time>
      </trkpt>
      <trkpt lat="49.1955" lon="6.94638">
        <ele>319</ele>
        <time>2011-07-31T07:41:53Z</time>
      </trkpt>
      <trkpt lat="49.19553" lon="6.9464">
        <ele>317</ele>
        <time>2011-07-31T07:41:54Z</time>
      </trkpt>
      <trkpt lat="49.19554" lon="6.94641">
        <ele>315</ele>
        <time>2011-07-31T07:41:55Z</time>
      </trkpt>
      <trkpt lat="49.19554" lon="6.94645">
        <ele>311</ele>
        <time>2011-07-31T07:41:57Z</time>
      </trkpt>
      <trkpt lat="49.19553" lon="6.94647">
        <ele>309</ele>
        <time>2011-07-31T07:41:58Z</time>
      </trkpt>
      <trkpt lat="49.19551" lon="6.94648">
        <ele>307</ele>
        <time>2011-07-31T07:41:59Z</time>
      </trkpt>
      <trkpt lat="49.19552" lon="6.9465">
        <ele>299</ele>
        <time>2011-07-31T07:42:03Z</time>
      </trkpt>
      <trkpt lat="49.19553" lon="6.94652">
        <ele>295</ele>
        <time>2011-07-31T07:42:05Z</time>
      </trkpt>
      <trkpt lat="49.19553" lon="6.94655">
        <ele>293</ele>
        <time>2011-07-31T07:42:07Z</time>
      </trkpt>
      <trkpt lat="49.19553" lon="6.94656">
        <ele>292</ele>
        <time>2011-07-31T07:42:08Z</time>
      </trkpt>
      <trkpt lat="49.19553" lon="6.94658">
        <ele>290</ele>
        <time>2011-07-31T07:42:09Z</time>
      </trkpt>
      <trkpt lat="49.19554" lon="6.9466">
        <ele>288</ele>
        <time>2011-07-31T07:42:11Z</time>
      </trkpt>
      <trkpt lat="49.19555" lon="6.94662">
        <ele>283</ele>
        <time>2011-07-31T07:42:14Z</time>
      </trkpt>
      <trkpt lat="49.19556" lon="6.94664">
        <ele>279</ele>
        <time>2011-07-31T07:42:18Z</time>
      </trkpt>
      <trkpt lat="49.19559" lon="6.94664">
        <ele>278</ele>
        <time>2011-07-31T07:42:19Z</time>
      </trkpt>
      <trkpt lat="49.19562" lon="6.94665">
        <ele>277</ele>
        <time>2011-07-31T07:42:20Z</time>
      </trkpt>
      <trkpt lat="49.19564" lon="6.94665">
        <ele>277</ele>
        <time>2011-07-31T07:42:21Z</time>
      </trkpt>
      <trkpt lat="49.19566" lon="6.94667">
        <ele>277</ele>
        <time>2011-07-31T07:42:26Z</time>
      </trkpt>
      <trkpt lat="49.19567" lon="6.94667">
        <ele>277</ele>
        <time>2011-07-31T07:42:27Z</time>
      </trkpt>
      <trkpt lat="49.19568" lon="6.94669">
        <ele>277</ele>
        <time>2011-07-31T07:42:28Z</time>
      </trkpt>
      <trkpt lat="49.19571" lon="6.9467">
        <ele>277</ele>
        <time>2011-07-31T07:42:29Z</time>
      </trkpt>
      <trkpt lat="49.19569" lon="6.94671">
        <ele>277</ele>
        <time>2011-07-31T07:42:31Z</time>
      </trkpt>
      <trkpt lat="49.19571" lon="6.94673">
        <ele>277</ele>
        <time>2011-07-31T07:42:32Z</time>
      </trkpt>
      <trkpt lat="49.19572" lon="6.94674">
        <ele>277</ele>
        <time>2011-07-31T07:42:33Z</time>
      </trkpt>
      <trkpt lat="49.19574" lon="6.94675">
        <ele>277</ele>
        <time>2011-07-31T07:42:34Z</time>
      </trkpt>
      <trkpt lat="49.19575" lon="6.94677">
        <ele>277</ele>
        <time>2011-07-31T07:42:35Z</time>
      </trkpt>
      <trkpt lat="49.19577" lon="6.94679">
        <ele>278</ele>
        <time>2011-07-31T07:42:36Z</time>
      </trkpt>
      <trkpt lat="49.19579" lon="6.9468">
        <ele>279</ele>
        <time>2011-07-31T07:42:37Z</time>
      </trkpt>
      <trkpt lat="49.19581" lon="6.94681">
        <ele>281</ele>
        <time>2011-07-31T07:42:40Z</time>
      </trkpt>
      <trkpt lat="49.19582" lon="6.94683">
        <ele>282</ele>
        <time>2011-07-31T07:42:41Z</time>
      </trkpt>
      <trkpt lat="49.19584" lon="6.94684">
        <ele>283</ele>
        <time>2011-07-31T07:42:42Z</time>
      </trkpt>
      <trkpt lat="49.19586" lon="6.94687">
        <ele>284</ele>
        <time>2011-07-31T07:42:44Z</time>
      </trkpt>
      <trkpt lat="49.19588" lon="6.94689">
        <ele>285</ele>
        <time>2011-07-31T07:42:45Z</time>
      </trkpt>
      <trkpt lat="49.19588" lon="6.9469">
        <ele>285</ele>
        <time>2011-07-31T07:42:46Z</time>
      </trkpt>
      <trkpt lat="49.19588" lon="6.94692">
        <ele>285</ele>
        <time>2011-07-31T07:42:47Z</time>
      </trkpt>
      <trkpt lat="49.19589" lon="6.94695">
        <ele>285</ele>
        <time>2011-07-31T07:42:50Z</time>
      </trkpt>
      <trkpt lat="49.19591" lon="6.94697">
        <ele>285</ele>
        <time>2011-07-31T07:42:52Z</time>
      </trkpt>
      <trkpt lat="49.19592" lon="6.94699">
        <ele>285</ele>
        <time>2011-07-31T07:42:54Z</time>
      </trkpt>
      <trkpt lat="49.19593" lon="6.947">
        <ele>286</ele>
        <time>2011-07-31T07:42:55Z</time>
      </trkpt>
      <trkpt lat="49.19595" lon="6.94701">
        <ele>286</ele>
        <time>2011-07-31T07:42:56Z</time>
      </trkpt>
      <trkpt lat="49.19596" lon="6.94701">
        <ele>287</ele>
        <time>2011-07-31T07:42:57Z</time>
      </trkpt>
      <trkpt lat="49.19598" lon="6.94702">
        <ele>288</ele>
        <time>2011-07-31T07:42:58Z</time>
      </trkpt>
      <trkpt lat="49.196" lon="6.94703">
        <ele>290</ele>
        <time>2011-07-31T07:43:00Z</time>
      </trkpt>
      <trkpt lat="49.19603" lon="6.94705">
        <ele>292</ele>
        <time>2011-07-31T07:43:02Z</time>
      </trkpt>
      <trkpt lat="49.19604" lon="6.94706">
        <ele>293</ele>
        <time>2011-07-31T07:43:03Z</time>
      </trkpt>
      <trkpt lat="49.19606" lon="6.94707">
        <ele>293</ele>
        <time>2011-07-31T07:43:04Z</time>
      </trkpt>
      <trkpt lat="49.19607" lon="6.94709">
        <ele>295</ele>
        <time>2011-07-31T07:43:07Z</time>
      </trkpt>
      <trkpt lat="49.19608" lon="6.94711">
        <ele>295</ele>
        <time>2011-07-31T07:43:10Z</time>
      </trkpt>
      <trkpt lat="49.19609" lon="6.94714">
        <ele>295</ele>
        <time>2011-07-31T07:43:13Z</time>
      </trkpt>
      <trkpt lat="49.19608" lon="6.94716">
        <ele>295</ele>
        <time>2011-07-31T07:43:16Z</time>
      </trkpt>
      <trkpt lat="49.19607" lon="6.94717">
        <ele>295</ele>
        <time>2011-07-31T07:43:17Z</time>
      </trkpt>
      <trkpt lat="49.19608" lon="6.94719">
        <ele>295</ele>
        <time>2011-07-31T07:43:18Z</time>
      </trkpt>
      <trkpt lat="49.19609" lon="6.94721">
        <ele>293</ele>
        <time>2011-07-31T07:43:21Z</time>
      </trkpt>
      <trkpt lat="49.19612" lon="6.94723">
        <ele>293</ele>
        <time>2011-07-31T07:43:23Z</time>
      </trkpt>
      <trkpt lat="49.19613" lon="6.94724">
        <ele>293</ele>
        <time>2011-07-31T07:43:24Z</time>
      </trkpt>
      <trkpt lat="49.19614" lon="6.94726">
        <ele>293</ele>
        <time>2011-07-31T07:43:25Z</time>
      </trkpt>
      <trkpt lat="49.19617" lon="6.94729">
        <ele>293</ele>
        <time>2011-07-31T07:43:27Z</time>
      </trkpt>
      <trkpt lat="49.1962" lon="6.9473">
        <ele>293</ele>
        <time>2011-07-31T07:43:28Z</time>
      </trkpt>
      <trkpt lat="49.19621" lon="6.94732">
        <ele>293</ele>
        <time>2011-07-31T07:43:30Z</time>
      </trkpt>
      <trkpt lat="49.19622" lon="6.94733">
        <ele>293</ele>
        <time>2011-07-31T07:43:31Z</time>
      </trkpt>
      <trkpt lat="49.19624" lon="6.94734">
        <ele>293</ele>
        <time>2011-07-31T07:43:32Z</time>
      </trkpt>
      <trkpt lat="49.19625" lon="6.94735">
        <ele>293</ele>
        <time>2011-07-31T07:43:33Z</time>
      </trkpt>
      <trkpt lat="49.19626" lon="6.94737">
        <ele>293</ele>
        <time>2011-07-31T07:43:35Z</time>
      </trkpt>
      <trkpt lat="49.19627" lon="6.94739">
        <ele>293</ele>
        <time>2011-07-31T07:43:37Z</time>
      </trkpt>
      <trkpt lat="49.1963" lon="6.9474">
        <ele>294</ele>
        <time>2011-07-31T07:43:39Z</time>
      </trkpt>
      <trkpt lat="49.19631" lon="6.9474">
        <ele>295</ele>
        <time>2011-07-31T07:43:42Z</time>
      </trkpt>
      <trkpt lat="49.19633" lon="6.94741">
        <ele>295</ele>
        <time>2011-07-31T07:43:43Z</time>
      </trkpt>
      <trkpt lat="49.19632" lon="6.94743">
        <ele>296</ele>
        <time>2011-07-31T07:43:45Z</time>
      </trkpt>
      <trkpt lat="49.19632" lon="6.94745">
        <ele>296</ele>
        <time>2011-07-31T07:43:46Z</time>
      </trkpt>
      <trkpt lat="49.19633" lon="6.94747">
        <ele>296</ele>
        <time>2011-07-31T07:43:50Z</time>
      </trkpt>
      <trkpt lat="49.19634" lon="6.9475">
        <ele>297</ele>
        <time>2011-07-31T07:43:52Z</time>
      </trkpt>
      <trkpt lat="49.19635" lon="6.94753">
        <ele>299</ele>
        <time>2011-07-31T07:43:54Z</time>
      </trkpt>
      <trkpt lat="49.19636" lon="6.94755">
        <ele>301</ele>
        <time>2011-07-31T07:43:56Z</time>
      </trkpt>
      <trkpt lat="49.19638" lon="6.94757">
        <ele>302</ele>
        <time>2011-07-31T07:43:58Z</time>
      </trkpt>
      <trkpt lat="49.19639" lon="6.94761">
        <ele>302</ele>
        <time>2011-07-31T07:44:02Z</time>
      </trkpt>
      <trkpt lat="49.1964" lon="6.94763">
        <ele>302</ele>
        <time>2011-07-31T07:44:04Z</time>
      </trkpt>
      <trkpt lat="49.19641" lon="6.94766">
        <ele>302</ele>
        <time>2011-07-31T07:44:06Z</time>
      </trkpt>
      <trkpt lat="49.19643" lon="6.94768">
        <ele>302</ele>
        <time>2011-07-31T07:44:08Z</time>
      </trkpt>
      <trkpt lat="49.19644" lon="6.94771">
        <ele>302</ele>
        <time>2011-07-31T07:44:10Z</time>
      </trkpt>
      <trkpt lat="49.19645" lon="6.94773">
        <ele>303</ele>
        <time>2011-07-31T07:44:11Z</time>
      </trkpt>
      <trkpt lat="49.19646" lon="6.94774">
        <ele>303</ele>
        <time>2011-07-31T07:44:12Z</time>
      </trkpt>
      <trkpt lat="49.19648" lon="6.94776">
        <ele>303</ele>
        <time>2011-07-31T07:44:14Z</time>
      </trkpt>
      <trkpt lat="49.19649" lon="6.94778">
        <ele>303</ele>
        <time>2011-07-31T07:44:17Z</time>
      </trkpt>
      <trkpt lat="49.1965" lon="6.9478">
        <ele>303</ele>
        <time>2011-07-31T07:44:22Z</time>
      </trkpt>
      <trkpt lat="49.19651" lon="6.94782">
        <ele>303</ele>
        <time>2011-07-31T07:44:25Z</time>
      </trkpt>
      <trkpt lat="49.19652" lon="6.94784">
        <ele>303</ele>
        <time>2011-07-31T07:44:28Z</time>
      </trkpt>
      <trkpt lat="49.19653" lon="6.94785">
        <ele>303</ele>
        <time>2011-07-31T07:44:29Z</time>
      </trkpt>
      <trkpt lat="49.19655" lon="6.94785">
        <ele>303</ele>
        <time>2011-07-31T07:44:30Z</time>
      </trkpt>
      <trkpt lat="49.19657" lon="6.94788">
        <ele>303</ele>
        <time>2011-07-31T07:44:32Z</time>
      </trkpt>
      <trkpt lat="49.1966" lon="6.94789">
        <ele>303</ele>
        <time>2011-07-31T07:44:33Z</time>
      </trkpt>
      <trkpt lat="49.19662" lon="6.9479">
        <ele>303</ele>
        <time>2011-07-31T07:44:34Z</time>
      </trkpt>
      <trkpt lat="49.19664" lon="6.94791">
        <ele>303</ele>
        <time>2011-07-31T07:44:35Z</time>
      </trkpt>
      <trkpt lat="49.19665" lon="6.94793">
        <ele>303</ele>
        <time>2011-07-31T07:44:36Z</time>
      </trkpt>
      <trkpt lat="49.19665" lon="6.94795">
        <ele>303</ele>
        <time>2011-07-31T07:44:40Z</time>
      </trkpt>
      <trkpt lat="49.19666" lon="6.94796">
        <ele>303</ele>
        <time>2011-07-31T07:44:41Z</time>
      </trkpt>
      <trkpt lat="49.19668" lon="6.94798">
        <ele>303</ele>
        <time>2011-07-31T07:44:42Z</time>
      </trkpt>
      <trkpt lat="49.1967" lon="6.948">
        <ele>303</ele>
        <time>2011-07-31T07:44:43Z</time>
      </trkpt>
      <trkpt lat="49.19672" lon="6.94801">
        <ele>303</ele>
        <time>2011-07-31T07:44:44Z</time>
      </trkpt>
      <trkpt lat="49.19673" lon="6.94802">
        <ele>303</ele>
        <time>2011-07-31T07:44:45Z</time>
      </trkpt>
      <trkpt lat="49.19674" lon="6.94804">
        <ele>303</ele>
        <time>2011-07-31T07:44:47Z</time>
      </trkpt>
      <trkpt lat="49.19675" lon="6.94806">
        <ele>304</ele>
        <time>2011-07-31T07:44:49Z</time>
      </trkpt>
      <trkpt lat="49.19675" lon="6.94809">
        <ele>304</ele>
        <time>2011-07-31T07:44:51Z</time>
      </trkpt>
      <trkpt lat="49.19676" lon="6.9481">
        <ele>304</ele>
        <time>2011-07-31T07:44:53Z</time>
      </trkpt>
      <trkpt lat="49.19677" lon="6.94813">
        <ele>304</ele>
        <time>2011-07-31T07:44:55Z</time>
      </trkpt>
      <trkpt lat="49.19679" lon="6.94814">
        <ele>304</ele>
        <time>2011-07-31T07:44:57Z</time>
      </trkpt>
      <trkpt lat="49.19681" lon="6.94816">
        <ele>306</ele>
        <time>2011-07-31T07:44:59Z</time>
      </trkpt>
      <trkpt lat="49.19682" lon="6.94817">
        <ele>307</ele>
        <time>2011-07-31T07:45:00Z</time>
      </trkpt>
      <trkpt lat="49.19684" lon="6.94817">
        <ele>307</ele>
        <time>2011-07-31T07:45:01Z</time>
      </trkpt>
      <trkpt lat="49.19686" lon="6.94819">
        <ele>308</ele>
        <time>2011-07-31T07:45:02Z</time>
      </trkpt>
      <trkpt lat="49.19686" lon="6.94821">
        <ele>308</ele>
        <time>2011-07-31T07:45:03Z</time>
      </trkpt>
      <trkpt lat="49.19688" lon="6.94823">
        <ele>309</ele>
        <time>2011-07-31T07:45:04Z</time>
      </trkpt>
      <trkpt lat="49.19689" lon="6.94825">
        <ele>309</ele>
        <time>2011-07-31T07:45:05Z</time>
      </trkpt>
      <trkpt lat="49.1969" lon="6.94827">
        <ele>309</ele>
        <time>2011-07-31T07:45:06Z</time>
      </trkpt>
      <trkpt lat="49.1969" lon="6.94829">
        <ele>309</ele>
        <time>2011-07-31T07:45:07Z</time>
      </trkpt>
      <trkpt lat="49.19691" lon="6.9483">
        <ele>309</ele>
        <time>2011-07-31T07:45:09Z</time>
      </trkpt>
      <trkpt lat="49.19693" lon="6.94831">
        <ele>309</ele>
        <time>2011-07-31T07:45:10Z</time>
      </trkpt>
      <trkpt lat="49.19693" lon="6.94833">
        <ele>309</ele>
        <time>2011-07-31T07:45:12Z</time>
      </trkpt>
      <trkpt lat="49.19694" lon="6.94835">
        <ele>309</ele>
        <time>2011-07-31T07:45:13Z</time>
      </trkpt>
      <trkpt lat="49.19695" lon="6.94836">
        <ele>309</ele>
        <time>2011-07-31T07:45:14Z</time>
      </trkpt>
      <trkpt lat="49.19698" lon="6.94838">
        <ele>309</ele>
        <time>2011-07-31T07:45:15Z</time>
      </trkpt>
      <trkpt lat="49.197" lon="6.94839">
        <ele>309</ele>
        <time>2011-07-31T07:45:16Z</time>
      </trkpt>
      <trkpt lat="49.19703" lon="6.9484">
        <ele>309</ele>
        <time>2011-07-31T07:45:18Z</time>
      </trkpt>
      <trkpt lat="49.19704" lon="6.94842">
        <ele>309</ele>
        <time>2011-07-31T07:45:19Z</time>
      </trkpt>
      <trkpt lat="49.19706" lon="6.94844">
        <ele>309</ele>
        <time>2011-07-31T07:45:20Z</time>
      </trkpt>
      <trkpt lat="49.19707" lon="6.94845">
        <ele>310</ele>
        <time>2011-07-31T07:45:21Z</time>
      </trkpt>
      <trkpt lat="49.19708" lon="6.94847">
        <ele>312</ele>
        <time>2011-07-31T07:45:23Z</time>
      </trkpt>
      <trkpt lat="49.19709" lon="6.94849">
        <ele>312</ele>
        <time>2011-07-31T07:45:24Z</time>
      </trkpt>
      <trkpt lat="49.19709" lon="6.94851">
        <ele>313</ele>
        <time>2011-07-31T07:45:25Z</time>
      </trkpt>
      <trkpt lat="49.19709" lon="6.94853">
        <ele>313</ele>
        <time>2011-07-31T07:45:27Z</time>
      </trkpt>
      <trkpt lat="49.19709" lon="6.94856">
        <ele>313</ele>
        <time>2011-07-31T07:45:29Z</time>
      </trkpt>
      <trkpt lat="49.1971" lon="6.94858">
        <ele>313</ele>
        <time>2011-07-31T07:45:30Z</time>
      </trkpt>
      <trkpt lat="49.19709" lon="6.94861">
        <ele>313</ele>
        <time>2011-07-31T07:45:33Z</time>
      </trkpt>
      <trkpt lat="49.19709" lon="6.94863">
        <ele>313</ele>
        <time>2011-07-31T07:45:35Z</time>
      </trkpt>
      <trkpt lat="49.19711" lon="6.94865">
        <ele>313</ele>
        <time>2011-07-31T07:45:36Z</time>
      </trkpt>
      <trkpt lat="49.19711" lon="6.94867">
        <ele>311</ele>
        <time>2011-07-31T07:45:38Z</time>
      </trkpt>
      <trkpt lat="49.19712" lon="6.94869">
        <ele>310</ele>
        <time>2011-07-31T07:45:40Z</time>
      </trkpt>
      <trkpt lat="49.19712" lon="6.94871">
        <ele>309</ele>
        <time>2011-07-31T07:45:42Z</time>
      </trkpt>
      <trkpt lat="49.19712" lon="6.94873">
        <ele>309</ele>
        <time>2011-07-31T07:45:43Z</time>
      </trkpt>
      <trkpt lat="49.19712" lon="6.94875">
        <ele>309</ele>
        <time>2011-07-31T07:45:44Z</time>
      </trkpt>
      <trkpt lat="49.19712" lon="6.94878">
        <ele>309</ele>
        <time>2011-07-31T07:45:46Z</time>
      </trkpt>
      <trkpt lat="49.19714" lon="6.9488">
        <ele>309</ele>
        <time>2011-07-31T07:45:47Z</time>
      </trkpt>
      <trkpt lat="49.19716" lon="6.94883">
        <ele>309</ele>
        <time>2011-07-31T07:45:48Z</time>
      </trkpt>
      <trkpt lat="49.19717" lon="6.94885">
        <ele>309</ele>
        <time>2011-07-31T07:45:49Z</time>
      </trkpt>
      <trkpt lat="49.19717" lon="6.94887">
        <ele>309</ele>
        <time>2011-07-31T07:45:51Z</time>
      </trkpt>
      <trkpt lat="49.19715" lon="6.94889">
        <ele>307</ele>
        <time>2011-07-31T07:45:53Z</time>
      </trkpt>
      <trkpt lat="49.19715" lon="6.94892">
        <ele>305</ele>
        <time>2011-07-31T07:45:55Z</time>
      </trkpt>
      <trkpt lat="49.19717" lon="6.94894">
        <ele>301</ele>
        <time>2011-07-31T07:45:58Z</time>
      </trkpt>
      <trkpt lat="49.19717" lon="6.94896">
        <ele>299</ele>
        <time>2011-07-31T07:46:00Z</time>
      </trkpt>
      <trkpt lat="49.19719" lon="6.94898">
        <ele>297</ele>
        <time>2011-07-31T07:46:02Z</time>
      </trkpt>
      <trkpt lat="49.19722" lon="6.94899">
        <ele>296</ele>
        <time>2011-07-31T07:46:04Z</time>
      </trkpt>
      <trkpt lat="49.19723" lon="6.949">
        <ele>296</ele>
        <time>2011-07-31T07:46:05Z</time>
      </trkpt>
      <trkpt lat="49.19724" lon="6.94901">
        <ele>296</ele>
        <time>2011-07-31T07:46:07Z</time>
      </trkpt>
      <trkpt lat="49.19725" lon="6.94901">
        <ele>296</ele>
        <time>2011-07-31T07:46:08Z</time>
      </trkpt>
      <trkpt lat="49.19726" lon="6.94903">
        <ele>296</ele>
        <time>2011-07-31T07:46:11Z</time>
      </trkpt>
      <trkpt lat="49.19728" lon="6.94903">
        <ele>296</ele>
        <time>2011-07-31T07:46:12Z</time>
      </trkpt>
      <trkpt lat="49.1973" lon="6.94904">
        <ele>296</ele>
        <time>2011-07-31T07:46:13Z</time>
      </trkpt>
      <trkpt lat="49.19729" lon="6.94905">
        <ele>297</ele>
        <time>2011-07-31T07:46:16Z</time>
      </trkpt>
      <trkpt lat="49.1973" lon="6.94907">
        <ele>297</ele>
        <time>2011-07-31T07:46:18Z</time>
      </trkpt>
      <trkpt lat="49.19733" lon="6.9491">
        <ele>297</ele>
        <time>2011-07-31T07:46:20Z</time>
      </trkpt>
      <trkpt lat="49.19735" lon="6.94911">
        <ele>297</ele>
        <time>2011-07-31T07:46:21Z</time>
      </trkpt>
      <trkpt lat="49.19736" lon="6.94913">
        <ele>297</ele>
        <time>2011-07-31T07:46:22Z</time>
      </trkpt>
      <trkpt lat="49.19739" lon="6.94914">
        <ele>298</ele>
        <time>2011-07-31T07:46:23Z</time>
      </trkpt>
      <trkpt lat="49.1974" lon="6.94915">
        <ele>299</ele>
        <time>2011-07-31T07:46:24Z</time>
      </trkpt>
      <trkpt lat="49.19743" lon="6.94916">
        <ele>300</ele>
        <time>2011-07-31T07:46:25Z</time>
      </trkpt>
      <trkpt lat="49.19747" lon="6.94917">
        <ele>301</ele>
        <time>2011-07-31T07:46:26Z</time>
      </trkpt>
      <trkpt lat="49.19749" lon="6.94918">
        <ele>302</ele>
        <time>2011-07-31T07:46:27Z</time>
      </trkpt>
      <trkpt lat="49.19751" lon="6.94919">
        <ele>303</ele>
        <time>2011-07-31T07:46:28Z</time>
      </trkpt>
      <trkpt lat="49.19752" lon="6.94922">
        <ele>305</ele>
        <time>2011-07-31T07:46:30Z</time>
      </trkpt>
      <trkpt lat="49.19754" lon="6.94923">
        <ele>305</ele>
        <time>2011-07-31T07:46:31Z</time>
      </trkpt>
      <trkpt lat="49.19755" lon="6.94923">
        <ele>306</ele>
        <time>2011-07-31T07:46:32Z</time>
      </trkpt>
      <trkpt lat="49.19756" lon="6.94926">
        <ele>306</ele>
        <time>2011-07-31T07:46:34Z</time>
      </trkpt>
      <trkpt lat="49.19757" lon="6.94928">
        <ele>307</ele>
        <time>2011-07-31T07:46:36Z</time>
      </trkpt>
      <trkpt lat="49.19757" lon="6.94931">
        <ele>307</ele>
        <time>2011-07-31T07:46:38Z</time>
      </trkpt>
      <trkpt lat="49.19758" lon="6.94934">
        <ele>307</ele>
        <time>2011-07-31T07:46:39Z</time>
      </trkpt>
      <trkpt lat="49.19759" lon="6.94935">
        <ele>307</ele>
        <time>2011-07-31T07:46:40Z</time>
      </trkpt>
      <trkpt lat="49.19757" lon="6.94936">
        <ele>307</ele>
        <time>2011-07-31T07:46:42Z</time>
      </trkpt>
      <trkpt lat="49.19756" lon="6.94937">
        <ele>307</ele>
        <time>2011-07-31T07:46:43Z</time>
      </trkpt>
      <trkpt lat="49.19754" lon="6.94937">
        <ele>307</ele>
        <time>2011-07-31T07:46:44Z</time>
      </trkpt>
      <trkpt lat="49.19753" lon="6.94936">
        <ele>307</ele>
        <time>2011-07-31T07:46:45Z</time>
      </trkpt>
      <trkpt lat="49.19755" lon="6.94938">
        <ele>307</ele>
        <time>2011-07-31T07:46:46Z</time>
      </trkpt>
      <trkpt lat="49.19756" lon="6.94941">
        <ele>307</ele>
        <time>2011-07-31T07:46:48Z</time>
      </trkpt>
      <trkpt lat="49.19757" lon="6.94942">
        <ele>307</ele>
        <time>2011-07-31T07:46:49Z</time>
      </trkpt>
      <trkpt lat="49.19759" lon="6.94944">
        <ele>307</ele>
        <time>2011-07-31T07:46:52Z</time>
      </trkpt>
      <trkpt lat="49.1976" lon="6.94946">
        <ele>307</ele>
        <time>2011-07-31T07:46:53Z</time>
      </trkpt>
      <trkpt lat="49.19763" lon="6.94947">
        <ele>307</ele>
        <time>2011-07-31T07:46:54Z</time>
      </trkpt>
      <trkpt lat="49.19764" lon="6.94949">
        <ele>307</ele>
        <time>2011-07-31T07:46:55Z</time>
      </trkpt>
      <trkpt lat="49.19764" lon="6.94951">
        <ele>307</ele>
        <time>2011-07-31T07:46:56Z</time>
      </trkpt>
      <trkpt lat="49.19765" lon="6.94954">
        <ele>307</ele>
        <time>2011-07-31T07:46:58Z</time>
      </trkpt>
      <trkpt lat="49.19766" lon="6.94956">
        <ele>307</ele>
        <time>2011-07-31T07:46:59Z</time>
      </trkpt>
      <trkpt lat="49.19767" lon="6.94958">
        <ele>307</ele>
        <time>2011-07-31T07:47:00Z</time>
      </trkpt>
      <trkpt lat="49.19767" lon="6.94962">
        <ele>307</ele>
        <time>2011-07-31T07:47:02Z</time>
      </trkpt>
      <trkpt lat="49.1977" lon="6.94964">
        <ele>307</ele>
        <time>2011-07-31T07:47:04Z</time>
      </trkpt>
      <trkpt lat="49.19772" lon="6.94966">
        <ele>307</ele>
        <time>2011-07-31T07:47:06Z</time>
      </trkpt>
      <trkpt lat="49.19774" lon="6.94965">
        <ele>310</ele>
        <time>2011-07-31T07:47:09Z</time>
      </trkpt>
      <trkpt lat="49.19775" lon="6.94967">
        <ele>311</ele>
        <time>2011-07-31T07:47:11Z</time>
      </trkpt>
      <trkpt lat="49.19776" lon="6.9497">
        <ele>313</ele>
        <time>2011-07-31T07:47:13Z</time>
      </trkpt>
      <trkpt lat="49.19777" lon="6.94971">
        <ele>313</ele>
        <time>2011-07-31T07:47:14Z</time>
      </trkpt>
      <trkpt lat="49.19777" lon="6.94973">
        <ele>314</ele>
        <time>2011-07-31T07:47:15Z</time>
      </trkpt>
      <trkpt lat="49.19778" lon="6.94975">
        <ele>314</ele>
        <time>2011-07-31T07:47:17Z</time>
      </trkpt>
      <trkpt lat="49.19778" lon="6.94977">
        <ele>314</ele>
        <time>2011-07-31T07:47:19Z</time>
      </trkpt>
      <trkpt lat="49.19779" lon="6.9498">
        <ele>314</ele>
        <time>2011-07-31T07:47:21Z</time>
      </trkpt>
      <trkpt lat="49.19781" lon="6.94981">
        <ele>314</ele>
        <time>2011-07-31T07:47:22Z</time>
      </trkpt>
      <trkpt lat="49.19783" lon="6.94982">
        <ele>315</ele>
        <time>2011-07-31T07:47:23Z</time>
      </trkpt>
      <trkpt lat="49.19784" lon="6.94985">
        <ele>317</ele>
        <time>2011-07-31T07:47:25Z</time>
      </trkpt>
      <trkpt lat="49.19786" lon="6.94988">
        <ele>319</ele>
        <time>2011-07-31T07:47:27Z</time>
      </trkpt>
      <trkpt lat="49.19786" lon="6.94991">
        <ele>320</ele>
        <time>2011-07-31T07:47:29Z</time>
      </trkpt>
      <trkpt lat="49.19786" lon="6.94992">
        <ele>320</ele>
        <time>2011-07-31T07:47:30Z</time>
      </trkpt>
      <trkpt lat="49.19786" lon="6.94994">
        <ele>320</ele>
        <time>2011-07-31T07:47:31Z</time>
      </trkpt>
      <trkpt lat="49.19786" lon="6.94996">
        <ele>320</ele>
        <time>2011-07-31T07:47:32Z</time>
      </trkpt>
      <trkpt lat="49.19786" lon="6.94998">
        <ele>320</ele>
        <time>2011-07-31T07:47:33Z</time>
      </trkpt>
      <trkpt lat="49.19787" lon="6.95001">
        <ele>320</ele>
        <time>2011-07-31T07:47:35Z</time>
      </trkpt>
      <trkpt lat="49.19788" lon="6.95004">
        <ele>320</ele>
        <time>2011-07-31T07:47:37Z</time>
      </trkpt>
      <trkpt lat="49.19789" lon="6.95005">
        <ele>320</ele>
        <time>2011-07-31T07:47:38Z</time>
      </trkpt>
      <trkpt lat="49.1979" lon="6.95008">
        <ele>320</ele>
        <time>2011-07-31T07:47:40Z</time>
      </trkpt>
      <trkpt lat="49.19791" lon="6.95011">
        <ele>320</ele>
        <time>2011-07-31T07:47:42Z</time>
      </trkpt>
      <trkpt lat="49.19792" lon="6.95012">
        <ele>320</ele>
        <time>2011-07-31T07:47:43Z</time>
      </trkpt>
      <trkpt lat="49.19792" lon="6.95015">
        <ele>320</ele>
        <time>2011-07-31T07:47:45Z</time>
      </trkpt>
      <trkpt lat="49.19793" lon="6.95018">
        <ele>320</ele>
        <time>2011-07-31T07:47:47Z</time>
      </trkpt>
      <trkpt lat="49.19793" lon="6.9502">
        <ele>320</ele>
        <time>2011-07-31T07:47:48Z</time>
      </trkpt>
      <trkpt lat="49.19793" lon="6.95022">
        <ele>320</ele>
        <time>2011-07-31T07:47:49Z</time>
      </trkpt>
      <trkpt lat="49.19795" lon="6.95024">
        <ele>320</ele>
        <time>2011-07-31T07:47:50Z</time>
      </trkpt>
      <trkpt lat="49.19797" lon="6.95026">
        <ele>320</ele>
        <time>2011-07-31T07:47:51Z</time>
      </trkpt>
      <trkpt lat="49.19798" lon="6.95028">
        <ele>320</ele>
        <time>2011-07-31T07:47:52Z</time>
      </trkpt>
      <trkpt lat="49.19799" lon="6.9503">
        <ele>320</ele>
        <time>2011-07-31T07:47:53Z</time>
      </trkpt>
      <trkpt lat="49.19799" lon="6.95032">
        <ele>320</ele>
        <time>2011-07-31T07:47:54Z</time>
      </trkpt>
      <trkpt lat="49.19798" lon="6.95034">
        <ele>320</ele>
        <time>2011-07-31T07:47:55Z</time>
      </trkpt>
      <trkpt lat="49.19798" lon="6.95036">
        <ele>321</ele>
        <time>2011-07-31T07:47:56Z</time>
      </trkpt>
      <trkpt lat="49.19798" lon="6.95038">
        <ele>321</ele>
        <time>2011-07-31T07:47:57Z</time>
      </trkpt>
      <trkpt lat="49.19798" lon="6.9504">
        <ele>321</ele>
        <time>2011-07-31T07:47:58Z</time>
      </trkpt>
      <trkpt lat="49.19798" lon="6.95042">
        <ele>321</ele>
        <time>2011-07-31T07:47:59Z</time>
      </trkpt>
      <trkpt lat="49.19798" lon="6.95044">
        <ele>321</ele>
        <time>2011-07-31T07:48:00Z</time>
      </trkpt>
      <trkpt lat="49.19799" lon="6.95046">
        <ele>321</ele>
        <time>2011-07-31T07:48:02Z</time>
      </trkpt>
      <trkpt lat="49.19799" lon="6.95048">
        <ele>321</ele>
        <time>2011-07-31T07:48:03Z</time>
      </trkpt>
      <trkpt lat="49.19798" lon="6.95051">
        <ele>321</ele>
        <time>2011-07-31T07:48:04Z</time>
      </trkpt>
      <trkpt lat="49.19798" lon="6.95052">
        <ele>321</ele>
        <time>2011-07-31T07:48:05Z</time>
      </trkpt>
      <trkpt lat="49.19798" lon="6.95054">
        <ele>321</ele>
        <time>2011-07-31T07:48:06Z</time>
      </trkpt>
      <trkpt lat="49.19799" lon="6.95056">
        <ele>321</ele>
        <time>2011-07-31T07:48:08Z</time>
      </trkpt>
      <trkpt lat="49.19801" lon="6.95059">
        <ele>321</ele>
        <time>2011-07-31T07:48:10Z</time>
      </trkpt>
      <trkpt lat="49.19801" lon="6.95061">
        <ele>321</ele>
        <time>2011-07-31T07:48:12Z</time>
      </trkpt>
      <trkpt lat="49.19802" lon="6.95063">
        <ele>321</ele>
        <time>2011-07-31T07:48:14Z</time>
      </trkpt>
      <trkpt lat="49.19805" lon="6.95064">
        <ele>321</ele>
        <time>2011-07-31T07:48:16Z</time>
      </trkpt>
      <trkpt lat="49.19806" lon="6.95065">
        <ele>321</ele>
        <time>2011-07-31T07:48:17Z</time>
      </trkpt>
      <trkpt lat="49.19808" lon="6.95067">
        <ele>321</ele>
        <time>2011-07-31T07:48:18Z</time>
      </trkpt>
      <trkpt lat="49.19809" lon="6.95069">
        <ele>321</ele>
        <time>2011-07-31T07:48:19Z</time>
      </trkpt>
      <trkpt lat="49.19811" lon="6.9507">
        <ele>322</ele>
        <time>2011-07-31T07:48:20Z</time>
      </trkpt>
      <trkpt lat="49.19813" lon="6.95071">
        <ele>322</ele>
        <time>2011-07-31T07:48:21Z</time>
      </trkpt>
      <trkpt lat="49.19814" lon="6.95074">
        <ele>323</ele>
        <time>2011-07-31T07:48:23Z</time>
      </trkpt>
      <trkpt lat="49.19816" lon="6.95075">
        <ele>323</ele>
        <time>2011-07-31T07:48:24Z</time>
      </trkpt>
      <trkpt lat="49.19817" lon="6.95077">
        <ele>325</ele>
        <time>2011-07-31T07:48:26Z</time>
      </trkpt>
      <trkpt lat="49.19817" lon="6.95079">
        <ele>326</ele>
        <time>2011-07-31T07:48:28Z</time>
      </trkpt>
      <trkpt lat="49.19819" lon="6.95081">
        <ele>326</ele>
        <time>2011-07-31T07:48:30Z</time>
      </trkpt>
      <trkpt lat="49.19821" lon="6.95082">
        <ele>326</ele>
        <time>2011-07-31T07:48:31Z</time>
      </trkpt>
      <trkpt lat="49.19824" lon="6.95084">
        <ele>326</ele>
        <time>2011-07-31T07:48:33Z</time>
      </trkpt>
      <trkpt lat="49.19825" lon="6.95086">
        <ele>328</ele>
        <time>2011-07-31T07:48:36Z</time>
      </trkpt>
      <trkpt lat="49.19827" lon="6.95088">
        <ele>329</ele>
        <time>2011-07-31T07:48:39Z</time>
      </trkpt>
      <trkpt lat="49.19825" lon="6.9509">
        <ele>329</ele>
        <time>2011-07-31T07:48:42Z</time>
      </trkpt>
      <trkpt lat="49.19827" lon="6.95092">
        <ele>329</ele>
        <time>2011-07-31T07:48:44Z</time>
      </trkpt>
      <trkpt lat="49.19828" lon="6.95094">
        <ele>329</ele>
        <time>2011-07-31T07:48:45Z</time>
      </trkpt>
      <trkpt lat="49.1983" lon="6.95097">
        <ele>329</ele>
        <time>2011-07-31T07:48:47Z</time>
      </trkpt>
      <trkpt lat="49.19833" lon="6.95099">
        <ele>329</ele>
        <time>2011-07-31T07:48:49Z</time>
      </trkpt>
      <trkpt lat="49.19834" lon="6.95101">
        <ele>329</ele>
        <time>2011-07-31T07:48:50Z</time>
      </trkpt>
      <trkpt lat="49.19836" lon="6.95102">
        <ele>329</ele>
        <time>2011-07-31T07:48:51Z</time>
      </trkpt>
      <trkpt lat="49.19837" lon="6.95103">
        <ele>329</ele>
        <time>2011-07-31T07:48:52Z</time>
      </trkpt>
      <trkpt lat="49.19839" lon="6.95105">
        <ele>329</ele>
        <time>2011-07-31T07:48:54Z</time>
      </trkpt>
      <trkpt lat="49.19841" lon="6.95107">
        <ele>329</ele>
        <time>2011-07-31T07:48:56Z</time>
      </trkpt>
      <trkpt lat="49.19842" lon="6.95107">
        <ele>329</ele>
        <time>2011-07-31T07:48:57Z</time>
      </trkpt>
      <trkpt lat="49.19843" lon="6.95108">
        <ele>329</ele>
        <time>2011-07-31T07:48:58Z</time>
      </trkpt>
      <trkpt lat="49.19845" lon="6.95109">
        <ele>330</ele>
        <time>2011-07-31T07:49:00Z</time>
      </trkpt>
      <trkpt lat="49.19848" lon="6.95111">
        <ele>331</ele>
        <time>2011-07-31T07:49:02Z</time>
      </trkpt>
      <trkpt lat="49.1985" lon="6.95113">
        <ele>331</ele>
        <time>2011-07-31T07:49:04Z</time>
      </trkpt>
      <trkpt lat="49.19851" lon="6.95113">
        <ele>331</ele>
        <time>2011-07-31T07:49:06Z</time>
      </trkpt>
      <trkpt lat="49.19852" lon="6.95116">
        <ele>331</ele>
        <time>2011-07-31T07:49:08Z</time>
      </trkpt>
      <trkpt lat="49.19852" lon="6.95119">
        <ele>331</ele>
        <time>2011-07-31T07:49:10Z</time>
      </trkpt>
      <trkpt lat="49.1985" lon="6.95119">
        <ele>331</ele>
        <time>2011-07-31T07:49:13Z</time>
      </trkpt>
      <trkpt lat="49.19849" lon="6.95121">
        <ele>330</ele>
        <time>2011-07-31T07:49:15Z</time>
      </trkpt>
      <trkpt lat="49.19851" lon="6.95123">
        <ele>329</ele>
        <time>2011-07-31T07:49:16Z</time>
      </trkpt>
      <trkpt lat="49.19851" lon="6.95126">
        <ele>327</ele>
        <time>2011-07-31T07:49:19Z</time>
      </trkpt>
      <trkpt lat="49.19851" lon="6.95128">
        <ele>327</ele>
        <time>2011-07-31T07:49:20Z</time>
      </trkpt>
      <trkpt lat="49.19852" lon="6.95129">
        <ele>326</ele>
        <time>2011-07-31T07:49:21Z</time>
      </trkpt>
      <trkpt lat="49.19854" lon="6.9513">
        <ele>326</ele>
        <time>2011-07-31T07:49:22Z</time>
      </trkpt>
      <trkpt lat="49.19854" lon="6.95134">
        <ele>325</ele>
        <time>2011-07-31T07:49:24Z</time>
      </trkpt>
      <trkpt lat="49.19855" lon="6.95136">
        <ele>325</ele>
        <time>2011-07-31T07:49:25Z</time>
      </trkpt>
      <trkpt lat="49.19856" lon="6.95138">
        <ele>325</ele>
        <time>2011-07-31T07:49:26Z</time>
      </trkpt>
      <trkpt lat="49.19857" lon="6.95141">
        <ele>325</ele>
        <time>2011-07-31T07:49:28Z</time>
      </trkpt>
      <trkpt lat="49.1986" lon="6.95144">
        <ele>325</ele>
        <time>2011-07-31T07:49:30Z</time>
      </trkpt>
      <trkpt lat="49.1986" lon="6.95147">
        <ele>325</ele>
        <time>2011-07-31T07:49:32Z</time>
      </trkpt>
      <trkpt lat="49.19861" lon="6.95149">
        <ele>325</ele>
        <time>2011-07-31T07:49:34Z</time>
      </trkpt>
      <trkpt lat="49.19861" lon="6.95151">
        <ele>325</ele>
        <time>2011-07-31T07:49:36Z</time>
      </trkpt>
      <trkpt lat="49.19862" lon="6.95154">
        <ele>325</ele>
        <time>2011-07-31T07:49:38Z</time>
      </trkpt>
      <trkpt lat="49.19862" lon="6.95156">
        <ele>325</ele>
        <time>2011-07-31T07:49:40Z</time>
      </trkpt>
      <trkpt lat="49.19863" lon="6.95159">
        <ele>325</ele>
        <time>2011-07-31T07:49:42Z</time>
      </trkpt>
      <trkpt lat="49.19864" lon="6.95161">
        <ele>325</ele>
        <time>2011-07-31T07:49:44Z</time>
      </trkpt>
      <trkpt lat="49.19866" lon="6.95163">
        <ele>325</ele>
        <time>2011-07-31T07:49:46Z</time>
      </trkpt>
      <trkpt lat="49.19867" lon="6.95165">
        <ele>325</ele>
        <time>2011-07-31T07:49:48Z</time>
      </trkpt>
      <trkpt lat="49.19868" lon="6.95167">
        <ele>325</ele>
        <time>2011-07-31T07:49:50Z</time>
      </trkpt>
      <trkpt lat="49.19868" lon="6.95169">
        <ele>325</ele>
        <time>2011-07-31T07:49:52Z</time>
      </trkpt>
      <trkpt lat="49.19868" lon="6.95173">
        <ele>325</ele>
        <time>2011-07-31T07:49:55Z</time>
      </trkpt>
      <trkpt lat="49.19867" lon="6.95175">
        <ele>325</ele>
        <time>2011-07-31T07:49:57Z</time>
      </trkpt>
      <trkpt lat="49.19868" lon="6.95178">
        <ele>325</ele>
        <time>2011-07-31T07:49:59Z</time>
      </trkpt>
      <trkpt lat="49.19869" lon="6.95179">
        <ele>325</ele>
        <time>2011-07-31T07:50:00Z</time>
      </trkpt>
      <trkpt lat="49.19869" lon="6.95181">
        <ele>325</ele>
        <time>2011-07-31T07:50:01Z</time>
      </trkpt>
      <trkpt lat="49.19869" lon="6.95184">
        <ele>325</ele>
        <time>2011-07-31T07:50:02Z</time>
      </trkpt>
      <trkpt lat="49.1987" lon="6.95187">
        <ele>325</ele>
        <time>2011-07-31T07:50:04Z</time>
      </trkpt>
      <trkpt lat="49.19871" lon="6.95188">
        <ele>326</ele>
        <time>2011-07-31T07:50:05Z</time>
      </trkpt>
      <trkpt lat="49.19872" lon="6.9519">
        <ele>327</ele>
        <time>2011-07-31T07:50:07Z</time>
      </trkpt>
      <trkpt lat="49.19872" lon="6.95192">
        <ele>327</ele>
        <time>2011-07-31T07:50:09Z</time>
      </trkpt>
      <trkpt lat="49.19872" lon="6.95195">
        <ele>327</ele>
        <time>2011-07-31T07:50:11Z</time>
      </trkpt>
      <trkpt lat="49.19871" lon="6.95197">
        <ele>327</ele>
        <time>2011-07-31T07:50:12Z</time>
      </trkpt>
      <trkpt lat="49.1987" lon="6.95199">
        <ele>327</ele>
        <time>2011-07-31T07:50:13Z</time>
      </trkpt>
      <trkpt lat="49.19868" lon="6.95201">
        <ele>327</ele>
        <time>2011-07-31T07:50:15Z</time>
      </trkpt>
      <trkpt lat="49.19867" lon="6.95203">
        <ele>327</ele>
        <time>2011-07-31T07:50:17Z</time>
      </trkpt>
      <trkpt lat="49.19865" lon="6.95206">
        <ele>327</ele>
        <time>2011-07-31T07:50:19Z</time>
      </trkpt>
      <trkpt lat="49.19864" lon="6.95205">
        <ele>327</ele>
        <time>2011-07-31T07:50:21Z</time>
      </trkpt>
      <trkpt lat="49.19863" lon="6.95206">
        <ele>328</ele>
        <time>2011-07-31T07:50:23Z</time>
      </trkpt>
      <trkpt lat="49.19861" lon="6.95205">
        <ele>328</ele>
        <time>2011-07-31T07:50:25Z</time>
      </trkpt>
      <trkpt lat="49.1986" lon="6.95205">
        <ele>328</ele>
        <time>2011-07-31T07:50:26Z</time>
      </trkpt>
      <trkpt lat="49.19859" lon="6.95206">
        <ele>328</ele>
        <time>2011-07-31T07:50:27Z</time>
      </trkpt>
      <trkpt lat="49.19857" lon="6.95206">
        <ele>328</ele>
        <time>2011-07-31T07:50:29Z</time>
      </trkpt>
      <trkpt lat="49.19855" lon="6.95209">
        <ele>328</ele>
        <time>2011-07-31T07:50:31Z</time>
      </trkpt>
      <trkpt lat="49.19853" lon="6.9521">
        <ele>329</ele>
        <time>2011-07-31T07:50:33Z</time>
      </trkpt>
      <trkpt lat="49.19852" lon="6.95211">
        <ele>330</ele>
        <time>2011-07-31T07:50:35Z</time>
      </trkpt>
      <trkpt lat="49.19851" lon="6.95212">
        <ele>330</ele>
        <time>2011-07-31T07:50:36Z</time>
      </trkpt>
      <trkpt lat="49.19849" lon="6.95213">
        <ele>332</ele>
        <time>2011-07-31T07:50:39Z</time>
      </trkpt>
      <trkpt lat="49.19847" lon="6.95213">
        <ele>332</ele>
        <time>2011-07-31T07:50:41Z</time>
      </trkpt>
      <trkpt lat="49.19846" lon="6.95214">
        <ele>332</ele>
        <time>2011-07-31T07:50:42Z</time>
      </trkpt>
      <trkpt lat="49.19845" lon="6.95214">
        <ele>333</ele>
        <time>2011-07-31T07:50:43Z</time>
      </trkpt>
      <trkpt lat="49.19844" lon="6.95215">
        <ele>333</ele>
        <time>2011-07-31T07:50:44Z</time>
      </trkpt>
      <trkpt lat="49.19842" lon="6.95215">
        <ele>333</ele>
        <time>2011-07-31T07:50:45Z</time>
      </trkpt>
      <trkpt lat="49.1984" lon="6.95215">
        <ele>334</ele>
        <time>2011-07-31T07:50:47Z</time>
      </trkpt>
      <trkpt lat="49.19839" lon="6.95214">
        <ele>334</ele>
        <time>2011-07-31T07:50:48Z</time>
      </trkpt>
      <trkpt lat="49.19838" lon="6.95213">
        <ele>334</ele>
        <time>2011-07-31T07:50:49Z</time>
      </trkpt>
      <trkpt lat="49.19836" lon="6.95213">
        <ele>334</ele>
        <time>2011-07-31T07:50:51Z</time>
      </trkpt>
      <trkpt lat="49.19834" lon="6.95213">
        <ele>334</ele>
        <time>2011-07-31T07:50:52Z</time>
      </trkpt>
      <trkpt lat="49.19833" lon="6.95213">
        <ele>334</ele>
        <time>2011-07-31T07:50:53Z</time>
      </trkpt>
      <trkpt lat="49.19832" lon="6.95213">
        <ele>334</ele>
        <time>2011-07-31T07:50:54Z</time>
      </trkpt>
      <trkpt lat="49.1983" lon="6.95213">
        <ele>334</ele>
        <time>2011-07-31T07:50:55Z</time>
      </trkpt>
      <trkpt lat="49.19829" lon="6.95213">
        <ele>334</ele>
        <time>2011-07-31T07:50:56Z</time>
      </trkpt>
      <trkpt lat="49.19828" lon="6.95214">
        <ele>334</ele>
        <time>2011-07-31T07:50:58Z</time>
      </trkpt>
      <trkpt lat="49.19826" lon="6.95214">
        <ele>334</ele>
        <time>2011-07-31T07:50:59Z</time>
      </trkpt>
      <trkpt lat="49.19825" lon="6.95213">
        <ele>334</ele>
        <time>2011-07-31T07:51:00Z</time>
      </trkpt>
      <trkpt lat="49.19823" lon="6.95213">
        <ele>334</ele>
        <time>2011-07-31T07:51:01Z</time>
      </trkpt>
      <trkpt lat="49.19821" lon="6.95212">
        <ele>334</ele>
        <time>2011-07-31T07:51:02Z</time>
      </trkpt>
      <trkpt lat="49.1982" lon="6.95211">
        <ele>334</ele>
        <time>2011-07-31T07:51:03Z</time>
      </trkpt>
      <trkpt lat="49.19818" lon="6.95212">
        <ele>334</ele>
        <time>2011-07-31T07:51:05Z</time>
      </trkpt>
      <trkpt lat="49.19816" lon="6.95212">
        <ele>334</ele>
        <time>2011-07-31T07:51:07Z</time>
      </trkpt>
      <trkpt lat="49.19814" lon="6.95212">
        <ele>334</ele>
        <time>2011-07-31T07:51:08Z</time>
      </trkpt>
      <trkpt lat="49.19812" lon="6.95211">
        <ele>334</ele>
        <time>2011-07-31T07:51:10Z</time>
      </trkpt>
      <trkpt lat="49.19809" lon="6.95212">
        <ele>334</ele>
        <time>2011-07-31T07:51:12Z</time>
      </trkpt>
      <trkpt lat="49.19807" lon="6.9521">
        <ele>334</ele>
        <time>2011-07-31T07:51:13Z</time>
      </trkpt>
      <trkpt lat="49.19806" lon="6.95211">
        <ele>334</ele>
        <time>2011-07-31T07:51:14Z</time>
      </trkpt>
      <trkpt lat="49.19805" lon="6.95212">
        <ele>334</ele>
        <time>2011-07-31T07:51:15Z</time>
      </trkpt>
      <trkpt lat="49.19802" lon="6.95213">
        <ele>334</ele>
        <time>2011-07-31T07:51:17Z</time>
      </trkpt>
      <trkpt lat="49.198" lon="6.95214">
        <ele>334</ele>
        <time>2011-07-31T07:51:19Z</time>
      </trkpt>
      <trkpt lat="49.19799" lon="6.95215">
        <ele>334</ele>
        <time>2011-07-31T07:51:20Z</time>
      </trkpt>
      <trkpt lat="49.19797" lon="6.95216">
        <ele>334</ele>
        <time>2011-07-31T07:51:22Z</time>
      </trkpt>
      <trkpt lat="49.19796" lon="6.95217">
        <ele>334</ele>
        <time>2011-07-31T07:51:23Z</time>
      </trkpt>
      <trkpt lat="49.19794" lon="6.95218">
        <ele>334</ele>
        <time>2011-07-31T07:51:24Z</time>
      </trkpt>
      <trkpt lat="49.19793" lon="6.95218">
        <ele>334</ele>
        <time>2011-07-31T07:51:26Z</time>
      </trkpt>
      <trkpt lat="49.19791" lon="6.95219">
        <ele>335</ele>
        <time>2011-07-31T07:51:27Z</time>
      </trkpt>
      <trkpt lat="49.19789" lon="6.95218">
        <ele>335</ele>
        <time>2011-07-31T07:51:29Z</time>
      </trkpt>
      <trkpt lat="49.19787" lon="6.95219">
        <ele>335</ele>
        <time>2011-07-31T07:51:31Z</time>
      </trkpt>
      <trkpt lat="49.19785" lon="6.95219">
        <ele>336</ele>
        <time>2011-07-31T07:51:33Z</time>
      </trkpt>
      <trkpt lat="49.19783" lon="6.95219">
        <ele>336</ele>
        <time>2011-07-31T07:51:35Z</time>
      </trkpt>
      <trkpt lat="49.19781" lon="6.95219">
        <ele>336</ele>
        <time>2011-07-31T07:51:36Z</time>
      </trkpt>
      <trkpt lat="49.1978" lon="6.9522">
        <ele>336</ele>
        <time>2011-07-31T07:51:39Z</time>
      </trkpt>
      <trkpt lat="49.19779" lon="6.95221">
        <ele>336</ele>
        <time>2011-07-31T07:51:41Z</time>
      </trkpt>
      <trkpt lat="49.19777" lon="6.95222">
        <ele>336</ele>
        <time>2011-07-31T07:51:43Z</time>
      </trkpt>
      <trkpt lat="49.19776" lon="6.95222">
        <ele>336</ele>
        <time>2011-07-31T07:51:44Z</time>
      </trkpt>
      <trkpt lat="49.19774" lon="6.95225">
        <ele>336</ele>
        <time>2011-07-31T07:51:46Z</time>
      </trkpt>
      <trkpt lat="49.19773" lon="6.95225">
        <ele>336</ele>
        <time>2011-07-31T07:51:47Z</time>
      </trkpt>
      <trkpt lat="49.19771" lon="6.95226">
        <ele>336</ele>
        <time>2011-07-31T07:51:49Z</time>
      </trkpt>
      <trkpt lat="49.1977" lon="6.95227">
        <ele>336</ele>
        <time>2011-07-31T07:51:50Z</time>
      </trkpt>
      <trkpt lat="49.19769" lon="6.95227">
        <ele>336</ele>
        <time>2011-07-31T07:51:51Z</time>
      </trkpt>
      <trkpt lat="49.19767" lon="6.95226">
        <ele>336</ele>
        <time>2011-07-31T07:51:53Z</time>
      </trkpt>
      <trkpt lat="49.19765" lon="6.95228">
        <ele>336</ele>
        <time>2011-07-31T07:51:55Z</time>
      </trkpt>
      <trkpt lat="49.19763" lon="6.9523">
        <ele>336</ele>
        <time>2011-07-31T07:51:57Z</time>
      </trkpt>
      <trkpt lat="49.19761" lon="6.95232">
        <ele>336</ele>
        <time>2011-07-31T07:51:59Z</time>
      </trkpt>
      <trkpt lat="49.1976" lon="6.95233">
        <ele>336</ele>
        <time>2011-07-31T07:52:01Z</time>
      </trkpt>
      <trkpt lat="49.19758" lon="6.95234">
        <ele>336</ele>
        <time>2011-07-31T07:52:03Z</time>
      </trkpt>
      <trkpt lat="49.19756" lon="6.95237">
        <ele>336</ele>
        <time>2011-07-31T07:52:05Z</time>
      </trkpt>
      <trkpt lat="49.19756" lon="6.95239">
        <ele>336</ele>
        <time>2011-07-31T07:52:07Z</time>
      </trkpt>
      <trkpt lat="49.19755" lon="6.95241">
        <ele>336</ele>
        <time>2011-07-31T07:52:09Z</time>
      </trkpt>
      <trkpt lat="49.19754" lon="6.95244">
        <ele>336</ele>
        <time>2011-07-31T07:52:11Z</time>
      </trkpt>
      <trkpt lat="49.19754" lon="6.95246">
        <ele>335</ele>
        <time>2011-07-31T07:52:12Z</time>
      </trkpt>
      <trkpt lat="49.19754" lon="6.95248">
        <ele>335</ele>
        <time>2011-07-31T07:52:13Z</time>
      </trkpt>
      <trkpt lat="49.19754" lon="6.9525">
        <ele>335</ele>
        <time>2011-07-31T07:52:14Z</time>
      </trkpt>
      <trkpt lat="49.19753" lon="6.95252">
        <ele>335</ele>
        <time>2011-07-31T07:52:15Z</time>
      </trkpt>
      <trkpt lat="49.19753" lon="6.95254">
        <ele>335</ele>
        <time>2011-07-31T07:52:16Z</time>
      </trkpt>
      <trkpt lat="49.19754" lon="6.95257">
        <ele>335</ele>
        <time>2011-07-31T07:52:18Z</time>
      </trkpt>
      <trkpt lat="49.19755" lon="6.95259">
        <ele>335</ele>
        <time>2011-07-31T07:52:19Z</time>
      </trkpt>
      <trkpt lat="49.19755" lon="6.9526">
        <ele>335</ele>
        <time>2011-07-31T07:52:20Z</time>
      </trkpt>
      <trkpt lat="49.19756" lon="6.95263">
        <ele>335</ele>
        <time>2011-07-31T07:52:22Z</time>
      </trkpt>
      <trkpt lat="49.19755" lon="6.95266">
        <ele>335</ele>
        <time>2011-07-31T07:52:23Z</time>
      </trkpt>
      <trkpt lat="49.19755" lon="6.95267">
        <ele>335</ele>
        <time>2011-07-31T07:52:24Z</time>
      </trkpt>
      <trkpt lat="49.19756" lon="6.95269">
        <ele>335</ele>
        <time>2011-07-31T07:52:25Z</time>
      </trkpt>
      <trkpt lat="49.19757" lon="6.95272">
        <ele>335</ele>
        <time>2011-07-31T07:52:27Z</time>
      </trkpt>
      <trkpt lat="49.19759" lon="6.95274">
        <ele>334</ele>
        <time>2011-07-31T07:52:28Z</time>
      </trkpt>
      <trkpt lat="49.1976" lon="6.95275">
        <ele>334</ele>
        <time>2011-07-31T07:52:29Z</time>
      </trkpt>
      <trkpt lat="49.19762" lon="6.95279">
        <ele>333</ele>
        <time>2011-07-31T07:52:31Z</time>
      </trkpt>
      <trkpt lat="49.19762" lon="6.9528">
        <ele>332</ele>
        <time>2011-07-31T07:52:32Z</time>
      </trkpt>
      <trkpt lat="49.19763" lon="6.95282">
        <ele>332</ele>
        <time>2011-07-31T07:52:33Z</time>
      </trkpt>
      <trkpt lat="49.19763" lon="6.95284">
        <ele>332</ele>
        <time>2011-07-31T07:52:34Z</time>
      </trkpt>
      <trkpt lat="49.19763" lon="6.95286">
        <ele>332</ele>
        <time>2011-07-31T07:52:35Z</time>
      </trkpt>
      <trkpt lat="49.19764" lon="6.95289">
        <ele>332</ele>
        <time>2011-07-31T07:52:37Z</time>
      </trkpt>
      <trkpt lat="49.19765" lon="6.95291">
        <ele>332</ele>
        <time>2011-07-31T07:52:38Z</time>
      </trkpt>
      <trkpt lat="49.19765" lon="6.95293">
        <ele>332</ele>
        <time>2011-07-31T07:52:39Z</time>
      </trkpt>
      <trkpt lat="49.19765" lon="6.95294">
        <ele>332</ele>
        <time>2011-07-31T07:52:40Z</time>
      </trkpt>
      <trkpt lat="49.19767" lon="6.95297">
        <ele>332</ele>
        <time>2011-07-31T07:52:42Z</time>
      </trkpt>
      <trkpt lat="49.19768" lon="6.953">
        <ele>332</ele>
        <time>2011-07-31T07:52:44Z</time>
      </trkpt>
      <trkpt lat="49.19768" lon="6.95302">
        <ele>332</ele>
        <time>2011-07-31T07:52:45Z</time>
      </trkpt>
      <trkpt lat="49.19768" lon="6.95304">
        <ele>332</ele>
        <time>2011-07-31T07:52:46Z</time>
      </trkpt>
      <trkpt lat="49.19769" lon="6.95306">
        <ele>332</ele>
        <time>2011-07-31T07:52:47Z</time>
      </trkpt>
      <trkpt lat="49.19769" lon="6.95309">
        <ele>332</ele>
        <time>2011-07-31T07:52:49Z</time>
      </trkpt>
      <trkpt lat="49.19769" lon="6.95311">
        <ele>332</ele>
        <time>2011-07-31T07:52:50Z</time>
      </trkpt>
      <trkpt lat="49.1977" lon="6.95313">
        <ele>332</ele>
        <time>2011-07-31T07:52:51Z</time>
      </trkpt>
      <trkpt lat="49.1977" lon="6.95315">
        <ele>332</ele>
        <time>2011-07-31T07:52:52Z</time>
      </trkpt>
      <trkpt lat="49.1977" lon="6.95316">
        <ele>331</ele>
        <time>2011-07-31T07:52:53Z</time>
      </trkpt>
      <trkpt lat="49.19771" lon="6.95319">
        <ele>331</ele>
        <time>2011-07-31T07:52:55Z</time>
      </trkpt>
      <trkpt lat="49.19771" lon="6.95321">
        <ele>331</ele>
        <time>2011-07-31T07:52:56Z</time>
      </trkpt>
      <trkpt lat="49.19771" lon="6.95323">
        <ele>331</ele>
        <time>2011-07-31T07:52:57Z</time>
      </trkpt>
      <trkpt lat="49.19771" lon="6.95325">
        <ele>331</ele>
        <time>2011-07-31T07:52:58Z</time>
      </trkpt>
      <trkpt lat="49.19771" lon="6.95327">
        <ele>331</ele>
        <time>2011-07-31T07:52:59Z</time>
      </trkpt>
      <trkpt lat="49.19771" lon="6.95329">
        <ele>331</ele>
        <time>2011-07-31T07:53:00Z</time>
      </trkpt>
      <trkpt lat="49.19771" lon="6.9533">
        <ele>331</ele>
        <time>2011-07-31T07:53:01Z</time>
      </trkpt>
      <trkpt lat="49.19771" lon="6.95332">
        <ele>331</ele>
        <time>2011-07-31T07:53:03Z</time>
      </trkpt>
      <trkpt lat="49.19771" lon="6.95334">
        <ele>331</ele>
        <time>2011-07-31T07:53:03Z</time>
      </trkpt>
      <trkpt lat="49.19771" lon="6.95336">
        <ele>331</ele>
        <time>2011-07-31T07:53:04Z</time>
      </trkpt>
      <trkpt lat="49.1977" lon="6.95337">
        <ele>331</ele>
        <time>2011-07-31T07:53:05Z</time>
      </trkpt>
      <trkpt lat="49.1977" lon="6.95339">
        <ele>331</ele>
        <time>2011-07-31T07:53:06Z</time>
      </trkpt>
      <trkpt lat="49.1977" lon="6.95341">
        <ele>331</ele>
        <time>2011-07-31T07:53:07Z</time>
      </trkpt>
      <trkpt lat="49.1977" lon="6.95343">
        <ele>331</ele>
        <time>2011-07-31T07:53:08Z</time>
      </trkpt>
      <trkpt lat="49.1977" lon="6.95346">
        <ele>331</ele>
        <time>2011-07-31T07:53:10Z</time>
      </trkpt>
      <trkpt lat="49.1977" lon="6.95348">
        <ele>331</ele>
        <time>2011-07-31T07:53:11Z</time>
      </trkpt>
      <trkpt lat="49.1977" lon="6.9535">
        <ele>331</ele>
        <time>2011-07-31T07:53:12Z</time>
      </trkpt>
      <trkpt lat="49.1977" lon="6.95352">
        <ele>331</ele>
        <time>2011-07-31T07:53:13Z</time>
      </trkpt>
      <trkpt lat="49.1977" lon="6.95354">
        <ele>331</ele>
        <time>2011-07-31T07:53:15Z</time>
      </trkpt>
      <trkpt lat="49.19769" lon="6.95356">
        <ele>331</ele>
        <time>2011-07-31T07:53:18Z</time>
      </trkpt>
      <trkpt lat="49.19768" lon="6.95356">
        <ele>331</ele>
        <time>2011-07-31T07:53:34Z</time>
      </trkpt>
      <trkpt lat="49.19767" lon="6.95357">
        <ele>330</ele>
        <time>2011-07-31T07:53:45Z</time>
      </trkpt>
      <trkpt lat="49.19765" lon="6.95358">
        <ele>330</ele>
        <time>2011-07-31T07:53:48Z</time>
      </trkpt>
      <trkpt lat="49.19764" lon="6.9536">
        <ele>330</ele>
        <time>2011-07-31T07:53:51Z</time>
      </trkpt>
      <trkpt lat="49.19764" lon="6.95363">
        <ele>330</ele>
        <time>2011-07-31T07:54:14Z</time>
      </trkpt>
      <trkpt lat="49.19762" lon="6.95364">
        <ele>330</ele>
        <time>2011-07-31T07:54:15Z</time>
      </trkpt>
      <trkpt lat="49.19761" lon="6.95364">
        <ele>330</ele>
        <time>2011-07-31T07:54:16Z</time>
      </trkpt>
      <trkpt lat="49.1976" lon="6.95366">
        <ele>330</ele>
        <time>2011-07-31T07:54:18Z</time>
      </trkpt>
      <trkpt lat="49.19758" lon="6.95368">
        <ele>330</ele>
        <time>2011-07-31T07:54:20Z</time>
      </trkpt>
      <trkpt lat="49.19756" lon="6.9537">
        <ele>330</ele>
        <time>2011-07-31T07:54:22Z</time>
      </trkpt>
      <trkpt lat="49.19754" lon="6.95372">
        <ele>330</ele>
        <time>2011-07-31T07:54:24Z</time>
      </trkpt>
      <trkpt lat="49.19752" lon="6.95375">
        <ele>330</ele>
        <time>2011-07-31T07:54:26Z</time>
      </trkpt>
      <trkpt lat="49.1975" lon="6.95377">
        <ele>330</ele>
        <time>2011-07-31T07:54:28Z</time>
      </trkpt>
      <trkpt lat="49.19749" lon="6.95378">
        <ele>330</ele>
        <time>2011-07-31T07:54:29Z</time>
      </trkpt>
      <trkpt lat="49.19746" lon="6.9538">
        <ele>330</ele>
        <time>2011-07-31T07:54:31Z</time>
      </trkpt>
      <trkpt lat="49.19745" lon="6.95381">
        <ele>330</ele>
        <time>2011-07-31T07:54:32Z</time>
      </trkpt>
      <trkpt lat="49.19744" lon="6.95381">
        <ele>330</ele>
        <time>2011-07-31T07:54:33Z</time>
      </trkpt>
      <trkpt lat="49.19743" lon="6.95382">
        <ele>330</ele>
        <time>2011-07-31T07:54:34Z</time>
      </trkpt>
      <trkpt lat="49.19742" lon="6.95384">
        <ele>330</ele>
        <time>2011-07-31T07:54:35Z</time>
      </trkpt>
      <trkpt lat="49.19741" lon="6.95385">
        <ele>330</ele>
        <time>2011-07-31T07:54:36Z</time>
      </trkpt>
      <trkpt lat="49.19739" lon="6.95387">
        <ele>330</ele>
        <time>2011-07-31T07:54:37Z</time>
      </trkpt>
      <trkpt lat="49.19738" lon="6.95388">
        <ele>330</ele>
        <time>2011-07-31T07:54:38Z</time>
      </trkpt>
      <trkpt lat="49.19736" lon="6.95389">
        <ele>330</ele>
        <time>2011-07-31T07:54:39Z</time>
      </trkpt>
      <trkpt lat="49.19735" lon="6.9539">
        <ele>330</ele>
        <time>2011-07-31T07:54:40Z</time>
      </trkpt>
      <trkpt lat="49.19734" lon="6.95391">
        <ele>330</ele>
        <time>2011-07-31T07:54:41Z</time>
      </trkpt>
      <trkpt lat="49.19732" lon="6.95394">
        <ele>330</ele>
        <time>2011-07-31T07:54:43Z</time>
      </trkpt>
      <trkpt lat="49.1973" lon="6.95396">
        <ele>330</ele>
        <time>2011-07-31T07:54:45Z</time>
      </trkpt>
      <trkpt lat="49.19728" lon="6.95397">
        <ele>330</ele>
        <time>2011-07-31T07:54:46Z</time>
      </trkpt>
      <trkpt lat="49.19727" lon="6.95398">
        <ele>330</ele>
        <time>2011-07-31T07:54:47Z</time>
      </trkpt>
      <trkpt lat="49.19726" lon="6.95399">
        <ele>330</ele>
        <time>2011-07-31T07:54:48Z</time>
      </trkpt>
      <trkpt lat="49.19725" lon="6.954">
        <ele>330</ele>
        <time>2011-07-31T07:54:49Z</time>
      </trkpt>
      <trkpt lat="49.19723" lon="6.95401">
        <ele>330</ele>
        <time>2011-07-31T07:54:50Z</time>
      </trkpt>
      <trkpt lat="49.19721" lon="6.95403">
        <ele>330</ele>
        <time>2011-07-31T07:54:52Z</time>
      </trkpt>
      <trkpt lat="49.1972" lon="6.95404">
        <ele>330</ele>
        <time>2011-07-31T07:54:53Z</time>
      </trkpt>
      <trkpt lat="49.19718" lon="6.95406">
        <ele>330</ele>
        <time>2011-07-31T07:54:55Z</time>
      </trkpt>
      <trkpt lat="49.19717" lon="6.95407">
        <ele>330</ele>
        <time>2011-07-31T07:54:56Z</time>
      </trkpt>
      <trkpt lat="49.19715" lon="6.95408">
        <ele>330</ele>
        <time>2011-07-31T07:54:57Z</time>
      </trkpt>
      <trkpt lat="49.19714" lon="6.9541">
        <ele>330</ele>
        <time>2011-07-31T07:54:58Z</time>
      </trkpt>
      <trkpt lat="49.19713" lon="6.95411">
        <ele>330</ele>
        <time>2011-07-31T07:54:59Z</time>
      </trkpt>
      <trkpt lat="49.19712" lon="6.95411">
        <ele>330</ele>
        <time>2011-07-31T07:55:00Z</time>
      </trkpt>
      <trkpt lat="49.1971" lon="6.95413">
        <ele>330</ele>
        <time>2011-07-31T07:55:02Z</time>
      </trkpt>
      <trkpt lat="49.19709" lon="6.95414">
        <ele>330</ele>
        <time>2011-07-31T07:55:03Z</time>
      </trkpt>
      <trkpt lat="49.19706" lon="6.95416">
        <ele>330</ele>
        <time>2011-07-31T07:55:05Z</time>
      </trkpt>
      <trkpt lat="49.19705" lon="6.95417">
        <ele>330</ele>
        <time>2011-07-31T07:55:06Z</time>
      </trkpt>
      <trkpt lat="49.19704" lon="6.95417">
        <ele>330</ele>
        <time>2011-07-31T07:55:07Z</time>
      </trkpt>
      <trkpt lat="49.19702" lon="6.95419">
        <ele>330</ele>
        <time>2011-07-31T07:55:09Z</time>
      </trkpt>
      <trkpt lat="49.19701" lon="6.9542">
        <ele>330</ele>
        <time>2011-07-31T07:55:10Z</time>
      </trkpt>
      <trkpt lat="49.19698" lon="6.95421">
        <ele>330</ele>
        <time>2011-07-31T07:55:12Z</time>
      </trkpt>
      <trkpt lat="49.19697" lon="6.95422">
        <ele>330</ele>
        <time>2011-07-31T07:55:13Z</time>
      </trkpt>
      <trkpt lat="49.19695" lon="6.95423">
        <ele>330</ele>
        <time>2011-07-31T07:55:15Z</time>
      </trkpt>
      <trkpt lat="49.19694" lon="6.95424">
        <ele>330</ele>
        <time>2011-07-31T07:55:16Z</time>
      </trkpt>
      <trkpt lat="49.19692" lon="6.95426">
        <ele>330</ele>
        <time>2011-07-31T07:55:18Z</time>
      </trkpt>
      <trkpt lat="49.1969" lon="6.95427">
        <ele>330</ele>
        <time>2011-07-31T07:55:19Z</time>
      </trkpt>
      <trkpt lat="49.19689" lon="6.95428">
        <ele>330</ele>
        <time>2011-07-31T07:55:20Z</time>
      </trkpt>
      <trkpt lat="49.19687" lon="6.95431">
        <ele>330</ele>
        <time>2011-07-31T07:55:22Z</time>
      </trkpt>
      <trkpt lat="49.19685" lon="6.95432">
        <ele>330</ele>
        <time>2011-07-31T07:55:23Z</time>
      </trkpt>
      <trkpt lat="49.19684" lon="6.95433">
        <ele>330</ele>
        <time>2011-07-31T07:55:24Z</time>
      </trkpt>
      <trkpt lat="49.19682" lon="6.95434">
        <ele>330</ele>
        <time>2011-07-31T07:55:25Z</time>
      </trkpt>
      <trkpt lat="49.19681" lon="6.95435">
        <ele>330</ele>
        <time>2011-07-31T07:55:26Z</time>
      </trkpt>
      <trkpt lat="49.1968" lon="6.95436">
        <ele>330</ele>
        <time>2011-07-31T07:55:27Z</time>
      </trkpt>
      <trkpt lat="49.19678" lon="6.95438">
        <ele>330</ele>
        <time>2011-07-31T07:55:28Z</time>
      </trkpt>
      <trkpt lat="49.19677" lon="6.95439">
        <ele>330</ele>
        <time>2011-07-31T07:55:29Z</time>
      </trkpt>
      <trkpt lat="49.19676" lon="6.9544">
        <ele>329</ele>
        <time>2011-07-31T07:55:30Z</time>
      </trkpt>
      <trkpt lat="49.19674" lon="6.95442">
        <ele>329</ele>
        <time>2011-07-31T07:55:32Z</time>
      </trkpt>
      <trkpt lat="49.19673" lon="6.95443">
        <ele>329</ele>
        <time>2011-07-31T07:55:33Z</time>
      </trkpt>
      <trkpt lat="49.19672" lon="6.95444">
        <ele>329</ele>
        <time>2011-07-31T07:55:34Z</time>
      </trkpt>
      <trkpt lat="49.19671" lon="6.95445">
        <ele>329</ele>
        <time>2011-07-31T07:55:35Z</time>
      </trkpt>
      <trkpt lat="49.19669" lon="6.95446">
        <ele>329</ele>
        <time>2011-07-31T07:55:36Z</time>
      </trkpt>
      <trkpt lat="49.19668" lon="6.95447">
        <ele>329</ele>
        <time>2011-07-31T07:55:37Z</time>
      </trkpt>
      <trkpt lat="49.19667" lon="6.95448">
        <ele>329</ele>
        <time>2011-07-31T07:55:38Z</time>
      </trkpt>
      <trkpt lat="49.19666" lon="6.95449">
        <ele>329</ele>
        <time>2011-07-31T07:55:39Z</time>
      </trkpt>
      <trkpt lat="49.19664" lon="6.95452">
        <ele>329</ele>
        <time>2011-07-31T07:55:41Z</time>
      </trkpt>
      <trkpt lat="49.19663" lon="6.95453">
        <ele>328</ele>
        <time>2011-07-31T07:55:42Z</time>
      </trkpt>
      <trkpt lat="49.19661" lon="6.95454">
        <ele>328</ele>
        <time>2011-07-31T07:55:43Z</time>
      </trkpt>
      <trkpt lat="49.19659" lon="6.95456">
        <ele>328</ele>
        <time>2011-07-31T07:55:45Z</time>
      </trkpt>
      <trkpt lat="49.19658" lon="6.95458">
        <ele>328</ele>
        <time>2011-07-31T07:55:46Z</time>
      </trkpt>
      <trkpt lat="49.19657" lon="6.9546">
        <ele>328</ele>
        <time>2011-07-31T07:55:47Z</time>
      </trkpt>
      <trkpt lat="49.19655" lon="6.95462">
        <ele>328</ele>
        <time>2011-07-31T07:55:49Z</time>
      </trkpt>
      <trkpt lat="49.19653" lon="6.95463">
        <ele>328</ele>
        <time>2011-07-31T07:55:50Z</time>
      </trkpt>
      <trkpt lat="49.19652" lon="6.95465">
        <ele>328</ele>
        <time>2011-07-31T07:55:51Z</time>
      </trkpt>
      <trkpt lat="49.1965" lon="6.95467">
        <ele>328</ele>
        <time>2011-07-31T07:55:53Z</time>
      </trkpt>
      <trkpt lat="49.19648" lon="6.95468">
        <ele>328</ele>
        <time>2011-07-31T07:55:54Z</time>
      </trkpt>
      <trkpt lat="49.19647" lon="6.95471">
        <ele>328</ele>
        <time>2011-07-31T07:55:56Z</time>
      </trkpt>
      <trkpt lat="49.19645" lon="6.95473">
        <ele>328</ele>
        <time>2011-07-31T07:55:58Z</time>
      </trkpt>
      <trkpt lat="49.19643" lon="6.95476">
        <ele>328</ele>
        <time>2011-07-31T07:56:00Z</time>
      </trkpt>
      <trkpt lat="49.19641" lon="6.95478">
        <ele>328</ele>
        <time>2011-07-31T07:56:02Z</time>
      </trkpt>
      <trkpt lat="49.19639" lon="6.9548">
        <ele>328</ele>
        <time>2011-07-31T07:56:04Z</time>
      </trkpt>
      <trkpt lat="49.19638" lon="6.95481">
        <ele>328</ele>
        <time>2011-07-31T07:56:05Z</time>
      </trkpt>
      <trkpt lat="49.19636" lon="6.95482">
        <ele>328</ele>
        <time>2011-07-31T07:56:07Z</time>
      </trkpt>
      <trkpt lat="49.19634" lon="6.95483">
        <ele>328</ele>
        <time>2011-07-31T07:56:09Z</time>
      </trkpt>
      <trkpt lat="49.19632" lon="6.95485">
        <ele>328</ele>
        <time>2011-07-31T07:56:11Z</time>
      </trkpt>
      <trkpt lat="49.19631" lon="6.95486">
        <ele>328</ele>
        <time>2011-07-31T07:56:12Z</time>
      </trkpt>
      <trkpt lat="49.19629" lon="6.95486">
        <ele>327</ele>
        <time>2011-07-31T07:56:14Z</time>
      </trkpt>
      <trkpt lat="49.19628" lon="6.95486">
        <ele>327</ele>
        <time>2011-07-31T07:56:20Z</time>
      </trkpt>
      <trkpt lat="49.19626" lon="6.95488">
        <ele>327</ele>
        <time>2011-07-31T07:56:22Z</time>
      </trkpt>
      <trkpt lat="49.19624" lon="6.95488">
        <ele>327</ele>
        <time>2011-07-31T07:56:23Z</time>
      </trkpt>
      <trkpt lat="49.19623" lon="6.95489">
        <ele>327</ele>
        <time>2011-07-31T07:56:24Z</time>
      </trkpt>
      <trkpt lat="49.19622" lon="6.95489">
        <ele>327</ele>
        <time>2011-07-31T07:56:25Z</time>
      </trkpt>
      <trkpt lat="49.19621" lon="6.9549">
        <ele>327</ele>
        <time>2011-07-31T07:56:26Z</time>
      </trkpt>
      <trkpt lat="49.19619" lon="6.9549">
        <ele>327</ele>
        <time>2011-07-31T07:56:27Z</time>
      </trkpt>
      <trkpt lat="49.19618" lon="6.95491">
        <ele>327</ele>
        <time>2011-07-31T07:56:28Z</time>
      </trkpt>
      <trkpt lat="49.19617" lon="6.95491">
        <ele>327</ele>
        <time>2011-07-31T07:56:29Z</time>
      </trkpt>
      <trkpt lat="49.19616" lon="6.95492">
        <ele>327</ele>
        <time>2011-07-31T07:56:30Z</time>
      </trkpt>
      <trkpt lat="49.19614" lon="6.95493">
        <ele>327</ele>
        <time>2011-07-31T07:56:32Z</time>
      </trkpt>
      <trkpt lat="49.19613" lon="6.95493">
        <ele>327</ele>
        <time>2011-07-31T07:56:33Z</time>
      </trkpt>
      <trkpt lat="49.19611" lon="6.95494">
        <ele>327</ele>
        <time>2011-07-31T07:56:34Z</time>
      </trkpt>
      <trkpt lat="49.1961" lon="6.95494">
        <ele>327</ele>
        <time>2011-07-31T07:56:35Z</time>
      </trkpt>
      <trkpt lat="49.19609" lon="6.95494">
        <ele>327</ele>
        <time>2011-07-31T07:56:36Z</time>
      </trkpt>
      <trkpt lat="49.19608" lon="6.95495">
        <ele>327</ele>
        <time>2011-07-31T07:56:37Z</time>
      </trkpt>
      <trkpt lat="49.19605" lon="6.95496">
        <ele>327</ele>
        <time>2011-07-31T07:56:39Z</time>
      </trkpt>
      <trkpt lat="49.19603" lon="6.95497">
        <ele>327</ele>
        <time>2011-07-31T07:56:41Z</time>
      </trkpt>
      <trkpt lat="49.19602" lon="6.95498">
        <ele>327</ele>
        <time>2011-07-31T07:56:42Z</time>
      </trkpt>
      <trkpt lat="49.196" lon="6.95499">
        <ele>327</ele>
        <time>2011-07-31T07:56:44Z</time>
      </trkpt>
      <trkpt lat="49.19598" lon="6.95501">
        <ele>327</ele>
        <time>2011-07-31T07:56:46Z</time>
      </trkpt>
      <trkpt lat="49.19597" lon="6.95502">
        <ele>327</ele>
        <time>2011-07-31T07:56:47Z</time>
      </trkpt>
      <trkpt lat="49.19596" lon="6.95502">
        <ele>327</ele>
        <time>2011-07-31T07:56:48Z</time>
      </trkpt>
      <trkpt lat="49.19595" lon="6.95503">
        <ele>327</ele>
        <time>2011-07-31T07:56:49Z</time>
      </trkpt>
      <trkpt lat="49.19594" lon="6.95503">
        <ele>327</ele>
        <time>2011-07-31T07:56:50Z</time>
      </trkpt>
      <trkpt lat="49.19593" lon="6.95504">
        <ele>327</ele>
        <time>2011-07-31T07:56:51Z</time>
      </trkpt>
      <trkpt lat="49.1959" lon="6.95505">
        <ele>327</ele>
        <time>2011-07-31T07:56:53Z</time>
      </trkpt>
      <trkpt lat="49.19589" lon="6.95506">
        <ele>327</ele>
        <time>2011-07-31T07:56:54Z</time>
      </trkpt>
      <trkpt lat="49.19588" lon="6.95507">
        <ele>327</ele>
        <time>2011-07-31T07:56:55Z</time>
      </trkpt>
      <trkpt lat="49.19587" lon="6.95508">
        <ele>327</ele>
        <time>2011-07-31T07:56:56Z</time>
      </trkpt>
      <trkpt lat="49.19585" lon="6.95508">
        <ele>327</ele>
        <time>2011-07-31T07:56:57Z</time>
      </trkpt>
      <trkpt lat="49.19584" lon="6.95509">
        <ele>327</ele>
        <time>2011-07-31T07:56:58Z</time>
      </trkpt>
      <trkpt lat="49.19583" lon="6.9551">
        <ele>327</ele>
        <time>2011-07-31T07:56:59Z</time>
      </trkpt>
      <trkpt lat="49.19582" lon="6.95511">
        <ele>327</ele>
        <time>2011-07-31T07:57:00Z</time>
      </trkpt>
      <trkpt lat="49.1958" lon="6.95511">
        <ele>327</ele>
        <time>2011-07-31T07:57:01Z</time>
      </trkpt>
      <trkpt lat="49.19579" lon="6.95511">
        <ele>327</ele>
        <time>2011-07-31T07:57:02Z</time>
      </trkpt>
      <trkpt lat="49.19578" lon="6.95512">
        <ele>327</ele>
        <time>2011-07-31T07:57:03Z</time>
      </trkpt>
      <trkpt lat="49.19576" lon="6.95512">
        <ele>327</ele>
        <time>2011-07-31T07:57:05Z</time>
      </trkpt>
      <trkpt lat="49.19574" lon="6.95513">
        <ele>327</ele>
        <time>2011-07-31T07:57:06Z</time>
      </trkpt>
      <trkpt lat="49.19573" lon="6.95513">
        <ele>327</ele>
        <time>2011-07-31T07:57:07Z</time>
      </trkpt>
      <trkpt lat="49.19572" lon="6.95514">
        <ele>327</ele>
        <time>2011-07-31T07:57:08Z</time>
      </trkpt>
      <trkpt lat="49.19571" lon="6.95515">
        <ele>327</ele>
        <time>2011-07-31T07:57:09Z</time>
      </trkpt>
      <trkpt lat="49.1957" lon="6.95515">
        <ele>327</ele>
        <time>2011-07-31T07:57:10Z</time>
      </trkpt>
      <trkpt lat="49.19568" lon="6.95515">
        <ele>327</ele>
        <time>2011-07-31T07:57:11Z</time>
      </trkpt>
      <trkpt lat="49.19567" lon="6.95516">
        <ele>327</ele>
        <time>2011-07-31T07:57:12Z</time>
      </trkpt>
      <trkpt lat="49.19566" lon="6.95517">
        <ele>327</ele>
        <time>2011-07-31T07:57:13Z</time>
      </trkpt>
      <trkpt lat="49.19564" lon="6.95517">
        <ele>327</ele>
        <time>2011-07-31T07:57:14Z</time>
      </trkpt>
      <trkpt lat="49.19563" lon="6.95519">
        <ele>327</ele>
        <time>2011-07-31T07:57:16Z</time>
      </trkpt>
      <trkpt lat="49.19561" lon="6.95522">
        <ele>327</ele>
        <time>2011-07-31T07:57:18Z</time>
      </trkpt>
      <trkpt lat="49.1956" lon="6.95524">
        <ele>327</ele>
        <time>2011-07-31T07:57:19Z</time>
      </trkpt>
      <trkpt lat="49.1956" lon="6.95525">
        <ele>327</ele>
        <time>2011-07-31T07:57:20Z</time>
      </trkpt>
      <trkpt lat="49.19559" lon="6.95528">
        <ele>327</ele>
        <time>2011-07-31T07:57:21Z</time>
      </trkpt>
      <trkpt lat="49.19559" lon="6.95529">
        <ele>327</ele>
        <time>2011-07-31T07:57:22Z</time>
      </trkpt>
      <trkpt lat="49.19559" lon="6.95532">
        <ele>327</ele>
        <time>2011-07-31T07:57:23Z</time>
      </trkpt>
      <trkpt lat="49.19559" lon="6.95534">
        <ele>327</ele>
        <time>2011-07-31T07:57:24Z</time>
      </trkpt>
      <trkpt lat="49.19559" lon="6.95536">
        <ele>327</ele>
        <time>2011-07-31T07:57:25Z</time>
      </trkpt>
      <trkpt lat="49.19559" lon="6.95537">
        <ele>327</ele>
        <time>2011-07-31T07:57:26Z</time>
      </trkpt>
      <trkpt lat="49.19559" lon="6.95539">
        <ele>327</ele>
        <time>2011-07-31T07:57:27Z</time>
      </trkpt>
      <trkpt lat="49.19559" lon="6.95541">
        <ele>327</ele>
        <time>2011-07-31T07:57:28Z</time>
      </trkpt>
      <trkpt lat="49.1956" lon="6.95544">
        <ele>327</ele>
        <time>2011-07-31T07:57:30Z</time>
      </trkpt>
      <trkpt lat="49.19561" lon="6.95546">
        <ele>327</ele>
        <time>2011-07-31T07:57:31Z</time>
      </trkpt>
      <trkpt lat="49.19561" lon="6.95548">
        <ele>327</ele>
        <time>2011-07-31T07:57:32Z</time>
      </trkpt>
      <trkpt lat="49.19561" lon="6.95551">
        <ele>327</ele>
        <time>2011-07-31T07:57:34Z</time>
      </trkpt>
      <trkpt lat="49.19561" lon="6.95553">
        <ele>327</ele>
        <time>2011-07-31T07:57:35Z</time>
      </trkpt>
      <trkpt lat="49.19561" lon="6.95555">
        <ele>327</ele>
        <time>2011-07-31T07:57:36Z</time>
      </trkpt>
      <trkpt lat="49.1956" lon="6.95557">
        <ele>327</ele>
        <time>2011-07-31T07:57:37Z</time>
      </trkpt>
      <trkpt lat="49.1956" lon="6.95559">
        <ele>327</ele>
        <time>2011-07-31T07:57:38Z</time>
      </trkpt>
      <trkpt lat="49.19559" lon="6.95562">
        <ele>327</ele>
        <time>2011-07-31T07:57:40Z</time>
      </trkpt>
      <trkpt lat="49.19558" lon="6.95564">
        <ele>327</ele>
        <time>2011-07-31T07:57:41Z</time>
      </trkpt>
      <trkpt lat="49.19558" lon="6.95565">
        <ele>327</ele>
        <time>2011-07-31T07:57:42Z</time>
      </trkpt>
      <trkpt lat="49.19557" lon="6.95567">
        <ele>327</ele>
        <time>2011-07-31T07:57:43Z</time>
      </trkpt>
      <trkpt lat="49.19556" lon="6.95569">
        <ele>327</ele>
        <time>2011-07-31T07:57:44Z</time>
      </trkpt>
      <trkpt lat="49.19555" lon="6.95571">
        <ele>327</ele>
        <time>2011-07-31T07:57:45Z</time>
      </trkpt>
      <trkpt lat="49.19553" lon="6.95574">
        <ele>327</ele>
        <time>2011-07-31T07:57:47Z</time>
      </trkpt>
      <trkpt lat="49.19552" lon="6.95576">
        <ele>327</ele>
        <time>2011-07-31T07:57:48Z</time>
      </trkpt>
      <trkpt lat="49.19552" lon="6.95578">
        <ele>327</ele>
        <time>2011-07-31T07:57:49Z</time>
      </trkpt>
      <trkpt lat="49.19551" lon="6.9558">
        <ele>327</ele>
        <time>2011-07-31T07:57:50Z</time>
      </trkpt>
      <trkpt lat="49.1955" lon="6.95582">
        <ele>327</ele>
        <time>2011-07-31T07:57:51Z</time>
      </trkpt>
      <trkpt lat="49.1955" lon="6.95583">
        <ele>327</ele>
        <time>2011-07-31T07:57:52Z</time>
      </trkpt>
      <trkpt lat="49.19549" lon="6.95586">
        <ele>327</ele>
        <time>2011-07-31T07:57:54Z</time>
      </trkpt>
      <trkpt lat="49.19548" lon="6.95588">
        <ele>327</ele>
        <time>2011-07-31T07:57:55Z</time>
      </trkpt>
      <trkpt lat="49.19548" lon="6.9559">
        <ele>327</ele>
        <time>2011-07-31T07:57:56Z</time>
      </trkpt>
      <trkpt lat="49.19547" lon="6.95593">
        <ele>327</ele>
        <time>2011-07-31T07:57:57Z</time>
      </trkpt>
      <trkpt lat="49.19546" lon="6.95595">
        <ele>327</ele>
        <time>2011-07-31T07:57:58Z</time>
      </trkpt>
      <trkpt lat="49.19545" lon="6.95597">
        <ele>327</ele>
        <time>2011-07-31T07:58:00Z</time>
      </trkpt>
      <trkpt lat="49.19545" lon="6.95601">
        <ele>327</ele>
        <time>2011-07-31T07:58:02Z</time>
      </trkpt>
      <trkpt lat="49.19545" lon="6.95603">
        <ele>327</ele>
        <time>2011-07-31T07:58:03Z</time>
      </trkpt>
      <trkpt lat="49.19544" lon="6.95605">
        <ele>327</ele>
        <time>2011-07-31T07:58:04Z</time>
      </trkpt>
      <trkpt lat="49.19543" lon="6.95607">
        <ele>327</ele>
        <time>2011-07-31T07:58:05Z</time>
      </trkpt>
      <trkpt lat="49.19543" lon="6.95609">
        <ele>327</ele>
        <time>2011-07-31T07:58:06Z</time>
      </trkpt>
      <trkpt lat="49.19542" lon="6.95611">
        <ele>327</ele>
        <time>2011-07-31T07:58:07Z</time>
      </trkpt>
      <trkpt lat="49.19542" lon="6.95613">
        <ele>327</ele>
        <time>2011-07-31T07:58:08Z</time>
      </trkpt>
      <trkpt lat="49.19542" lon="6.95616">
        <ele>327</ele>
        <time>2011-07-31T07:58:09Z</time>
      </trkpt>
      <trkpt lat="49.19541" lon="6.95618">
        <ele>327</ele>
        <time>2011-07-31T07:58:10Z</time>
      </trkpt>
      <trkpt lat="49.19542" lon="6.9562">
        <ele>327</ele>
        <time>2011-07-31T07:58:11Z</time>
      </trkpt>
      <trkpt lat="49.19542" lon="6.95622">
        <ele>327</ele>
        <time>2011-07-31T07:58:12Z</time>
      </trkpt>
      <trkpt lat="49.19542" lon="6.95624">
        <ele>327</ele>
        <time>2011-07-31T07:58:13Z</time>
      </trkpt>
      <trkpt lat="49.19541" lon="6.95626">
        <ele>327</ele>
        <time>2011-07-31T07:58:14Z</time>
      </trkpt>
      <trkpt lat="49.1954" lon="6.95628">
        <ele>327</ele>
        <time>2011-07-31T07:58:15Z</time>
      </trkpt>
      <trkpt lat="49.1954" lon="6.95631">
        <ele>327</ele>
        <time>2011-07-31T07:58:16Z</time>
      </trkpt>
      <trkpt lat="49.1954" lon="6.95633">
        <ele>327</ele>
        <time>2011-07-31T07:58:17Z</time>
      </trkpt>
      <trkpt lat="49.19541" lon="6.95635">
        <ele>327</ele>
        <time>2011-07-31T07:58:18Z</time>
      </trkpt>
      <trkpt lat="49.19541" lon="6.95637">
        <ele>327</ele>
        <time>2011-07-31T07:58:19Z</time>
      </trkpt>
      <trkpt lat="49.19542" lon="6.95639">
        <ele>328</ele>
        <time>2011-07-31T07:58:20Z</time>
      </trkpt>
      <trkpt lat="49.19542" lon="6.95641">
        <ele>328</ele>
        <time>2011-07-31T07:58:21Z</time>
      </trkpt>
      <trkpt lat="49.19542" lon="6.95643">
        <ele>328</ele>
        <time>2011-07-31T07:58:22Z</time>
      </trkpt>
      <trkpt lat="49.19542" lon="6.95645">
        <ele>328</ele>
        <time>2011-07-31T07:58:23Z</time>
      </trkpt>
      <trkpt lat="49.19541" lon="6.95647">
        <ele>328</ele>
        <time>2011-07-31T07:58:24Z</time>
      </trkpt>
      <trkpt lat="49.19541" lon="6.95649">
        <ele>328</ele>
        <time>2011-07-31T07:58:25Z</time>
      </trkpt>
      <trkpt lat="49.19541" lon="6.95651">
        <ele>328</ele>
        <time>2011-07-31T07:58:26Z</time>
      </trkpt>
      <trkpt lat="49.19541" lon="6.95653">
        <ele>328</ele>
        <time>2011-07-31T07:58:27Z</time>
      </trkpt>
      <trkpt lat="49.1954" lon="6.95655">
        <ele>328</ele>
        <time>2011-07-31T07:58:28Z</time>
      </trkpt>
      <trkpt lat="49.1954" lon="6.95657">
        <ele>328</ele>
        <time>2011-07-31T07:58:29Z</time>
      </trkpt>
      <trkpt lat="49.1954" lon="6.95659">
        <ele>328</ele>
        <time>2011-07-31T07:58:30Z</time>
      </trkpt>
      <trkpt lat="49.1954" lon="6.95661">
        <ele>328</ele>
        <time>2011-07-31T07:58:31Z</time>
      </trkpt>
      <trkpt lat="49.1954" lon="6.95663">
        <ele>328</ele>
        <time>2011-07-31T07:58:32Z</time>
      </trkpt>
      <trkpt lat="49.1954" lon="6.95665">
        <ele>329</ele>
        <time>2011-07-31T07:58:33Z</time>
      </trkpt>
      <trkpt lat="49.1954" lon="6.95667">
        <ele>329</ele>
        <time>2011-07-31T07:58:34Z</time>
      </trkpt>
      <trkpt lat="49.1954" lon="6.95669">
        <ele>329</ele>
        <time>2011-07-31T07:58:35Z</time>
      </trkpt>
      <trkpt lat="49.1954" lon="6.95671">
        <ele>330</ele>
        <time>2011-07-31T07:58:36Z</time>
      </trkpt>
      <trkpt lat="49.1954" lon="6.95673">
        <ele>330</ele>
        <time>2011-07-31T07:58:37Z</time>
      </trkpt>
      <trkpt lat="49.19539" lon="6.95675">
        <ele>330</ele>
        <time>2011-07-31T07:58:38Z</time>
      </trkpt>
      <trkpt lat="49.19539" lon="6.95677">
        <ele>330</ele>
        <time>2011-07-31T07:58:39Z</time>
      </trkpt>
      <trkpt lat="49.19538" lon="6.95678">
        <ele>330</ele>
        <time>2011-07-31T07:58:40Z</time>
      </trkpt>
      <trkpt lat="49.19538" lon="6.9568">
        <ele>330</ele>
        <time>2011-07-31T07:58:41Z</time>
      </trkpt>
      <trkpt lat="49.19538" lon="6.95682">
        <ele>330</ele>
        <time>2011-07-31T07:58:42Z</time>
      </trkpt>
      <trkpt lat="49.19538" lon="6.95684">
        <ele>330</ele>
        <time>2011-07-31T07:58:43Z</time>
      </trkpt>
      <trkpt lat="49.19538" lon="6.95687">
        <ele>330</ele>
        <time>2011-07-31T07:58:44Z</time>
      </trkpt>
      <trkpt lat="49.19538" lon="6.95688">
        <ele>331</ele>
        <time>2011-07-31T07:58:45Z</time>
      </trkpt>
      <trkpt lat="49.19538" lon="6.9569">
        <ele>331</ele>
        <time>2011-07-31T07:58:46Z</time>
      </trkpt>
      <trkpt lat="49.19538" lon="6.95692">
        <ele>331</ele>
        <time>2011-07-31T07:58:47Z</time>
      </trkpt>
      <trkpt lat="49.19538" lon="6.95694">
        <ele>331</ele>
        <time>2011-07-31T07:58:48Z</time>
      </trkpt>
      <trkpt lat="49.19538" lon="6.95696">
        <ele>331</ele>
        <time>2011-07-31T07:58:49Z</time>
      </trkpt>
      <trkpt lat="49.19538" lon="6.95698">
        <ele>331</ele>
        <time>2011-07-31T07:58:50Z</time>
      </trkpt>
      <trkpt lat="49.19538" lon="6.957">
        <ele>331</ele>
        <time>2011-07-31T07:58:51Z</time>
      </trkpt>
      <trkpt lat="49.19538" lon="6.95703">
        <ele>331</ele>
        <time>2011-07-31T07:58:52Z</time>
      </trkpt>
      <trkpt lat="49.19537" lon="6.95705">
        <ele>331</ele>
        <time>2011-07-31T07:58:53Z</time>
      </trkpt>
      <trkpt lat="49.19537" lon="6.95707">
        <ele>331</ele>
        <time>2011-07-31T07:58:54Z</time>
      </trkpt>
      <trkpt lat="49.19537" lon="6.95709">
        <ele>331</ele>
        <time>2011-07-31T07:58:55Z</time>
      </trkpt>
      <trkpt lat="49.19537" lon="6.95711">
        <ele>331</ele>
        <time>2011-07-31T07:58:56Z</time>
      </trkpt>
      <trkpt lat="49.19536" lon="6.95714">
        <ele>331</ele>
        <time>2011-07-31T07:58:58Z</time>
      </trkpt>
      <trkpt lat="49.19535" lon="6.95716">
        <ele>331</ele>
        <time>2011-07-31T07:59:00Z</time>
      </trkpt>
      <trkpt lat="49.19535" lon="6.95718">
        <ele>331</ele>
        <time>2011-07-31T07:59:02Z</time>
      </trkpt>
      <trkpt lat="49.19535" lon="6.9572">
        <ele>331</ele>
        <time>2011-07-31T07:59:04Z</time>
      </trkpt>
      <trkpt lat="49.19535" lon="6.95722">
        <ele>331</ele>
        <time>2011-07-31T07:59:07Z</time>
      </trkpt>
      <trkpt lat="49.19535" lon="6.95723">
        <ele>332</ele>
        <time>2011-07-31T07:59:17Z</time>
      </trkpt>
      <trkpt lat="49.19534" lon="6.95726">
        <ele>332</ele>
        <time>2011-07-31T07:59:19Z</time>
      </trkpt>
      <trkpt lat="49.19533" lon="6.95729">
        <ele>332</ele>
        <time>2011-07-31T07:59:21Z</time>
      </trkpt>
      <trkpt lat="49.19533" lon="6.95732">
        <ele>332</ele>
        <time>2011-07-31T07:59:23Z</time>
      </trkpt>
      <trkpt lat="49.19533" lon="6.95734">
        <ele>332</ele>
        <time>2011-07-31T07:59:25Z</time>
      </trkpt>
      <trkpt lat="49.19533" lon="6.95737">
        <ele>332</ele>
        <time>2011-07-31T07:59:27Z</time>
      </trkpt>
      <trkpt lat="49.19532" lon="6.95739">
        <ele>332</ele>
        <time>2011-07-31T07:59:29Z</time>
      </trkpt>
      <trkpt lat="49.19532" lon="6.9574">
        <ele>332</ele>
        <time>2011-07-31T07:59:31Z</time>
      </trkpt>
      <trkpt lat="49.19531" lon="6.95742">
        <ele>332</ele>
        <time>2011-07-31T07:59:34Z</time>
      </trkpt>
      <trkpt lat="49.19529" lon="6.95743">
        <ele>332</ele>
        <time>2011-07-31T07:59:37Z</time>
      </trkpt>
      <trkpt lat="49.19528" lon="6.95746">
        <ele>332</ele>
        <time>2011-07-31T07:59:39Z</time>
      </trkpt>
      <trkpt lat="49.19527" lon="6.95748">
        <ele>332</ele>
        <time>2011-07-31T07:59:41Z</time>
      </trkpt>
      <trkpt lat="49.19526" lon="6.9575">
        <ele>332</ele>
        <time>2011-07-31T07:59:43Z</time>
      </trkpt>
      <trkpt lat="49.19524" lon="6.95752">
        <ele>333</ele>
        <time>2011-07-31T07:59:45Z</time>
      </trkpt>
      <trkpt lat="49.19522" lon="6.95753">
        <ele>333</ele>
        <time>2011-07-31T07:59:47Z</time>
      </trkpt>
      <trkpt lat="49.1952" lon="6.95754">
        <ele>333</ele>
        <time>2011-07-31T07:59:49Z</time>
      </trkpt>
      <trkpt lat="49.19519" lon="6.95755">
        <ele>333</ele>
        <time>2011-07-31T07:59:50Z</time>
      </trkpt>
      <trkpt lat="49.19517" lon="6.95756">
        <ele>333</ele>
        <time>2011-07-31T07:59:52Z</time>
      </trkpt>
      <trkpt lat="49.19516" lon="6.95756">
        <ele>333</ele>
        <time>2011-07-31T07:59:53Z</time>
      </trkpt>
      <trkpt lat="49.19515" lon="6.95757">
        <ele>333</ele>
        <time>2011-07-31T07:59:54Z</time>
      </trkpt>
      <trkpt lat="49.19513" lon="6.95757">
        <ele>333</ele>
        <time>2011-07-31T07:59:55Z</time>
      </trkpt>
      <trkpt lat="49.19512" lon="6.95758">
        <ele>333</ele>
        <time>2011-07-31T07:59:56Z</time>
      </trkpt>
      <trkpt lat="49.19511" lon="6.95758">
        <ele>333</ele>
        <time>2011-07-31T07:59:57Z</time>
      </trkpt>
      <trkpt lat="49.19509" lon="6.95759">
        <ele>333</ele>
        <time>2011-07-31T07:59:58Z</time>
      </trkpt>
      <trkpt lat="49.19508" lon="6.95759">
        <ele>333</ele>
        <time>2011-07-31T07:59:59Z</time>
      </trkpt>
      <trkpt lat="49.19506" lon="6.9576">
        <ele>333</ele>
        <time>2011-07-31T08:00:01Z</time>
      </trkpt>
      <trkpt lat="49.19505" lon="6.9576">
        <ele>333</ele>
        <time>2011-07-31T08:00:02Z</time>
      </trkpt>
      <trkpt lat="49.19503" lon="6.9576">
        <ele>333</ele>
        <time>2011-07-31T08:00:03Z</time>
      </trkpt>
      <trkpt lat="49.19501" lon="6.9576">
        <ele>333</ele>
        <time>2011-07-31T08:00:04Z</time>
      </trkpt>
      <trkpt lat="49.19499" lon="6.95761">
        <ele>333</ele>
        <time>2011-07-31T08:00:06Z</time>
      </trkpt>
      <trkpt lat="49.19498" lon="6.95762">
        <ele>333</ele>
        <time>2011-07-31T08:00:07Z</time>
      </trkpt>
      <trkpt lat="49.19497" lon="6.95762">
        <ele>333</ele>
        <time>2011-07-31T08:00:08Z</time>
      </trkpt>
      <trkpt lat="49.19495" lon="6.95763">
        <ele>333</ele>
        <time>2011-07-31T08:00:09Z</time>
      </trkpt>
      <trkpt lat="49.19494" lon="6.95763">
        <ele>333</ele>
        <time>2011-07-31T08:00:10Z</time>
      </trkpt>
      <trkpt lat="49.19493" lon="6.95764">
        <ele>333</ele>
        <time>2011-07-31T08:00:11Z</time>
      </trkpt>
      <trkpt lat="49.19491" lon="6.95765">
        <ele>333</ele>
        <time>2011-07-31T08:00:13Z</time>
      </trkpt>
      <trkpt lat="49.1949" lon="6.95766">
        <ele>333</ele>
        <time>2011-07-31T08:00:14Z</time>
      </trkpt>
      <trkpt lat="49.19487" lon="6.95767">
        <ele>333</ele>
        <time>2011-07-31T08:00:16Z</time>
      </trkpt>
      <trkpt lat="49.19486" lon="6.95767">
        <ele>333</ele>
        <time>2011-07-31T08:00:17Z</time>
      </trkpt>
      <trkpt lat="49.19484" lon="6.95769">
        <ele>333</ele>
        <time>2011-07-31T08:00:19Z</time>
      </trkpt>
      <trkpt lat="49.19482" lon="6.95769">
        <ele>333</ele>
        <time>2011-07-31T08:00:20Z</time>
      </trkpt>
      <trkpt lat="49.19481" lon="6.9577">
        <ele>333</ele>
        <time>2011-07-31T08:00:21Z</time>
      </trkpt>
      <trkpt lat="49.19479" lon="6.9577">
        <ele>333</ele>
        <time>2011-07-31T08:00:23Z</time>
      </trkpt>
      <trkpt lat="49.19477" lon="6.95771">
        <ele>333</ele>
        <time>2011-07-31T08:00:25Z</time>
      </trkpt>
      <trkpt lat="49.19475" lon="6.95771">
        <ele>333</ele>
        <time>2011-07-31T08:00:27Z</time>
      </trkpt>
      <trkpt lat="49.19474" lon="6.95772">
        <ele>333</ele>
        <time>2011-07-31T08:00:28Z</time>
      </trkpt>
      <trkpt lat="49.19473" lon="6.95772">
        <ele>333</ele>
        <time>2011-07-31T08:00:29Z</time>
      </trkpt>
      <trkpt lat="49.19471" lon="6.95772">
        <ele>333</ele>
        <time>2011-07-31T08:00:30Z</time>
      </trkpt>
      <trkpt lat="49.1947" lon="6.95772">
        <ele>333</ele>
        <time>2011-07-31T08:00:31Z</time>
      </trkpt>
      <trkpt lat="49.19469" lon="6.95772">
        <ele>333</ele>
        <time>2011-07-31T08:00:32Z</time>
      </trkpt>
      <trkpt lat="49.19467" lon="6.95772">
        <ele>333</ele>
        <time>2011-07-31T08:00:33Z</time>
      </trkpt>
      <trkpt lat="49.19466" lon="6.95771">
        <ele>333</ele>
        <time>2011-07-31T08:00:34Z</time>
      </trkpt>
      <trkpt lat="49.19465" lon="6.95772">
        <ele>333</ele>
        <time>2011-07-31T08:00:35Z</time>
      </trkpt>
      <trkpt lat="49.19464" lon="6.95773">
        <ele>333</ele>
        <time>2011-07-31T08:00:36Z</time>
      </trkpt>
      <trkpt lat="49.19462" lon="6.95773">
        <ele>333</ele>
        <time>2011-07-31T08:00:37Z</time>
      </trkpt>
      <trkpt lat="49.19461" lon="6.95774">
        <ele>333</ele>
        <time>2011-07-31T08:00:38Z</time>
      </trkpt>
      <trkpt lat="49.19459" lon="6.95775">
        <ele>333</ele>
        <time>2011-07-31T08:00:40Z</time>
      </trkpt>
      <trkpt lat="49.19458" lon="6.95775">
        <ele>333</ele>
        <time>2011-07-31T08:00:41Z</time>
      </trkpt>
      <trkpt lat="49.19457" lon="6.95775">
        <ele>333</ele>
        <time>2011-07-31T08:00:42Z</time>
      </trkpt>
      <trkpt lat="49.19455" lon="6.95776">
        <ele>333</ele>
        <time>2011-07-31T08:00:44Z</time>
      </trkpt>
      <trkpt lat="49.19453" lon="6.95776">
        <ele>333</ele>
        <time>2011-07-31T08:00:45Z</time>
      </trkpt>
      <trkpt lat="49.19452" lon="6.95777">
        <ele>333</ele>
        <time>2011-07-31T08:00:46Z</time>
      </trkpt>
      <trkpt lat="49.19451" lon="6.95777">
        <ele>333</ele>
        <time>2011-07-31T08:00:47Z</time>
      </trkpt>
      <trkpt lat="49.1945" lon="6.95778">
        <ele>333</ele>
        <time>2011-07-31T08:00:48Z</time>
      </trkpt>
      <trkpt lat="49.19447" lon="6.95779">
        <ele>333</ele>
        <time>2011-07-31T08:00:50Z</time>
      </trkpt>
      <trkpt lat="49.19446" lon="6.95779">
        <ele>333</ele>
        <time>2011-07-31T08:00:51Z</time>
      </trkpt>
      <trkpt lat="49.19444" lon="6.9578">
        <ele>333</ele>
        <time>2011-07-31T08:00:53Z</time>
      </trkpt>
      <trkpt lat="49.19442" lon="6.95781">
        <ele>333</ele>
        <time>2011-07-31T08:00:55Z</time>
      </trkpt>
      <trkpt lat="49.19441" lon="6.95781">
        <ele>333</ele>
        <time>2011-07-31T08:00:56Z</time>
      </trkpt>
      <trkpt lat="49.19439" lon="6.95781">
        <ele>333</ele>
        <time>2011-07-31T08:00:57Z</time>
      </trkpt>
      <trkpt lat="49.19437" lon="6.95782">
        <ele>333</ele>
        <time>2011-07-31T08:00:59Z</time>
      </trkpt>
      <trkpt lat="49.19436" lon="6.95782">
        <ele>333</ele>
        <time>2011-07-31T08:01:00Z</time>
      </trkpt>
      <trkpt lat="49.19435" lon="6.95782">
        <ele>333</ele>
        <time>2011-07-31T08:01:01Z</time>
      </trkpt>
      <trkpt lat="49.19433" lon="6.95783">
        <ele>333</ele>
        <time>2011-07-31T08:01:02Z</time>
      </trkpt>
      <trkpt lat="49.19432" lon="6.95783">
        <ele>333</ele>
        <time>2011-07-31T08:01:03Z</time>
      </trkpt>
      <trkpt lat="49.1943" lon="6.95784">
        <ele>333</ele>
        <time>2011-07-31T08:01:04Z</time>
      </trkpt>
      <trkpt lat="49.19429" lon="6.95784">
        <ele>333</ele>
        <time>2011-07-31T08:01:05Z</time>
      </trkpt>
      <trkpt lat="49.19428" lon="6.95784">
        <ele>333</ele>
        <time>2011-07-31T08:01:06Z</time>
      </trkpt>
      <trkpt lat="49.19427" lon="6.95785">
        <ele>333</ele>
        <time>2011-07-31T08:01:07Z</time>
      </trkpt>
      <trkpt lat="49.19426" lon="6.95786">
        <ele>333</ele>
        <time>2011-07-31T08:01:08Z</time>
      </trkpt>
      <trkpt lat="49.19424" lon="6.95786">
        <ele>333</ele>
        <time>2011-07-31T08:01:09Z</time>
      </trkpt>
      <trkpt lat="49.19423" lon="6.95786">
        <ele>333</ele>
        <time>2011-07-31T08:01:10Z</time>
      </trkpt>
      <trkpt lat="49.19421" lon="6.95786">
        <ele>333</ele>
        <time>2011-07-31T08:01:11Z</time>
      </trkpt>
      <trkpt lat="49.1942" lon="6.95787">
        <ele>333</ele>
        <time>2011-07-31T08:01:12Z</time>
      </trkpt>
      <trkpt lat="49.19419" lon="6.95787">
        <ele>333</ele>
        <time>2011-07-31T08:01:13Z</time>
      </trkpt>
      <trkpt lat="49.19418" lon="6.95787">
        <ele>332</ele>
        <time>2011-07-31T08:01:14Z</time>
      </trkpt>
      <trkpt lat="49.19416" lon="6.95788">
        <ele>332</ele>
        <time>2011-07-31T08:01:16Z</time>
      </trkpt>
      <trkpt lat="49.19415" lon="6.95789">
        <ele>332</ele>
        <time>2011-07-31T08:01:17Z</time>
      </trkpt>
      <trkpt lat="49.19413" lon="6.95789">
        <ele>332</ele>
        <time>2011-07-31T08:01:18Z</time>
      </trkpt>
      <trkpt lat="49.19412" lon="6.95789">
        <ele>332</ele>
        <time>2011-07-31T08:01:19Z</time>
      </trkpt>
      <trkpt lat="49.1941" lon="6.95791">
        <ele>331</ele>
        <time>2011-07-31T08:01:21Z</time>
      </trkpt>
      <trkpt lat="49.19409" lon="6.95793">
        <ele>331</ele>
        <time>2011-07-31T08:01:22Z</time>
      </trkpt>
      <trkpt lat="49.19407" lon="6.95795">
        <ele>331</ele>
        <time>2011-07-31T08:01:24Z</time>
      </trkpt>
      <trkpt lat="49.19405" lon="6.95797">
        <ele>331</ele>
        <time>2011-07-31T08:01:26Z</time>
      </trkpt>
      <trkpt lat="49.19405" lon="6.95799">
        <ele>331</ele>
        <time>2011-07-31T08:01:27Z</time>
      </trkpt>
      <trkpt lat="49.19404" lon="6.95801">
        <ele>331</ele>
        <time>2011-07-31T08:01:28Z</time>
      </trkpt>
      <trkpt lat="49.19404" lon="6.95803">
        <ele>331</ele>
        <time>2011-07-31T08:01:29Z</time>
      </trkpt>
      <trkpt lat="49.19404" lon="6.95805">
        <ele>331</ele>
        <time>2011-07-31T08:01:30Z</time>
      </trkpt>
      <trkpt lat="49.19403" lon="6.95807">
        <ele>331</ele>
        <time>2011-07-31T08:01:31Z</time>
      </trkpt>
      <trkpt lat="49.19403" lon="6.95809">
        <ele>331</ele>
        <time>2011-07-31T08:01:32Z</time>
      </trkpt>
      <trkpt lat="49.19403" lon="6.9581">
        <ele>331</ele>
        <time>2011-07-31T08:01:33Z</time>
      </trkpt>
      <trkpt lat="49.19403" lon="6.95812">
        <ele>331</ele>
        <time>2011-07-31T08:01:34Z</time>
      </trkpt>
      <trkpt lat="49.19402" lon="6.95814">
        <ele>331</ele>
        <time>2011-07-31T08:01:35Z</time>
      </trkpt>
      <trkpt lat="49.19402" lon="6.95817">
        <ele>330</ele>
        <time>2011-07-31T08:01:37Z</time>
      </trkpt>
      <trkpt lat="49.19401" lon="6.9582">
        <ele>330</ele>
        <time>2011-07-31T08:01:39Z</time>
      </trkpt>
      <trkpt lat="49.194" lon="6.95822">
        <ele>330</ele>
        <time>2011-07-31T08:01:40Z</time>
      </trkpt>
      <trkpt lat="49.194" lon="6.95824">
        <ele>329</ele>
        <time>2011-07-31T08:01:41Z</time>
      </trkpt>
      <trkpt lat="49.19399" lon="6.95826">
        <ele>329</ele>
        <time>2011-07-31T08:01:42Z</time>
      </trkpt>
      <trkpt lat="49.19399" lon="6.95828">
        <ele>329</ele>
        <time>2011-07-31T08:01:43Z</time>
      </trkpt>
      <trkpt lat="49.19398" lon="6.9583">
        <ele>329</ele>
        <time>2011-07-31T08:01:44Z</time>
      </trkpt>
      <trkpt lat="49.19398" lon="6.95832">
        <ele>328</ele>
        <time>2011-07-31T08:01:45Z</time>
      </trkpt>
      <trkpt lat="49.19398" lon="6.95834">
        <ele>328</ele>
        <time>2011-07-31T08:01:46Z</time>
      </trkpt>
      <trkpt lat="49.19397" lon="6.95836">
        <ele>328</ele>
        <time>2011-07-31T08:01:47Z</time>
      </trkpt>
      <trkpt lat="49.19397" lon="6.95838">
        <ele>328</ele>
        <time>2011-07-31T08:01:48Z</time>
      </trkpt>
      <trkpt lat="49.19396" lon="6.9584">
        <ele>327</ele>
        <time>2011-07-31T08:01:49Z</time>
      </trkpt>
      <trkpt lat="49.19396" lon="6.95842">
        <ele>327</ele>
        <time>2011-07-31T08:01:50Z</time>
      </trkpt>
      <trkpt lat="49.19396" lon="6.95844">
        <ele>327</ele>
        <time>2011-07-31T08:01:51Z</time>
      </trkpt>
      <trkpt lat="49.19396" lon="6.95846">
        <ele>327</ele>
        <time>2011-07-31T08:01:52Z</time>
      </trkpt>
      <trkpt lat="49.19395" lon="6.95847">
        <ele>327</ele>
        <time>2011-07-31T08:01:53Z</time>
      </trkpt>
      <trkpt lat="49.19395" lon="6.95849">
        <ele>327</ele>
        <time>2011-07-31T08:01:54Z</time>
      </trkpt>
      <trkpt lat="49.19394" lon="6.95851">
        <ele>327</ele>
        <time>2011-07-31T08:01:55Z</time>
      </trkpt>
      <trkpt lat="49.19394" lon="6.95853">
        <ele>327</ele>
        <time>2011-07-31T08:01:56Z</time>
      </trkpt>
      <trkpt lat="49.19394" lon="6.95854">
        <ele>327</ele>
        <time>2011-07-31T08:01:57Z</time>
      </trkpt>
      <trkpt lat="49.19393" lon="6.95856">
        <ele>327</ele>
        <time>2011-07-31T08:01:58Z</time>
      </trkpt>
      <trkpt lat="49.19393" lon="6.95858">
        <ele>327</ele>
        <time>2011-07-31T08:01:59Z</time>
      </trkpt>
      <trkpt lat="49.19392" lon="6.9586">
        <ele>327</ele>
        <time>2011-07-31T08:02:00Z</time>
      </trkpt>
      <trkpt lat="49.19392" lon="6.95861">
        <ele>327</ele>
        <time>2011-07-31T08:02:01Z</time>
      </trkpt>
      <trkpt lat="49.19392" lon="6.95863">
        <ele>327</ele>
        <time>2011-07-31T08:02:02Z</time>
      </trkpt>
      <trkpt lat="49.19391" lon="6.95865">
        <ele>327</ele>
        <time>2011-07-31T08:02:03Z</time>
      </trkpt>
      <trkpt lat="49.19391" lon="6.95867">
        <ele>327</ele>
        <time>2011-07-31T08:02:04Z</time>
      </trkpt>
      <trkpt lat="49.1939" lon="6.95869">
        <ele>327</ele>
        <time>2011-07-31T08:02:05Z</time>
      </trkpt>
      <trkpt lat="49.1939" lon="6.95871">
        <ele>327</ele>
        <time>2011-07-31T08:02:07Z</time>
      </trkpt>
      <trkpt lat="49.1939" lon="6.95873">
        <ele>327</ele>
        <time>2011-07-31T08:02:08Z</time>
      </trkpt>
      <trkpt lat="49.19389" lon="6.95875">
        <ele>327</ele>
        <time>2011-07-31T08:02:09Z</time>
      </trkpt>
      <trkpt lat="49.19389" lon="6.95877">
        <ele>327</ele>
        <time>2011-07-31T08:02:10Z</time>
      </trkpt>
      <trkpt lat="49.19389" lon="6.95879">
        <ele>327</ele>
        <time>2011-07-31T08:02:11Z</time>
      </trkpt>
      <trkpt lat="49.19388" lon="6.95882">
        <ele>327</ele>
        <time>2011-07-31T08:02:13Z</time>
      </trkpt>
      <trkpt lat="49.19387" lon="6.95884">
        <ele>327</ele>
        <time>2011-07-31T08:02:15Z</time>
      </trkpt>
      <trkpt lat="49.19387" lon="6.95886">
        <ele>326</ele>
        <time>2011-07-31T08:02:16Z</time>
      </trkpt>
      <trkpt lat="49.19387" lon="6.95888">
        <ele>326</ele>
        <time>2011-07-31T08:02:17Z</time>
      </trkpt>
      <trkpt lat="49.19387" lon="6.9589">
        <ele>326</ele>
        <time>2011-07-31T08:02:18Z</time>
      </trkpt>
      <trkpt lat="49.19387" lon="6.95892">
        <ele>326</ele>
        <time>2011-07-31T08:02:19Z</time>
      </trkpt>
      <trkpt lat="49.19387" lon="6.95894">
        <ele>326</ele>
        <time>2011-07-31T08:02:20Z</time>
      </trkpt>
      <trkpt lat="49.19387" lon="6.95896">
        <ele>326</ele>
        <time>2011-07-31T08:02:21Z</time>
      </trkpt>
      <trkpt lat="49.19387" lon="6.95897">
        <ele>326</ele>
        <time>2011-07-31T08:02:22Z</time>
      </trkpt>
      <trkpt lat="49.19386" lon="6.95899">
        <ele>325</ele>
        <time>2011-07-31T08:02:23Z</time>
      </trkpt>
      <trkpt lat="49.19386" lon="6.95901">
        <ele>325</ele>
        <time>2011-07-31T08:02:24Z</time>
      </trkpt>
      <trkpt lat="49.19384" lon="6.95904">
        <ele>325</ele>
        <time>2011-07-31T08:02:26Z</time>
      </trkpt>
      <trkpt lat="49.19384" lon="6.95906">
        <ele>325</ele>
        <time>2011-07-31T08:02:27Z</time>
      </trkpt>
      <trkpt lat="49.19384" lon="6.95908">
        <ele>325</ele>
        <time>2011-07-31T08:02:28Z</time>
      </trkpt>
      <trkpt lat="49.19383" lon="6.9591">
        <ele>325</ele>
        <time>2011-07-31T08:02:29Z</time>
      </trkpt>
      <trkpt lat="49.19383" lon="6.95913">
        <ele>325</ele>
        <time>2011-07-31T08:02:31Z</time>
      </trkpt>
      <trkpt lat="49.19382" lon="6.95915">
        <ele>325</ele>
        <time>2011-07-31T08:02:32Z</time>
      </trkpt>
      <trkpt lat="49.19382" lon="6.95917">
        <ele>325</ele>
        <time>2011-07-31T08:02:33Z</time>
      </trkpt>
      <trkpt lat="49.19382" lon="6.95919">
        <ele>325</ele>
        <time>2011-07-31T08:02:34Z</time>
      </trkpt>
      <trkpt lat="49.19381" lon="6.95921">
        <ele>325</ele>
        <time>2011-07-31T08:02:35Z</time>
      </trkpt>
      <trkpt lat="49.19381" lon="6.95923">
        <ele>325</ele>
        <time>2011-07-31T08:02:36Z</time>
      </trkpt>
      <trkpt lat="49.19381" lon="6.95925">
        <ele>325</ele>
        <time>2011-07-31T08:02:37Z</time>
      </trkpt>
      <trkpt lat="49.19381" lon="6.95927">
        <ele>325</ele>
        <time>2011-07-31T08:02:38Z</time>
      </trkpt>
      <trkpt lat="49.1938" lon="6.95929">
        <ele>325</ele>
        <time>2011-07-31T08:02:39Z</time>
      </trkpt>
      <trkpt lat="49.1938" lon="6.95931">
        <ele>325</ele>
        <time>2011-07-31T08:02:40Z</time>
      </trkpt>
      <trkpt lat="49.19379" lon="6.95932">
        <ele>325</ele>
        <time>2011-07-31T08:02:41Z</time>
      </trkpt>
      <trkpt lat="49.19379" lon="6.95934">
        <ele>325</ele>
        <time>2011-07-31T08:02:42Z</time>
      </trkpt>
      <trkpt lat="49.19379" lon="6.95936">
        <ele>325</ele>
        <time>2011-07-31T08:02:43Z</time>
      </trkpt>
      <trkpt lat="49.19379" lon="6.95938">
        <ele>325</ele>
        <time>2011-07-31T08:02:44Z</time>
      </trkpt>
      <trkpt lat="49.19378" lon="6.9594">
        <ele>325</ele>
        <time>2011-07-31T08:02:45Z</time>
      </trkpt>
      <trkpt lat="49.19378" lon="6.95943">
        <ele>325</ele>
        <time>2011-07-31T08:02:46Z</time>
      </trkpt>
      <trkpt lat="49.19378" lon="6.95945">
        <ele>325</ele>
        <time>2011-07-31T08:02:47Z</time>
      </trkpt>
      <trkpt lat="49.19378" lon="6.95947">
        <ele>325</ele>
        <time>2011-07-31T08:02:48Z</time>
      </trkpt>
      <trkpt lat="49.19378" lon="6.95949">
        <ele>325</ele>
        <time>2011-07-31T08:02:49Z</time>
      </trkpt>
      <trkpt lat="49.19378" lon="6.95951">
        <ele>325</ele>
        <time>2011-07-31T08:02:50Z</time>
      </trkpt>
      <trkpt lat="49.19378" lon="6.95953">
        <ele>325</ele>
        <time>2011-07-31T08:02:51Z</time>
      </trkpt>
      <trkpt lat="49.19378" lon="6.95955">
        <ele>325</ele>
        <time>2011-07-31T08:02:52Z</time>
      </trkpt>
      <trkpt lat="49.19378" lon="6.95957">
        <ele>325</ele>
        <time>2011-07-31T08:02:53Z</time>
      </trkpt>
      <trkpt lat="49.19378" lon="6.95958">
        <ele>325</ele>
        <time>2011-07-31T08:02:54Z</time>
      </trkpt>
      <trkpt lat="49.19378" lon="6.9596">
        <ele>325</ele>
        <time>2011-07-31T08:02:55Z</time>
      </trkpt>
      <trkpt lat="49.19378" lon="6.95962">
        <ele>325</ele>
        <time>2011-07-31T08:02:56Z</time>
      </trkpt>
      <trkpt lat="49.19378" lon="6.95964">
        <ele>324</ele>
        <time>2011-07-31T08:02:57Z</time>
      </trkpt>
      <trkpt lat="49.19379" lon="6.95966">
        <ele>324</ele>
        <time>2011-07-31T08:02:58Z</time>
      </trkpt>
      <trkpt lat="49.19379" lon="6.95968">
        <ele>324</ele>
        <time>2011-07-31T08:02:59Z</time>
      </trkpt>
      <trkpt lat="49.19378" lon="6.95969">
        <ele>324</ele>
        <time>2011-07-31T08:03:00Z</time>
      </trkpt>
      <trkpt lat="49.19378" lon="6.95971">
        <ele>324</ele>
        <time>2011-07-31T08:03:01Z</time>
      </trkpt>
      <trkpt lat="49.19378" lon="6.95974">
        <ele>323</ele>
        <time>2011-07-31T08:03:03Z</time>
      </trkpt>
      <trkpt lat="49.19378" lon="6.95976">
        <ele>323</ele>
        <time>2011-07-31T08:03:04Z</time>
      </trkpt>
      <trkpt lat="49.19378" lon="6.95978">
        <ele>323</ele>
        <time>2011-07-31T08:03:05Z</time>
      </trkpt>
      <trkpt lat="49.19378" lon="6.9598">
        <ele>322</ele>
        <time>2011-07-31T08:03:06Z</time>
      </trkpt>
      <trkpt lat="49.19378" lon="6.95982">
        <ele>322</ele>
        <time>2011-07-31T08:03:07Z</time>
      </trkpt>
      <trkpt lat="49.19378" lon="6.95984">
        <ele>322</ele>
        <time>2011-07-31T08:03:08Z</time>
      </trkpt>
      <trkpt lat="49.19377" lon="6.95987">
        <ele>322</ele>
        <time>2011-07-31T08:03:10Z</time>
      </trkpt>
      <trkpt lat="49.19378" lon="6.95989">
        <ele>322</ele>
        <time>2011-07-31T08:03:11Z</time>
      </trkpt>
      <trkpt lat="49.19378" lon="6.95991">
        <ele>322</ele>
        <time>2011-07-31T08:03:12Z</time>
      </trkpt>
      <trkpt lat="49.19378" lon="6.95993">
        <ele>322</ele>
        <time>2011-07-31T08:03:13Z</time>
      </trkpt>
      <trkpt lat="49.19378" lon="6.95995">
        <ele>322</ele>
        <time>2011-07-31T08:03:14Z</time>
      </trkpt>
      <trkpt lat="49.19378" lon="6.95997">
        <ele>322</ele>
        <time>2011-07-31T08:03:15Z</time>
      </trkpt>
      <trkpt lat="49.19379" lon="6.96">
        <ele>322</ele>
        <time>2011-07-31T08:03:17Z</time>
      </trkpt>
      <trkpt lat="49.19379" lon="6.96001">
        <ele>322</ele>
        <time>2011-07-31T08:03:18Z</time>
      </trkpt>
      <trkpt lat="49.19379" lon="6.96003">
        <ele>322</ele>
        <time>2011-07-31T08:03:19Z</time>
      </trkpt>
      <trkpt lat="49.19379" lon="6.96005">
        <ele>322</ele>
        <time>2011-07-31T08:03:20Z</time>
      </trkpt>
      <trkpt lat="49.19379" lon="6.96007">
        <ele>322</ele>
        <time>2011-07-31T08:03:21Z</time>
      </trkpt>
      <trkpt lat="49.19379" lon="6.96009">
        <ele>321</ele>
        <time>2011-07-31T08:03:22Z</time>
      </trkpt>
      <trkpt lat="49.19379" lon="6.96011">
        <ele>321</ele>
        <time>2011-07-31T08:03:23Z</time>
      </trkpt>
      <trkpt lat="49.19379" lon="6.96013">
        <ele>321</ele>
        <time>2011-07-31T08:03:24Z</time>
      </trkpt>
      <trkpt lat="49.19379" lon="6.96015">
        <ele>321</ele>
        <time>2011-07-31T08:03:25Z</time>
      </trkpt>
      <trkpt lat="49.19379" lon="6.96017">
        <ele>321</ele>
        <time>2011-07-31T08:03:26Z</time>
      </trkpt>
      <trkpt lat="49.19379" lon="6.96018">
        <ele>321</ele>
        <time>2011-07-31T08:03:27Z</time>
      </trkpt>
      <trkpt lat="49.19379" lon="6.96021">
        <ele>321</ele>
        <time>2011-07-31T08:03:28Z</time>
      </trkpt>
      <trkpt lat="49.19379" lon="6.96023">
        <ele>321</ele>
        <time>2011-07-31T08:03:29Z</time>
      </trkpt>
      <trkpt lat="49.19379" lon="6.96025">
        <ele>321</ele>
        <time>2011-07-31T08:03:30Z</time>
      </trkpt>
      <trkpt lat="49.1938" lon="6.96027">
        <ele>321</ele>
        <time>2011-07-31T08:03:31Z</time>
      </trkpt>
      <trkpt lat="49.1938" lon="6.96028">
        <ele>321</ele>
        <time>2011-07-31T08:03:32Z</time>
      </trkpt>
      <trkpt lat="49.1938" lon="6.9603">
        <ele>321</ele>
        <time>2011-07-31T08:03:33Z</time>
      </trkpt>
      <trkpt lat="49.1938" lon="6.96032">
        <ele>321</ele>
        <time>2011-07-31T08:03:34Z</time>
      </trkpt>
      <trkpt lat="49.1938" lon="6.96033">
        <ele>321</ele>
        <time>2011-07-31T08:03:35Z</time>
      </trkpt>
      <trkpt lat="49.1938" lon="6.96035">
        <ele>321</ele>
        <time>2011-07-31T08:03:36Z</time>
      </trkpt>
      <trkpt lat="49.19381" lon="6.96037">
        <ele>321</ele>
        <time>2011-07-31T08:03:37Z</time>
      </trkpt>
      <trkpt lat="49.19381" lon="6.96039">
        <ele>321</ele>
        <time>2011-07-31T08:03:38Z</time>
      </trkpt>
      <trkpt lat="49.19381" lon="6.96041">
        <ele>321</ele>
        <time>2011-07-31T08:03:39Z</time>
      </trkpt>
      <trkpt lat="49.19381" lon="6.96043">
        <ele>321</ele>
        <time>2011-07-31T08:03:40Z</time>
      </trkpt>
      <trkpt lat="49.19381" lon="6.96045">
        <ele>321</ele>
        <time>2011-07-31T08:03:41Z</time>
      </trkpt>
      <trkpt lat="49.19381" lon="6.96047">
        <ele>321</ele>
        <time>2011-07-31T08:03:42Z</time>
      </trkpt>
      <trkpt lat="49.19381" lon="6.96048">
        <ele>321</ele>
        <time>2011-07-31T08:03:43Z</time>
      </trkpt>
      <trkpt lat="49.19381" lon="6.96051">
        <ele>321</ele>
        <time>2011-07-31T08:03:44Z</time>
      </trkpt>
      <trkpt lat="49.19381" lon="6.96053">
        <ele>321</ele>
        <time>2011-07-31T08:03:45Z</time>
      </trkpt>
      <trkpt lat="49.19381" lon="6.96055">
        <ele>321</ele>
        <time>2011-07-31T08:03:46Z</time>
      </trkpt>
      <trkpt lat="49.19381" lon="6.96057">
        <ele>321</ele>
        <time>2011-07-31T08:03:47Z</time>
      </trkpt>
      <trkpt lat="49.19381" lon="6.96058">
        <ele>321</ele>
        <time>2011-07-31T08:03:48Z</time>
      </trkpt>
      <trkpt lat="49.19381" lon="6.9606">
        <ele>321</ele>
        <time>2011-07-31T08:03:49Z</time>
      </trkpt>
      <trkpt lat="49.19381" lon="6.96062">
        <ele>321</ele>
        <time>2011-07-31T08:03:50Z</time>
      </trkpt>
      <trkpt lat="49.19381" lon="6.96064">
        <ele>321</ele>
        <time>2011-07-31T08:03:51Z</time>
      </trkpt>
      <trkpt lat="49.19381" lon="6.96065">
        <ele>321</ele>
        <time>2011-07-31T08:03:52Z</time>
      </trkpt>
      <trkpt lat="49.19381" lon="6.96067">
        <ele>321</ele>
        <time>2011-07-31T08:03:53Z</time>
      </trkpt>
      <trkpt lat="49.19381" lon="6.96071">
        <ele>321</ele>
        <time>2011-07-31T08:03:55Z</time>
      </trkpt>
      <trkpt lat="49.19381" lon="6.96073">
        <ele>321</ele>
        <time>2011-07-31T08:03:56Z</time>
      </trkpt>
      <trkpt lat="49.19381" lon="6.96075">
        <ele>320</ele>
        <time>2011-07-31T08:03:58Z</time>
      </trkpt>
      <trkpt lat="49.19381" lon="6.96077">
        <ele>320</ele>
        <time>2011-07-31T08:03:59Z</time>
      </trkpt>
      <trkpt lat="49.19381" lon="6.96079">
        <ele>320</ele>
        <time>2011-07-31T08:04:00Z</time>
      </trkpt>
      <trkpt lat="49.19381" lon="6.96081">
        <ele>319</ele>
        <time>2011-07-31T08:04:01Z</time>
      </trkpt>
      <trkpt lat="49.19381" lon="6.96083">
        <ele>319</ele>
        <time>2011-07-31T08:04:02Z</time>
      </trkpt>
      <trkpt lat="49.19381" lon="6.96085">
        <ele>319</ele>
        <time>2011-07-31T08:04:03Z</time>
      </trkpt>
      <trkpt lat="49.19381" lon="6.96087">
        <ele>319</ele>
        <time>2011-07-31T08:04:04Z</time>
      </trkpt>
      <trkpt lat="49.19381" lon="6.96089">
        <ele>319</ele>
        <time>2011-07-31T08:04:05Z</time>
      </trkpt>
      <trkpt lat="49.19381" lon="6.96091">
        <ele>318</ele>
        <time>2011-07-31T08:04:07Z</time>
      </trkpt>
      <trkpt lat="49.19381" lon="6.96093">
        <ele>318</ele>
        <time>2011-07-31T08:04:08Z</time>
      </trkpt>
      <trkpt lat="49.19381" lon="6.96095">
        <ele>317</ele>
        <time>2011-07-31T08:04:09Z</time>
      </trkpt>
      <trkpt lat="49.19381" lon="6.96097">
        <ele>317</ele>
        <time>2011-07-31T08:04:10Z</time>
      </trkpt>
      <trkpt lat="49.19382" lon="6.96099">
        <ele>317</ele>
        <time>2011-07-31T08:04:11Z</time>
      </trkpt>
      <trkpt lat="49.19382" lon="6.96101">
        <ele>317</ele>
        <time>2011-07-31T08:04:12Z</time>
      </trkpt>
      <trkpt lat="49.19382" lon="6.96104">
        <ele>317</ele>
        <time>2011-07-31T08:04:13Z</time>
      </trkpt>
      <trkpt lat="49.19382" lon="6.96106">
        <ele>317</ele>
        <time>2011-07-31T08:04:14Z</time>
      </trkpt>
      <trkpt lat="49.19382" lon="6.96108">
        <ele>317</ele>
        <time>2011-07-31T08:04:15Z</time>
      </trkpt>
      <trkpt lat="49.19382" lon="6.96111">
        <ele>317</ele>
        <time>2011-07-31T08:04:17Z</time>
      </trkpt>
      <trkpt lat="49.19382" lon="6.96113">
        <ele>317</ele>
        <time>2011-07-31T08:04:18Z</time>
      </trkpt>
      <trkpt lat="49.19382" lon="6.96115">
        <ele>317</ele>
        <time>2011-07-31T08:04:19Z</time>
      </trkpt>
      <trkpt lat="49.19382" lon="6.96117">
        <ele>317</ele>
        <time>2011-07-31T08:04:20Z</time>
      </trkpt>
      <trkpt lat="49.19382" lon="6.96119">
        <ele>317</ele>
        <time>2011-07-31T08:04:21Z</time>
      </trkpt>
      <trkpt lat="49.19383" lon="6.96122">
        <ele>317</ele>
        <time>2011-07-31T08:04:22Z</time>
      </trkpt>
      <trkpt lat="49.19383" lon="6.96124">
        <ele>317</ele>
        <time>2011-07-31T08:04:23Z</time>
      </trkpt>
      <trkpt lat="49.19383" lon="6.96126">
        <ele>317</ele>
        <time>2011-07-31T08:04:24Z</time>
      </trkpt>
      <trkpt lat="49.19383" lon="6.96127">
        <ele>317</ele>
        <time>2011-07-31T08:04:25Z</time>
      </trkpt>
      <trkpt lat="49.19383" lon="6.96129">
        <ele>317</ele>
        <time>2011-07-31T08:04:26Z</time>
      </trkpt>
      <trkpt lat="49.19383" lon="6.96131">
        <ele>317</ele>
        <time>2011-07-31T08:04:27Z</time>
      </trkpt>
      <trkpt lat="49.19383" lon="6.96133">
        <ele>317</ele>
        <time>2011-07-31T08:04:28Z</time>
      </trkpt>
      <trkpt lat="49.19383" lon="6.96134">
        <ele>317</ele>
        <time>2011-07-31T08:04:29Z</time>
      </trkpt>
      <trkpt lat="49.19383" lon="6.96136">
        <ele>317</ele>
        <time>2011-07-31T08:04:30Z</time>
      </trkpt>
      <trkpt lat="49.19383" lon="6.96138">
        <ele>317</ele>
        <time>2011-07-31T08:04:31Z</time>
      </trkpt>
      <trkpt lat="49.19383" lon="6.9614">
        <ele>317</ele>
        <time>2011-07-31T08:04:32Z</time>
      </trkpt>
      <trkpt lat="49.19382" lon="6.96142">
        <ele>317</ele>
        <time>2011-07-31T08:04:33Z</time>
      </trkpt>
      <trkpt lat="49.19382" lon="6.96144">
        <ele>317</ele>
        <time>2011-07-31T08:04:34Z</time>
      </trkpt>
      <trkpt lat="49.19382" lon="6.96146">
        <ele>317</ele>
        <time>2011-07-31T08:04:35Z</time>
      </trkpt>
      <trkpt lat="49.19382" lon="6.96147">
        <ele>316</ele>
        <time>2011-07-31T08:04:36Z</time>
      </trkpt>
      <trkpt lat="49.19382" lon="6.96151">
        <ele>316</ele>
        <time>2011-07-31T08:04:38Z</time>
      </trkpt>
      <trkpt lat="49.19382" lon="6.96153">
        <ele>315</ele>
        <time>2011-07-31T08:04:39Z</time>
      </trkpt>
      <trkpt lat="49.19382" lon="6.96155">
        <ele>315</ele>
        <time>2011-07-31T08:04:40Z</time>
      </trkpt>
      <trkpt lat="49.19382" lon="6.96157">
        <ele>315</ele>
        <time>2011-07-31T08:04:41Z</time>
      </trkpt>
      <trkpt lat="49.19382" lon="6.96159">
        <ele>314</ele>
        <time>2011-07-31T08:04:42Z</time>
      </trkpt>
      <trkpt lat="49.19382" lon="6.96161">
        <ele>314</ele>
        <time>2011-07-31T08:04:43Z</time>
      </trkpt>
      <trkpt lat="49.19382" lon="6.96163">
        <ele>314</ele>
        <time>2011-07-31T08:04:44Z</time>
      </trkpt>
      <trkpt lat="49.19382" lon="6.96164">
        <ele>314</ele>
        <time>2011-07-31T08:04:45Z</time>
      </trkpt>
      <trkpt lat="49.19382" lon="6.96166">
        <ele>313</ele>
        <time>2011-07-31T08:04:46Z</time>
      </trkpt>
      <trkpt lat="49.19382" lon="6.96168">
        <ele>313</ele>
        <time>2011-07-31T08:04:47Z</time>
      </trkpt>
      <trkpt lat="49.19382" lon="6.9617">
        <ele>313</ele>
        <time>2011-07-31T08:04:48Z</time>
      </trkpt>
      <trkpt lat="49.19382" lon="6.96173">
        <ele>313</ele>
        <time>2011-07-31T08:04:49Z</time>
      </trkpt>
      <trkpt lat="49.19382" lon="6.96175">
        <ele>313</ele>
        <time>2011-07-31T08:04:50Z</time>
      </trkpt>
      <trkpt lat="49.19382" lon="6.96176">
        <ele>313</ele>
        <time>2011-07-31T08:04:51Z</time>
      </trkpt>
      <trkpt lat="49.19382" lon="6.96179">
        <ele>313</ele>
        <time>2011-07-31T08:04:52Z</time>
      </trkpt>
      <trkpt lat="49.19382" lon="6.9618">
        <ele>313</ele>
        <time>2011-07-31T08:04:53Z</time>
      </trkpt>
      <trkpt lat="49.19381" lon="6.96183">
        <ele>313</ele>
        <time>2011-07-31T08:04:55Z</time>
      </trkpt>
      <trkpt lat="49.19381" lon="6.96185">
        <ele>313</ele>
        <time>2011-07-31T08:04:56Z</time>
      </trkpt>
      <trkpt lat="49.19381" lon="6.96187">
        <ele>313</ele>
        <time>2011-07-31T08:04:57Z</time>
      </trkpt>
      <trkpt lat="49.19382" lon="6.96189">
        <ele>313</ele>
        <time>2011-07-31T08:04:58Z</time>
      </trkpt>
      <trkpt lat="49.19382" lon="6.96192">
        <ele>313</ele>
        <time>2011-07-31T08:04:59Z</time>
      </trkpt>
      <trkpt lat="49.19382" lon="6.96194">
        <ele>313</ele>
        <time>2011-07-31T08:05:00Z</time>
      </trkpt>
      <trkpt lat="49.19382" lon="6.96196">
        <ele>313</ele>
        <time>2011-07-31T08:05:01Z</time>
      </trkpt>
      <trkpt lat="49.19382" lon="6.96198">
        <ele>313</ele>
        <time>2011-07-31T08:05:02Z</time>
      </trkpt>
      <trkpt lat="49.19382" lon="6.962">
        <ele>313</ele>
        <time>2011-07-31T08:05:03Z</time>
      </trkpt>
      <trkpt lat="49.19382" lon="6.96202">
        <ele>313</ele>
        <time>2011-07-31T08:05:04Z</time>
      </trkpt>
      <trkpt lat="49.19382" lon="6.96204">
        <ele>313</ele>
        <time>2011-07-31T08:05:05Z</time>
      </trkpt>
      <trkpt lat="49.19382" lon="6.96206">
        <ele>313</ele>
        <time>2011-07-31T08:05:06Z</time>
      </trkpt>
      <trkpt lat="49.19382" lon="6.96208">
        <ele>313</ele>
        <time>2011-07-31T08:05:07Z</time>
      </trkpt>
      <trkpt lat="49.19382" lon="6.9621">
        <ele>313</ele>
        <time>2011-07-31T08:05:08Z</time>
      </trkpt>
      <trkpt lat="49.19382" lon="6.96212">
        <ele>313</ele>
        <time>2011-07-31T08:05:09Z</time>
      </trkpt>
      <trkpt lat="49.19382" lon="6.96214">
        <ele>313</ele>
        <time>2011-07-31T08:05:10Z</time>
      </trkpt>
      <trkpt lat="49.19382" lon="6.96216">
        <ele>313</ele>
        <time>2011-07-31T08:05:11Z</time>
      </trkpt>
      <trkpt lat="49.19383" lon="6.96218">
        <ele>313</ele>
        <time>2011-07-31T08:05:12Z</time>
      </trkpt>
      <trkpt lat="49.19383" lon="6.9622">
        <ele>313</ele>
        <time>2011-07-31T08:05:13Z</time>
      </trkpt>
      <trkpt lat="49.19383" lon="6.96222">
        <ele>313</ele>
        <time>2011-07-31T08:05:14Z</time>
      </trkpt>
      <trkpt lat="49.19383" lon="6.96224">
        <ele>313</ele>
        <time>2011-07-31T08:05:15Z</time>
      </trkpt>
      <trkpt lat="49.19383" lon="6.96226">
        <ele>313</ele>
        <time>2011-07-31T08:05:16Z</time>
      </trkpt>
      <trkpt lat="49.19382" lon="6.96229">
        <ele>313</ele>
        <time>2011-07-31T08:05:17Z</time>
      </trkpt>
      <trkpt lat="49.19382" lon="6.96231">
        <ele>313</ele>
        <time>2011-07-31T08:05:18Z</time>
      </trkpt>
      <trkpt lat="49.19383" lon="6.96233">
        <ele>313</ele>
        <time>2011-07-31T08:05:19Z</time>
      </trkpt>
      <trkpt lat="49.19383" lon="6.96235">
        <ele>313</ele>
        <time>2011-07-31T08:05:20Z</time>
      </trkpt>
      <trkpt lat="49.19383" lon="6.96237">
        <ele>313</ele>
        <time>2011-07-31T08:05:21Z</time>
      </trkpt>
      <trkpt lat="49.19383" lon="6.96238">
        <ele>313</ele>
        <time>2011-07-31T08:05:22Z</time>
      </trkpt>
      <trkpt lat="49.19383" lon="6.9624">
        <ele>313</ele>
        <time>2011-07-31T08:05:23Z</time>
      </trkpt>
      <trkpt lat="49.19383" lon="6.96242">
        <ele>313</ele>
        <time>2011-07-31T08:05:24Z</time>
      </trkpt>
      <trkpt lat="49.19383" lon="6.96244">
        <ele>313</ele>
        <time>2011-07-31T08:05:25Z</time>
      </trkpt>
      <trkpt lat="49.19383" lon="6.96246">
        <ele>313</ele>
        <time>2011-07-31T08:05:26Z</time>
      </trkpt>
      <trkpt lat="49.19382" lon="6.96248">
        <ele>313</ele>
        <time>2011-07-31T08:05:27Z</time>
      </trkpt>
      <trkpt lat="49.19383" lon="6.9625">
        <ele>313</ele>
        <time>2011-07-31T08:05:28Z</time>
      </trkpt>
      <trkpt lat="49.19383" lon="6.96252">
        <ele>313</ele>
        <time>2011-07-31T08:05:29Z</time>
      </trkpt>
      <trkpt lat="49.19383" lon="6.96254">
        <ele>313</ele>
        <time>2011-07-31T08:05:30Z</time>
      </trkpt>
      <trkpt lat="49.19383" lon="6.96256">
        <ele>313</ele>
        <time>2011-07-31T08:05:31Z</time>
      </trkpt>
      <trkpt lat="49.19383" lon="6.96258">
        <ele>313</ele>
        <time>2011-07-31T08:05:32Z</time>
      </trkpt>
      <trkpt lat="49.19383" lon="6.9626">
        <ele>313</ele>
        <time>2011-07-31T08:05:33Z</time>
      </trkpt>
      <trkpt lat="49.19383" lon="6.96262">
        <ele>313</ele>
        <time>2011-07-31T08:05:34Z</time>
      </trkpt>
      <trkpt lat="49.19383" lon="6.96264">
        <ele>313</ele>
        <time>2011-07-31T08:05:35Z</time>
      </trkpt>
      <trkpt lat="49.19383" lon="6.96266">
        <ele>313</ele>
        <time>2011-07-31T08:05:36Z</time>
      </trkpt>
      <trkpt lat="49.19382" lon="6.96268">
        <ele>313</ele>
        <time>2011-07-31T08:05:37Z</time>
      </trkpt>
      <trkpt lat="49.19382" lon="6.9627">
        <ele>313</ele>
        <time>2011-07-31T08:05:38Z</time>
      </trkpt>
      <trkpt lat="49.19382" lon="6.96272">
        <ele>313</ele>
        <time>2011-07-31T08:05:39Z</time>
      </trkpt>
      <trkpt lat="49.19382" lon="6.96274">
        <ele>313</ele>
        <time>2011-07-31T08:05:40Z</time>
      </trkpt>
      <trkpt lat="49.19382" lon="6.96276">
        <ele>313</ele>
        <time>2011-07-31T08:05:41Z</time>
      </trkpt>
      <trkpt lat="49.19381" lon="6.96279">
        <ele>313</ele>
        <time>2011-07-31T08:05:43Z</time>
      </trkpt>
      <trkpt lat="49.19381" lon="6.96281">
        <ele>313</ele>
        <time>2011-07-31T08:05:44Z</time>
      </trkpt>
      <trkpt lat="49.19381" lon="6.96283">
        <ele>313</ele>
        <time>2011-07-31T08:05:45Z</time>
      </trkpt>
      <trkpt lat="49.19381" lon="6.96285">
        <ele>313</ele>
        <time>2011-07-31T08:05:46Z</time>
      </trkpt>
      <trkpt lat="49.19381" lon="6.96287">
        <ele>313</ele>
        <time>2011-07-31T08:05:47Z</time>
      </trkpt>
      <trkpt lat="49.19381" lon="6.96289">
        <ele>313</ele>
        <time>2011-07-31T08:05:48Z</time>
      </trkpt>
      <trkpt lat="49.19381" lon="6.96291">
        <ele>313</ele>
        <time>2011-07-31T08:05:49Z</time>
      </trkpt>
      <trkpt lat="49.19381" lon="6.96293">
        <ele>313</ele>
        <time>2011-07-31T08:05:50Z</time>
      </trkpt>
      <trkpt lat="49.19381" lon="6.96294">
        <ele>313</ele>
        <time>2011-07-31T08:05:51Z</time>
      </trkpt>
      <trkpt lat="49.19381" lon="6.96296">
        <ele>313</ele>
        <time>2011-07-31T08:05:52Z</time>
      </trkpt>
      <trkpt lat="49.19381" lon="6.96298">
        <ele>313</ele>
        <time>2011-07-31T08:05:53Z</time>
      </trkpt>
      <trkpt lat="49.19381" lon="6.963">
        <ele>313</ele>
        <time>2011-07-31T08:05:54Z</time>
      </trkpt>
      <trkpt lat="49.19381" lon="6.96302">
        <ele>313</ele>
        <time>2011-07-31T08:05:55Z</time>
      </trkpt>
      <trkpt lat="49.19381" lon="6.96304">
        <ele>313</ele>
        <time>2011-07-31T08:05:56Z</time>
      </trkpt>
      <trkpt lat="49.19381" lon="6.96306">
        <ele>313</ele>
        <time>2011-07-31T08:05:57Z</time>
      </trkpt>
      <trkpt lat="49.19381" lon="6.96308">
        <ele>313</ele>
        <time>2011-07-31T08:05:58Z</time>
      </trkpt>
      <trkpt lat="49.19381" lon="6.96309">
        <ele>313</ele>
        <time>2011-07-31T08:05:59Z</time>
      </trkpt>
      <trkpt lat="49.19381" lon="6.96311">
        <ele>313</ele>
        <time>2011-07-31T08:06:00Z</time>
      </trkpt>
      <trkpt lat="49.19381" lon="6.96313">
        <ele>313</ele>
        <time>2011-07-31T08:06:01Z</time>
      </trkpt>
      <trkpt lat="49.19381" lon="6.96314">
        <ele>313</ele>
        <time>2011-07-31T08:06:02Z</time>
      </trkpt>
      <trkpt lat="49.19381" lon="6.96316">
        <ele>313</ele>
        <time>2011-07-31T08:06:03Z</time>
      </trkpt>
      <trkpt lat="49.19381" lon="6.96318">
        <ele>313</ele>
        <time>2011-07-31T08:06:04Z</time>
      </trkpt>
      <trkpt lat="49.19381" lon="6.9632">
        <ele>313</ele>
        <time>2011-07-31T08:06:05Z</time>
      </trkpt>
      <trkpt lat="49.19381" lon="6.96322">
        <ele>313</ele>
        <time>2011-07-31T08:06:06Z</time>
      </trkpt>
      <trkpt lat="49.19381" lon="6.96324">
        <ele>313</ele>
        <time>2011-07-31T08:06:07Z</time>
      </trkpt>
      <trkpt lat="49.19381" lon="6.96326">
        <ele>313</ele>
        <time>2011-07-31T08:06:08Z</time>
      </trkpt>
      <trkpt lat="49.19381" lon="6.96328">
        <ele>313</ele>
        <time>2011-07-31T08:06:09Z</time>
      </trkpt>
      <trkpt lat="49.19381" lon="6.96329">
        <ele>313</ele>
        <time>2011-07-31T08:06:10Z</time>
      </trkpt>
      <trkpt lat="49.19381" lon="6.96331">
        <ele>313</ele>
        <time>2011-07-31T08:06:11Z</time>
      </trkpt>
      <trkpt lat="49.19381" lon="6.96333">
        <ele>313</ele>
        <time>2011-07-31T08:06:12Z</time>
      </trkpt>
      <trkpt lat="49.19381" lon="6.96335">
        <ele>313</ele>
        <time>2011-07-31T08:06:13Z</time>
      </trkpt>
      <trkpt lat="49.19381" lon="6.96337">
        <ele>313</ele>
        <time>2011-07-31T08:06:14Z</time>
      </trkpt>
      <trkpt lat="49.19381" lon="6.96339">
        <ele>313</ele>
        <time>2011-07-31T08:06:15Z</time>
      </trkpt>
      <trkpt lat="49.19381" lon="6.96341">
        <ele>313</ele>
        <time>2011-07-31T08:06:16Z</time>
      </trkpt>
      <trkpt lat="49.19381" lon="6.96343">
        <ele>313</ele>
        <time>2011-07-31T08:06:17Z</time>
      </trkpt>
      <trkpt lat="49.19381" lon="6.96345">
        <ele>313</ele>
        <time>2011-07-31T08:06:18Z</time>
      </trkpt>
      <trkpt lat="49.19381" lon="6.96347">
        <ele>313</ele>
        <time>2011-07-31T08:06:19Z</time>
      </trkpt>
      <trkpt lat="49.19381" lon="6.96348">
        <ele>313</ele>
        <time>2011-07-31T08:06:20Z</time>
      </trkpt>
      <trkpt lat="49.19381" lon="6.9635">
        <ele>313</ele>
        <time>2011-07-31T08:06:21Z</time>
      </trkpt>
      <trkpt lat="49.19381" lon="6.96352">
        <ele>313</ele>
        <time>2011-07-31T08:06:22Z</time>
      </trkpt>
      <trkpt lat="49.19381" lon="6.96354">
        <ele>313</ele>
        <time>2011-07-31T08:06:23Z</time>
      </trkpt>
      <trkpt lat="49.19381" lon="6.96356">
        <ele>313</ele>
        <time>2011-07-31T08:06:24Z</time>
      </trkpt>
      <trkpt lat="49.19381" lon="6.96358">
        <ele>313</ele>
        <time>2011-07-31T08:06:26Z</time>
      </trkpt>
      <trkpt lat="49.19381" lon="6.9636">
        <ele>313</ele>
        <time>2011-07-31T08:06:28Z</time>
      </trkpt>
      <trkpt lat="49.19382" lon="6.96362">
        <ele>313</ele>
        <time>2011-07-31T08:06:30Z</time>
      </trkpt>
      <trkpt lat="49.19382" lon="6.96364">
        <ele>313</ele>
        <time>2011-07-31T08:06:35Z</time>
      </trkpt>
      <trkpt lat="49.19381" lon="6.96366">
        <ele>313</ele>
        <time>2011-07-31T08:06:37Z</time>
      </trkpt>
      <trkpt lat="49.19381" lon="6.96368">
        <ele>313</ele>
        <time>2011-07-31T08:06:39Z</time>
      </trkpt>
      <trkpt lat="49.19381" lon="6.9637">
        <ele>313</ele>
        <time>2011-07-31T08:06:40Z</time>
      </trkpt>
      <trkpt lat="49.19381" lon="6.96373">
        <ele>313</ele>
        <time>2011-07-31T08:06:41Z</time>
      </trkpt>
      <trkpt lat="49.19381" lon="6.96374">
        <ele>313</ele>
        <time>2011-07-31T08:06:42Z</time>
      </trkpt>
      <trkpt lat="49.19381" lon="6.96376">
        <ele>313</ele>
        <time>2011-07-31T08:06:43Z</time>
      </trkpt>
      <trkpt lat="49.19381" lon="6.96378">
        <ele>313</ele>
        <time>2011-07-31T08:06:44Z</time>
      </trkpt>
      <trkpt lat="49.19381" lon="6.9638">
        <ele>313</ele>
        <time>2011-07-31T08:06:45Z</time>
      </trkpt>
      <trkpt lat="49.19381" lon="6.96382">
        <ele>313</ele>
        <time>2011-07-31T08:06:46Z</time>
      </trkpt>
      <trkpt lat="49.1938" lon="6.96383">
        <ele>313</ele>
        <time>2011-07-31T08:06:47Z</time>
      </trkpt>
      <trkpt lat="49.1938" lon="6.96385">
        <ele>313</ele>
        <time>2011-07-31T08:06:48Z</time>
      </trkpt>
      <trkpt lat="49.1938" lon="6.96387">
        <ele>313</ele>
        <time>2011-07-31T08:06:49Z</time>
      </trkpt>
      <trkpt lat="49.1938" lon="6.96389">
        <ele>313</ele>
        <time>2011-07-31T08:06:50Z</time>
      </trkpt>
      <trkpt lat="49.1938" lon="6.96391">
        <ele>313</ele>
        <time>2011-07-31T08:06:51Z</time>
      </trkpt>
      <trkpt lat="49.1938" lon="6.96393">
        <ele>313</ele>
        <time>2011-07-31T08:06:52Z</time>
      </trkpt>
      <trkpt lat="49.1938" lon="6.96395">
        <ele>313</ele>
        <time>2011-07-31T08:06:53Z</time>
      </trkpt>
      <trkpt lat="49.19379" lon="6.96397">
        <ele>313</ele>
        <time>2011-07-31T08:06:54Z</time>
      </trkpt>
      <trkpt lat="49.19379" lon="6.96399">
        <ele>313</ele>
        <time>2011-07-31T08:06:55Z</time>
      </trkpt>
      <trkpt lat="49.19379" lon="6.964">
        <ele>313</ele>
        <time>2011-07-31T08:06:56Z</time>
      </trkpt>
      <trkpt lat="49.19379" lon="6.96403">
        <ele>313</ele>
        <time>2011-07-31T08:06:57Z</time>
      </trkpt>
      <trkpt lat="49.19379" lon="6.96405">
        <ele>313</ele>
        <time>2011-07-31T08:06:58Z</time>
      </trkpt>
      <trkpt lat="49.19379" lon="6.96407">
        <ele>313</ele>
        <time>2011-07-31T08:06:59Z</time>
      </trkpt>
      <trkpt lat="49.19378" lon="6.96409">
        <ele>313</ele>
        <time>2011-07-31T08:07:00Z</time>
      </trkpt>
      <trkpt lat="49.19378" lon="6.96411">
        <ele>313</ele>
        <time>2011-07-31T08:07:01Z</time>
      </trkpt>
      <trkpt lat="49.19378" lon="6.96413">
        <ele>313</ele>
        <time>2011-07-31T08:07:02Z</time>
      </trkpt>
      <trkpt lat="49.19378" lon="6.96415">
        <ele>312</ele>
        <time>2011-07-31T08:07:03Z</time>
      </trkpt>
      <trkpt lat="49.19378" lon="6.96418">
        <ele>312</ele>
        <time>2011-07-31T08:07:04Z</time>
      </trkpt>
      <trkpt lat="49.19378" lon="6.96419">
        <ele>312</ele>
        <time>2011-07-31T08:07:05Z</time>
      </trkpt>
      <trkpt lat="49.19377" lon="6.96422">
        <ele>312</ele>
        <time>2011-07-31T08:07:06Z</time>
      </trkpt>
      <trkpt lat="49.19377" lon="6.96424">
        <ele>312</ele>
        <time>2011-07-31T08:07:07Z</time>
      </trkpt>
      <trkpt lat="49.19377" lon="6.96426">
        <ele>312</ele>
        <time>2011-07-31T08:07:08Z</time>
      </trkpt>
      <trkpt lat="49.19377" lon="6.96428">
        <ele>312</ele>
        <time>2011-07-31T08:07:09Z</time>
      </trkpt>
      <trkpt lat="49.19377" lon="6.9643">
        <ele>312</ele>
        <time>2011-07-31T08:07:10Z</time>
      </trkpt>
      <trkpt lat="49.19377" lon="6.96432">
        <ele>312</ele>
        <time>2011-07-31T08:07:11Z</time>
      </trkpt>
      <trkpt lat="49.19376" lon="6.96434">
        <ele>312</ele>
        <time>2011-07-31T08:07:12Z</time>
      </trkpt>
      <trkpt lat="49.19376" lon="6.96436">
        <ele>312</ele>
        <time>2011-07-31T08:07:13Z</time>
      </trkpt>
      <trkpt lat="49.19376" lon="6.96438">
        <ele>312</ele>
        <time>2011-07-31T08:07:14Z</time>
      </trkpt>
      <trkpt lat="49.19376" lon="6.9644">
        <ele>312</ele>
        <time>2011-07-31T08:07:15Z</time>
      </trkpt>
      <trkpt lat="49.19376" lon="6.96442">
        <ele>312</ele>
        <time>2011-07-31T08:07:16Z</time>
      </trkpt>
      <trkpt lat="49.19376" lon="6.96444">
        <ele>312</ele>
        <time>2011-07-31T08:07:17Z</time>
      </trkpt>
      <trkpt lat="49.19376" lon="6.96446">
        <ele>312</ele>
        <time>2011-07-31T08:07:18Z</time>
      </trkpt>
      <trkpt lat="49.19376" lon="6.96448">
        <ele>312</ele>
        <time>2011-07-31T08:07:19Z</time>
      </trkpt>
      <trkpt lat="49.19375" lon="6.9645">
        <ele>312</ele>
        <time>2011-07-31T08:07:20Z</time>
      </trkpt>
      <trkpt lat="49.19375" lon="6.96452">
        <ele>312</ele>
        <time>2011-07-31T08:07:21Z</time>
      </trkpt>
      <trkpt lat="49.19375" lon="6.96454">
        <ele>312</ele>
        <time>2011-07-31T08:07:22Z</time>
      </trkpt>
      <trkpt lat="49.19375" lon="6.96456">
        <ele>312</ele>
        <time>2011-07-31T08:07:23Z</time>
      </trkpt>
      <trkpt lat="49.19375" lon="6.96458">
        <ele>312</ele>
        <time>2011-07-31T08:07:24Z</time>
      </trkpt>
      <trkpt lat="49.19375" lon="6.9646">
        <ele>312</ele>
        <time>2011-07-31T08:07:25Z</time>
      </trkpt>
      <trkpt lat="49.19375" lon="6.96462">
        <ele>312</ele>
        <time>2011-07-31T08:07:26Z</time>
      </trkpt>
      <trkpt lat="49.19375" lon="6.96464">
        <ele>312</ele>
        <time>2011-07-31T08:07:27Z</time>
      </trkpt>
      <trkpt lat="49.19375" lon="6.96466">
        <ele>312</ele>
        <time>2011-07-31T08:07:28Z</time>
      </trkpt>
      <trkpt lat="49.19375" lon="6.96468">
        <ele>312</ele>
        <time>2011-07-31T08:07:29Z</time>
      </trkpt>
      <trkpt lat="49.19375" lon="6.9647">
        <ele>312</ele>
        <time>2011-07-31T08:07:30Z</time>
      </trkpt>
      <trkpt lat="49.19375" lon="6.96473">
        <ele>312</ele>
        <time>2011-07-31T08:07:31Z</time>
      </trkpt>
      <trkpt lat="49.19375" lon="6.96475">
        <ele>312</ele>
        <time>2011-07-31T08:07:32Z</time>
      </trkpt>
      <trkpt lat="49.19374" lon="6.96477">
        <ele>312</ele>
        <time>2011-07-31T08:07:33Z</time>
      </trkpt>
      <trkpt lat="49.19374" lon="6.96479">
        <ele>312</ele>
        <time>2011-07-31T08:07:34Z</time>
      </trkpt>
      <trkpt lat="49.19374" lon="6.96481">
        <ele>312</ele>
        <time>2011-07-31T08:07:35Z</time>
      </trkpt>
      <trkpt lat="49.19374" lon="6.96482">
        <ele>312</ele>
        <time>2011-07-31T08:07:36Z</time>
      </trkpt>
      <trkpt lat="49.19374" lon="6.96484">
        <ele>312</ele>
        <time>2011-07-31T08:07:37Z</time>
      </trkpt>
      <trkpt lat="49.19374" lon="6.96486">
        <ele>312</ele>
        <time>2011-07-31T08:07:38Z</time>
      </trkpt>
      <trkpt lat="49.19374" lon="6.96488">
        <ele>312</ele>
        <time>2011-07-31T08:07:39Z</time>
      </trkpt>
      <trkpt lat="49.19375" lon="6.9649">
        <ele>312</ele>
        <time>2011-07-31T08:07:40Z</time>
      </trkpt>
      <trkpt lat="49.19375" lon="6.96492">
        <ele>312</ele>
        <time>2011-07-31T08:07:41Z</time>
      </trkpt>
      <trkpt lat="49.19375" lon="6.96494">
        <ele>312</ele>
        <time>2011-07-31T08:07:42Z</time>
      </trkpt>
      <trkpt lat="49.19375" lon="6.96496">
        <ele>312</ele>
        <time>2011-07-31T08:07:43Z</time>
      </trkpt>
      <trkpt lat="49.19375" lon="6.96498">
        <ele>312</ele>
        <time>2011-07-31T08:07:44Z</time>
      </trkpt>
      <trkpt lat="49.19375" lon="6.965">
        <ele>312</ele>
        <time>2011-07-31T08:07:45Z</time>
      </trkpt>
      <trkpt lat="49.19375" lon="6.96503">
        <ele>311</ele>
        <time>2011-07-31T08:07:47Z</time>
      </trkpt>
      <trkpt lat="49.19376" lon="6.96505">
        <ele>311</ele>
        <time>2011-07-31T08:07:48Z</time>
      </trkpt>
      <trkpt lat="49.19376" lon="6.96508">
        <ele>311</ele>
        <time>2011-07-31T08:07:49Z</time>
      </trkpt>
      <trkpt lat="49.19376" lon="6.9651">
        <ele>310</ele>
        <time>2011-07-31T08:07:50Z</time>
      </trkpt>
      <trkpt lat="49.19376" lon="6.96511">
        <ele>310</ele>
        <time>2011-07-31T08:07:51Z</time>
      </trkpt>
      <trkpt lat="49.19376" lon="6.96514">
        <ele>310</ele>
        <time>2011-07-31T08:07:53Z</time>
      </trkpt>
      <trkpt lat="49.19376" lon="6.96516">
        <ele>310</ele>
        <time>2011-07-31T08:07:54Z</time>
      </trkpt>
      <trkpt lat="49.19377" lon="6.96519">
        <ele>309</ele>
        <time>2011-07-31T08:07:56Z</time>
      </trkpt>
      <trkpt lat="49.19377" lon="6.96521">
        <ele>309</ele>
        <time>2011-07-31T08:07:57Z</time>
      </trkpt>
      <trkpt lat="49.19377" lon="6.96523">
        <ele>309</ele>
        <time>2011-07-31T08:07:58Z</time>
      </trkpt>
      <trkpt lat="49.19377" lon="6.96525">
        <ele>309</ele>
        <time>2011-07-31T08:07:59Z</time>
      </trkpt>
      <trkpt lat="49.19377" lon="6.96527">
        <ele>308</ele>
        <time>2011-07-31T08:08:00Z</time>
      </trkpt>
      <trkpt lat="49.19377" lon="6.96529">
        <ele>308</ele>
        <time>2011-07-31T08:08:01Z</time>
      </trkpt>
      <trkpt lat="49.19378" lon="6.9653">
        <ele>308</ele>
        <time>2011-07-31T08:08:02Z</time>
      </trkpt>
      <trkpt lat="49.19378" lon="6.96532">
        <ele>308</ele>
        <time>2011-07-31T08:08:03Z</time>
      </trkpt>
      <trkpt lat="49.19378" lon="6.96534">
        <ele>308</ele>
        <time>2011-07-31T08:08:04Z</time>
      </trkpt>
      <trkpt lat="49.19378" lon="6.96536">
        <ele>308</ele>
        <time>2011-07-31T08:08:05Z</time>
      </trkpt>
      <trkpt lat="49.19378" lon="6.96538">
        <ele>308</ele>
        <time>2011-07-31T08:08:06Z</time>
      </trkpt>
      <trkpt lat="49.19378" lon="6.9654">
        <ele>308</ele>
        <time>2011-07-31T08:08:07Z</time>
      </trkpt>
      <trkpt lat="49.19378" lon="6.96543">
        <ele>308</ele>
        <time>2011-07-31T08:08:08Z</time>
      </trkpt>
      <trkpt lat="49.19379" lon="6.96544">
        <ele>308</ele>
        <time>2011-07-31T08:08:09Z</time>
      </trkpt>
      <trkpt lat="49.19379" lon="6.96546">
        <ele>308</ele>
        <time>2011-07-31T08:08:10Z</time>
      </trkpt>
      <trkpt lat="49.19379" lon="6.96548">
        <ele>308</ele>
        <time>2011-07-31T08:08:11Z</time>
      </trkpt>
      <trkpt lat="49.19379" lon="6.96551">
        <ele>308</ele>
        <time>2011-07-31T08:08:12Z</time>
      </trkpt>
      <trkpt lat="49.1938" lon="6.96553">
        <ele>308</ele>
        <time>2011-07-31T08:08:13Z</time>
      </trkpt>
      <trkpt lat="49.1938" lon="6.96555">
        <ele>308</ele>
        <time>2011-07-31T08:08:14Z</time>
      </trkpt>
      <trkpt lat="49.1938" lon="6.96556">
        <ele>308</ele>
        <time>2011-07-31T08:08:15Z</time>
      </trkpt>
      <trkpt lat="49.1938" lon="6.96558">
        <ele>308</ele>
        <time>2011-07-31T08:08:16Z</time>
      </trkpt>
      <trkpt lat="49.1938" lon="6.9656">
        <ele>308</ele>
        <time>2011-07-31T08:08:17Z</time>
      </trkpt>
      <trkpt lat="49.1938" lon="6.96562">
        <ele>308</ele>
        <time>2011-07-31T08:08:18Z</time>
      </trkpt>
      <trkpt lat="49.1938" lon="6.96564">
        <ele>308</ele>
        <time>2011-07-31T08:08:19Z</time>
      </trkpt>
      <trkpt lat="49.1938" lon="6.96566">
        <ele>308</ele>
        <time>2011-07-31T08:08:20Z</time>
      </trkpt>
      <trkpt lat="49.1938" lon="6.96568">
        <ele>308</ele>
        <time>2011-07-31T08:08:21Z</time>
      </trkpt>
      <trkpt lat="49.1938" lon="6.9657">
        <ele>308</ele>
        <time>2011-07-31T08:08:22Z</time>
      </trkpt>
      <trkpt lat="49.19381" lon="6.96571">
        <ele>308</ele>
        <time>2011-07-31T08:08:23Z</time>
      </trkpt>
      <trkpt lat="49.19381" lon="6.96574">
        <ele>308</ele>
        <time>2011-07-31T08:08:24Z</time>
      </trkpt>
      <trkpt lat="49.19381" lon="6.96576">
        <ele>308</ele>
        <time>2011-07-31T08:08:25Z</time>
      </trkpt>
      <trkpt lat="49.19381" lon="6.96578">
        <ele>308</ele>
        <time>2011-07-31T08:08:26Z</time>
      </trkpt>
      <trkpt lat="49.19381" lon="6.96579">
        <ele>308</ele>
        <time>2011-07-31T08:08:27Z</time>
      </trkpt>
      <trkpt lat="49.19381" lon="6.96581">
        <ele>308</ele>
        <time>2011-07-31T08:08:28Z</time>
      </trkpt>
      <trkpt lat="49.19381" lon="6.96583">
        <ele>308</ele>
        <time>2011-07-31T08:08:29Z</time>
      </trkpt>
      <trkpt lat="49.19381" lon="6.96585">
        <ele>308</ele>
        <time>2011-07-31T08:08:30Z</time>
      </trkpt>
      <trkpt lat="49.19381" lon="6.96587">
        <ele>308</ele>
        <time>2011-07-31T08:08:31Z</time>
      </trkpt>
      <trkpt lat="49.19381" lon="6.96589">
        <ele>308</ele>
        <time>2011-07-31T08:08:32Z</time>
      </trkpt>
      <trkpt lat="49.19382" lon="6.96591">
        <ele>308</ele>
        <time>2011-07-31T08:08:33Z</time>
      </trkpt>
      <trkpt lat="49.19382" lon="6.96593">
        <ele>308</ele>
        <time>2011-07-31T08:08:34Z</time>
      </trkpt>
      <trkpt lat="49.19382" lon="6.96594">
        <ele>308</ele>
        <time>2011-07-31T08:08:35Z</time>
      </trkpt>
      <trkpt lat="49.19382" lon="6.96596">
        <ele>308</ele>
        <time>2011-07-31T08:08:36Z</time>
      </trkpt>
      <trkpt lat="49.19382" lon="6.96598">
        <ele>308</ele>
        <time>2011-07-31T08:08:37Z</time>
      </trkpt>
      <trkpt lat="49.19383" lon="6.966">
        <ele>308</ele>
        <time>2011-07-31T08:08:38Z</time>
      </trkpt>
      <trkpt lat="49.19383" lon="6.96602">
        <ele>308</ele>
        <time>2011-07-31T08:08:39Z</time>
      </trkpt>
      <trkpt lat="49.19383" lon="6.96604">
        <ele>308</ele>
        <time>2011-07-31T08:08:40Z</time>
      </trkpt>
      <trkpt lat="49.19383" lon="6.96606">
        <ele>308</ele>
        <time>2011-07-31T08:08:41Z</time>
      </trkpt>
      <trkpt lat="49.19384" lon="6.96608">
        <ele>308</ele>
        <time>2011-07-31T08:08:42Z</time>
      </trkpt>
      <trkpt lat="49.19384" lon="6.9661">
        <ele>308</ele>
        <time>2011-07-31T08:08:43Z</time>
      </trkpt>
      <trkpt lat="49.19384" lon="6.96612">
        <ele>308</ele>
        <time>2011-07-31T08:08:44Z</time>
      </trkpt>
      <trkpt lat="49.19384" lon="6.96614">
        <ele>308</ele>
        <time>2011-07-31T08:08:45Z</time>
      </trkpt>
      <trkpt lat="49.19384" lon="6.96616">
        <ele>308</ele>
        <time>2011-07-31T08:08:46Z</time>
      </trkpt>
      <trkpt lat="49.19384" lon="6.96618">
        <ele>308</ele>
        <time>2011-07-31T08:08:47Z</time>
      </trkpt>
      <trkpt lat="49.19384" lon="6.9662">
        <ele>308</ele>
        <time>2011-07-31T08:08:48Z</time>
      </trkpt>
      <trkpt lat="49.19384" lon="6.96622">
        <ele>308</ele>
        <time>2011-07-31T08:08:49Z</time>
      </trkpt>
      <trkpt lat="49.19384" lon="6.96624">
        <ele>308</ele>
        <time>2011-07-31T08:08:50Z</time>
      </trkpt>
      <trkpt lat="49.19384" lon="6.96626">
        <ele>308</ele>
        <time>2011-07-31T08:08:51Z</time>
      </trkpt>
      <trkpt lat="49.19384" lon="6.96628">
        <ele>308</ele>
        <time>2011-07-31T08:08:52Z</time>
      </trkpt>
      <trkpt lat="49.19384" lon="6.9663">
        <ele>308</ele>
        <time>2011-07-31T08:08:53Z</time>
      </trkpt>
      <trkpt lat="49.19384" lon="6.96632">
        <ele>308</ele>
        <time>2011-07-31T08:08:54Z</time>
      </trkpt>
      <trkpt lat="49.19385" lon="6.96634">
        <ele>308</ele>
        <time>2011-07-31T08:08:55Z</time>
      </trkpt>
      <trkpt lat="49.19385" lon="6.96636">
        <ele>308</ele>
        <time>2011-07-31T08:08:56Z</time>
      </trkpt>
      <trkpt lat="49.19385" lon="6.96638">
        <ele>308</ele>
        <time>2011-07-31T08:08:57Z</time>
      </trkpt>
      <trkpt lat="49.19386" lon="6.9664">
        <ele>308</ele>
        <time>2011-07-31T08:08:58Z</time>
      </trkpt>
      <trkpt lat="49.19386" lon="6.96642">
        <ele>308</ele>
        <time>2011-07-31T08:08:59Z</time>
      </trkpt>
      <trkpt lat="49.19386" lon="6.96644">
        <ele>308</ele>
        <time>2011-07-31T08:09:00Z</time>
      </trkpt>
      <trkpt lat="49.19386" lon="6.96646">
        <ele>308</ele>
        <time>2011-07-31T08:09:01Z</time>
      </trkpt>
      <trkpt lat="49.19386" lon="6.96648">
        <ele>308</ele>
        <time>2011-07-31T08:09:02Z</time>
      </trkpt>
      <trkpt lat="49.19386" lon="6.96649">
        <ele>308</ele>
        <time>2011-07-31T08:09:03Z</time>
      </trkpt>
      <trkpt lat="49.19386" lon="6.96651">
        <ele>308</ele>
        <time>2011-07-31T08:09:04Z</time>
      </trkpt>
      <trkpt lat="49.19385" lon="6.96653">
        <ele>308</ele>
        <time>2011-07-31T08:09:05Z</time>
      </trkpt>
      <trkpt lat="49.19384" lon="6.96656">
        <ele>308</ele>
        <time>2011-07-31T08:09:07Z</time>
      </trkpt>
      <trkpt lat="49.19383" lon="6.96658">
        <ele>308</ele>
        <time>2011-07-31T08:09:08Z</time>
      </trkpt>
      <trkpt lat="49.19382" lon="6.9666">
        <ele>308</ele>
        <time>2011-07-31T08:09:09Z</time>
      </trkpt>
      <trkpt lat="49.19382" lon="6.96662">
        <ele>308</ele>
        <time>2011-07-31T08:09:10Z</time>
      </trkpt>
      <trkpt lat="49.19382" lon="6.96663">
        <ele>308</ele>
        <time>2011-07-31T08:09:11Z</time>
      </trkpt>
      <trkpt lat="49.19382" lon="6.96665">
        <ele>308</ele>
        <time>2011-07-31T08:09:12Z</time>
      </trkpt>
      <trkpt lat="49.19382" lon="6.96667">
        <ele>308</ele>
        <time>2011-07-31T08:09:13Z</time>
      </trkpt>
      <trkpt lat="49.19382" lon="6.96669">
        <ele>308</ele>
        <time>2011-07-31T08:09:14Z</time>
      </trkpt>
      <trkpt lat="49.19381" lon="6.96672">
        <ele>308</ele>
        <time>2011-07-31T08:09:15Z</time>
      </trkpt>
      <trkpt lat="49.19381" lon="6.96674">
        <ele>308</ele>
        <time>2011-07-31T08:09:16Z</time>
      </trkpt>
      <trkpt lat="49.19381" lon="6.96676">
        <ele>308</ele>
        <time>2011-07-31T08:09:17Z</time>
      </trkpt>
      <trkpt lat="49.19381" lon="6.96678">
        <ele>308</ele>
        <time>2011-07-31T08:09:18Z</time>
      </trkpt>
      <trkpt lat="49.19381" lon="6.9668">
        <ele>308</ele>
        <time>2011-07-31T08:09:19Z</time>
      </trkpt>
      <trkpt lat="49.19381" lon="6.96682">
        <ele>308</ele>
        <time>2011-07-31T08:09:20Z</time>
      </trkpt>
      <trkpt lat="49.19381" lon="6.96684">
        <ele>308</ele>
        <time>2011-07-31T08:09:21Z</time>
      </trkpt>
      <trkpt lat="49.19381" lon="6.96686">
        <ele>308</ele>
        <time>2011-07-31T08:09:22Z</time>
      </trkpt>
      <trkpt lat="49.19381" lon="6.96688">
        <ele>308</ele>
        <time>2011-07-31T08:09:23Z</time>
      </trkpt>
      <trkpt lat="49.19379" lon="6.96689">
        <ele>308</ele>
        <time>2011-07-31T08:09:25Z</time>
      </trkpt>
      <trkpt lat="49.19377" lon="6.9669">
        <ele>308</ele>
        <time>2011-07-31T08:09:26Z</time>
      </trkpt>
      <trkpt lat="49.19376" lon="6.96691">
        <ele>308</ele>
        <time>2011-07-31T08:09:27Z</time>
      </trkpt>
      <trkpt lat="49.19374" lon="6.96691">
        <ele>308</ele>
        <time>2011-07-31T08:09:28Z</time>
      </trkpt>
      <trkpt lat="49.19373" lon="6.96691">
        <ele>308</ele>
        <time>2011-07-31T08:09:29Z</time>
      </trkpt>
      <trkpt lat="49.19371" lon="6.96692">
        <ele>308</ele>
        <time>2011-07-31T08:09:30Z</time>
      </trkpt>
      <trkpt lat="49.1937" lon="6.96692">
        <ele>308</ele>
        <time>2011-07-31T08:09:32Z</time>
      </trkpt>
      <trkpt lat="49.19368" lon="6.96693">
        <ele>308</ele>
        <time>2011-07-31T08:09:33Z</time>
      </trkpt>
      <trkpt lat="49.19367" lon="6.96693">
        <ele>308</ele>
        <time>2011-07-31T08:09:34Z</time>
      </trkpt>
      <trkpt lat="49.19365" lon="6.96693">
        <ele>308</ele>
        <time>2011-07-31T08:09:35Z</time>
      </trkpt>
      <trkpt lat="49.19364" lon="6.96693">
        <ele>308</ele>
        <time>2011-07-31T08:09:36Z</time>
      </trkpt>
      <trkpt lat="49.19363" lon="6.96693">
        <ele>308</ele>
        <time>2011-07-31T08:09:37Z</time>
      </trkpt>
      <trkpt lat="49.19361" lon="6.96694">
        <ele>308</ele>
        <time>2011-07-31T08:09:39Z</time>
      </trkpt>
      <trkpt lat="49.19359" lon="6.96694">
        <ele>308</ele>
        <time>2011-07-31T08:09:41Z</time>
      </trkpt>
      <trkpt lat="49.19358" lon="6.96694">
        <ele>308</ele>
        <time>2011-07-31T08:09:42Z</time>
      </trkpt>
      <trkpt lat="49.19356" lon="6.96695">
        <ele>308</ele>
        <time>2011-07-31T08:09:43Z</time>
      </trkpt>
      <trkpt lat="49.19355" lon="6.96694">
        <ele>308</ele>
        <time>2011-07-31T08:09:44Z</time>
      </trkpt>
      <trkpt lat="49.19354" lon="6.96693">
        <ele>308</ele>
        <time>2011-07-31T08:09:45Z</time>
      </trkpt>
      <trkpt lat="49.19352" lon="6.96692">
        <ele>309</ele>
        <time>2011-07-31T08:09:46Z</time>
      </trkpt>
      <trkpt lat="49.19351" lon="6.96692">
        <ele>309</ele>
        <time>2011-07-31T08:09:47Z</time>
      </trkpt>
      <trkpt lat="49.1935" lon="6.9669">
        <ele>309</ele>
        <time>2011-07-31T08:09:48Z</time>
      </trkpt>
      <trkpt lat="49.19349" lon="6.96689">
        <ele>309</ele>
        <time>2011-07-31T08:09:49Z</time>
      </trkpt>
      <trkpt lat="49.19347" lon="6.96687">
        <ele>309</ele>
        <time>2011-07-31T08:09:50Z</time>
      </trkpt>
      <trkpt lat="49.19346" lon="6.96686">
        <ele>309</ele>
        <time>2011-07-31T08:09:51Z</time>
      </trkpt>
      <trkpt lat="49.19344" lon="6.96685">
        <ele>309</ele>
        <time>2011-07-31T08:09:52Z</time>
      </trkpt>
      <trkpt lat="49.19343" lon="6.96684">
        <ele>309</ele>
        <time>2011-07-31T08:09:53Z</time>
      </trkpt>
      <trkpt lat="49.19342" lon="6.96684">
        <ele>309</ele>
        <time>2011-07-31T08:09:54Z</time>
      </trkpt>
      <trkpt lat="49.1934" lon="6.96683">
        <ele>309</ele>
        <time>2011-07-31T08:09:55Z</time>
      </trkpt>
      <trkpt lat="49.19339" lon="6.96682">
        <ele>308</ele>
        <time>2011-07-31T08:09:56Z</time>
      </trkpt>
      <trkpt lat="49.19338" lon="6.96681">
        <ele>308</ele>
        <time>2011-07-31T08:09:57Z</time>
      </trkpt>
      <trkpt lat="49.19336" lon="6.9668">
        <ele>307</ele>
        <time>2011-07-31T08:09:58Z</time>
      </trkpt>
      <trkpt lat="49.19335" lon="6.9668">
        <ele>306</ele>
        <time>2011-07-31T08:09:59Z</time>
      </trkpt>
      <trkpt lat="49.19334" lon="6.96679">
        <ele>306</ele>
        <time>2011-07-31T08:10:00Z</time>
      </trkpt>
      <trkpt lat="49.19332" lon="6.96678">
        <ele>305</ele>
        <time>2011-07-31T08:10:01Z</time>
      </trkpt>
      <trkpt lat="49.19331" lon="6.96677">
        <ele>305</ele>
        <time>2011-07-31T08:10:02Z</time>
      </trkpt>
      <trkpt lat="49.19329" lon="6.96677">
        <ele>304</ele>
        <time>2011-07-31T08:10:03Z</time>
      </trkpt>
      <trkpt lat="49.19327" lon="6.96676">
        <ele>304</ele>
        <time>2011-07-31T08:10:05Z</time>
      </trkpt>
      <trkpt lat="49.19326" lon="6.96676">
        <ele>304</ele>
        <time>2011-07-31T08:10:07Z</time>
      </trkpt>
      <trkpt lat="49.19324" lon="6.96676">
        <ele>304</ele>
        <time>2011-07-31T08:10:08Z</time>
      </trkpt>
      <trkpt lat="49.19323" lon="6.96677">
        <ele>304</ele>
        <time>2011-07-31T08:10:09Z</time>
      </trkpt>
      <trkpt lat="49.19321" lon="6.96677">
        <ele>304</ele>
        <time>2011-07-31T08:10:10Z</time>
      </trkpt>
      <trkpt lat="49.1932" lon="6.96676">
        <ele>304</ele>
        <time>2011-07-31T08:10:11Z</time>
      </trkpt>
      <trkpt lat="49.19319" lon="6.96676">
        <ele>304</ele>
        <time>2011-07-31T08:10:12Z</time>
      </trkpt>
      <trkpt lat="49.19316" lon="6.96677">
        <ele>306</ele>
        <time>2011-07-31T08:10:14Z</time>
      </trkpt>
      <trkpt lat="49.19315" lon="6.96678">
        <ele>308</ele>
        <time>2011-07-31T08:10:16Z</time>
      </trkpt>
      <trkpt lat="49.19313" lon="6.96678">
        <ele>309</ele>
        <time>2011-07-31T08:10:17Z</time>
      </trkpt>
      <trkpt lat="49.19312" lon="6.96677">
        <ele>310</ele>
        <time>2011-07-31T08:10:18Z</time>
      </trkpt>
      <trkpt lat="49.1931" lon="6.96675">
        <ele>311</ele>
        <time>2011-07-31T08:10:19Z</time>
      </trkpt>
      <trkpt lat="49.19309" lon="6.96673">
        <ele>312</ele>
        <time>2011-07-31T08:10:20Z</time>
      </trkpt>
      <trkpt lat="49.19308" lon="6.96671">
        <ele>313</ele>
        <time>2011-07-31T08:10:21Z</time>
      </trkpt>
      <trkpt lat="49.19306" lon="6.96669">
        <ele>313</ele>
        <time>2011-07-31T08:10:23Z</time>
      </trkpt>
      <trkpt lat="49.19305" lon="6.96668">
        <ele>313</ele>
        <time>2011-07-31T08:10:24Z</time>
      </trkpt>
      <trkpt lat="49.19303" lon="6.96667">
        <ele>313</ele>
        <time>2011-07-31T08:10:26Z</time>
      </trkpt>
      <trkpt lat="49.19302" lon="6.96666">
        <ele>313</ele>
        <time>2011-07-31T08:10:27Z</time>
      </trkpt>
      <trkpt lat="49.193" lon="6.96665">
        <ele>313</ele>
        <time>2011-07-31T08:10:29Z</time>
      </trkpt>
      <trkpt lat="49.19299" lon="6.96665">
        <ele>313</ele>
        <time>2011-07-31T08:10:30Z</time>
      </trkpt>
      <trkpt lat="49.19297" lon="6.96663">
        <ele>313</ele>
        <time>2011-07-31T08:10:32Z</time>
      </trkpt>
      <trkpt lat="49.19296" lon="6.96663">
        <ele>313</ele>
        <time>2011-07-31T08:10:33Z</time>
      </trkpt>
      <trkpt lat="49.19293" lon="6.96661">
        <ele>313</ele>
        <time>2011-07-31T08:10:35Z</time>
      </trkpt>
      <trkpt lat="49.19291" lon="6.96659">
        <ele>312</ele>
        <time>2011-07-31T08:10:36Z</time>
      </trkpt>
      <trkpt lat="49.19289" lon="6.96659">
        <ele>312</ele>
        <time>2011-07-31T08:10:37Z</time>
      </trkpt>
      <trkpt lat="49.19288" lon="6.96658">
        <ele>311</ele>
        <time>2011-07-31T08:10:38Z</time>
      </trkpt>
      <trkpt lat="49.19287" lon="6.96657">
        <ele>311</ele>
        <time>2011-07-31T08:10:39Z</time>
      </trkpt>
      <trkpt lat="49.19286" lon="6.96656">
        <ele>310</ele>
        <time>2011-07-31T08:10:40Z</time>
      </trkpt>
      <trkpt lat="49.19285" lon="6.96655">
        <ele>310</ele>
        <time>2011-07-31T08:10:41Z</time>
      </trkpt>
      <trkpt lat="49.19284" lon="6.96655">
        <ele>309</ele>
        <time>2011-07-31T08:10:42Z</time>
      </trkpt>
      <trkpt lat="49.19282" lon="6.96654">
        <ele>309</ele>
        <time>2011-07-31T08:10:43Z</time>
      </trkpt>
      <trkpt lat="49.19281" lon="6.96655">
        <ele>308</ele>
        <time>2011-07-31T08:10:44Z</time>
      </trkpt>
      <trkpt lat="49.19279" lon="6.96654">
        <ele>308</ele>
        <time>2011-07-31T08:10:45Z</time>
      </trkpt>
      <trkpt lat="49.19278" lon="6.96653">
        <ele>307</ele>
        <time>2011-07-31T08:10:46Z</time>
      </trkpt>
      <trkpt lat="49.19277" lon="6.96652">
        <ele>307</ele>
        <time>2011-07-31T08:10:47Z</time>
      </trkpt>
      <trkpt lat="49.19275" lon="6.96649">
        <ele>307</ele>
        <time>2011-07-31T08:10:49Z</time>
      </trkpt>
      <trkpt lat="49.19273" lon="6.96647">
        <ele>307</ele>
        <time>2011-07-31T08:10:51Z</time>
      </trkpt>
      <trkpt lat="49.19272" lon="6.96645">
        <ele>307</ele>
        <time>2011-07-31T08:10:52Z</time>
      </trkpt>
      <trkpt lat="49.19271" lon="6.96644">
        <ele>306</ele>
        <time>2011-07-31T08:10:53Z</time>
      </trkpt>
      <trkpt lat="49.1927" lon="6.96642">
        <ele>306</ele>
        <time>2011-07-31T08:10:54Z</time>
      </trkpt>
      <trkpt lat="49.19268" lon="6.96641">
        <ele>305</ele>
        <time>2011-07-31T08:10:55Z</time>
      </trkpt>
      <trkpt lat="49.19267" lon="6.9664">
        <ele>305</ele>
        <time>2011-07-31T08:10:56Z</time>
      </trkpt>
      <trkpt lat="49.19265" lon="6.96639">
        <ele>304</ele>
        <time>2011-07-31T08:10:58Z</time>
      </trkpt>
      <trkpt lat="49.19264" lon="6.96638">
        <ele>304</ele>
        <time>2011-07-31T08:10:59Z</time>
      </trkpt>
      <trkpt lat="49.19262" lon="6.96637">
        <ele>303</ele>
        <time>2011-07-31T08:11:00Z</time>
      </trkpt>
      <trkpt lat="49.19261" lon="6.96636">
        <ele>303</ele>
        <time>2011-07-31T08:11:01Z</time>
      </trkpt>
      <trkpt lat="49.1926" lon="6.96635">
        <ele>302</ele>
        <time>2011-07-31T08:11:02Z</time>
      </trkpt>
      <trkpt lat="49.19258" lon="6.96634">
        <ele>302</ele>
        <time>2011-07-31T08:11:04Z</time>
      </trkpt>
      <trkpt lat="49.19256" lon="6.96632">
        <ele>302</ele>
        <time>2011-07-31T08:11:05Z</time>
      </trkpt>
      <trkpt lat="49.19255" lon="6.96632">
        <ele>302</ele>
        <time>2011-07-31T08:11:07Z</time>
      </trkpt>
      <trkpt lat="49.19254" lon="6.96631">
        <ele>302</ele>
        <time>2011-07-31T08:11:09Z</time>
      </trkpt>
      <trkpt lat="49.19252" lon="6.96629">
        <ele>302</ele>
        <time>2011-07-31T08:11:11Z</time>
      </trkpt>
      <trkpt lat="49.19251" lon="6.96628">
        <ele>302</ele>
        <time>2011-07-31T08:11:12Z</time>
      </trkpt>
      <trkpt lat="49.1925" lon="6.96626">
        <ele>302</ele>
        <time>2011-07-31T08:11:13Z</time>
      </trkpt>
      <trkpt lat="49.19248" lon="6.96625">
        <ele>302</ele>
        <time>2011-07-31T08:11:14Z</time>
      </trkpt>
      <trkpt lat="49.19247" lon="6.96624">
        <ele>302</ele>
        <time>2011-07-31T08:11:15Z</time>
      </trkpt>
      <trkpt lat="49.19246" lon="6.96623">
        <ele>302</ele>
        <time>2011-07-31T08:11:16Z</time>
      </trkpt>
      <trkpt lat="49.19244" lon="6.96622">
        <ele>302</ele>
        <time>2011-07-31T08:11:18Z</time>
      </trkpt>
      <trkpt lat="49.19243" lon="6.96622">
        <ele>302</ele>
        <time>2011-07-31T08:11:19Z</time>
      </trkpt>
      <trkpt lat="49.19241" lon="6.96621">
        <ele>302</ele>
        <time>2011-07-31T08:11:20Z</time>
      </trkpt>
      <trkpt lat="49.1924" lon="6.96619">
        <ele>302</ele>
        <time>2011-07-31T08:11:21Z</time>
      </trkpt>
      <trkpt lat="49.19239" lon="6.96618">
        <ele>302</ele>
        <time>2011-07-31T08:11:22Z</time>
      </trkpt>
      <trkpt lat="49.19237" lon="6.96617">
        <ele>302</ele>
        <time>2011-07-31T08:11:23Z</time>
      </trkpt>
      <trkpt lat="49.19235" lon="6.96617">
        <ele>302</ele>
        <time>2011-07-31T08:11:25Z</time>
      </trkpt>
      <trkpt lat="49.19234" lon="6.96616">
        <ele>302</ele>
        <time>2011-07-31T08:11:26Z</time>
      </trkpt>
      <trkpt lat="49.19231" lon="6.96615">
        <ele>302</ele>
        <time>2011-07-31T08:11:28Z</time>
      </trkpt>
      <trkpt lat="49.19229" lon="6.96615">
        <ele>302</ele>
        <time>2011-07-31T08:11:30Z</time>
      </trkpt>
      <trkpt lat="49.19228" lon="6.96615">
        <ele>302</ele>
        <time>2011-07-31T08:11:31Z</time>
      </trkpt>
      <trkpt lat="49.19226" lon="6.96615">
        <ele>302</ele>
        <time>2011-07-31T08:11:32Z</time>
      </trkpt>
      <trkpt lat="49.19225" lon="6.96615">
        <ele>302</ele>
        <time>2011-07-31T08:11:33Z</time>
      </trkpt>
      <trkpt lat="49.19224" lon="6.96615">
        <ele>302</ele>
        <time>2011-07-31T08:11:34Z</time>
      </trkpt>
      <trkpt lat="49.19222" lon="6.96615">
        <ele>302</ele>
        <time>2011-07-31T08:11:36Z</time>
      </trkpt>
      <trkpt lat="49.19221" lon="6.96614">
        <ele>302</ele>
        <time>2011-07-31T08:11:37Z</time>
      </trkpt>
      <trkpt lat="49.19219" lon="6.96615">
        <ele>303</ele>
        <time>2011-07-31T08:11:38Z</time>
      </trkpt>
      <trkpt lat="49.19217" lon="6.96615">
        <ele>304</ele>
        <time>2011-07-31T08:11:40Z</time>
      </trkpt>
      <trkpt lat="49.19215" lon="6.96616">
        <ele>305</ele>
        <time>2011-07-31T08:11:42Z</time>
      </trkpt>
      <trkpt lat="49.19214" lon="6.96615">
        <ele>306</ele>
        <time>2011-07-31T08:11:43Z</time>
      </trkpt>
      <trkpt lat="49.19212" lon="6.96616">
        <ele>306</ele>
        <time>2011-07-31T08:11:44Z</time>
      </trkpt>
      <trkpt lat="49.19211" lon="6.96616">
        <ele>307</ele>
        <time>2011-07-31T08:11:45Z</time>
      </trkpt>
      <trkpt lat="49.19209" lon="6.96617">
        <ele>308</ele>
        <time>2011-07-31T08:11:47Z</time>
      </trkpt>
      <trkpt lat="49.19208" lon="6.96617">
        <ele>309</ele>
        <time>2011-07-31T08:11:48Z</time>
      </trkpt>
      <trkpt lat="49.19206" lon="6.96616">
        <ele>309</ele>
        <time>2011-07-31T08:11:49Z</time>
      </trkpt>
      <trkpt lat="49.19205" lon="6.96615">
        <ele>309</ele>
        <time>2011-07-31T08:11:50Z</time>
      </trkpt>
      <trkpt lat="49.19203" lon="6.96615">
        <ele>309</ele>
        <time>2011-07-31T08:11:51Z</time>
      </trkpt>
      <trkpt lat="49.19201" lon="6.96615">
        <ele>309</ele>
        <time>2011-07-31T08:11:53Z</time>
      </trkpt>
      <trkpt lat="49.19199" lon="6.96615">
        <ele>309</ele>
        <time>2011-07-31T08:11:55Z</time>
      </trkpt>
      <trkpt lat="49.19198" lon="6.96615">
        <ele>309</ele>
        <time>2011-07-31T08:11:57Z</time>
      </trkpt>
      <trkpt lat="49.19196" lon="6.96617">
        <ele>309</ele>
        <time>2011-07-31T08:11:59Z</time>
      </trkpt>
      <trkpt lat="49.19194" lon="6.96616">
        <ele>310</ele>
        <time>2011-07-31T08:12:01Z</time>
      </trkpt>
      <trkpt lat="49.19192" lon="6.96616">
        <ele>310</ele>
        <time>2011-07-31T08:12:02Z</time>
      </trkpt>
      <trkpt lat="49.19191" lon="6.96615">
        <ele>310</ele>
        <time>2011-07-31T08:12:03Z</time>
      </trkpt>
      <trkpt lat="49.19189" lon="6.96614">
        <ele>310</ele>
        <time>2011-07-31T08:12:04Z</time>
      </trkpt>
      <trkpt lat="49.19188" lon="6.96615">
        <ele>310</ele>
        <time>2011-07-31T08:12:05Z</time>
      </trkpt>
      <trkpt lat="49.19187" lon="6.96614">
        <ele>310</ele>
        <time>2011-07-31T08:12:06Z</time>
      </trkpt>
      <trkpt lat="49.19185" lon="6.96613">
        <ele>310</ele>
        <time>2011-07-31T08:12:07Z</time>
      </trkpt>
      <trkpt lat="49.19184" lon="6.96613">
        <ele>310</ele>
        <time>2011-07-31T08:12:08Z</time>
      </trkpt>
      <trkpt lat="49.19182" lon="6.96613">
        <ele>310</ele>
        <time>2011-07-31T08:12:09Z</time>
      </trkpt>
      <trkpt lat="49.19181" lon="6.96613">
        <ele>310</ele>
        <time>2011-07-31T08:12:10Z</time>
      </trkpt>
      <trkpt lat="49.19179" lon="6.96612">
        <ele>310</ele>
        <time>2011-07-31T08:12:11Z</time>
      </trkpt>
      <trkpt lat="49.19177" lon="6.96611">
        <ele>310</ele>
        <time>2011-07-31T08:12:12Z</time>
      </trkpt>
      <trkpt lat="49.19176" lon="6.96611">
        <ele>310</ele>
        <time>2011-07-31T08:12:13Z</time>
      </trkpt>
      <trkpt lat="49.19175" lon="6.96611">
        <ele>309</ele>
        <time>2011-07-31T08:12:14Z</time>
      </trkpt>
      <trkpt lat="49.19173" lon="6.9661">
        <ele>309</ele>
        <time>2011-07-31T08:12:15Z</time>
      </trkpt>
      <trkpt lat="49.19171" lon="6.9661">
        <ele>308</ele>
        <time>2011-07-31T08:12:17Z</time>
      </trkpt>
      <trkpt lat="49.1917" lon="6.96611">
        <ele>308</ele>
        <time>2011-07-31T08:12:18Z</time>
      </trkpt>
      <trkpt lat="49.19168" lon="6.96611">
        <ele>308</ele>
        <time>2011-07-31T08:12:20Z</time>
      </trkpt>
      <trkpt lat="49.19166" lon="6.96612">
        <ele>308</ele>
        <time>2011-07-31T08:12:22Z</time>
      </trkpt>
      <trkpt lat="49.19165" lon="6.96612">
        <ele>308</ele>
        <time>2011-07-31T08:12:23Z</time>
      </trkpt>
      <trkpt lat="49.19163" lon="6.96614">
        <ele>308</ele>
        <time>2011-07-31T08:12:25Z</time>
      </trkpt>
      <trkpt lat="49.19162" lon="6.96613">
        <ele>308</ele>
        <time>2011-07-31T08:12:26Z</time>
      </trkpt>
      <trkpt lat="49.1916" lon="6.96612">
        <ele>308</ele>
        <time>2011-07-31T08:12:28Z</time>
      </trkpt>
      <trkpt lat="49.19159" lon="6.96609">
        <ele>308</ele>
        <time>2011-07-31T08:12:30Z</time>
      </trkpt>
      <trkpt lat="49.19157" lon="6.96607">
        <ele>308</ele>
        <time>2011-07-31T08:12:32Z</time>
      </trkpt>
      <trkpt lat="49.19156" lon="6.96605">
        <ele>308</ele>
        <time>2011-07-31T08:12:35Z</time>
      </trkpt>
      <trkpt lat="49.19156" lon="6.96603">
        <ele>306</ele>
        <time>2011-07-31T08:12:40Z</time>
      </trkpt>
      <trkpt lat="49.19156" lon="6.96601">
        <ele>304</ele>
        <time>2011-07-31T08:12:49Z</time>
      </trkpt>
      <trkpt lat="49.19155" lon="6.96598">
        <ele>303</ele>
        <time>2011-07-31T08:12:51Z</time>
      </trkpt>
      <trkpt lat="49.19155" lon="6.96596">
        <ele>303</ele>
        <time>2011-07-31T08:12:52Z</time>
      </trkpt>
      <trkpt lat="49.19155" lon="6.96595">
        <ele>303</ele>
        <time>2011-07-31T08:12:53Z</time>
      </trkpt>
      <trkpt lat="49.19156" lon="6.96592">
        <ele>303</ele>
        <time>2011-07-31T08:12:55Z</time>
      </trkpt>
      <trkpt lat="49.19155" lon="6.9659">
        <ele>303</ele>
        <time>2011-07-31T08:12:56Z</time>
      </trkpt>
      <trkpt lat="49.19155" lon="6.96589">
        <ele>303</ele>
        <time>2011-07-31T08:12:57Z</time>
      </trkpt>
      <trkpt lat="49.19155" lon="6.96587">
        <ele>303</ele>
        <time>2011-07-31T08:12:58Z</time>
      </trkpt>
      <trkpt lat="49.19155" lon="6.96585">
        <ele>303</ele>
        <time>2011-07-31T08:12:59Z</time>
      </trkpt>
      <trkpt lat="49.19154" lon="6.96583">
        <ele>303</ele>
        <time>2011-07-31T08:13:00Z</time>
      </trkpt>
      <trkpt lat="49.19153" lon="6.96581">
        <ele>303</ele>
        <time>2011-07-31T08:13:02Z</time>
      </trkpt>
      <trkpt lat="49.19152" lon="6.96579">
        <ele>303</ele>
        <time>2011-07-31T08:13:03Z</time>
      </trkpt>
      <trkpt lat="49.1915" lon="6.96579">
        <ele>303</ele>
        <time>2011-07-31T08:13:06Z</time>
      </trkpt>
      <trkpt lat="49.19149" lon="6.96578">
        <ele>303</ele>
        <time>2011-07-31T08:13:08Z</time>
      </trkpt>
      <trkpt lat="49.19147" lon="6.96576">
        <ele>303</ele>
        <time>2011-07-31T08:13:10Z</time>
      </trkpt>
      <trkpt lat="49.19147" lon="6.96573">
        <ele>303</ele>
        <time>2011-07-31T08:13:12Z</time>
      </trkpt>
      <trkpt lat="49.19147" lon="6.96571">
        <ele>303</ele>
        <time>2011-07-31T08:13:14Z</time>
      </trkpt>
      <trkpt lat="49.19147" lon="6.96569">
        <ele>303</ele>
        <time>2011-07-31T08:13:16Z</time>
      </trkpt>
      <trkpt lat="49.19146" lon="6.96566">
        <ele>303</ele>
        <time>2011-07-31T08:13:19Z</time>
      </trkpt>
      <trkpt lat="49.19146" lon="6.96564">
        <ele>308</ele>
        <time>2011-07-31T08:13:40Z</time>
      </trkpt>
      <trkpt lat="49.19147" lon="6.96562">
        <ele>308</ele>
        <time>2011-07-31T08:13:41Z</time>
      </trkpt>
      <trkpt lat="49.19148" lon="6.9656">
        <ele>308</ele>
        <time>2011-07-31T08:13:43Z</time>
      </trkpt>
      <trkpt lat="49.19149" lon="6.96559">
        <ele>308</ele>
        <time>2011-07-31T08:13:44Z</time>
      </trkpt>
      <trkpt lat="49.19149" lon="6.96557">
        <ele>308</ele>
        <time>2011-07-31T08:13:45Z</time>
      </trkpt>
      <trkpt lat="49.19149" lon="6.96555">
        <ele>308</ele>
        <time>2011-07-31T08:13:46Z</time>
      </trkpt>
      <trkpt lat="49.1915" lon="6.96553">
        <ele>308</ele>
        <time>2011-07-31T08:13:48Z</time>
      </trkpt>
      <trkpt lat="49.1915" lon="6.96551">
        <ele>308</ele>
        <time>2011-07-31T08:13:50Z</time>
      </trkpt>
      <trkpt lat="49.19149" lon="6.96549">
        <ele>308</ele>
        <time>2011-07-31T08:13:53Z</time>
      </trkpt>
      <trkpt lat="49.19149" lon="6.96548">
        <ele>308</ele>
        <time>2011-07-31T08:13:54Z</time>
      </trkpt>
      <trkpt lat="49.19149" lon="6.96546">
        <ele>308</ele>
        <time>2011-07-31T08:13:55Z</time>
      </trkpt>
      <trkpt lat="49.19149" lon="6.96544">
        <ele>308</ele>
        <time>2011-07-31T08:13:56Z</time>
      </trkpt>
      <trkpt lat="49.19149" lon="6.96541">
        <ele>308</ele>
        <time>2011-07-31T08:13:58Z</time>
      </trkpt>
      <trkpt lat="49.1915" lon="6.96539">
        <ele>308</ele>
        <time>2011-07-31T08:13:59Z</time>
      </trkpt>
      <trkpt lat="49.19151" lon="6.96537">
        <ele>308</ele>
        <time>2011-07-31T08:14:00Z</time>
      </trkpt>
      <trkpt lat="49.19151" lon="6.96535">
        <ele>308</ele>
        <time>2011-07-31T08:14:01Z</time>
      </trkpt>
      <trkpt lat="49.19152" lon="6.96533">
        <ele>308</ele>
        <time>2011-07-31T08:14:02Z</time>
      </trkpt>
      <trkpt lat="49.19153" lon="6.9653">
        <ele>308</ele>
        <time>2011-07-31T08:14:04Z</time>
      </trkpt>
      <trkpt lat="49.19153" lon="6.96529">
        <ele>308</ele>
        <time>2011-07-31T08:14:05Z</time>
      </trkpt>
      <trkpt lat="49.19153" lon="6.96526">
        <ele>308</ele>
        <time>2011-07-31T08:14:07Z</time>
      </trkpt>
      <trkpt lat="49.19153" lon="6.96523">
        <ele>308</ele>
        <time>2011-07-31T08:14:09Z</time>
      </trkpt>
      <trkpt lat="49.19153" lon="6.96521">
        <ele>308</ele>
        <time>2011-07-31T08:14:10Z</time>
      </trkpt>
      <trkpt lat="49.19153" lon="6.96519">
        <ele>308</ele>
        <time>2011-07-31T08:14:11Z</time>
      </trkpt>
      <trkpt lat="49.19154" lon="6.96518">
        <ele>308</ele>
        <time>2011-07-31T08:14:12Z</time>
      </trkpt>
      <trkpt lat="49.19155" lon="6.96515">
        <ele>308</ele>
        <time>2011-07-31T08:14:14Z</time>
      </trkpt>
      <trkpt lat="49.19156" lon="6.96513">
        <ele>308</ele>
        <time>2011-07-31T08:14:15Z</time>
      </trkpt>
      <trkpt lat="49.19155" lon="6.9651">
        <ele>308</ele>
        <time>2011-07-31T08:14:17Z</time>
      </trkpt>
      <trkpt lat="49.19155" lon="6.96508">
        <ele>308</ele>
        <time>2011-07-31T08:14:18Z</time>
      </trkpt>
      <trkpt lat="49.19155" lon="6.96506">
        <ele>308</ele>
        <time>2011-07-31T08:14:19Z</time>
      </trkpt>
      <trkpt lat="49.19155" lon="6.96504">
        <ele>308</ele>
        <time>2011-07-31T08:14:20Z</time>
      </trkpt>
      <trkpt lat="49.19155" lon="6.96502">
        <ele>308</ele>
        <time>2011-07-31T08:14:21Z</time>
      </trkpt>
      <trkpt lat="49.19156" lon="6.965">
        <ele>308</ele>
        <time>2011-07-31T08:14:22Z</time>
      </trkpt>
      <trkpt lat="49.19156" lon="6.96498">
        <ele>308</ele>
        <time>2011-07-31T08:14:23Z</time>
      </trkpt>
      <trkpt lat="49.19156" lon="6.96495">
        <ele>308</ele>
        <time>2011-07-31T08:14:25Z</time>
      </trkpt>
      <trkpt lat="49.19156" lon="6.96493">
        <ele>308</ele>
        <time>2011-07-31T08:14:26Z</time>
      </trkpt>
      <trkpt lat="49.19156" lon="6.96491">
        <ele>308</ele>
        <time>2011-07-31T08:14:27Z</time>
      </trkpt>
      <trkpt lat="49.19156" lon="6.9649">
        <ele>308</ele>
        <time>2011-07-31T08:14:28Z</time>
      </trkpt>
      <trkpt lat="49.19156" lon="6.96488">
        <ele>308</ele>
        <time>2011-07-31T08:14:29Z</time>
      </trkpt>
      <trkpt lat="49.19156" lon="6.96486">
        <ele>308</ele>
        <time>2011-07-31T08:14:30Z</time>
      </trkpt>
      <trkpt lat="49.19157" lon="6.96484">
        <ele>308</ele>
        <time>2011-07-31T08:14:31Z</time>
      </trkpt>
      <trkpt lat="49.19157" lon="6.96482">
        <ele>308</ele>
        <time>2011-07-31T08:14:32Z</time>
      </trkpt>
      <trkpt lat="49.19157" lon="6.96481">
        <ele>308</ele>
        <time>2011-07-31T08:14:33Z</time>
      </trkpt>
      <trkpt lat="49.19156" lon="6.96478">
        <ele>308</ele>
        <time>2011-07-31T08:14:34Z</time>
      </trkpt>
      <trkpt lat="49.19156" lon="6.96476">
        <ele>308</ele>
        <time>2011-07-31T08:14:35Z</time>
      </trkpt>
      <trkpt lat="49.19156" lon="6.96475">
        <ele>308</ele>
        <time>2011-07-31T08:14:36Z</time>
      </trkpt>
      <trkpt lat="49.19156" lon="6.96471">
        <ele>308</ele>
        <time>2011-07-31T08:14:38Z</time>
      </trkpt>
      <trkpt lat="49.19155" lon="6.96469">
        <ele>308</ele>
        <time>2011-07-31T08:14:39Z</time>
      </trkpt>
      <trkpt lat="49.19155" lon="6.96467">
        <ele>308</ele>
        <time>2011-07-31T08:14:40Z</time>
      </trkpt>
      <trkpt lat="49.19156" lon="6.96464">
        <ele>308</ele>
        <time>2011-07-31T08:14:42Z</time>
      </trkpt>
      <trkpt lat="49.19156" lon="6.96462">
        <ele>308</ele>
        <time>2011-07-31T08:14:43Z</time>
      </trkpt>
      <trkpt lat="49.19156" lon="6.96459">
        <ele>308</ele>
        <time>2011-07-31T08:14:45Z</time>
      </trkpt>
      <trkpt lat="49.19156" lon="6.96457">
        <ele>308</ele>
        <time>2011-07-31T08:14:46Z</time>
      </trkpt>
      <trkpt lat="49.19156" lon="6.96454">
        <ele>308</ele>
        <time>2011-07-31T08:14:48Z</time>
      </trkpt>
      <trkpt lat="49.19156" lon="6.96451">
        <ele>308</ele>
        <time>2011-07-31T08:14:50Z</time>
      </trkpt>
      <trkpt lat="49.19155" lon="6.96448">
        <ele>308</ele>
        <time>2011-07-31T08:14:51Z</time>
      </trkpt>
      <trkpt lat="49.19155" lon="6.96446">
        <ele>308</ele>
        <time>2011-07-31T08:14:52Z</time>
      </trkpt>
      <trkpt lat="49.19155" lon="6.96444">
        <ele>308</ele>
        <time>2011-07-31T08:14:53Z</time>
      </trkpt>
      <trkpt lat="49.19154" lon="6.96442">
        <ele>308</ele>
        <time>2011-07-31T08:14:54Z</time>
      </trkpt>
      <trkpt lat="49.19154" lon="6.9644">
        <ele>308</ele>
        <time>2011-07-31T08:14:55Z</time>
      </trkpt>
      <trkpt lat="49.19154" lon="6.96438">
        <ele>308</ele>
        <time>2011-07-31T08:14:56Z</time>
      </trkpt>
      <trkpt lat="49.19155" lon="6.96435">
        <ele>308</ele>
        <time>2011-07-31T08:14:57Z</time>
      </trkpt>
      <trkpt lat="49.19156" lon="6.96433">
        <ele>308</ele>
        <time>2011-07-31T08:14:58Z</time>
      </trkpt>
      <trkpt lat="49.19156" lon="6.96431">
        <ele>308</ele>
        <time>2011-07-31T08:14:59Z</time>
      </trkpt>
      <trkpt lat="49.19157" lon="6.96429">
        <ele>308</ele>
        <time>2011-07-31T08:15:00Z</time>
      </trkpt>
      <trkpt lat="49.19157" lon="6.96427">
        <ele>308</ele>
        <time>2011-07-31T08:15:01Z</time>
      </trkpt>
      <trkpt lat="49.19157" lon="6.96425">
        <ele>308</ele>
        <time>2011-07-31T08:15:02Z</time>
      </trkpt>
      <trkpt lat="49.19157" lon="6.96423">
        <ele>308</ele>
        <time>2011-07-31T08:15:03Z</time>
      </trkpt>
      <trkpt lat="49.19157" lon="6.96421">
        <ele>308</ele>
        <time>2011-07-31T08:15:04Z</time>
      </trkpt>
      <trkpt lat="49.19158" lon="6.96419">
        <ele>308</ele>
        <time>2011-07-31T08:15:05Z</time>
      </trkpt>
      <trkpt lat="49.19158" lon="6.96418">
        <ele>308</ele>
        <time>2011-07-31T08:15:06Z</time>
      </trkpt>
      <trkpt lat="49.19159" lon="6.96416">
        <ele>308</ele>
        <time>2011-07-31T08:15:07Z</time>
      </trkpt>
      <trkpt lat="49.19159" lon="6.96414">
        <ele>308</ele>
        <time>2011-07-31T08:15:08Z</time>
      </trkpt>
      <trkpt lat="49.19159" lon="6.96412">
        <ele>308</ele>
        <time>2011-07-31T08:15:09Z</time>
      </trkpt>
      <trkpt lat="49.1916" lon="6.96409">
        <ele>308</ele>
        <time>2011-07-31T08:15:10Z</time>
      </trkpt>
      <trkpt lat="49.1916" lon="6.96407">
        <ele>308</ele>
        <time>2011-07-31T08:15:11Z</time>
      </trkpt>
      <trkpt lat="49.1916" lon="6.96405">
        <ele>308</ele>
        <time>2011-07-31T08:15:12Z</time>
      </trkpt>
      <trkpt lat="49.1916" lon="6.96403">
        <ele>308</ele>
        <time>2011-07-31T08:15:13Z</time>
      </trkpt>
      <trkpt lat="49.1916" lon="6.96401">
        <ele>308</ele>
        <time>2011-07-31T08:15:14Z</time>
      </trkpt>
      <trkpt lat="49.19161" lon="6.96399">
        <ele>308</ele>
        <time>2011-07-31T08:15:15Z</time>
      </trkpt>
      <trkpt lat="49.19161" lon="6.96397">
        <ele>308</ele>
        <time>2011-07-31T08:15:16Z</time>
      </trkpt>
      <trkpt lat="49.19161" lon="6.96395">
        <ele>308</ele>
        <time>2011-07-31T08:15:17Z</time>
      </trkpt>
      <trkpt lat="49.19161" lon="6.96393">
        <ele>308</ele>
        <time>2011-07-31T08:15:18Z</time>
      </trkpt>
      <trkpt lat="49.19161" lon="6.9639">
        <ele>308</ele>
        <time>2011-07-31T08:15:19Z</time>
      </trkpt>
      <trkpt lat="49.19162" lon="6.96388">
        <ele>308</ele>
        <time>2011-07-31T08:15:20Z</time>
      </trkpt>
      <trkpt lat="49.19162" lon="6.96386">
        <ele>308</ele>
        <time>2011-07-31T08:15:21Z</time>
      </trkpt>
      <trkpt lat="49.19162" lon="6.96384">
        <ele>308</ele>
        <time>2011-07-31T08:15:22Z</time>
      </trkpt>
      <trkpt lat="49.19161" lon="6.96382">
        <ele>308</ele>
        <time>2011-07-31T08:15:23Z</time>
      </trkpt>
      <trkpt lat="49.19161" lon="6.9638">
        <ele>308</ele>
        <time>2011-07-31T08:15:24Z</time>
      </trkpt>
      <trkpt lat="49.19161" lon="6.96377">
        <ele>308</ele>
        <time>2011-07-31T08:15:25Z</time>
      </trkpt>
      <trkpt lat="49.19161" lon="6.96375">
        <ele>308</ele>
        <time>2011-07-31T08:15:26Z</time>
      </trkpt>
      <trkpt lat="49.19161" lon="6.96373">
        <ele>308</ele>
        <time>2011-07-31T08:15:27Z</time>
      </trkpt>
      <trkpt lat="49.19161" lon="6.96371">
        <ele>308</ele>
        <time>2011-07-31T08:15:28Z</time>
      </trkpt>
      <trkpt lat="49.19161" lon="6.96369">
        <ele>308</ele>
        <time>2011-07-31T08:15:29Z</time>
      </trkpt>
      <trkpt lat="49.19161" lon="6.96366">
        <ele>308</ele>
        <time>2011-07-31T08:15:30Z</time>
      </trkpt>
      <trkpt lat="49.19161" lon="6.96364">
        <ele>308</ele>
        <time>2011-07-31T08:15:31Z</time>
      </trkpt>
      <trkpt lat="49.19161" lon="6.96361">
        <ele>308</ele>
        <time>2011-07-31T08:15:32Z</time>
      </trkpt>
      <trkpt lat="49.19161" lon="6.96359">
        <ele>308</ele>
        <time>2011-07-31T08:15:33Z</time>
      </trkpt>
      <trkpt lat="49.19161" lon="6.96356">
        <ele>308</ele>
        <time>2011-07-31T08:15:34Z</time>
      </trkpt>
      <trkpt lat="49.19161" lon="6.96354">
        <ele>308</ele>
        <time>2011-07-31T08:15:35Z</time>
      </trkpt>
      <trkpt lat="49.19161" lon="6.96352">
        <ele>308</ele>
        <time>2011-07-31T08:15:36Z</time>
      </trkpt>
      <trkpt lat="49.19161" lon="6.9635">
        <ele>308</ele>
        <time>2011-07-31T08:15:37Z</time>
      </trkpt>
      <trkpt lat="49.19162" lon="6.96348">
        <ele>308</ele>
        <time>2011-07-31T08:15:38Z</time>
      </trkpt>
      <trkpt lat="49.19162" lon="6.96346">
        <ele>308</ele>
        <time>2011-07-31T08:15:39Z</time>
      </trkpt>
      <trkpt lat="49.19162" lon="6.96344">
        <ele>308</ele>
        <time>2011-07-31T08:15:40Z</time>
      </trkpt>
      <trkpt lat="49.19162" lon="6.96342">
        <ele>308</ele>
        <time>2011-07-31T08:15:41Z</time>
      </trkpt>
      <trkpt lat="49.19162" lon="6.96339">
        <ele>308</ele>
        <time>2011-07-31T08:15:42Z</time>
      </trkpt>
      <trkpt lat="49.19162" lon="6.96337">
        <ele>308</ele>
        <time>2011-07-31T08:15:43Z</time>
      </trkpt>
      <trkpt lat="49.19163" lon="6.96335">
        <ele>308</ele>
        <time>2011-07-31T08:15:44Z</time>
      </trkpt>
      <trkpt lat="49.19163" lon="6.96333">
        <ele>308</ele>
        <time>2011-07-31T08:15:45Z</time>
      </trkpt>
      <trkpt lat="49.19161" lon="6.9633">
        <ele>308</ele>
        <time>2011-07-31T08:15:46Z</time>
      </trkpt>
      <trkpt lat="49.19161" lon="6.96328">
        <ele>308</ele>
        <time>2011-07-31T08:15:47Z</time>
      </trkpt>
      <trkpt lat="49.19161" lon="6.96326">
        <ele>308</ele>
        <time>2011-07-31T08:15:48Z</time>
      </trkpt>
      <trkpt lat="49.19161" lon="6.96324">
        <ele>308</ele>
        <time>2011-07-31T08:15:49Z</time>
      </trkpt>
      <trkpt lat="49.19162" lon="6.96321">
        <ele>308</ele>
        <time>2011-07-31T08:15:50Z</time>
      </trkpt>
      <trkpt lat="49.19162" lon="6.96319">
        <ele>308</ele>
        <time>2011-07-31T08:15:51Z</time>
      </trkpt>
      <trkpt lat="49.19162" lon="6.96317">
        <ele>308</ele>
        <time>2011-07-31T08:15:52Z</time>
      </trkpt>
      <trkpt lat="49.19162" lon="6.96315">
        <ele>308</ele>
        <time>2011-07-31T08:15:53Z</time>
      </trkpt>
      <trkpt lat="49.19161" lon="6.96312">
        <ele>308</ele>
        <time>2011-07-31T08:15:54Z</time>
      </trkpt>
      <trkpt lat="49.1916" lon="6.9631">
        <ele>308</ele>
        <time>2011-07-31T08:15:55Z</time>
      </trkpt>
      <trkpt lat="49.1916" lon="6.96308">
        <ele>308</ele>
        <time>2011-07-31T08:15:56Z</time>
      </trkpt>
      <trkpt lat="49.19161" lon="6.96306">
        <ele>308</ele>
        <time>2011-07-31T08:15:57Z</time>
      </trkpt>
      <trkpt lat="49.19161" lon="6.96304">
        <ele>308</ele>
        <time>2011-07-31T08:15:58Z</time>
      </trkpt>
      <trkpt lat="49.19162" lon="6.96302">
        <ele>308</ele>
        <time>2011-07-31T08:15:59Z</time>
      </trkpt>
      <trkpt lat="49.19162" lon="6.963">
        <ele>308</ele>
        <time>2011-07-31T08:16:00Z</time>
      </trkpt>
      <trkpt lat="49.19162" lon="6.96298">
        <ele>308</ele>
        <time>2011-07-31T08:16:01Z</time>
      </trkpt>
      <trkpt lat="49.19162" lon="6.96296">
        <ele>308</ele>
        <time>2011-07-31T08:16:02Z</time>
      </trkpt>
      <trkpt lat="49.19162" lon="6.96294">
        <ele>308</ele>
        <time>2011-07-31T08:16:03Z</time>
      </trkpt>
      <trkpt lat="49.19163" lon="6.96292">
        <ele>308</ele>
        <time>2011-07-31T08:16:04Z</time>
      </trkpt>
      <trkpt lat="49.19164" lon="6.9629">
        <ele>308</ele>
        <time>2011-07-31T08:16:05Z</time>
      </trkpt>
      <trkpt lat="49.19164" lon="6.96288">
        <ele>308</ele>
        <time>2011-07-31T08:16:06Z</time>
      </trkpt>
      <trkpt lat="49.19164" lon="6.96285">
        <ele>308</ele>
        <time>2011-07-31T08:16:07Z</time>
      </trkpt>
      <trkpt lat="49.19164" lon="6.96284">
        <ele>308</ele>
        <time>2011-07-31T08:16:08Z</time>
      </trkpt>
      <trkpt lat="49.19164" lon="6.9628">
        <ele>309</ele>
        <time>2011-07-31T08:16:10Z</time>
      </trkpt>
      <trkpt lat="49.19164" lon="6.96278">
        <ele>309</ele>
        <time>2011-07-31T08:16:11Z</time>
      </trkpt>
      <trkpt lat="49.19163" lon="6.96275">
        <ele>309</ele>
        <time>2011-07-31T08:16:12Z</time>
      </trkpt>
      <trkpt lat="49.19164" lon="6.96273">
        <ele>309</ele>
        <time>2011-07-31T08:16:13Z</time>
      </trkpt>
      <trkpt lat="49.19164" lon="6.9627">
        <ele>309</ele>
        <time>2011-07-31T08:16:14Z</time>
      </trkpt>
      <trkpt lat="49.19164" lon="6.96268">
        <ele>309</ele>
        <time>2011-07-31T08:16:15Z</time>
      </trkpt>
      <trkpt lat="49.19164" lon="6.96266">
        <ele>309</ele>
        <time>2011-07-31T08:16:16Z</time>
      </trkpt>
      <trkpt lat="49.19164" lon="6.96264">
        <ele>310</ele>
        <time>2011-07-31T08:16:17Z</time>
      </trkpt>
      <trkpt lat="49.19164" lon="6.96262">
        <ele>310</ele>
        <time>2011-07-31T08:16:18Z</time>
      </trkpt>
      <trkpt lat="49.19164" lon="6.96259">
        <ele>310</ele>
        <time>2011-07-31T08:16:19Z</time>
      </trkpt>
      <trkpt lat="49.19164" lon="6.96257">
        <ele>310</ele>
        <time>2011-07-31T08:16:20Z</time>
      </trkpt>
      <trkpt lat="49.19165" lon="6.96255">
        <ele>310</ele>
        <time>2011-07-31T08:16:21Z</time>
      </trkpt>
      <trkpt lat="49.19162" lon="6.96252">
        <ele>310</ele>
        <time>2011-07-31T08:16:22Z</time>
      </trkpt>
      <trkpt lat="49.1916" lon="6.96248">
        <ele>310</ele>
        <time>2011-07-31T08:16:23Z</time>
      </trkpt>
      <trkpt lat="49.1916" lon="6.96246">
        <ele>310</ele>
        <time>2011-07-31T08:16:24Z</time>
      </trkpt>
      <trkpt lat="49.19161" lon="6.96243">
        <ele>310</ele>
        <time>2011-07-31T08:16:25Z</time>
      </trkpt>
      <trkpt lat="49.19161" lon="6.96242">
        <ele>310</ele>
        <time>2011-07-31T08:16:26Z</time>
      </trkpt>
      <trkpt lat="49.19161" lon="6.96239">
        <ele>310</ele>
        <time>2011-07-31T08:16:27Z</time>
      </trkpt>
      <trkpt lat="49.19161" lon="6.96237">
        <ele>310</ele>
        <time>2011-07-31T08:16:28Z</time>
      </trkpt>
      <trkpt lat="49.19162" lon="6.96235">
        <ele>311</ele>
        <time>2011-07-31T08:16:29Z</time>
      </trkpt>
      <trkpt lat="49.19162" lon="6.96233">
        <ele>311</ele>
        <time>2011-07-31T08:16:30Z</time>
      </trkpt>
      <trkpt lat="49.19162" lon="6.96232">
        <ele>311</ele>
        <time>2011-07-31T08:16:31Z</time>
      </trkpt>
      <trkpt lat="49.19162" lon="6.9623">
        <ele>311</ele>
        <time>2011-07-31T08:16:32Z</time>
      </trkpt>
      <trkpt lat="49.19162" lon="6.96228">
        <ele>311</ele>
        <time>2011-07-31T08:16:33Z</time>
      </trkpt>
      <trkpt lat="49.19163" lon="6.96226">
        <ele>311</ele>
        <time>2011-07-31T08:16:34Z</time>
      </trkpt>
      <trkpt lat="49.19163" lon="6.96224">
        <ele>311</ele>
        <time>2011-07-31T08:16:35Z</time>
      </trkpt>
      <trkpt lat="49.19163" lon="6.96222">
        <ele>311</ele>
        <time>2011-07-31T08:16:36Z</time>
      </trkpt>
      <trkpt lat="49.19163" lon="6.9622">
        <ele>311</ele>
        <time>2011-07-31T08:16:37Z</time>
      </trkpt>
      <trkpt lat="49.19163" lon="6.96217">
        <ele>311</ele>
        <time>2011-07-31T08:16:38Z</time>
      </trkpt>
      <trkpt lat="49.19163" lon="6.96215">
        <ele>311</ele>
        <time>2011-07-31T08:16:39Z</time>
      </trkpt>
      <trkpt lat="49.19163" lon="6.96213">
        <ele>311</ele>
        <time>2011-07-31T08:16:40Z</time>
      </trkpt>
      <trkpt lat="49.19164" lon="6.96212">
        <ele>311</ele>
        <time>2011-07-31T08:16:41Z</time>
      </trkpt>
      <trkpt lat="49.19164" lon="6.96208">
        <ele>311</ele>
        <time>2011-07-31T08:16:43Z</time>
      </trkpt>
      <trkpt lat="49.19164" lon="6.96207">
        <ele>311</ele>
        <time>2011-07-31T08:16:44Z</time>
      </trkpt>
      <trkpt lat="49.19164" lon="6.96205">
        <ele>311</ele>
        <time>2011-07-31T08:16:45Z</time>
      </trkpt>
      <trkpt lat="49.19164" lon="6.96203">
        <ele>311</ele>
        <time>2011-07-31T08:16:46Z</time>
      </trkpt>
      <trkpt lat="49.19164" lon="6.96201">
        <ele>311</ele>
        <time>2011-07-31T08:16:47Z</time>
      </trkpt>
      <trkpt lat="49.19164" lon="6.96198">
        <ele>312</ele>
        <time>2011-07-31T08:16:48Z</time>
      </trkpt>
      <trkpt lat="49.19164" lon="6.96196">
        <ele>312</ele>
        <time>2011-07-31T08:16:49Z</time>
      </trkpt>
      <trkpt lat="49.19164" lon="6.96194">
        <ele>312</ele>
        <time>2011-07-31T08:16:50Z</time>
      </trkpt>
      <trkpt lat="49.19165" lon="6.96192">
        <ele>312</ele>
        <time>2011-07-31T08:16:51Z</time>
      </trkpt>
      <trkpt lat="49.19166" lon="6.96189">
        <ele>313</ele>
        <time>2011-07-31T08:16:53Z</time>
      </trkpt>
      <trkpt lat="49.19166" lon="6.96187">
        <ele>313</ele>
        <time>2011-07-31T08:16:54Z</time>
      </trkpt>
      <trkpt lat="49.19166" lon="6.96184">
        <ele>313</ele>
        <time>2011-07-31T08:16:55Z</time>
      </trkpt>
      <trkpt lat="49.19166" lon="6.96183">
        <ele>313</ele>
        <time>2011-07-31T08:16:56Z</time>
      </trkpt>
      <trkpt lat="49.19167" lon="6.96181">
        <ele>313</ele>
        <time>2011-07-31T08:16:57Z</time>
      </trkpt>
      <trkpt lat="49.19167" lon="6.96179">
        <ele>313</ele>
        <time>2011-07-31T08:16:58Z</time>
      </trkpt>
      <trkpt lat="49.19168" lon="6.96176">
        <ele>313</ele>
        <time>2011-07-31T08:17:00Z</time>
      </trkpt>
      <trkpt lat="49.19169" lon="6.96173">
        <ele>313</ele>
        <time>2011-07-31T08:17:02Z</time>
      </trkpt>
      <trkpt lat="49.19169" lon="6.96171">
        <ele>313</ele>
        <time>2011-07-31T08:17:03Z</time>
      </trkpt>
      <trkpt lat="49.1917" lon="6.96169">
        <ele>313</ele>
        <time>2011-07-31T08:17:04Z</time>
      </trkpt>
      <trkpt lat="49.1917" lon="6.96168">
        <ele>313</ele>
        <time>2011-07-31T08:17:05Z</time>
      </trkpt>
      <trkpt lat="49.19171" lon="6.96166">
        <ele>313</ele>
        <time>2011-07-31T08:17:06Z</time>
      </trkpt>
      <trkpt lat="49.19172" lon="6.96164">
        <ele>313</ele>
        <time>2011-07-31T08:17:07Z</time>
      </trkpt>
      <trkpt lat="49.19172" lon="6.96162">
        <ele>314</ele>
        <time>2011-07-31T08:17:08Z</time>
      </trkpt>
      <trkpt lat="49.19173" lon="6.9616">
        <ele>314</ele>
        <time>2011-07-31T08:17:09Z</time>
      </trkpt>
      <trkpt lat="49.19174" lon="6.96157">
        <ele>314</ele>
        <time>2011-07-31T08:17:11Z</time>
      </trkpt>
      <trkpt lat="49.19174" lon="6.96155">
        <ele>314</ele>
        <time>2011-07-31T08:17:12Z</time>
      </trkpt>
      <trkpt lat="49.19173" lon="6.96152">
        <ele>314</ele>
        <time>2011-07-31T08:17:13Z</time>
      </trkpt>
      <trkpt lat="49.19173" lon="6.96149">
        <ele>314</ele>
        <time>2011-07-31T08:17:14Z</time>
      </trkpt>
      <trkpt lat="49.19172" lon="6.96147">
        <ele>314</ele>
        <time>2011-07-31T08:17:15Z</time>
      </trkpt>
      <trkpt lat="49.19171" lon="6.96145">
        <ele>314</ele>
        <time>2011-07-31T08:17:17Z</time>
      </trkpt>
      <trkpt lat="49.1917" lon="6.96144">
        <ele>314</ele>
        <time>2011-07-31T08:17:18Z</time>
      </trkpt>
      <trkpt lat="49.19168" lon="6.96143">
        <ele>314</ele>
        <time>2011-07-31T08:17:19Z</time>
      </trkpt>
      <trkpt lat="49.19167" lon="6.96141">
        <ele>314</ele>
        <time>2011-07-31T08:17:20Z</time>
      </trkpt>
      <trkpt lat="49.19166" lon="6.9614">
        <ele>314</ele>
        <time>2011-07-31T08:17:21Z</time>
      </trkpt>
      <trkpt lat="49.19164" lon="6.96139">
        <ele>314</ele>
        <time>2011-07-31T08:17:22Z</time>
      </trkpt>
      <trkpt lat="49.19163" lon="6.96138">
        <ele>314</ele>
        <time>2011-07-31T08:17:23Z</time>
      </trkpt>
      <trkpt lat="49.19162" lon="6.96136">
        <ele>314</ele>
        <time>2011-07-31T08:17:24Z</time>
      </trkpt>
      <trkpt lat="49.1916" lon="6.96134">
        <ele>314</ele>
        <time>2011-07-31T08:17:26Z</time>
      </trkpt>
      <trkpt lat="49.19159" lon="6.96132">
        <ele>314</ele>
        <time>2011-07-31T08:17:28Z</time>
      </trkpt>
      <trkpt lat="49.19157" lon="6.96132">
        <ele>314</ele>
        <time>2011-07-31T08:17:30Z</time>
      </trkpt>
      <trkpt lat="49.19161" lon="6.96135">
        <ele>318</ele>
        <time>2011-07-31T08:17:37Z</time>
      </trkpt>
      <trkpt lat="49.19163" lon="6.96134">
        <ele>319</ele>
        <time>2011-07-31T08:17:38Z</time>
      </trkpt>
      <trkpt lat="49.19164" lon="6.96134">
        <ele>320</ele>
        <time>2011-07-31T08:17:39Z</time>
      </trkpt>
      <trkpt lat="49.1917" lon="6.96133">
        <ele>329</ele>
        <time>2011-07-31T08:17:49Z</time>
      </trkpt>
    </trkseg>
  </trk>
</gpx>